Temperature / Humidity / Barometric Pressure Sensor Readings

 Timestamp   Temperature°F   Humidity %   Pressure InHg   Heat Index°F   Dew Point°F 
 2017-12-07 18:00:20  81.41   40.22   29.23   69.45   81.14 
 2017-12-07 17:59:49  81.34   40.82   29.23   69.50   81.09 
 2017-12-07 17:59:18  81.30   40.30   29.23   69.36   81.03 
 2017-12-07 17:58:47  81.41   40.26   29.23   69.46   81.14 
 2017-12-07 17:58:16  81.37   40.06   29.23   69.39   81.09 
 2017-12-07 17:57:46  81.34   40.17   29.23   69.37   81.06 
 2017-12-07 17:57:15  81.36   40.48   29.23   69.45   81.09 
 2017-12-07 17:56:44  81.36   40.64   29.23   69.48   81.10 
 2017-12-07 17:56:13  81.55   40.34   29.24   69.62   81.31 
 2017-12-07 17:55:42  81.39   40.05   29.24   69.40   81.11 
 2017-12-07 17:55:12  81.43   40.33   29.24   69.49   81.17 
 2017-12-07 17:54:41  81.36   40.39   29.24   69.43   81.09 
 2017-12-07 17:54:10  81.30   40.39   29.24   69.38   81.03 
 2017-12-07 17:53:39  81.27   40.54   29.24   69.37   81.00 
 2017-12-07 17:53:09  81.23   40.48   29.24   69.33   80.96 
 2017-12-07 17:52:38  81.09   40.44   29.24   69.17   80.80 
 2017-12-07 17:52:07  81.00   40.65   29.24   69.13   80.71 
 2017-12-07 17:51:37  80.96   40.50   29.24   69.06   80.66 
 2017-12-07 17:51:06  80.98   40.45   29.24   69.07   80.68 
 2017-12-07 17:50:35  80.94   40.36   29.24   69.01   80.63 
 2017-12-07 17:50:04  80.87   40.73   29.24   69.02   80.57 
 2017-12-07 17:49:34  80.87   40.69   29.24   69.01   80.57 
 2017-12-07 17:49:03  80.89   40.64   29.24   69.02   80.59 
 2017-12-07 17:48:32  80.89   40.42   29.24   68.97   80.58 
 2017-12-07 17:48:01  80.91   40.32   29.24   68.97   80.59 
 2017-12-07 17:47:30  80.85   40.33   29.24   68.92   80.53 
 2017-12-07 17:47:00  80.82   40.39   29.24   68.89   80.50 
 2017-12-07 17:46:29  80.85   40.96   29.24   69.04   80.56 
 2017-12-07 17:45:58  80.87   40.50   29.24   68.97   80.56 
 2017-12-07 17:45:28  80.87   40.47   29.24   68.96   80.56 
 2017-12-07 17:44:57  80.80   40.63   29.24   68.92   80.49 
 2017-12-07 17:44:26  80.69   41.14   29.24   68.92   80.39 
 2017-12-07 17:43:55  80.51   41.66   29.25   68.84   80.22 
 2017-12-07 17:31:10  81.14   40.39   29.25   69.22   80.85 
 2017-12-07 17:30:39  81.12   40.79   29.24   69.28   80.85 
 2017-12-07 17:30:08  81.12   41.68   29.24   69.46   80.89 
 2017-12-07 17:29:38  81.07   40.82   29.25   69.23   80.79 
 2017-12-07 17:29:07  81.05   41.11   29.25   69.27   80.79 
 2017-12-07 17:28:36  80.92   41.00   29.24   69.12   80.64 
 2017-12-07 17:27:26  80.98   41.15   29.25   69.21   80.71 
 2017-12-07 17:26:55  80.96   41.87   29.24   69.33   80.72 
 2017-12-07 17:26:24  80.96   40.96   29.24   69.15   80.68 
 2017-12-07 17:25:53  80.94   40.73   29.24   69.09   80.65 
 2017-12-07 17:25:23  80.94   41.29   29.24   69.20   80.68 
 2017-12-07 17:24:52  80.89   40.87   29.24   69.06   80.60 
 2017-12-07 17:24:21  80.87   40.89   29.24   69.05   80.58 
 2017-12-07 17:23:50  80.83   41.22   29.24   69.08   80.55 
 2017-12-07 17:23:19  80.91   41.29   29.24   69.16   80.64 
 2017-12-07 17:22:49  80.83   41.03   29.24   69.04   80.55 
 2017-12-07 17:22:18  80.69   41.50   29.24   68.99   80.41 
 2017-12-07 17:21:48  80.51   43.01   29.24   69.11   80.28 
 2017-12-07 17:20:08  80.64   41.74   29.24   68.98   80.36 
 2017-12-07 17:19:37  80.64   41.37   29.24   68.91   80.34 
 2017-12-07 17:19:06  80.58   41.68   29.24   68.92   80.30 
 2017-11-14 05:57:27  0.00   0.00   0.00   0.00   0.00 
 2017-11-11 12:51:54  26.50   59.40   0.00   0.00   0.00 
 2017-11-11 12:51:23  26.50   62.80   0.00   0.00   0.00 
 2017-11-11 12:50:51  26.40   63.80   0.00   0.00   0.00 
 2017-11-11 12:50:20  26.00   61.40   0.00   0.00   0.00 
 2017-11-11 12:49:48  25.70   59.00   0.00   0.00   0.00 
 2017-11-11 12:49:17  25.30   57.30   0.00   0.00   0.00 
 2017-11-11 12:48:45  25.00   53.50   0.00   0.00   0.00 
 2017-11-11 12:48:14  25.20   50.40   0.00   0.00   0.00 
 2017-11-11 12:47:40  25.50   52.20   0.00   0.00   0.00 
 2017-11-11 12:47:09  0.00   0.00   0.00   0.00   0.00 
 2017-11-11 12:46:37  26.10   56.00   0.00   0.00   0.00 
 2017-11-11 12:46:06  26.30   58.70   0.00   0.00   0.00 
 2017-11-11 12:45:34  26.40   62.10   0.00   0.00   0.00 
 2017-11-11 12:45:02  26.10   63.30   0.00   0.00   0.00 
 2017-11-11 12:44:30  25.90   58.40   0.00   0.00   0.00 
 2017-11-11 12:43:55  25.50   55.20   0.00   0.00   0.00 
 2017-11-11 12:43:22  25.30   52.70   0.00   0.00   0.00 
 2017-11-11 12:42:48  25.20   49.90   0.00   0.00   0.00 
 2017-11-11 12:42:16  25.20   49.00   0.00   0.00   0.00 
 2017-11-11 12:41:45  25.60   50.90   0.00   0.00   0.00 
 2017-11-11 12:41:13  25.90   52.30   0.00   0.00   0.00 
 2017-11-11 12:40:41  26.30   54.20   0.00   0.00   0.00 
 2017-11-11 12:40:09  0.00   0.00   0.00   0.00   0.00 
 2017-11-11 12:39:37  27.20   57.70   0.00   0.00   0.00 
 2017-11-11 12:39:06  27.70   60.10   0.00   0.00   0.00 
 2017-11-11 12:38:34  28.10   64.00   0.00   0.00   0.00 
 2017-11-11 12:38:00  28.90   68.50   0.00   0.00   0.00 
 2017-11-11 12:36:46  29.60   76.60   0.00   0.00   0.00 
 2017-11-11 12:36:14  29.70   77.20   0.00   0.00   0.00 
 2017-11-11 12:35:42  29.70   76.50   0.00   0.00   0.00 
 2017-11-11 12:35:10  29.80   76.50   0.00   0.00   0.00 
 2017-11-11 12:34:39  29.60   76.40   0.00   0.00   0.00 
 2017-11-11 12:34:07  29.60   76.20   0.00   0.00   0.00 
 2017-11-11 12:33:36  29.60   76.10   0.00   0.00   0.00 
 2017-11-11 12:33:04  29.60   75.80   0.00   0.00   0.00 
 2017-11-11 12:32:33  29.60   75.60   0.00   0.00   0.00 
 2017-11-11 12:32:01  29.60   75.60   0.00   0.00   0.00 
 2017-11-11 12:31:30  29.50   75.40   0.00   0.00   0.00 
 2017-11-11 12:30:58  29.50   75.20   0.00   0.00   0.00 
 2017-11-11 12:30:27  29.60   75.10   0.00   0.00   0.00 
 2017-11-11 12:29:55  29.50   75.00   0.00   0.00   0.00 
 2017-11-11 12:29:23  29.50   74.60   0.00   0.00   0.00 
 2017-11-11 12:28:51  29.50   74.40   0.00   0.00   0.00 
 2017-11-11 12:28:20  29.50   74.30   0.00   0.00   0.00 
 2017-11-11 12:27:48  29.50   74.10   0.00   0.00   0.00 
 2017-11-11 12:27:16  29.50   73.70   0.00   0.00   0.00 
 2017-11-11 12:26:45  29.50   73.60   0.00   0.00   0.00 
 2017-11-11 12:26:13  29.50   73.20   0.00   0.00   0.00 
 2017-11-11 12:25:42  29.50   73.00   0.00   0.00   0.00 
 2017-11-11 12:25:10  29.50   72.80   0.00   0.00   0.00 
 2017-11-11 12:24:39  29.50   72.60   0.00   0.00   0.00 
 2017-11-11 12:24:07  29.50   72.30   0.00   0.00   0.00 
 2017-11-11 12:23:35  29.40   72.00   0.00   0.00   0.00 
 2017-11-11 12:23:04  29.40   71.80   0.00   0.00   0.00 
 2017-11-11 12:22:32  29.50   71.50   0.00   0.00   0.00 
 2017-11-11 12:22:00  29.40   71.30   0.00   0.00   0.00 
 2017-11-11 12:21:29  29.40   71.10   0.00   0.00   0.00 
 2017-11-11 12:20:57  29.40   70.90   0.00   0.00   0.00 
 2017-11-11 12:20:26  29.40   70.60   0.00   0.00   0.00 
 2017-11-11 12:19:54  29.50   70.40   0.00   0.00   0.00 
 2017-11-11 12:19:23  29.50   70.10   0.00   0.00   0.00 
 2017-11-11 12:18:51  29.40   70.60   0.00   0.00   0.00 
 2017-11-11 12:18:19  0.00   0.00   0.00   0.00   0.00 
 2017-11-11 11:48:53  27.80   55.90   0.00   0.00   0.00 
 2017-11-11 11:48:22  27.80   55.90   0.00   0.00   0.00 
 2017-11-11 11:47:50  0.00   0.00   0.00   0.00   0.00 
 2017-11-11 11:38:27  25.50   69.90   0.00   0.00   0.00 
 2017-11-11 11:37:54  25.60   73.80   0.00   0.00   0.00 
 2017-11-11 11:37:21  25.50   70.70   0.00   0.00   0.00 
 2017-11-11 11:36:49  25.40   66.40   0.00   0.00   0.00 
 2017-11-11 11:36:18  25.20   60.70   0.00   0.00   0.00 
 2017-11-11 11:35:46  25.10   57.50   0.00   0.00   0.00 
 2017-11-11 11:35:14  25.10   53.50   0.00   0.00   0.00 
 2017-11-11 11:34:42  25.20   51.50   0.00   0.00   0.00 
 2017-11-11 11:34:11  25.40   52.00   0.00   0.00   0.00 
 2017-11-11 11:33:39  25.60   54.70   0.00   0.00   0.00 
 2017-11-11 11:33:08  25.60   57.80   0.00   0.00   0.00 
 2017-11-11 11:32:36  25.70   62.80   0.00   0.00   0.00 
 2017-11-11 11:32:04  25.70   69.00   0.00   0.00   0.00 
 2017-11-11 11:31:31  25.60   73.10   0.00   0.00   0.00 
 2017-11-11 11:31:00  25.50   69.90   0.00   0.00   0.00 
 2017-11-11 11:30:28  25.40   65.80   0.00   0.00   0.00 
 2017-11-11 11:29:57  25.20   61.40   0.00   0.00   0.00 
 2017-11-11 11:29:25  25.20   57.70   0.00   0.00   0.00 
 2017-11-11 11:28:53  25.20   53.60   0.00   0.00   0.00 
 2017-11-11 11:28:21  25.10   50.90   0.00   0.00   0.00 
 2017-11-11 11:27:49  25.60   50.70   0.00   0.00   0.00 
 2017-11-11 11:27:17  0.00   0.00   0.00   0.00   0.00 
 2017-11-11 11:08:21  25.70   60.40   0.00   0.00   0.00 
 2017-11-11 11:07:49  27.20   65.50   0.00   0.00   0.00 
 2017-11-11 11:07:18  0.00   0.00   0.00   0.00   0.00 
 2017-11-11 11:03:21  26.60   59.50   0.00   0.00   0.00 
 2017-11-11 11:02:48  27.10   63.90   0.00   0.00   0.00 
 2017-11-11 11:02:17  27.50   68.30   0.00   0.00   0.00 
 2017-11-11 11:01:45  27.90   72.00   0.00   0.00   0.00 
 2017-11-11 11:01:13  28.20   78.60   0.00   0.00   0.00 
 2017-11-11 11:00:41  27.10   77.90   0.00   0.00   0.00 
 2017-11-11 11:00:10  28.10   78.30   0.00   0.00   0.00 
 2017-11-11 10:59:38  28.00   79.00   0.00   0.00   0.00 
 2017-11-11 10:59:05  28.00   79.70   0.00   0.00   0.00 
 2017-11-11 10:58:33  27.80   79.90   0.00   0.00   0.00 
 2017-11-11 10:58:02  27.80   80.10   0.00   0.00   0.00 
 2017-11-11 10:57:31  27.70   80.90   0.00   0.00   0.00 
 2017-11-11 10:56:59  27.70   81.30   0.00   0.00   0.00 
 2017-11-11 10:56:27  0.00   0.00   0.00   0.00   0.00 
 2017-11-11 10:55:56  27.60   80.60   0.00   0.00   0.00 
 2017-11-11 10:55:24  27.50   80.40   0.00   0.00   0.00 
 2017-11-11 10:54:52  27.40   79.30   0.00   0.00   0.00 
 2017-11-11 10:54:21  27.30   78.90   0.00   0.00   0.00 
 2017-11-11 10:53:50  27.20   78.20   0.00   0.00   0.00 
 2017-11-11 10:53:18  27.10   78.20   0.00   0.00   0.00 
 2017-11-11 10:52:46  27.00   77.50   0.00   0.00   0.00 
 2017-11-11 10:52:15  26.90   76.80   0.00   0.00   0.00 
 2017-11-11 10:51:43  26.70   76.60   0.00   0.00   0.00 
 2017-11-11 10:51:11  26.50   75.00   0.00   0.00   0.00 
 2017-11-11 10:50:39  26.40   71.70   0.00   0.00   0.00 
 2017-11-11 10:50:07  26.20   61.70   0.00   0.00   0.00 
 2017-11-11 10:49:35  26.00   57.30   0.00   0.00   0.00 
 2017-11-11 10:49:03  25.90   57.10   0.00   0.00   0.00 
 2017-11-11 10:48:32  25.70   57.10   0.00   0.00   0.00 
 2017-11-11 10:48:00  25.60   56.90   0.00   0.00   0.00 
 2017-11-11 10:47:28  25.50   56.70   0.00   0.00   0.00 
 2017-11-11 10:46:57  25.40   56.60   0.00   0.00   0.00 
 2017-11-11 10:46:25  25.30   56.40   0.00   0.00   0.00 
 2017-11-11 10:45:54  25.20   55.00   0.00   0.00   0.00 
 2017-11-11 10:45:22  25.20   52.50   0.00   0.00   0.00 
 2017-11-11 10:44:51  25.30   51.80   0.00   0.00   0.00 
 2017-11-11 10:44:19  25.50   54.00   0.00   0.00   0.00 
 2017-11-11 10:43:48  25.70   57.50   0.00   0.00   0.00 
 2017-11-11 10:43:16  25.80   62.20   0.00   0.00   0.00 
 2017-11-11 10:42:44  25.90   69.20   0.00   0.00   0.00 
 2017-11-11 10:42:13  25.80   77.60   0.00   0.00   0.00 
 2017-11-11 10:41:41  25.80   76.70   0.00   0.00   0.00 
 2017-11-11 10:41:10  25.70   73.50   0.00   0.00   0.00 
 2017-11-11 10:40:38  25.60   70.70   0.00   0.00   0.00 
 2017-11-11 10:40:07  25.40   66.70   0.00   0.00   0.00 
 2017-11-11 10:39:35  25.40   62.30   0.00   0.00   0.00 
 2017-11-11 10:39:04  25.30   59.40   0.00   0.00   0.00 
 2017-11-11 10:38:32  25.30   56.20   0.00   0.00   0.00 
 2017-11-11 10:38:00  25.30   52.90   0.00   0.00   0.00 
 2017-11-11 10:37:29  25.40   51.80   0.00   0.00   0.00 
 2017-11-11 10:36:57  25.60   53.40   0.00   0.00   0.00 
 2017-11-11 10:36:25  25.70   56.50   0.00   0.00   0.00 
 2017-11-11 10:35:53  25.90   60.20   0.00   0.00   0.00 
 2017-11-11 10:35:22  25.90   67.40   0.00   0.00   0.00 
 2017-11-11 10:34:50  25.90   74.90   0.00   0.00   0.00 
 2017-11-11 10:34:19  25.90   77.00   0.00   0.00   0.00 
 2017-11-11 10:33:47  25.80   74.10   0.00   0.00   0.00 
 2017-11-11 10:33:15  25.60   70.10   0.00   0.00   0.00 
 2017-11-11 10:32:44  25.60   68.60   0.00   0.00   0.00 
 2017-11-11 10:32:12  25.50   62.60   0.00   0.00   0.00 
 2017-11-11 10:31:41  25.40   59.00   0.00   0.00   0.00 
 2017-11-11 10:31:09  25.40   56.30   0.00   0.00   0.00 
 2017-11-11 10:30:38  25.30   53.50   0.00   0.00   0.00 
 2017-11-11 10:30:06  25.40   51.60   0.00   0.00   0.00 
 2017-11-11 10:29:35  25.60   52.30   0.00   0.00   0.00 
 2017-11-11 10:29:03  25.80   55.10   0.00   0.00   0.00 
 2017-11-11 10:28:31  25.90   58.80   0.00   0.00   0.00 
 2017-11-11 10:28:00  25.90   63.50   0.00   0.00   0.00 
 2017-11-11 10:27:28  0.00   0.00   0.00   0.00   0.00 
 2017-11-11 10:26:56  25.90   72.30   0.00   0.00   0.00 
 2017-11-11 10:26:22  25.80   70.10   0.00   0.00   0.00 
 2017-11-11 10:25:51  25.70   66.30   0.00   0.00   0.00 
 2017-11-11 10:25:19  25.70   63.60   0.00   0.00   0.00 
 2017-11-11 10:24:48  25.60   59.50   0.00   0.00   0.00 
 2017-11-11 10:24:16  25.50   56.80   0.00   0.00   0.00 
 2017-11-11 10:23:44  25.50   53.50   0.00   0.00   0.00 
 2017-11-11 10:23:13  25.50   50.80   0.00   0.00   0.00 
 2017-11-11 10:22:39  25.70   50.90   0.00   0.00   0.00 
 2017-11-11 10:22:08  25.80   52.50   0.00   0.00   0.00 
 2017-11-11 10:21:36  26.00   55.60   0.00   0.00   0.00 
 2017-11-11 10:21:04  26.00   59.10   0.00   0.00   0.00 
 2017-11-11 10:20:32  26.10   63.80   0.00   0.00   0.00 
 2017-11-11 10:20:01  26.10   72.10   0.00   0.00   0.00 
 2017-11-11 10:19:30  26.00   70.20   0.00   0.00   0.00 
 2017-11-11 10:18:58  26.00   67.30   0.00   0.00   0.00 
 2017-11-11 10:18:26  25.90   62.20   0.00   0.00   0.00 
 2017-11-11 10:17:54  25.70   59.00   0.00   0.00   0.00 
 2017-11-11 10:17:22  0.00   0.00   0.00   0.00   0.00 
 2017-11-11 10:16:51  25.60   54.60   0.00   0.00   0.00 
 2017-11-11 10:16:18  25.60   51.50   0.00   0.00   0.00 
 2017-11-11 10:15:46  25.70   49.90   0.00   0.00   0.00 
 2017-11-11 10:15:15  25.70   50.50   0.00   0.00   0.00 
 2017-11-11 10:14:43  25.90   53.00   0.00   0.00   0.00 
 2017-11-11 10:14:11  0.00   0.00   0.00   0.00   0.00 
 2017-11-11 09:46:48  28.00   53.30   0.00   0.00   0.00 
 2017-11-11 09:46:16  28.40   51.60   0.00   0.00   0.00 
 2017-11-11 09:45:44  28.90   48.70   0.00   0.00   0.00 
 2017-11-11 09:45:13  29.50   45.20   0.00   0.00   0.00 
 2017-11-11 09:44:40  30.30   42.60   0.00   0.00   0.00 
 2017-11-11 09:44:08  31.00   45.90   0.00   0.00   0.00 
 2017-11-11 09:43:37  30.00   56.10   0.00   0.00   0.00 
 2017-11-11 09:43:05  26.80   60.90   0.00   0.00   0.00 
 2017-11-11 09:42:33  26.10   52.60   0.00   0.00   0.00 
 2017-11-11 09:42:02  26.20   55.50   0.00   0.00   0.00 
 2017-11-11 09:41:30  26.20   57.50   0.00   0.00   0.00 
 2017-11-11 09:40:58  26.20   60.20   0.00   0.00   0.00 
 2017-11-11 09:40:27  26.10   63.10   0.00   0.00   0.00 
 2017-11-11 09:39:55  26.00   60.20   0.00   0.00   0.00 
 2017-11-11 09:39:24  25.90   57.80   0.00   0.00   0.00 
 2017-11-11 09:38:52  25.80   55.20   0.00   0.00   0.00 
 2017-11-11 09:38:20  25.60   52.70   0.00   0.00   0.00 
 2017-11-11 09:37:49  25.50   51.90   0.00   0.00   0.00 
 2017-11-11 09:37:17  0.00   0.00   0.00   0.00   0.00 
 2017-11-11 09:24:45  25.90   52.00   0.00   0.00   0.00 
 2017-11-11 09:24:44  25.90   52.00   0.00   0.00   0.00 
 2017-11-11 09:24:43  25.90   52.20   0.00   0.00   0.00 
 2017-11-11 09:24:42  25.90   52.20   0.00   0.00   0.00 
 2017-11-11 09:24:40  25.90   52.30   0.00   0.00   0.00 
 2017-11-11 09:24:39  25.90   52.30   0.00   0.00   0.00 
 2017-11-11 09:24:38  25.90   52.40   0.00   0.00   0.00 
 2017-11-11 09:24:37  25.90   52.40   0.00   0.00   0.00 
 2017-11-11 09:24:36  25.90   52.50   0.00   0.00   0.00 
 2017-11-11 09:24:35  25.90   52.50   0.00   0.00   0.00 
 2017-11-11 09:24:33  25.90   52.70   0.00   0.00   0.00 
 2017-11-11 09:24:32  25.90   52.70   0.00   0.00   0.00 
 2017-11-11 09:24:31  25.90   52.80   0.00   0.00   0.00 
 2017-11-11 09:24:30  25.90   52.80   0.00   0.00   0.00 
 2017-11-11 09:24:29  25.90   52.90   0.00   0.00   0.00 
 2017-11-11 09:24:28  25.90   52.90   0.00   0.00   0.00 
 2017-11-11 09:24:27  25.90   53.10   0.00   0.00   0.00 
 2017-11-11 09:24:26  25.90   53.10   0.00   0.00   0.00 
 2017-11-11 09:24:25  26.00   53.30   0.00   0.00   0.00 
 2017-11-11 09:24:24  26.00   53.30   0.00   0.00   0.00 
 2017-11-11 09:24:22  25.90   53.40   0.00   0.00   0.00 
 2017-11-11 09:24:21  25.90   53.40   0.00   0.00   0.00 
 2017-11-11 09:24:20  26.00   53.50   0.00   0.00   0.00 
 2017-11-11 09:24:19  26.00   53.50   0.00   0.00   0.00 
 2017-11-11 09:24:18  25.90   53.50   0.00   0.00   0.00 
 2017-11-11 09:24:17  25.90   53.50   0.00   0.00   0.00 
 2017-11-11 09:24:16  26.00   53.70   0.00   0.00   0.00 
 2017-11-11 09:24:14  26.00   53.70   0.00   0.00   0.00 
 2017-11-11 09:24:13  26.00   53.80   0.00   0.00   0.00 
 2017-11-11 09:24:12  26.00   53.80   0.00   0.00   0.00 
 2017-11-11 09:24:11  26.00   54.00   0.00   0.00   0.00 
 2017-11-11 09:24:10  26.00   54.00   0.00   0.00   0.00 
 2017-11-11 09:24:08  26.10   54.80   0.00   0.00   0.00 
 2017-11-11 09:24:07  26.10   54.80   0.00   0.00   0.00 
 2017-11-11 09:24:06  26.10   54.50   0.00   0.00   0.00 
 2017-11-11 09:24:05  26.10   54.50   0.00   0.00   0.00 
 2017-11-11 09:24:03  26.10   54.60   0.00   0.00   0.00 
 2017-11-11 09:24:02  26.10   54.60   0.00   0.00   0.00 
 2017-11-11 09:24:00  26.10   54.80   0.00   0.00   0.00 
 2017-11-11 09:23:59  26.10   54.80   0.00   0.00   0.00 
 2017-11-11 09:23:58  26.20   54.90   0.00   0.00   0.00 
 2017-11-11 09:23:57  26.20   54.90   0.00   0.00   0.00 
 2017-11-11 09:23:56  26.20   55.10   0.00   0.00   0.00 
 2017-11-11 09:23:55  26.20   55.10   0.00   0.00   0.00 
 2017-11-11 09:23:54  26.20   55.40   0.00   0.00   0.00 
 2017-11-11 09:23:53  26.20   55.40   0.00   0.00   0.00 
 2017-11-11 09:23:51  26.70   60.60   0.00   0.00   0.00 
 2017-11-11 09:18:47  0.00   0.00   0.00   0.00   0.00 
 2017-11-09 09:08:32  75.00   60.00   30.00   0.00   0.00 
 2017-11-08 15:39:02  35.00   35.00   35.00   0.00   0.00 
 2017-11-08 13:10:58  35.00   35.00   35.00   0.00   0.00 
 2017-11-08 10:52:09  10.00   10.00   10.00   0.00   0.00 
 2017-11-08 10:23:00  30.00   30.00   30.00   0.00   0.00 
 2017-11-08 10:17:37  40.00   75.00   75.00   0.00   0.00 
 2017-11-08 10:14:03  75.00   75.00   75.00   0.00   0.00 
 2017-11-08 06:56:33  7.00   7.00   7.00   0.00   0.00 
 2017-11-08 06:52:02  12.00   12.00   12.00   0.00   0.00 
 2017-11-08 06:51:48  10.00   10.00   10.00   0.00   0.00 
 2017-11-08 06:50:45  10.00   10.00   10.00   0.00   0.00 
 2017-10-10 07:46:20  73.00   45.00   29.00   0.00   0.00 
 2017-10-10 07:45:28  82.00   40.00   29.00   0.00   0.00 
 2017-10-03 16:40:51  75.00   60.00   30.05   0.00   0.00 
 2017-10-03 16:24:35  52.00   35.00   29.00   0.00   0.00 
 2017-10-03 16:23:22  0.00   0.00   0.00   0.00   0.00 
 2017-10-03 16:23:07  0.00   0.00   0.00   0.00   0.00 
 2017-10-03 08:41:23  78.44   55.53   29.81   69.55   78.59 
 2017-10-03 08:40:52  78.46   55.28   29.82   69.51   78.60 
 2017-10-03 06:15:55  75.67   57.94   29.78   67.26   75.66 
 2017-10-03 06:15:34  75.69   58.30   29.79   67.35   75.69 
 2017-10-03 06:15:14  75.63   59.83   29.79   67.60   75.71 
 2017-10-03 06:14:52  75.65   61.12   29.79   67.87   75.79 
 2017-10-03 06:14:32  75.58   58.75   29.79   67.33   75.60 
 2017-10-03 06:14:11  75.49   57.83   29.78   67.05   75.45 
 2017-10-03 06:13:50  75.49   58.25   29.78   67.14   75.47 
 2017-10-03 06:13:27  75.43   57.64   29.78   66.96   75.39 
 2017-10-03 06:13:03  75.45   57.71   29.78   66.99   75.41 
 2017-10-03 06:12:43  75.43   57.69   29.78   66.97   75.39 
 2017-10-03 06:12:22  75.43   57.70   29.78   66.97   75.39 
 2017-10-03 06:12:01  75.42   57.66   29.78   66.95   75.37 
 2017-10-03 06:11:40  75.40   57.76   29.78   66.95   75.35 
 2017-10-03 06:11:19  75.42   57.68   29.78   66.95   75.37 
 2017-10-03 06:10:58  75.42   57.76   29.78   66.97   75.37 
 2017-10-03 06:10:38  75.40   57.70   29.78   66.94   75.35 
 2017-10-03 06:10:17  75.42   57.53   29.78   66.92   75.36 
 2017-10-03 06:09:56  75.40   57.49   29.78   66.90   75.34 
 2017-10-03 06:09:34  75.43   57.59   29.78   66.95   75.38 
 2017-10-03 06:09:13  75.45   57.57   29.78   66.97   75.40 
 2017-10-03 06:08:53  75.49   57.58   29.78   67.00   75.44 
 2017-10-03 06:08:32  75.54   57.59   29.78   67.06   75.50 
 2017-10-03 06:08:11  75.58   57.71   29.78   67.12   75.55 
 2017-10-03 06:07:50  75.52   57.60   29.78   67.04   75.48 
 2017-10-03 06:07:29  75.52   57.56   29.78   67.04   75.48 
 2017-10-03 06:07:08  75.54   57.55   29.78   67.05   75.50 
 2017-10-03 06:06:48  75.58   57.70   29.78   67.12   75.55 
 2017-10-03 06:06:27  75.63   57.92   29.78   67.22   75.62 
 2017-10-03 06:06:06  75.60   57.66   29.78   67.13   75.57 
 2017-10-03 06:05:45  75.63   57.78   29.78   67.19   75.61 
 2017-10-03 06:05:24  75.60   57.70   29.78   67.14   75.57 
 2017-10-03 06:05:03  75.49   57.82   29.78   67.05   75.45 
 2017-10-03 06:04:43  75.51   59.22   29.78   67.35   75.54 
 2017-10-03 06:04:21  75.47   58.03   29.78   67.08   75.44 
 2017-10-03 06:04:00  75.43   57.74   29.78   66.98   75.39 
 2017-10-03 06:03:39  75.43   57.85   29.78   67.00   75.40 
 2017-10-03 06:03:19  75.36   57.57   29.78   66.88   75.30 
 2017-10-03 06:02:58  75.36   57.70   29.78   66.90   75.31 
 2017-10-03 06:02:37  75.34   57.72   29.78   66.89   75.29 
 2017-10-03 06:02:16  75.31   57.69   29.78   66.85   75.25 
 2017-10-03 06:01:55  75.31   57.69   29.78   66.85   75.25 
 2017-10-03 06:01:34  75.31   57.61   29.78   66.83   75.25 
 2017-10-03 06:01:14  75.31   57.75   29.78   66.86   75.25 
 2017-10-03 06:00:53  75.29   57.67   29.78   66.82   75.23 
 2017-10-03 06:00:32  75.31   57.80   29.78   66.87   75.26 
 2017-10-03 06:00:11  75.29   57.74   29.78   66.84   75.23 
 2017-10-03 05:59:50  75.27   57.78   29.78   66.83   75.21 
 2017-10-03 05:59:30  75.27   57.80   29.78   66.83   75.22 
 2017-10-03 05:59:09  75.29   57.82   29.78   66.85   75.24 
 2017-10-03 05:58:48  75.31   57.70   29.78   66.85   75.25 
 2017-10-03 05:58:27  75.29   57.84   29.78   66.86   75.24 
 2017-10-03 05:58:06  75.25   57.94   29.78   66.84   75.20 
 2017-10-03 05:57:45  75.24   57.93   29.78   66.82   75.18 
 2017-10-03 05:57:25  75.25   57.92   29.78   66.84   75.20 
 2017-10-03 05:57:04  75.22   57.99   29.78   66.82   75.17 
 2017-10-03 05:56:43  75.20   57.97   29.78   66.79   75.14 
 2017-10-03 05:56:22  75.18   57.98   29.78   66.78   75.13 
 2017-10-03 05:56:01  75.16   58.05   29.77   66.77   75.11 
 2017-10-03 05:55:40  75.20   58.04   29.78   66.81   75.15 
 2017-10-03 05:55:20  75.24   58.78   29.77   66.99   75.22 
 2017-10-03 05:54:59  75.20   57.97   29.77   66.79   75.14 
 2017-10-03 05:54:38  75.22   58.21   29.78   66.86   75.18 
 2017-10-03 05:54:17  75.22   58.40   29.77   66.90   75.18 
 2017-10-03 05:53:56  75.27   59.83   29.78   67.24   75.31 
 2017-10-03 05:53:36  75.18   58.48   29.77   66.88   75.15 
 2017-10-03 05:53:15  75.09   58.38   29.77   66.77   75.04 
 2017-10-03 05:52:54  75.02   58.33   29.77   66.69   74.96 
 2017-10-03 05:52:33  74.95   58.21   29.78   66.59   74.88 
 2017-10-03 05:52:12  74.95   58.20   29.77   66.59   74.88 
 2017-10-03 05:51:51  74.93   58.10   29.78   66.55   74.85 
 2017-10-03 05:51:30  74.93   58.17   29.77   66.56   74.86 
 2017-10-03 05:51:09  74.93   58.23   29.78   66.58   74.86 
 2017-10-03 05:50:48  74.93   58.25   29.77   66.58   74.86 
 2017-10-03 05:50:27  74.93   58.34   29.77   66.60   74.87 
 2017-10-03 05:50:07  74.93   58.35   29.78   66.60   74.87 
 2017-10-03 05:49:46  74.93   58.28   29.78   66.59   74.86 
 2017-10-03 05:49:25  74.93   58.22   29.77   66.57   74.86 
 2017-10-03 05:49:04  74.95   58.30   29.77   66.61   74.88 
 2017-10-03 05:48:43  74.97   58.33   29.77   66.63   74.90 
 2017-10-03 05:48:22  74.97   58.32   29.77   66.63   74.90 
 2017-10-03 05:48:02  74.93   58.32   29.77   66.59   74.86 
 2017-10-03 05:47:41  74.91   58.33   29.77   66.58   74.84 
 2017-10-03 05:47:20  74.95   58.39   29.77   66.63   74.89 
 2017-10-03 05:46:59  74.97   58.52   29.77   66.67   74.91 
 2017-10-03 05:46:38  74.93   58.55   29.77   66.64   74.88 
 2017-10-03 05:46:17  74.88   58.33   29.77   66.54   74.81 
 2017-10-03 05:45:56  74.88   58.33   29.77   66.54   74.81 
 2017-10-03 05:45:35  74.91   58.33   29.77   66.58   74.84 
 2017-10-03 05:45:14  74.91   58.34   29.77   66.58   74.85 
 2017-10-03 05:44:53  74.95   58.38   29.77   66.62   74.89 
 2017-10-03 05:44:32  74.98   58.42   29.77   66.67   74.93 
 2017-10-03 05:44:12  75.00   58.98   29.77   66.80   74.97 
 2017-10-03 05:43:51  74.89   60.06   29.77   66.91   74.91 
 2017-10-03 05:43:30  74.77   58.57   29.77   66.48   74.70 
 2017-10-03 05:43:09  74.77   58.54   29.77   66.48   74.70 
 2017-10-03 05:42:48  74.79   58.47   29.77   66.48   74.71 
 2017-10-03 05:42:27  74.79   58.38   29.77   66.46   74.71 
 2017-10-03 05:42:07  74.79   58.41   29.77   66.47   74.71 
 2017-10-03 05:41:46  74.80   58.42   29.77   66.49   74.73 
 2017-10-03 05:41:25  74.84   58.79   29.77   66.60   74.79 
 2017-10-03 05:41:04  74.88   58.46   29.77   66.57   74.81 
 2017-10-03 05:40:43  74.79   58.37   29.77   66.46   74.71 
 2017-10-03 05:40:11  74.75   58.46   29.77   66.44   74.67 
 2017-10-03 05:39:41  74.79   58.91   29.77   66.57   74.73 
 2017-10-03 05:39:10  74.82   58.85   29.77   66.59   74.77 
 2017-10-03 05:38:39  74.73   60.85   29.77   66.90   74.77 
 2017-10-03 05:38:08  74.66   58.44   29.77   66.35   74.57 
 2017-10-03 05:37:37  74.62   58.47   29.77   66.32   74.53 
 2017-10-03 05:37:07  74.64   58.48   29.77   66.34   74.55 
 2017-10-03 05:36:36  74.66   58.51   29.77   66.36   74.58 
 2017-10-03 05:36:05  74.71   58.37   29.77   66.39   74.63 
 2017-10-03 05:35:34  74.77   58.71   29.77   66.51   74.70 
 2017-10-03 05:35:01  74.75   58.70   29.77   66.49   74.68 
 2017-10-03 05:34:30  74.66   58.40   29.77   66.34   74.57 
 2017-10-03 05:33:40  74.64   58.58   29.77   66.36   74.56 
 2017-10-03 05:33:09  74.66   58.72   29.77   66.40   74.59 
 2017-10-03 05:32:38  74.66   58.95   29.77   66.45   74.60 
 2017-10-03 05:32:07  74.70   60.40   29.77   66.78   74.70 
 2017-10-03 05:31:36  74.59   58.73   29.77   66.33   74.51 
 2017-10-03 05:31:05  74.55   58.54   29.77   66.26   74.46 
 2017-10-03 05:30:34  74.57   58.46   29.77   66.26   74.47 
 2017-10-03 05:30:03  74.61   58.53   29.77   66.31   74.52 
 2017-10-03 05:29:32  74.61   58.56   29.77   66.32   74.52 
 2017-10-03 05:29:01  74.62   58.31   29.77   66.29   74.53 
 2017-10-03 03:38:11  74.28   59.09   29.73   66.10   74.19 
 2017-10-03 03:37:40  74.30   59.17   29.73   66.13   74.21 
 2017-10-03 03:37:10  74.21   59.41   29.73   66.09   74.12 
 2017-10-03 03:36:39  74.28   59.06   29.73   66.09   74.19 
 2017-10-03 03:36:08  74.34   59.21   29.73   66.18   74.25 
 2017-10-03 03:35:37  74.21   59.27   29.73   66.06   74.12 
 2017-10-03 03:35:07  74.28   59.07   29.73   66.10   74.19 
 2017-10-03 03:34:36  74.30   59.16   29.73   66.13   74.21 
 2017-10-03 03:34:05  74.21   59.75   29.73   66.16   74.14 
 2017-10-03 03:33:34  74.19   59.28   29.73   66.05   74.10 
 2017-10-03 03:33:03  74.17   59.94   29.73   66.16   74.11 
 2017-10-03 03:32:32  74.16   60.03   29.73   66.16   74.09 
 2017-10-03 03:32:02  74.08   59.41   29.73   65.97   73.98 
 2017-10-03 03:31:31  74.05   60.35   29.73   66.12   73.99 
 2017-10-03 03:31:00  73.99   60.05   29.73   66.00   73.92 
 2017-10-03 03:30:29  73.99   60.31   29.73   66.06   73.93 
 2017-10-03 03:29:59  73.92   60.31   29.73   65.98   73.85 
 2017-10-03 03:29:28  73.92   60.48   29.73   66.02   73.86 
 2017-10-03 03:28:57  73.92   60.38   29.73   66.00   73.85 
 2017-10-03 03:28:26  73.92   60.48   29.73   66.02   73.86 
 2017-10-03 03:27:55  73.90   60.48   29.73   66.00   73.84 
 2017-10-03 03:27:24  73.90   60.61   29.73   66.03   73.84 
 2017-10-03 03:26:53  73.89   60.72   29.73   66.03   73.83 
 2017-10-03 03:26:22  73.85   60.80   29.73   66.01   73.79 
 2017-10-03 03:26:06  73.85   60.77   29.74   66.00   73.79 
 2017-10-03 03:25:16  73.83   60.83   29.74   66.00   73.77 
 2017-10-03 03:24:45  73.83   60.92   29.74   66.02   73.78 
 2017-10-03 03:24:14  73.81   60.94   29.73   66.00   73.76 
 2017-10-03 03:23:43  73.81   60.91   29.73   66.00   73.76 
 2017-10-03 03:23:12  73.80   60.77   29.74   65.95   73.73 
 2017-10-03 03:22:41  73.80   60.64   29.74   65.92   73.73 
 2017-10-03 03:22:11  73.80   60.91   29.73   65.98   73.74 
 2017-10-03 03:21:40  73.80   60.90   29.73   65.98   73.74 
 2017-10-03 03:21:09  73.80   60.93   29.74   65.98   73.74 
 2017-10-03 03:20:38  73.78   60.89   29.74   65.96   73.72 
 2017-10-03 03:20:07  73.78   60.95   29.74   65.97   73.72 
 2017-10-03 03:19:37  73.76   60.94   29.73   65.95   73.70 
 2017-10-03 03:19:06  73.78   60.96   29.74   65.97   73.72 
 2017-10-03 03:18:35  73.78   60.89   29.73   65.96   73.72 
 2017-10-03 03:18:04  73.80   60.89   29.73   65.97   73.74 
 2017-10-03 03:17:33  73.81   60.90   29.74   65.99   73.76 
 2017-10-03 03:17:02  73.81   60.86   29.73   65.99   73.76 
 2017-10-03 03:16:32  73.81   60.85   29.73   65.98   73.76 
 2017-10-03 03:16:01  73.85   60.78   29.73   66.01   73.79 
 2017-10-03 03:15:30  73.87   60.71   29.73   66.01   73.81 
 2017-10-03 03:14:59  73.85   60.76   29.73   66.00   73.79 
 2017-10-03 03:14:28  73.85   60.70   29.74   65.99   73.79 
 2017-10-03 03:13:57  73.85   60.62   29.73   65.97   73.78 
 2017-10-03 03:13:27  73.85   60.69   29.74   65.99   73.79 
 2017-10-03 03:12:51  73.83   60.68   29.74   65.97   73.77 
 2017-10-03 03:12:20  73.81   60.89   29.73   65.99   73.76 
 2017-10-03 03:11:49  73.71   60.61   29.73   65.83   73.63 
 2017-10-03 03:11:18  73.72   60.33   29.73   65.79   73.63 
 2017-10-03 03:10:48  73.74   60.59   29.73   65.86   73.66 
 2017-10-03 03:10:17  73.76   60.61   29.73   65.88   73.68 
 2017-10-03 03:09:46  73.76   60.47   29.73   65.85   73.68 
 2017-10-03 03:09:15  73.80   60.56   29.73   65.91   73.72 
 2017-10-03 03:08:44  73.81   60.71   29.73   65.96   73.75 
 2017-10-03 03:08:14  73.89   60.65   29.73   66.02   73.83 
 2017-10-03 03:07:42  73.90   60.70   29.73   66.04   73.85 
 2017-10-03 03:07:12  73.94   60.63   29.73   66.07   73.88 
 2017-10-03 03:06:41  73.98   60.81   29.73   66.14   73.93 
 2017-10-03 03:06:10  73.94   61.83   29.73   66.31   73.94 
 2017-10-03 03:05:39  73.89   60.71   29.73   66.03   73.83 
 2017-10-03 03:05:08  73.89   60.71   29.73   66.03   73.83 
 2017-10-03 03:04:38  73.90   60.77   29.73   66.06   73.85 
 2017-10-03 03:04:07  73.90   60.77   29.73   66.06   73.85 
 2017-10-03 03:03:36  73.90   60.83   29.73   66.07   73.85 
 2017-10-03 03:03:05  73.90   60.88   29.73   66.08   73.86 
 2017-10-03 03:02:33  73.94   60.99   29.73   66.14   73.90 
 2017-10-03 03:02:03  73.90   60.80   29.73   66.06   73.85 
 2017-10-03 03:01:31  73.94   60.78   29.73   66.10   73.89 
 2017-10-03 03:01:01  73.94   60.80   29.73   66.10   73.89 
 2017-10-03 03:00:30  73.89   60.78   29.73   66.04   73.83 
 2017-09-05 11:03:47  5.00   5.00   5.00   0.00   0.00 
 2017-08-25 01:34:25  0.00   0.00   0.00   0.00   0.00 
 2017-08-18 21:15:39  15.00   20.00   25.00   0.00   0.00 
 2017-08-18 21:01:27  5.00   5.00   5.00   0.00   0.00 
 2017-08-18 20:34:16  0.00   0.00   0.00   0.00   0.00 
 2017-08-18 07:20:23  5.00   5.00   5.00   0.00   0.00 
 2017-08-16 08:24:33  24.00   24.00   24.00   0.00   0.00 
 2017-08-03 19:19:25  82.99   57.40   29.65   74.47   83.69 
 2017-08-03 19:18:55  82.99   56.97   29.65   74.39   83.67 
 2017-08-03 19:18:24  83.12   57.97   29.65   74.71   83.86 
 2017-08-03 19:17:53  83.12   59.10   29.65   74.94   83.91 
 2017-08-03 19:17:23  83.10   58.66   29.65   74.83   83.87 
 2017-08-03 19:16:52  83.10   58.04   29.65   74.71   83.84 
 2017-08-03 19:16:21  82.99   56.08   29.65   74.21   83.63 
 2017-08-03 19:15:51  83.08   56.32   29.65   74.35   83.74 
 2017-08-03 19:15:20  83.03   56.22   29.65   74.27   83.68 
 2017-08-03 19:14:49  83.10   55.93   29.65   74.29   83.74 
 2017-08-03 19:14:19  83.16   55.93   29.65   74.34   83.80 
 2017-08-03 19:13:48  83.19   55.85   29.65   74.36   83.84 
 2017-08-03 19:13:17  83.25   56.04   29.65   74.45   83.90 
 2017-08-03 19:12:47  83.26   57.99   29.65   74.86   84.02 
 2017-08-03 19:12:16  83.34   57.02   29.65   74.74   84.05 
 2017-08-03 19:11:45  83.32   56.39   29.65   74.60   84.00 
 2017-08-03 19:11:15  83.17   55.59   29.64   74.29   83.80 
 2017-08-03 19:10:44  83.12   55.67   29.64   74.25   83.75 
 2017-08-03 19:10:14  83.07   55.82   29.64   74.23   83.70 
 2017-08-03 19:09:43  83.16   55.80   29.65   74.32   83.79 
 2017-08-03 19:09:12  83.21   55.76   29.65   74.36   83.85 
 2017-08-03 19:08:42  83.28   55.67   29.65   74.42   83.93 
 2017-08-03 19:08:11  83.14   55.70   29.64   74.28   83.77 
 2017-07-20 20:31:10  0.00   0.00   0.00   0.00   0.00 
 2017-07-20 20:31:04  0.00   0.00   0.00   0.00   0.00 
 2017-07-20 20:30:58  0.00   0.00   0.00   0.00   0.00 
 2017-07-20 20:30:52  0.00   0.00   0.00   0.00   0.00 
 2017-07-20 20:30:46  0.00   0.00   0.00   0.00   0.00 
 2017-07-20 20:30:40  0.00   0.00   0.00   0.00   0.00 
 2017-07-20 20:30:34  0.00   0.00   0.00   0.00   0.00 
 2017-07-20 20:30:28  0.00   0.00   0.00   0.00   0.00 
 2017-07-20 20:30:21  0.00   0.00   0.00   0.00   0.00 
 2017-07-20 20:30:15  0.00   0.00   0.00   0.00   0.00 
 2017-07-20 20:30:09  0.00   0.00   0.00   0.00   0.00 
 2017-07-20 20:30:03  0.00   0.00   0.00   0.00   0.00 
 2017-07-20 20:29:57  0.00   0.00   0.00   0.00   0.00 
 2017-07-20 20:29:51  0.00   0.00   0.00   0.00   0.00 
 2017-07-20 20:29:44  0.00   0.00   0.00   0.00   0.00 
 2017-07-20 20:29:38  0.00   0.00   0.00   0.00   0.00 
 2017-07-20 20:29:32  0.00   0.00   0.00   0.00   0.00 
 2017-07-20 20:29:26  0.00   0.00   0.00   0.00   0.00 
 2017-07-20 20:29:20  0.00   0.00   0.00   0.00   0.00 
 2017-07-20 20:29:14  0.00   0.00   0.00   0.00   0.00 
 2017-07-20 20:29:08  0.00   0.00   0.00   0.00   0.00 
 2017-07-20 20:29:02  0.00   0.00   0.00   0.00   0.00 
 2017-07-20 20:28:56  0.00   0.00   0.00   0.00   0.00 
 2017-07-20 20:28:50  0.00   0.00   0.00   0.00   0.00 
 2017-07-20 20:28:44  0.00   0.00   0.00   0.00   0.00 
 2017-07-20 20:28:38  0.00   0.00   0.00   0.00   0.00 
 2017-07-20 20:28:32  0.00   0.00   0.00   0.00   0.00 
 2017-07-20 20:28:26  0.00   0.00   0.00   0.00   0.00 
 2017-07-20 20:28:19  0.00   0.00   0.00   0.00   0.00 
 2017-07-20 20:28:13  0.00   0.00   0.00   0.00   0.00 
 2017-07-20 20:28:07  0.00   0.00   0.00   0.00   0.00 
 2017-07-20 20:28:01  0.00   0.00   0.00   0.00   0.00 
 2017-07-20 20:27:55  0.00   0.00   0.00   0.00   0.00 
 2017-07-20 20:27:49  0.00   0.00   0.00   0.00   0.00 
 2017-07-20 20:27:42  0.00   0.00   0.00   0.00   0.00 
 2017-07-20 20:27:36  0.00   0.00   0.00   0.00   0.00 
 2017-07-20 20:27:30  0.00   0.00   0.00   0.00   0.00 
 2017-07-20 20:27:23  0.00   0.00   0.00   0.00   0.00 
 2017-07-20 20:27:17  0.00   0.00   0.00   0.00   0.00 
 2017-07-20 20:27:11  0.00   0.00   0.00   0.00   0.00 
 2017-07-20 20:27:04  0.00   0.00   0.00   0.00   0.00 
 2017-07-20 20:26:58  0.00   0.00   0.00   0.00   0.00 
 2017-07-20 20:26:52  0.00   0.00   0.00   0.00   0.00 
 2017-07-20 20:26:46  0.00   0.00   0.00   0.00   0.00 
 2017-07-20 20:26:40  0.00   0.00   0.00   0.00   0.00 
 2017-07-20 20:26:34  0.00   0.00   0.00   0.00   0.00 
 2017-07-20 20:26:28  0.00   0.00   0.00   0.00   0.00 
 2017-07-20 20:26:22  0.00   0.00   0.00   0.00   0.00 
 2017-07-20 20:26:16  0.00   0.00   0.00   0.00   0.00 
 2017-07-20 20:26:10  0.00   0.00   0.00   0.00   0.00 
 2017-07-20 20:26:04  0.00   0.00   0.00   0.00   0.00 
 2017-07-20 20:25:58  0.00   0.00   0.00   0.00   0.00 
 2017-07-20 20:25:51  0.00   0.00   0.00   0.00   0.00 
 2017-07-20 20:25:45  0.00   0.00   0.00   0.00   0.00 
 2017-07-20 20:25:39  0.00   0.00   0.00   0.00   0.00 
 2017-07-20 20:25:32  0.00   0.00   0.00   0.00   0.00 
 2017-07-20 20:25:26  0.00   0.00   0.00   0.00   0.00 
 2017-07-20 20:25:20  0.00   0.00   0.00   0.00   0.00 
 2017-07-20 20:25:14  0.00   0.00   0.00   0.00   0.00 
 2017-07-20 20:25:07  0.00   0.00   0.00   0.00   0.00 
 2017-07-20 18:34:25  0.00   0.00   0.00   0.00   0.00 
 2017-07-20 18:34:19  0.00   0.00   0.00   0.00   0.00 
 2017-07-20 18:34:13  0.00   0.00   0.00   0.00   0.00 
 2017-07-20 18:34:07  0.00   0.00   0.00   0.00   0.00 
 2017-07-20 18:34:00  0.00   0.00   0.00   0.00   0.00 
 2017-07-20 18:33:54  0.00   0.00   0.00   0.00   0.00 
 2017-07-20 18:33:48  0.00   0.00   0.00   0.00   0.00 
 2017-07-20 18:33:42  0.00   0.00   0.00   0.00   0.00 
 2017-07-20 18:33:35  0.00   0.00   0.00   0.00   0.00 
 2017-07-20 18:33:29  0.00   0.00   0.00   0.00   0.00 
 2017-07-20 18:33:23  0.00   0.00   0.00   0.00   0.00 
 2017-07-20 18:33:17  0.00   0.00   0.00   0.00   0.00 
 2017-07-20 18:33:11  0.00   0.00   0.00   0.00   0.00 
 2017-07-20 18:33:05  0.00   0.00   0.00   0.00   0.00 
 2017-07-20 18:32:59  0.00   0.00   0.00   0.00   0.00 
 2017-07-20 18:32:52  0.00   0.00   0.00   0.00   0.00 
 2017-07-20 18:32:45  0.00   0.00   0.00   0.00   0.00 
 2017-07-20 18:32:39  0.00   0.00   0.00   0.00   0.00 
 2017-07-20 18:32:32  0.00   0.00   0.00   0.00   0.00 
 2017-07-20 18:32:26  0.00   0.00   0.00   0.00   0.00 
 2017-07-20 18:32:20  0.00   0.00   0.00   0.00   0.00 
 2017-07-20 18:32:13  0.00   0.00   0.00   0.00   0.00 
 2017-07-20 18:32:07  0.00   0.00   0.00   0.00   0.00 
 2017-07-20 18:32:01  0.00   0.00   0.00   0.00   0.00 
 2017-07-20 18:31:55  0.00   0.00   0.00   0.00   0.00 
 2017-07-20 18:31:48  0.00   0.00   0.00   0.00   0.00 
 2017-07-20 18:31:42  0.00   0.00   0.00   0.00   0.00 
 2017-07-20 18:31:36  0.00   0.00   0.00   0.00   0.00 
 2017-07-20 18:31:30  0.00   0.00   0.00   0.00   0.00 
 2017-07-20 18:31:23  0.00   0.00   0.00   0.00   0.00 
 2017-07-20 18:31:17  0.00   0.00   0.00   0.00   0.00 
 2017-07-20 18:31:11  0.00   0.00   0.00   0.00   0.00 
 2017-07-20 18:31:05  0.00   0.00   0.00   0.00   0.00 
 2017-07-20 18:30:59  0.00   0.00   0.00   0.00   0.00 
 2017-07-20 18:30:52  0.00   0.00   0.00   0.00   0.00 
 2017-07-20 18:30:46  0.00   0.00   0.00   0.00   0.00 
 2017-07-20 18:30:40  0.00   0.00   0.00   0.00   0.00 
 2017-07-20 18:30:34  0.00   0.00   0.00   0.00   0.00 
 2017-07-20 18:30:28  0.00   0.00   0.00   0.00   0.00 
 2017-07-20 18:30:22  0.00   0.00   0.00   0.00   0.00 
 2017-07-20 18:30:15  0.00   0.00   0.00   0.00   0.00 
 2017-07-20 18:30:09  0.00   0.00   0.00   0.00   0.00 
 2017-07-20 18:30:03  0.00   0.00   0.00   0.00   0.00 
 2017-07-20 18:29:57  0.00   0.00   0.00   0.00   0.00 
 2017-07-20 18:29:51  0.00   0.00   0.00   0.00   0.00 
 2017-07-20 18:29:44  0.00   0.00   0.00   0.00   0.00 
 2017-07-20 18:29:38  0.00   0.00   0.00   0.00   0.00 
 2017-07-20 18:29:32  0.00   0.00   0.00   0.00   0.00 
 2017-07-20 18:29:26  0.00   0.00   0.00   0.00   0.00 
 2017-07-20 18:29:20  0.00   0.00   0.00   0.00   0.00 
 2017-07-20 18:29:14  0.00   0.00   0.00   0.00   0.00 
 2017-07-20 18:29:07  0.00   0.00   0.00   0.00   0.00 
 2017-07-20 18:29:01  0.00   0.00   0.00   0.00   0.00 
 2017-07-20 18:28:55  0.00   0.00   0.00   0.00   0.00 
 2017-07-20 18:28:49  0.00   0.00   0.00   0.00   0.00 
 2017-07-20 18:28:43  0.00   0.00   0.00   0.00   0.00 
 2017-07-20 18:28:37  0.00   0.00   0.00   0.00   0.00 
 2017-07-20 18:28:30  0.00   0.00   0.00   0.00   0.00 
 2017-07-20 18:28:24  0.00   0.00   0.00   0.00   0.00 
 2017-07-20 18:28:17  0.00   0.00   0.00   0.00   0.00 
 2017-07-20 18:28:11  0.00   0.00   0.00   0.00   0.00 
 2017-07-20 18:28:05  0.00   0.00   0.00   0.00   0.00 
 2017-07-20 18:27:59  0.00   0.00   0.00   0.00   0.00 
 2017-07-20 18:27:53  0.00   0.00   0.00   0.00   0.00 
 2017-07-20 18:27:47  0.00   0.00   0.00   0.00   0.00 
 2017-07-20 18:27:41  0.00   0.00   0.00   0.00   0.00 
 2017-07-20 18:27:34  0.00   0.00   0.00   0.00   0.00 
 2017-07-20 18:27:28  0.00   0.00   0.00   0.00   0.00 
 2017-07-20 18:27:22  0.00   0.00   0.00   0.00   0.00 
 2017-07-20 18:27:16  0.00   0.00   0.00   0.00   0.00 
 2017-07-20 18:27:10  0.00   0.00   0.00   0.00   0.00 
 2017-07-20 18:27:04  0.00   0.00   0.00   0.00   0.00 
 2017-07-20 18:26:58  0.00   0.00   0.00   0.00   0.00 
 2017-07-20 18:26:52  0.00   0.00   0.00   0.00   0.00 
 2017-07-20 18:26:45  0.00   0.00   0.00   0.00   0.00 
 2017-07-20 18:26:39  0.00   0.00   0.00   0.00   0.00 
 2017-07-20 18:26:33  0.00   0.00   0.00   0.00   0.00 
 2017-07-20 18:26:27  0.00   0.00   0.00   0.00   0.00 
 2017-07-20 18:26:21  0.00   0.00   0.00   0.00   0.00 
 2017-07-20 18:26:14  0.00   0.00   0.00   0.00   0.00 
 2017-07-20 18:26:08  0.00   0.00   0.00   0.00   0.00 
 2017-07-20 18:26:01  0.00   0.00   0.00   0.00   0.00 
 2017-07-20 18:25:54  0.00   0.00   0.00   0.00   0.00 
 2017-07-20 18:25:48  0.00   0.00   0.00   0.00   0.00 
 2017-07-20 18:25:42  0.00   0.00   0.00   0.00   0.00 
 2017-07-20 18:25:36  0.00   0.00   0.00   0.00   0.00 
 2017-07-20 18:25:30  0.00   0.00   0.00   0.00   0.00 
 2017-07-20 18:25:23  0.00   0.00   0.00   0.00   0.00 
 2017-07-20 18:25:17  0.00   0.00   0.00   0.00   0.00 
 2017-07-20 18:25:11  0.00   0.00   0.00   0.00   0.00 
 2017-07-20 18:25:05  0.00   0.00   0.00   0.00   0.00 
 2017-07-20 18:24:59  0.00   0.00   0.00   0.00   0.00 
 2017-07-20 18:24:53  0.00   0.00   0.00   0.00   0.00 
 2017-07-20 18:24:47  0.00   0.00   0.00   0.00   0.00 
 2017-07-20 18:24:41  0.00   0.00   0.00   0.00   0.00 
 2017-07-20 18:24:34  0.00   0.00   0.00   0.00   0.00 
 2017-07-20 18:24:28  0.00   0.00   0.00   0.00   0.00 
 2017-07-20 18:24:21  0.00   0.00   0.00   0.00   0.00 
 2017-07-20 18:24:15  0.00   0.00   0.00   0.00   0.00 
 2017-07-20 18:24:09  0.00   0.00   0.00   0.00   0.00 
 2017-07-20 18:24:03  0.00   0.00   0.00   0.00   0.00 
 2017-07-20 18:23:57  0.00   0.00   0.00   0.00   0.00 
 2017-07-20 18:23:50  0.00   0.00   0.00   0.00   0.00 
 2017-07-20 18:23:44  0.00   0.00   0.00   0.00   0.00 
 2017-07-20 18:23:38  0.00   0.00   0.00   0.00   0.00 
 2017-07-20 18:23:32  0.00   0.00   0.00   0.00   0.00 
 2017-07-20 18:23:26  0.00   0.00   0.00   0.00   0.00 
 2017-07-20 18:23:19  0.00   0.00   0.00   0.00   0.00 
 2017-07-20 18:23:13  0.00   0.00   0.00   0.00   0.00 
 2017-07-20 18:23:06  0.00   0.00   0.00   0.00   0.00 
 2017-07-20 18:23:00  0.00   0.00   0.00   0.00   0.00 
 2017-07-14 10:16:20  75.00   45.00   30.00   0.00   0.00 
 2017-07-06 11:42:21  -223.78   100.00   34.04   -223.78   -251.76 
 2017-07-06 11:41:49  -223.78   100.00   34.04   -223.78   -251.76 
 2017-07-06 11:41:18  -223.78   100.00   34.04   -223.78   -251.76 
 2017-07-06 11:40:46  -223.78   100.00   34.04   -223.78   -251.76 
 2017-07-06 11:40:15  -223.78   100.00   34.04   -223.78   -251.76 
 2017-07-06 11:39:43  -223.78   100.00   34.04   -223.78   -251.76 
 2017-07-06 11:39:11  -223.78   100.00   34.04   -223.78   -251.76 
 2017-07-06 11:38:39  -223.78   100.00   34.04   -223.78   -251.76 
 2017-07-06 11:38:08  -223.78   100.00   34.04   -223.78   -251.76 
 2017-07-06 11:37:36  -223.78   100.00   34.04   -223.78   -251.76 
 2017-07-06 11:37:04  -223.78   100.00   34.04   -223.78   -251.76 
 2017-07-06 11:36:32  -223.78   100.00   34.04   -223.78   -251.76 
 2017-07-06 11:36:01  -223.78   100.00   34.04   -223.78   -251.76 
 2017-07-06 11:35:29  -223.78   100.00   34.04   -223.78   -251.76 
 2017-07-06 11:34:57  -223.78   100.00   34.04   -223.78   -251.76 
 2017-07-06 11:34:25  -223.78   100.00   34.04   -223.78   -251.76 
 2017-07-06 11:33:53  -223.78   100.00   34.04   -223.78   -251.76 
 2017-07-06 11:33:22  -223.78   100.00   34.04   -223.78   -251.76 
 2017-07-06 11:32:50  -223.78   100.00   34.04   -223.78   -251.76 
 2017-07-06 11:32:18  -223.78   100.00   34.04   -223.78   -251.76 
 2017-07-06 11:31:47  -223.78   100.00   34.04   -223.78   -251.76 
 2017-07-06 11:31:16  -223.78   100.00   34.04   -223.78   -251.76 
 2017-07-06 11:30:44  -223.78   100.00   34.04   -223.78   -251.76 
 2017-07-06 11:30:12  -223.78   100.00   34.04   -223.78   -251.76 
 2017-07-06 11:29:40  -223.78   100.00   34.04   -223.78   -251.76 
 2017-07-06 11:29:08  -223.78   100.00   34.04   -223.78   -251.76 
 2017-07-06 11:28:37  -223.78   100.00   34.04   -223.78   -251.76 
 2017-07-06 11:28:05  -223.78   100.00   34.04   -223.78   -251.76 
 2017-07-06 11:27:34  -223.78   100.00   34.04   -223.78   -251.76 
 2017-07-06 11:27:02  -223.78   100.00   34.04   -223.78   -251.76 
 2017-07-06 11:26:30  -223.78   100.00   34.04   -223.78   -251.76 
 2017-07-06 11:25:58  -223.78   100.00   34.04   -223.78   -251.76 
 2017-07-06 11:25:27  -223.78   100.00   34.04   -223.78   -251.76 
 2017-07-06 11:24:55  -223.78   100.00   34.04   -223.78   -251.76 
 2017-07-06 11:24:23  -223.78   100.00   34.04   -223.78   -251.76 
 2017-07-06 11:23:52  -223.78   100.00   34.04   -223.78   -251.76 
 2017-07-06 11:23:20  -223.78   100.00   34.04   -223.78   -251.76 
 2017-07-06 11:22:48  -223.78   100.00   34.04   -223.78   -251.76 
 2017-07-06 11:22:17  -223.78   100.00   34.04   -223.78   -251.76 
 2017-07-06 11:21:45  -223.78   100.00   34.04   -223.78   -251.76 
 2017-07-06 11:21:13  -223.78   100.00   34.04   -223.78   -251.76 
 2017-07-06 11:20:42  -223.78   100.00   34.04   -223.78   -251.76 
 2017-07-06 11:20:10  -223.78   100.00   34.04   -223.78   -251.76 
 2017-07-06 11:19:38  -223.78   100.00   34.04   -223.78   -251.76 
 2017-07-06 11:19:06  -223.78   100.00   34.04   -223.78   -251.76 
 2017-07-06 11:18:34  -223.78   100.00   34.04   -223.78   -251.76 
 2017-07-06 11:18:03  -223.78   100.00   34.04   -223.78   -251.76 
 2017-07-06 11:17:31  -223.78   100.00   34.04   -223.78   -251.76 
 2017-07-06 11:16:58  -223.78   100.00   34.04   -223.78   -251.76 
 2017-07-06 11:16:27  -223.78   100.00   34.04   -223.78   -251.76 
 2017-07-06 11:15:56  -223.78   100.00   34.04   -223.78   -251.76 
 2017-07-06 11:15:24  -223.78   100.00   34.04   -223.78   -251.76 
 2017-07-06 11:14:53  -223.78   100.00   34.04   -223.78   -251.76 
 2017-07-06 11:14:22  -223.78   100.00   34.04   -223.78   -251.76 
 2017-07-06 11:13:54  -223.78   100.00   34.04   -223.78   -251.76 
 2017-07-06 11:13:15  -223.78   100.00   34.04   -223.78   -251.76 
 2017-07-06 11:12:43  -223.78   100.00   34.04   -223.78   -251.76 
 2017-07-06 11:12:12  -223.78   100.00   34.04   -223.78   -251.76 
 2017-07-06 11:11:41  -223.78   100.00   34.04   -223.78   -251.76 
 2017-07-06 11:11:09  -223.78   100.00   34.04   -223.78   -251.76 
 2017-07-06 11:10:38  -223.78   100.00   34.04   -223.78   -251.76 
 2017-07-06 11:10:06  -223.78   100.00   34.04   -223.78   -251.76 
 2017-07-06 11:09:35  -223.78   100.00   34.04   -223.78   -251.76 
 2017-07-06 11:09:03  -223.78   100.00   34.04   -223.78   -251.76 
 2017-07-06 11:08:31  -223.78   100.00   34.04   -223.78   -251.76 
 2017-07-06 11:07:59  -223.78   100.00   34.04   -223.78   -251.76 
 2017-07-06 11:07:28  -223.78   100.00   34.04   -223.78   -251.76 
 2017-07-06 11:06:56  -223.78   100.00   34.04   -223.78   -251.76 
 2017-07-06 11:06:24  -223.78   100.00   34.04   -223.78   -251.76 
 2017-07-06 11:05:53  -223.78   100.00   34.04   -223.78   -251.76 
 2017-07-06 11:05:21  -223.78   100.00   34.04   -223.78   -251.76 
 2017-07-06 11:04:49  -223.78   100.00   34.04   -223.78   -251.76 
 2017-07-06 11:04:17  -223.78   100.00   34.04   -223.78   -251.76 
 2017-07-06 11:03:46  -223.78   100.00   34.04   -223.78   -251.76 
 2017-07-06 11:03:14  -223.78   100.00   34.04   -223.78   -251.76 
 2017-07-06 11:02:41  -223.78   100.00   34.04   -223.78   -251.76 
 2017-07-06 11:02:10  -223.78   100.00   34.04   -223.78   -251.76 
 2017-07-06 11:01:38  -223.78   100.00   34.04   -223.78   -251.76 
 2017-07-06 11:01:06  -223.78   100.00   34.04   -223.78   -251.76 
 2017-07-06 11:00:34  -223.78   100.00   34.04   -223.78   -251.76 
 2017-07-06 11:00:02  -223.78   100.00   34.04   -223.78   -251.76 
 2017-07-06 10:59:31  -223.78   100.00   34.04   -223.78   -251.76 
 2017-07-06 10:58:59  -223.78   100.00   34.04   -223.78   -251.76 
 2017-07-06 10:57:52  -223.78   100.00   34.04   -223.78   -251.76 
 2017-07-06 10:57:21  -223.78   100.00   34.04   -223.78   -251.76 
 2017-07-06 10:56:49  -223.78   100.00   34.04   -223.78   -251.76 
 2017-07-06 10:56:17  -223.78   100.00   34.04   -223.78   -251.76 
 2017-07-06 10:55:46  -223.78   100.00   34.04   -223.78   -251.76 
 2017-07-06 10:55:15  -223.78   100.00   34.04   -223.78   -251.76 
 2017-07-06 10:54:43  -223.78   100.00   34.04   -223.78   -251.76 
 2017-07-06 10:54:11  -223.78   100.00   34.04   -223.78   -251.76 
 2017-07-06 10:53:39  -223.78   100.00   34.04   -223.78   -251.76 
 2017-07-06 10:53:08  -223.78   100.00   34.04   -223.78   -251.76 
 2017-07-06 10:52:36  -223.78   100.00   34.04   -223.78   -251.76 
 2017-07-06 10:52:04  -223.78   100.00   34.04   -223.78   -251.76 
 2017-07-06 10:51:32  -223.78   100.00   34.04   -223.78   -251.76 
 2017-07-06 10:51:01  -223.78   100.00   34.04   -223.78   -251.76 
 2017-07-06 10:50:29  -223.78   100.00   34.04   -223.78   -251.76 
 2017-07-06 10:49:57  -223.78   100.00   34.04   -223.78   -251.76 
 2017-07-06 10:49:25  -223.78   100.00   34.04   -223.78   -251.76 
 2017-07-06 10:48:53  -223.78   100.00   34.04   -223.78   -251.76 
 2017-07-06 10:48:22  -223.78   100.00   34.04   -223.78   -251.76 
 2017-07-06 10:47:51  -223.78   100.00   34.04   -223.78   -251.76 
 2017-07-06 10:47:19  -223.78   100.00   34.04   -223.78   -251.76 
 2017-07-06 10:46:48  -223.78   100.00   34.04   -223.78   -251.76 
 2017-07-06 10:46:16  -223.78   100.00   34.04   -223.78   -251.76 
 2017-07-06 10:45:45  -223.78   100.00   34.04   -223.78   -251.76 
 2017-07-06 10:45:14  -223.78   100.00   34.04   -223.78   -251.76 
 2017-07-06 10:44:42  -223.78   100.00   34.04   -223.78   -251.76 
 2017-07-06 10:44:11  -223.78   100.00   34.04   -223.78   -251.76 
 2017-07-06 10:43:39  -223.78   100.00   34.04   -223.78   -251.76 
 2017-07-06 10:43:07  -223.78   100.00   34.04   -223.78   -251.76 
 2017-07-06 10:42:36  -223.78   100.00   34.04   -223.78   -251.76 
 2017-07-06 10:42:04  -223.78   100.00   34.04   -223.78   -251.76 
 2017-07-06 10:41:32  -223.78   100.00   34.04   -223.78   -251.76 
 2017-07-06 10:41:01  -223.78   100.00   34.04   -223.78   -251.76 
 2017-07-06 10:40:30  -223.78   100.00   34.04   -223.78   -251.76 
 2017-07-06 10:39:58  -223.78   100.00   34.04   -223.78   -251.76 
 2017-07-06 10:39:27  -223.78   100.00   34.04   -223.78   -251.76 
 2017-07-06 10:38:55  -223.78   100.00   34.04   -223.78   -251.76 
 2017-07-06 10:38:23  -223.78   100.00   34.04   -223.78   -251.76 
 2017-07-06 10:37:51  -223.78   100.00   34.04   -223.78   -251.76 
 2017-07-06 10:37:19  -223.78   100.00   34.04   -223.78   -251.76 
 2017-07-06 10:36:47  -223.78   100.00   34.04   -223.78   -251.76 
 2017-07-06 10:36:16  -223.78   100.00   34.04   -223.78   -251.76 
 2017-07-06 10:35:45  -223.78   100.00   34.04   -223.78   -251.76 
 2017-07-06 10:35:13  -223.78   100.00   34.04   -223.78   -251.76 
 2017-07-06 10:34:42  -223.78   100.00   34.04   -223.78   -251.76 
 2017-07-06 10:34:10  -223.78   100.00   34.04   -223.78   -251.76 
 2017-07-06 10:33:38  -223.78   100.00   34.04   -223.78   -251.76 
 2017-07-06 10:33:07  -223.78   100.00   34.04   -223.78   -251.76 
 2017-07-06 10:32:35  -223.78   100.00   34.04   -223.78   -251.76 
 2017-07-06 10:32:03  -223.78   100.00   34.04   -223.78   -251.76 
 2017-07-06 10:31:32  -223.78   100.00   34.04   -223.78   -251.76 
 2017-07-06 10:31:01  -223.78   100.00   34.04   -223.78   -251.76 
 2017-07-06 10:30:28  -223.78   100.00   34.04   -223.78   -251.76 
 2017-07-06 10:29:57  -223.78   100.00   34.04   -223.78   -251.76 
 2017-07-06 10:29:25  -223.78   100.00   34.04   -223.78   -251.76 
 2017-07-06 10:28:53  -223.78   100.00   34.04   -223.78   -251.76 
 2017-07-06 10:28:20  -223.78   100.00   34.04   -223.78   -251.76 
 2017-07-06 10:27:48  -223.78   100.00   34.04   -223.78   -251.76 
 2017-07-06 10:27:17  -223.78   100.00   34.04   -223.78   -251.76 
 2017-07-06 10:26:45  -223.78   100.00   34.04   -223.78   -251.76 
 2017-07-06 10:26:14  -223.78   100.00   34.04   -223.78   -251.76 
 2017-07-06 10:25:43  -223.78   100.00   34.04   -223.78   -251.76 
 2017-07-06 10:25:12  -223.78   100.00   34.04   -223.78   -251.76 
 2017-07-06 10:24:40  -223.78   100.00   34.04   -223.78   -251.76 
 2017-07-06 10:24:09  -223.78   100.00   34.04   -223.78   -251.76 
 2017-07-06 10:23:37  -223.78   100.00   34.04   -223.78   -251.76 
 2017-07-06 10:23:06  -223.78   100.00   34.04   -223.78   -251.76 
 2017-07-06 10:22:35  -223.78   100.00   34.04   -223.78   -251.76 
 2017-07-06 10:22:03  -223.78   100.00   34.04   -223.78   -251.76 
 2017-07-06 10:21:32  -223.78   100.00   34.04   -223.78   -251.76 
 2017-07-06 10:21:00  -223.78   100.00   34.04   -223.78   -251.76 
 2017-07-06 10:20:29  -223.78   100.00   34.04   -223.78   -251.76 
 2017-07-06 10:19:57  -223.78   100.00   34.04   -223.78   -251.76 
 2017-07-06 10:19:26  -223.78   100.00   34.04   -223.78   -251.76 
 2017-07-06 10:18:54  -223.78   100.00   34.04   -223.78   -251.76 
 2017-07-06 10:18:22  -223.78   100.00   34.04   -223.78   -251.76 
 2017-07-06 10:17:51  -223.78   100.00   34.04   -223.78   -251.76 
 2017-07-06 10:17:20  -223.78   100.00   34.04   -223.78   -251.76 
 2017-07-06 10:16:49  -223.78   100.00   34.04   -223.78   -251.76 
 2017-07-06 10:16:17  -223.78   100.00   34.04   -223.78   -251.76 
 2017-07-06 10:15:45  -223.78   100.00   34.04   -223.78   -251.76 
 2017-07-06 10:15:14  -223.78   100.00   34.04   -223.78   -251.76 
 2017-07-06 10:14:43  -223.78   100.00   34.04   -223.78   -251.76 
 2017-07-06 10:14:11  -223.78   100.00   34.04   -223.78   -251.76 
 2017-07-06 10:13:36  -223.78   100.00   34.04   -223.78   -251.76 
 2017-07-06 10:13:05  -223.78   100.00   34.04   -223.78   -251.76 
 2017-07-06 10:12:33  -223.78   100.00   34.04   -223.78   -251.76 
 2017-07-06 10:12:01  -223.78   100.00   34.04   -223.78   -251.76 
 2017-07-06 10:11:30  -223.78   100.00   34.04   -223.78   -251.76 
 2017-07-06 10:10:58  -223.78   100.00   34.04   -223.78   -251.76 
 2017-07-06 10:10:27  -223.78   100.00   34.04   -223.78   -251.76 
 2017-07-06 10:09:56  -223.78   100.00   34.04   -223.78   -251.76 
 2017-07-06 10:09:25  -223.78   100.00   34.04   -223.78   -251.76 
 2017-07-06 10:08:53  -223.78   100.00   34.04   -223.78   -251.76 
 2017-07-06 10:08:21  -223.78   100.00   34.04   -223.78   -251.76 
 2017-07-06 10:07:49  -223.78   100.00   34.04   -223.78   -251.76 
 2017-07-06 10:07:17  -223.78   100.00   34.04   -223.78   -251.76 
 2017-07-06 10:06:46  -223.78   100.00   34.04   -223.78   -251.76 
 2017-07-06 10:06:15  -223.78   100.00   34.04   -223.78   -251.76 
 2017-07-06 10:05:44  -223.78   100.00   34.04   -223.78   -251.76 
 2017-07-06 10:05:13  -223.78   100.00   34.04   -223.78   -251.76 
 2017-07-06 10:04:42  -223.78   100.00   34.04   -223.78   -251.76 
 2017-07-06 10:04:11  -223.78   100.00   34.04   -223.78   -251.76 
 2017-07-06 10:03:39  -223.78   100.00   34.04   -223.78   -251.76 
 2017-07-06 10:03:08  -223.78   100.00   34.04   -223.78   -251.76 
 2017-07-06 10:02:37  -223.78   100.00   34.04   -223.78   -251.76 
 2017-07-06 10:02:05  -223.78   100.00   34.04   -223.78   -251.76 
 2017-07-06 10:01:34  -223.78   100.00   34.04   -223.78   -251.76 
 2017-07-06 10:01:03  -223.78   100.00   34.04   -223.78   -251.76 
 2017-07-06 10:00:32  -223.78   100.00   34.04   -223.78   -251.76 
 2017-07-06 10:00:00  -223.78   100.00   34.04   -223.78   -251.76 
 2017-07-06 09:59:29  -223.78   100.00   34.04   -223.78   -251.76 
 2017-07-06 09:58:57  -223.78   100.00   34.04   -223.78   -251.76 
 2017-07-06 09:58:25  -223.78   100.00   34.04   -223.78   -251.76 
 2017-07-06 09:57:54  -223.78   100.00   34.04   -223.78   -251.76 
 2017-07-06 09:57:22  -223.78   100.00   34.04   -223.78   -251.76 
 2017-07-06 09:56:51  -223.78   100.00   34.04   -223.78   -251.76 
 2017-07-06 09:56:19  -223.78   100.00   34.04   -223.78   -251.76 
 2017-07-06 09:55:47  -223.78   100.00   34.04   -223.78   -251.76 
 2017-07-06 09:55:16  -223.78   100.00   34.04   -223.78   -251.76 
 2017-07-06 09:54:44  -223.78   100.00   34.04   -223.78   -251.76 
 2017-07-06 09:54:12  -223.78   100.00   34.04   -223.78   -251.76 
 2017-07-06 09:53:40  -223.78   100.00   34.04   -223.78   -251.76 
 2017-07-06 09:53:09  -223.78   100.00   34.04   -223.78   -251.76 
 2017-07-06 09:52:37  -223.78   100.00   34.04   -223.78   -251.76 
 2017-07-06 09:52:06  -223.78   100.00   34.04   -223.78   -251.76 
 2017-07-06 09:51:34  -223.78   100.00   34.04   -223.78   -251.76 
 2017-07-06 09:51:03  -223.78   100.00   34.04   -223.78   -251.76 
 2017-07-06 09:50:32  -223.78   100.00   34.04   -223.78   -251.76 
 2017-07-06 09:50:00  -223.78   100.00   34.04   -223.78   -251.76 
 2017-07-06 09:49:29  -223.78   100.00   34.04   -223.78   -251.76 
 2017-07-06 09:48:58  -223.78   100.00   34.04   -223.78   -251.76 
 2017-07-06 09:48:26  -223.78   100.00   34.04   -223.78   -251.76 
 2017-07-06 09:47:54  -223.78   100.00   34.04   -223.78   -251.76 
 2017-07-06 09:47:22  -223.78   100.00   34.04   -223.78   -251.76 
 2017-07-06 09:46:51  -223.78   100.00   34.04   -223.78   -251.76 
 2017-07-06 09:46:19  -223.78   100.00   34.04   -223.78   -251.76 
 2017-07-06 09:45:47  -223.78   100.00   34.04   -223.78   -251.76 
 2017-07-06 09:45:16  -223.78   100.00   34.04   -223.78   -251.76 
 2017-07-06 09:44:44  -223.78   100.00   34.04   -223.78   -251.76 
 2017-07-06 09:44:12  -223.78   100.00   34.04   -223.78   -251.76 
 2017-07-06 09:43:40  -223.78   100.00   34.04   -223.78   -251.76 
 2017-07-06 09:43:09  -223.78   100.00   34.04   -223.78   -251.76 
 2017-07-06 09:42:37  -223.78   100.00   34.04   -223.78   -251.76 
 2017-07-06 09:42:05  -223.78   100.00   34.04   -223.78   -251.76 
 2017-07-06 09:41:33  -223.78   100.00   34.04   -223.78   -251.76 
 2017-07-06 09:41:01  -223.78   100.00   34.04   -223.78   -251.76 
 2017-07-06 09:40:30  -223.78   100.00   34.04   -223.78   -251.76 
 2017-07-06 09:39:58  -223.78   100.00   34.04   -223.78   -251.76 
 2017-07-06 09:39:26  -223.78   100.00   34.04   -223.78   -251.76 
 2017-07-06 09:38:55  -223.78   100.00   34.04   -223.78   -251.76 
 2017-07-06 09:38:24  -223.78   100.00   34.04   -223.78   -251.76 
 2017-07-06 09:37:52  -223.78   100.00   34.04   -223.78   -251.76 
 2017-07-06 09:37:20  -223.78   100.00   34.04   -223.78   -251.76 
 2017-07-06 09:36:49  -223.78   100.00   34.04   -223.78   -251.76 
 2017-07-06 09:36:17  -223.78   100.00   34.04   -223.78   -251.76 
 2017-07-06 09:35:46  -223.78   100.00   34.04   -223.78   -251.76 
 2017-07-06 09:35:14  -223.78   100.00   34.04   -223.78   -251.76 
 2017-07-06 09:34:43  -223.78   100.00   34.04   -223.78   -251.76 
 2017-07-06 09:34:11  -223.78   100.00   34.04   -223.78   -251.76 
 2017-07-06 09:33:40  -223.78   100.00   34.04   -223.78   -251.76 
 2017-07-06 09:33:08  -223.78   100.00   34.04   -223.78   -251.76 
 2017-07-06 09:32:37  -223.78   100.00   34.04   -223.78   -251.76 
 2017-07-06 09:32:05  -223.78   100.00   34.04   -223.78   -251.76 
 2017-07-06 09:31:33  -223.78   100.00   34.04   -223.78   -251.76 
 2017-07-06 09:31:01  -223.78   100.00   34.04   -223.78   -251.76 
 2017-07-06 09:30:29  -223.78   100.00   34.04   -223.78   -251.76 
 2017-07-06 09:29:58  -223.78   100.00   34.04   -223.78   -251.76 
 2017-07-06 09:29:26  -223.78   100.00   34.04   -223.78   -251.76 
 2017-07-06 09:28:53  -223.78   100.00   34.04   -223.78   -251.76 
 2017-07-06 09:28:21  -223.78   100.00   34.04   -223.78   -251.76 
 2017-07-06 09:27:50  -223.78   100.00   34.04   -223.78   -251.76 
 2017-07-06 09:27:18  -223.78   100.00   34.04   -223.78   -251.76 
 2017-07-06 09:26:46  -223.78   100.00   34.04   -223.78   -251.76 
 2017-07-06 09:26:14  -223.78   100.00   34.04   -223.78   -251.76 
 2017-07-06 09:25:43  -223.78   100.00   34.04   -223.78   -251.76 
 2017-07-06 09:25:12  -223.78   100.00   34.04   -223.78   -251.76 
 2017-07-06 09:24:40  -223.78   100.00   34.04   -223.78   -251.76 
 2017-07-06 09:24:08  -223.78   100.00   34.04   -223.78   -251.76 
 2017-07-06 09:23:36  -223.78   100.00   34.04   -223.78   -251.76 
 2017-07-06 09:23:04  -223.78   100.00   34.04   -223.78   -251.76 
 2017-07-06 09:22:32  -223.78   100.00   34.04   -223.78   -251.76 
 2017-07-06 09:22:01  -223.78   100.00   34.04   -223.78   -251.76 
 2017-07-06 09:21:29  -223.78   100.00   34.04   -223.78   -251.76 
 2017-07-06 09:20:57  -223.78   100.00   34.04   -223.78   -251.76 
 2017-07-06 09:20:26  -223.78   100.00   34.04   -223.78   -251.76 
 2017-07-06 09:19:54  -223.78   100.00   34.04   -223.78   -251.76 
 2017-07-06 09:19:22  -223.78   100.00   34.04   -223.78   -251.76 
 2017-07-06 09:18:15  -223.78   100.00   34.04   -223.78   -251.76 
 2017-07-06 09:17:43  -223.78   100.00   34.04   -223.78   -251.76 
 2017-07-06 09:17:12  -223.78   100.00   34.04   -223.78   -251.76 
 2017-07-06 09:16:40  -223.78   100.00   34.04   -223.78   -251.76 
 2017-07-06 09:16:09  -223.78   100.00   34.04   -223.78   -251.76 
 2017-07-06 09:15:37  -223.78   100.00   34.04   -223.78   -251.76 
 2017-07-06 09:15:05  -223.78   100.00   34.04   -223.78   -251.76 
 2017-07-06 09:14:33  -223.78   100.00   34.04   -223.78   -251.76 
 2017-07-06 09:14:02  -223.78   100.00   34.04   -223.78   -251.76 
 2017-07-06 09:13:30  -223.78   100.00   34.04   -223.78   -251.76 
 2017-07-06 09:12:58  -223.78   100.00   34.04   -223.78   -251.76 
 2017-07-06 09:12:26  -223.78   100.00   34.04   -223.78   -251.76 
 2017-07-06 09:11:54  -223.78   100.00   34.04   -223.78   -251.76 
 2017-07-06 09:11:23  -223.78   100.00   34.04   -223.78   -251.76 
 2017-07-06 09:10:51  -223.78   100.00   34.04   -223.78   -251.76 
 2017-07-06 09:10:18  -223.78   100.00   34.04   -223.78   -251.76 
 2017-07-06 09:09:46  -223.78   100.00   34.04   -223.78   -251.76 
 2017-07-06 09:09:15  -223.78   100.00   34.04   -223.78   -251.76 
 2017-07-06 09:08:43  -223.78   100.00   34.04   -223.78   -251.76 
 2017-07-06 09:08:12  -223.78   100.00   34.04   -223.78   -251.76 
 2017-07-06 09:07:40  -223.78   100.00   34.04   -223.78   -251.76 
 2017-07-06 09:07:08  -223.78   100.00   34.04   -223.78   -251.76 
 2017-07-06 09:06:37  -223.78   100.00   34.04   -223.78   -251.76 
 2017-07-06 09:06:05  -223.78   100.00   34.04   -223.78   -251.76 
 2017-07-06 09:05:33  -223.78   100.00   34.04   -223.78   -251.76 
 2017-07-06 09:05:01  -223.78   100.00   34.04   -223.78   -251.76 
 2017-07-06 09:04:29  -223.78   100.00   34.04   -223.78   -251.76 
 2017-07-06 09:03:57  -223.78   100.00   34.04   -223.78   -251.76 
 2017-07-06 09:03:26  -223.78   100.00   34.04   -223.78   -251.76 
 2017-07-06 09:02:54  -223.78   100.00   34.04   -223.78   -251.76 
 2017-07-06 09:02:21  -223.78   100.00   34.04   -223.78   -251.76 
 2017-07-06 09:01:50  -223.78   100.00   34.04   -223.78   -251.76 
 2017-07-06 09:01:19  -223.78   100.00   34.04   -223.78   -251.76 
 2017-07-06 09:00:47  -223.78   100.00   34.04   -223.78   -251.76 
 2017-07-06 09:00:15  -223.78   100.00   34.04   -223.78   -251.76 
 2017-07-06 08:59:44  -223.78   100.00   34.04   -223.78   -251.76 
 2017-07-06 08:59:12  -223.78   100.00   34.04   -223.78   -251.76 
 2017-07-06 08:58:40  -223.78   100.00   34.04   -223.78   -251.76 
 2017-07-06 08:58:08  -223.78   100.00   34.04   -223.78   -251.76 
 2017-07-06 08:57:36  -223.78   100.00   34.04   -223.78   -251.76 
 2017-07-06 08:57:01  -223.78   100.00   34.04   -223.78   -251.76 
 2017-07-06 08:56:29  -223.78   100.00   34.04   -223.78   -251.76 
 2017-07-06 08:55:57  -223.78   100.00   34.04   -223.78   -251.76 
 2017-07-06 08:55:24  -223.78   100.00   34.04   -223.78   -251.76 
 2017-07-06 08:54:53  -223.78   100.00   34.04   -223.78   -251.76 
 2017-07-06 08:54:22  -223.78   100.00   34.04   -223.78   -251.76 
 2017-07-06 08:53:50  -223.78   100.00   34.04   -223.78   -251.76 
 2017-07-06 08:53:19  -223.78   100.00   34.04   -223.78   -251.76 
 2017-07-06 08:52:47  -223.78   100.00   34.04   -223.78   -251.76 
 2017-07-06 08:52:14  -223.78   100.00   34.04   -223.78   -251.76 
 2017-07-06 08:51:43  -223.78   100.00   34.04   -223.78   -251.76 
 2017-07-06 08:51:11  -223.78   100.00   34.04   -223.78   -251.76 
 2017-07-06 08:50:39  -223.78   100.00   34.04   -223.78   -251.76 
 2017-07-06 08:50:08  -223.78   100.00   34.04   -223.78   -251.76 
 2017-07-06 08:49:37  -223.78   100.00   34.04   -223.78   -251.76 
 2017-07-06 08:49:05  -223.78   100.00   34.04   -223.78   -251.76 
 2017-07-06 08:48:34  -223.78   100.00   34.04   -223.78   -251.76 
 2017-07-06 08:48:02  -223.78   100.00   34.04   -223.78   -251.76 
 2017-07-06 08:47:31  -223.78   100.00   34.04   -223.78   -251.76 
 2017-07-06 08:47:00  -223.78   100.00   34.04   -223.78   -251.76 
 2017-07-06 08:46:28  -223.78   100.00   34.04   -223.78   -251.76 
 2017-07-06 08:45:56  -223.78   100.00   34.04   -223.78   -251.76 
 2017-07-06 08:45:25  -223.78   100.00   34.04   -223.78   -251.76 
 2017-07-06 08:44:53  -223.78   100.00   34.04   -223.78   -251.76 
 2017-07-06 08:44:21  -223.78   100.00   34.04   -223.78   -251.76 
 2017-07-06 08:43:50  -223.78   100.00   34.04   -223.78   -251.76 
 2017-07-06 08:43:19  -223.78   100.00   34.04   -223.78   -251.76 
 2017-07-06 08:42:47  -223.78   100.00   34.04   -223.78   -251.76 
 2017-07-06 08:42:15  -223.78   100.00   34.04   -223.78   -251.76 
 2017-07-06 08:41:43  -223.78   100.00   34.04   -223.78   -251.76 
 2017-07-06 08:41:12  -223.78   100.00   34.04   -223.78   -251.76 
 2017-07-06 08:40:40  -223.78   100.00   34.04   -223.78   -251.76 
 2017-07-06 08:40:09  -223.78   100.00   34.04   -223.78   -251.76 
 2017-07-06 08:39:37  -223.78   100.00   34.04   -223.78   -251.76 
 2017-07-06 08:39:06  -223.78   100.00   34.04   -223.78   -251.76 
 2017-07-06 08:38:34  -223.78   100.00   34.04   -223.78   -251.76 
 2017-07-06 08:38:02  -223.78   100.00   34.04   -223.78   -251.76 
 2017-07-06 08:37:28  -223.78   100.00   34.04   -223.78   -251.76 
 2017-07-06 08:36:57  -223.78   100.00   34.04   -223.78   -251.76 
 2017-07-06 08:36:25  -223.78   100.00   34.04   -223.78   -251.76 
 2017-07-06 08:35:53  -223.78   100.00   34.04   -223.78   -251.76 
 2017-07-06 08:35:22  -223.78   100.00   34.04   -223.78   -251.76 
 2017-07-06 08:34:50  -223.78   100.00   34.04   -223.78   -251.76 
 2017-07-06 08:34:18  -223.78   100.00   34.04   -223.78   -251.76 
 2017-07-06 08:33:47  -223.78   100.00   34.04   -223.78   -251.76 
 2017-07-06 08:33:16  -223.78   100.00   34.04   -223.78   -251.76 
 2017-07-06 08:32:44  -223.78   100.00   34.04   -223.78   -251.76 
 2017-07-06 08:32:12  -223.78   100.00   34.04   -223.78   -251.76 
 2017-07-06 08:31:40  -223.78   100.00   34.04   -223.78   -251.76 
 2017-07-06 08:31:08  -223.78   100.00   34.04   -223.78   -251.76 
 2017-07-06 08:30:37  -223.78   100.00   34.04   -223.78   -251.76 
 2017-07-06 08:30:05  -223.78   100.00   34.04   -223.78   -251.76 
 2017-07-06 08:29:33  -223.78   100.00   34.04   -223.78   -251.76 
 2017-07-06 08:29:01  -223.78   100.00   34.04   -223.78   -251.76 
 2017-07-06 08:28:30  -223.78   100.00   34.04   -223.78   -251.76 
 2017-07-06 08:27:59  -223.78   100.00   34.04   -223.78   -251.76 
 2017-07-06 08:27:27  -223.78   100.00   34.04   -223.78   -251.76 
 2017-07-06 08:26:55  -223.78   100.00   34.04   -223.78   -251.76 
 2017-07-06 08:26:24  -223.78   100.00   34.04   -223.78   -251.76 
 2017-07-06 08:25:53  -223.78   100.00   34.04   -223.78   -251.76 
 2017-07-06 08:25:21  -223.78   100.00   34.04   -223.78   -251.76 
 2017-07-06 08:24:50  -223.78   100.00   34.04   -223.78   -251.76 
 2017-07-06 08:24:18  -223.78   100.00   34.04   -223.78   -251.76 
 2017-07-06 08:23:46  -223.78   100.00   34.04   -223.78   -251.76 
 2017-07-06 08:23:15  -223.78   100.00   34.04   -223.78   -251.76 
 2017-07-06 08:22:43  -223.78   100.00   34.04   -223.78   -251.76 
 2017-07-06 08:22:11  -223.78   100.00   34.04   -223.78   -251.76 
 2017-07-06 08:21:40  -223.78   100.00   34.04   -223.78   -251.76 
 2017-07-06 08:21:09  -223.78   100.00   34.04   -223.78   -251.76 
 2017-07-06 08:20:37  -223.78   100.00   34.04   -223.78   -251.76 
 2017-07-06 08:20:06  -223.78   100.00   34.04   -223.78   -251.76 
 2017-07-06 08:19:34  -223.78   100.00   34.04   -223.78   -251.76 
 2017-07-06 08:19:02  -223.78   100.00   34.04   -223.78   -251.76 
 2017-07-06 08:18:31  -223.78   100.00   34.04   -223.78   -251.76 
 2017-07-06 08:17:59  -223.78   100.00   34.04   -223.78   -251.76 
 2017-07-06 08:17:27  -223.78   100.00   34.04   -223.78   -251.76 
 2017-07-06 08:16:56  -223.78   100.00   34.04   -223.78   -251.76 
 2017-07-06 08:16:25  -223.78   100.00   34.04   -223.78   -251.76 
 2017-07-06 08:15:53  -223.78   100.00   34.04   -223.78   -251.76 
 2017-07-06 08:15:21  -223.78   100.00   34.04   -223.78   -251.76 
 2017-07-06 08:14:50  -223.78   100.00   34.04   -223.78   -251.76 
 2017-07-06 08:14:19  -223.78   100.00   34.04   -223.78   -251.76 
 2017-07-06 08:13:47  -223.78   100.00   34.04   -223.78   -251.76 
 2017-07-06 08:13:15  -223.78   100.00   34.04   -223.78   -251.76 
 2017-07-06 08:12:44  -223.78   100.00   34.04   -223.78   -251.76 
 2017-07-06 08:12:12  -223.78   100.00   34.04   -223.78   -251.76 
 2017-07-06 08:11:41  -223.78   100.00   34.04   -223.78   -251.76 
 2017-07-06 08:11:09  -223.78   100.00   34.04   -223.78   -251.76 
 2017-07-06 08:10:37  -223.78   100.00   34.04   -223.78   -251.76 
 2017-07-06 08:10:06  -223.78   100.00   34.04   -223.78   -251.76 
 2017-07-06 08:09:34  -223.78   100.00   34.04   -223.78   -251.76 
 2017-07-06 08:09:03  -223.78   100.00   34.04   -223.78   -251.76 
 2017-07-06 08:08:31  -223.78   100.00   34.04   -223.78   -251.76 
 2017-07-06 08:08:00  -223.78   100.00   34.04   -223.78   -251.76 
 2017-07-06 08:07:26  -223.78   100.00   34.04   -223.78   -251.76 
 2017-07-06 08:06:52  -223.78   100.00   34.04   -223.78   -251.76 
 2017-07-06 08:06:20  -223.78   100.00   34.04   -223.78   -251.76 
 2017-07-06 08:05:48  -223.78   100.00   34.04   -223.78   -251.76 
 2017-07-06 08:05:17  -223.78   100.00   34.04   -223.78   -251.76 
 2017-07-06 08:04:45  -223.78   100.00   34.04   -223.78   -251.76 
 2017-07-06 08:04:13  -223.78   100.00   34.04   -223.78   -251.76 
 2017-07-06 08:03:42  -223.78   100.00   34.04   -223.78   -251.76 
 2017-07-06 08:03:10  -223.78   100.00   34.04   -223.78   -251.76 
 2017-07-06 08:02:38  -223.78   100.00   34.04   -223.78   -251.76 
 2017-07-06 08:02:07  -223.78   100.00   34.04   -223.78   -251.76 
 2017-07-06 08:01:36  -223.78   100.00   34.04   -223.78   -251.76 
 2017-07-06 08:01:05  -223.78   100.00   34.04   -223.78   -251.76 
 2017-07-06 08:00:34  -223.78   100.00   34.04   -223.78   -251.76 
 2017-07-06 08:00:03  -223.78   100.00   34.04   -223.78   -251.76 
 2017-07-06 07:59:31  -223.78   100.00   34.04   -223.78   -251.76 
 2017-07-06 07:59:00  -223.78   100.00   34.04   -223.78   -251.76 
 2017-07-06 07:58:29  -223.78   100.00   34.04   -223.78   -251.76 
 2017-07-06 07:57:58  -223.78   100.00   34.04   -223.78   -251.76 
 2017-07-06 07:57:27  -223.78   100.00   34.04   -223.78   -251.76 
 2017-07-06 07:56:56  -223.78   100.00   34.04   -223.78   -251.76 
 2017-07-06 07:56:25  -223.78   100.00   34.04   -223.78   -251.76 
 2017-07-06 07:55:53  -223.78   100.00   34.04   -223.78   -251.76 
 2017-07-06 07:55:20  -223.78   100.00   34.04   -223.78   -251.76 
 2017-07-06 07:54:49  -223.78   100.00   34.04   -223.78   -251.76 
 2017-07-06 07:54:18  -223.78   100.00   34.04   -223.78   -251.76 
 2017-07-06 07:53:47  -223.78   100.00   34.04   -223.78   -251.76 
 2017-07-06 07:53:16  -223.78   100.00   34.04   -223.78   -251.76 
 2017-07-06 07:52:44  -223.78   100.00   34.04   -223.78   -251.76 
 2017-07-06 07:52:13  -223.78   100.00   34.04   -223.78   -251.76 
 2017-07-06 07:51:40  -223.78   100.00   34.04   -223.78   -251.76 
 2017-07-06 07:51:09  -223.78   100.00   34.04   -223.78   -251.76 
 2017-07-06 07:50:38  -223.78   100.00   34.04   -223.78   -251.76 
 2017-07-06 07:50:07  -223.78   100.00   34.04   -223.78   -251.76 
 2017-07-06 07:49:35  -223.78   100.00   34.04   -223.78   -251.76 
 2017-07-06 07:49:04  -223.78   100.00   34.04   -223.78   -251.76 
 2017-07-06 07:48:32  -223.78   100.00   34.04   -223.78   -251.76 
 2017-07-06 07:48:01  -223.78   100.00   34.04   -223.78   -251.76 
 2017-07-06 07:47:30  -223.78   100.00   34.04   -223.78   -251.76 
 2017-07-06 07:46:59  -223.78   100.00   34.04   -223.78   -251.76 
 2017-07-06 07:46:28  -223.78   100.00   34.04   -223.78   -251.76 
 2017-07-06 07:45:57  -223.78   100.00   34.04   -223.78   -251.76 
 2017-07-06 07:45:26  -223.78   100.00   34.04   -223.78   -251.76 
 2017-07-06 07:44:53  -223.78   100.00   34.04   -223.78   -251.76 
 2017-07-06 07:44:22  -223.78   100.00   34.04   -223.78   -251.76 
 2017-07-06 07:43:49  -223.78   100.00   34.04   -223.78   -251.76 
 2017-07-06 07:43:16  -223.78   100.00   34.04   -223.78   -251.76 
 2017-07-06 07:42:45  -223.78   100.00   34.04   -223.78   -251.76 
 2017-07-06 07:42:11  -223.78   100.00   34.04   -223.78   -251.76 
 2017-07-06 07:41:40  -223.78   100.00   34.04   -223.78   -251.76 
 2017-07-06 07:41:08  -223.78   100.00   34.04   -223.78   -251.76 
 2017-07-06 07:40:36  -223.78   100.00   34.04   -223.78   -251.76 
 2017-07-06 07:40:04  -223.78   100.00   34.04   -223.78   -251.76 
 2017-07-06 07:39:33  -223.78   100.00   34.04   -223.78   -251.76 
 2017-07-06 07:39:02  -223.78   100.00   34.04   -223.78   -251.76 
 2017-07-06 07:38:29  -223.78   100.00   34.04   -223.78   -251.76 
 2017-07-06 07:37:58  -223.78   100.00   34.04   -223.78   -251.76 
 2017-07-06 07:37:27  -223.78   100.00   34.04   -223.78   -251.76 
 2017-07-06 07:36:56  -223.78   100.00   34.04   -223.78   -251.76 
 2017-07-06 07:36:24  -223.78   100.00   34.04   -223.78   -251.76 
 2017-07-06 07:35:53  -223.78   100.00   34.04   -223.78   -251.76 
 2017-07-06 07:35:21  -223.78   100.00   34.04   -223.78   -251.76 
 2017-07-06 07:34:50  -223.78   100.00   34.04   -223.78   -251.76 
 2017-07-06 07:34:19  -223.78   100.00   34.04   -223.78   -251.76 
 2017-07-06 07:33:48  -223.78   100.00   34.04   -223.78   -251.76 
 2017-07-06 07:33:15  -223.78   100.00   34.04   -223.78   -251.76 
 2017-07-06 07:32:43  -223.78   100.00   34.04   -223.78   -251.76 
 2017-07-06 07:32:12  -223.78   100.00   34.04   -223.78   -251.76 
 2017-07-06 07:31:41  -223.78   100.00   34.04   -223.78   -251.76 
 2017-07-06 07:31:09  -223.78   100.00   34.04   -223.78   -251.76 
 2017-07-06 07:30:38  -223.78   100.00   34.04   -223.78   -251.76 
 2017-07-06 07:30:07  -223.78   100.00   34.04   -223.78   -251.76 
 2017-07-06 07:29:36  -223.78   100.00   34.04   -223.78   -251.76 
 2017-07-06 07:29:04  -223.78   100.00   34.04   -223.78   -251.76 
 2017-07-06 07:28:32  -223.78   100.00   34.04   -223.78   -251.76 
 2017-07-06 07:28:01  -223.78   100.00   34.04   -223.78   -251.76 
 2017-07-06 07:27:29  -223.78   100.00   34.04   -223.78   -251.76 
 2017-07-06 07:26:58  -223.78   100.00   34.04   -223.78   -251.76 
 2017-07-06 07:26:27  -223.78   100.00   34.04   -223.78   -251.76 
 2017-07-06 07:25:56  -223.78   100.00   34.04   -223.78   -251.76 
 2017-07-06 07:25:25  -223.78   100.00   34.04   -223.78   -251.76 
 2017-07-06 07:24:53  -223.78   100.00   34.04   -223.78   -251.76 
 2017-07-06 07:24:22  -223.78   100.00   34.04   -223.78   -251.76 
 2017-07-06 07:23:51  -223.78   100.00   34.04   -223.78   -251.76 
 2017-07-06 07:23:20  -223.78   100.00   34.04   -223.78   -251.76 
 2017-07-06 07:22:48  -223.78   100.00   34.04   -223.78   -251.76 
 2017-07-06 07:22:17  -223.78   100.00   34.04   -223.78   -251.76 
 2017-07-06 07:21:46  -223.78   100.00   34.04   -223.78   -251.76 
 2017-07-06 07:21:14  -223.78   100.00   34.04   -223.78   -251.76 
 2017-07-06 07:20:42  -223.78   100.00   34.04   -223.78   -251.76 
 2017-07-06 07:20:10  -223.78   100.00   34.04   -223.78   -251.76 
 2017-07-06 07:19:39  -223.78   100.00   34.04   -223.78   -251.76 
 2017-07-06 07:19:07  -223.78   100.00   34.04   -223.78   -251.76 
 2017-07-06 07:18:35  -223.78   100.00   34.04   -223.78   -251.76 
 2017-07-06 07:18:03  -223.78   100.00   34.04   -223.78   -251.76 
 2017-07-06 07:17:31  -223.78   100.00   34.04   -223.78   -251.76 
 2017-07-06 07:16:59  -223.78   100.00   34.04   -223.78   -251.76 
 2017-07-06 07:16:27  -223.78   100.00   34.04   -223.78   -251.76 
 2017-07-06 07:15:55  -223.78   100.00   34.04   -223.78   -251.76 
 2017-07-06 07:15:23  -223.78   100.00   34.04   -223.78   -251.76 
 2017-07-06 07:14:51  -223.78   100.00   34.04   -223.78   -251.76 
 2017-07-06 07:14:19  -223.78   100.00   34.04   -223.78   -251.76 
 2017-07-06 07:13:47  -223.78   100.00   34.04   -223.78   -251.76 
 2017-07-06 07:13:16  -223.78   100.00   34.04   -223.78   -251.76 
 2017-07-06 07:12:44  -223.78   100.00   34.04   -223.78   -251.76 
 2017-07-06 07:12:12  -223.78   100.00   34.04   -223.78   -251.76 
 2017-07-06 07:11:41  -223.78   100.00   34.04   -223.78   -251.76 
 2017-07-06 07:11:10  -223.78   100.00   34.04   -223.78   -251.76 
 2017-07-06 07:10:39  -223.78   100.00   34.04   -223.78   -251.76 
 2017-07-06 07:10:07  -223.78   100.00   34.04   -223.78   -251.76 
 2017-07-06 07:09:35  -223.78   100.00   34.04   -223.78   -251.76 
 2017-07-06 07:08:28  -223.78   100.00   34.04   -223.78   -251.76 
 2017-07-06 07:07:57  -223.78   100.00   34.04   -223.78   -251.76 
 2017-07-06 07:07:25  -223.78   100.00   34.04   -223.78   -251.76 
 2017-07-06 07:06:53  -223.78   100.00   34.04   -223.78   -251.76 
 2017-07-06 07:06:21  -223.78   100.00   34.04   -223.78   -251.76 
 2017-07-06 07:05:49  -223.78   100.00   34.04   -223.78   -251.76 
 2017-07-06 07:05:17  -223.78   100.00   34.04   -223.78   -251.76 
 2017-07-06 07:04:45  -223.78   100.00   34.04   -223.78   -251.76 
 2017-07-06 07:04:14  -223.78   100.00   34.04   -223.78   -251.76 
 2017-07-06 07:03:42  -223.78   100.00   34.04   -223.78   -251.76 
 2017-07-06 07:03:10  -223.78   100.00   34.04   -223.78   -251.76 
 2017-07-06 07:02:38  -223.78   100.00   34.04   -223.78   -251.76 
 2017-07-06 07:02:07  -223.78   100.00   34.04   -223.78   -251.76 
 2017-07-06 07:01:35  -223.78   100.00   34.04   -223.78   -251.76 
 2017-07-06 07:01:03  -223.78   100.00   34.04   -223.78   -251.76 
 2017-07-06 07:00:28  -223.78   100.00   34.04   -223.78   -251.76 
 2017-07-06 06:59:57  -223.78   100.00   34.04   -223.78   -251.76 
 2017-07-06 06:59:25  -223.78   100.00   34.04   -223.78   -251.76 
 2017-07-06 06:58:54  -223.78   100.00   34.04   -223.78   -251.76 
 2017-07-06 06:58:22  -223.78   100.00   34.04   -223.78   -251.76 
 2017-07-06 06:57:50  -223.78   100.00   34.04   -223.78   -251.76 
 2017-07-06 06:57:19  -223.78   100.00   34.04   -223.78   -251.76 
 2017-07-06 06:56:47  -223.78   100.00   34.04   -223.78   -251.76 
 2017-07-06 06:56:15  -223.78   100.00   34.04   -223.78   -251.76 
 2017-07-06 06:55:43  -223.78   100.00   34.04   -223.78   -251.76 
 2017-07-06 06:55:12  -223.78   100.00   34.04   -223.78   -251.76 
 2017-07-06 06:54:40  -223.78   100.00   34.04   -223.78   -251.76 
 2017-07-06 06:54:08  -223.78   100.00   34.04   -223.78   -251.76 
 2017-07-06 06:53:36  -223.78   100.00   34.04   -223.78   -251.76 
 2017-07-06 06:53:05  -223.78   100.00   34.04   -223.78   -251.76 
 2017-07-06 06:52:33  -223.78   100.00   34.04   -223.78   -251.76 
 2017-07-06 06:52:01  -223.78   100.00   34.04   -223.78   -251.76 
 2017-07-06 06:51:29  -223.78   100.00   34.04   -223.78   -251.76 
 2017-07-06 06:50:58  -223.78   100.00   34.04   -223.78   -251.76 
 2017-07-06 06:50:26  -223.78   100.00   34.04   -223.78   -251.76 
 2017-07-06 06:49:54  -223.78   100.00   34.04   -223.78   -251.76 
 2017-07-06 06:49:22  -223.78   100.00   34.04   -223.78   -251.76 
 2017-07-06 06:48:50  -223.78   100.00   34.04   -223.78   -251.76 
 2017-07-06 06:48:19  -223.78   100.00   34.04   -223.78   -251.76 
 2017-07-06 06:47:48  -223.78   100.00   34.04   -223.78   -251.76 
 2017-07-06 06:47:16  -223.78   100.00   34.04   -223.78   -251.76 
 2017-07-06 06:46:44  -223.78   100.00   34.04   -223.78   -251.76 
 2017-07-06 06:45:37  -223.78   100.00   34.04   -223.78   -251.76 
 2017-07-06 06:45:05  -223.78   100.00   34.04   -223.78   -251.76 
 2017-07-06 06:44:34  -223.78   100.00   34.04   -223.78   -251.76 
 2017-07-06 06:44:02  -223.78   100.00   34.04   -223.78   -251.76 
 2017-07-06 06:43:29  -223.78   100.00   34.04   -223.78   -251.76 
 2017-07-06 06:42:57  -223.78   100.00   34.04   -223.78   -251.76 
 2017-07-06 06:42:26  -223.78   100.00   34.04   -223.78   -251.76 
 2017-07-06 06:41:54  -223.78   100.00   34.04   -223.78   -251.76 
 2017-07-06 06:41:22  -223.78   100.00   34.04   -223.78   -251.76 
 2017-07-06 06:40:50  -223.78   100.00   34.04   -223.78   -251.76 
 2017-07-06 06:40:19  -223.78   100.00   34.04   -223.78   -251.76 
 2017-07-06 06:39:47  -223.78   100.00   34.04   -223.78   -251.76 
 2017-07-06 06:39:15  -223.78   100.00   34.04   -223.78   -251.76 
 2017-07-06 06:38:42  -223.78   100.00   34.04   -223.78   -251.76 
 2017-07-06 06:38:10  -223.78   100.00   34.04   -223.78   -251.76 
 2017-07-06 06:37:38  -223.78   100.00   34.04   -223.78   -251.76 
 2017-07-06 06:37:07  -223.78   100.00   34.04   -223.78   -251.76 
 2017-07-06 06:36:35  -223.78   100.00   34.04   -223.78   -251.76 
 2017-07-06 06:36:04  -223.78   100.00   34.04   -223.78   -251.76 
 2017-07-06 06:35:33  -223.78   100.00   34.04   -223.78   -251.76 
 2017-07-06 06:34:59  -223.78   100.00   34.04   -223.78   -251.76 
 2017-07-06 06:34:27  -223.78   100.00   34.04   -223.78   -251.76 
 2017-07-06 06:33:54  -223.78   100.00   34.04   -223.78   -251.76 
 2017-07-06 06:33:22  -223.78   100.00   34.04   -223.78   -251.76 
 2017-07-06 06:32:49  -223.78   100.00   34.04   -223.78   -251.76 
 2017-07-06 06:32:18  -223.78   100.00   34.04   -223.78   -251.76 
 2017-07-06 06:31:46  -223.78   100.00   34.04   -223.78   -251.76 
 2017-07-06 06:31:15  -223.78   100.00   34.04   -223.78   -251.76 
 2017-07-06 06:30:44  -223.78   100.00   34.04   -223.78   -251.76 
 2017-07-06 06:30:12  -223.78   100.00   34.04   -223.78   -251.76 
 2017-07-06 06:29:40  -223.78   100.00   34.04   -223.78   -251.76 
 2017-07-06 06:29:09  -223.78   100.00   34.04   -223.78   -251.76 
 2017-07-06 06:28:38  -223.78   100.00   34.04   -223.78   -251.76 
 2017-07-06 06:28:06  -223.78   100.00   34.04   -223.78   -251.76 
 2017-07-06 06:27:35  -223.78   100.00   34.04   -223.78   -251.76 
 2017-07-06 06:27:03  -223.78   100.00   34.04   -223.78   -251.76 
 2017-07-06 06:26:31  -223.78   100.00   34.04   -223.78   -251.76 
 2017-07-06 06:26:00  -223.78   100.00   34.04   -223.78   -251.76 
 2017-07-06 06:25:29  -223.78   100.00   34.04   -223.78   -251.76 
 2017-07-06 06:24:58  -223.78   100.00   34.04   -223.78   -251.76 
 2017-07-06 06:24:27  -223.78   100.00   34.04   -223.78   -251.76 
 2017-07-06 06:23:56  -223.78   100.00   34.04   -223.78   -251.76 
 2017-07-06 06:23:25  -223.78   100.00   34.04   -223.78   -251.76 
 2017-07-06 06:22:54  -223.78   100.00   34.04   -223.78   -251.76 
 2017-07-06 06:22:23  -223.78   100.00   34.04   -223.78   -251.76 
 2017-07-06 06:21:50  -223.78   100.00   34.04   -223.78   -251.76 
 2017-07-06 06:21:19  -223.78   100.00   34.04   -223.78   -251.76 
 2017-07-06 06:20:48  -223.78   100.00   34.04   -223.78   -251.76 
 2017-07-06 06:20:16  -223.78   100.00   34.04   -223.78   -251.76 
 2017-07-06 06:19:45  -223.78   100.00   34.04   -223.78   -251.76 
 2017-07-06 06:19:13  -223.78   100.00   34.04   -223.78   -251.76 
 2017-07-06 06:18:42  -223.78   100.00   34.04   -223.78   -251.76 
 2017-07-06 06:18:11  -223.78   100.00   34.04   -223.78   -251.76 
 2017-07-06 06:17:40  -223.78   100.00   34.04   -223.78   -251.76 
 2017-07-06 06:17:08  -223.78   100.00   34.04   -223.78   -251.76 
 2017-07-06 06:16:35  -223.78   100.00   34.04   -223.78   -251.76 
 2017-07-06 06:16:04  -223.78   100.00   34.04   -223.78   -251.76 
 2017-07-06 06:15:32  -223.78   100.00   34.04   -223.78   -251.76 
 2017-07-06 06:15:01  -223.78   100.00   34.04   -223.78   -251.76 
 2017-07-06 06:14:30  -223.78   100.00   34.04   -223.78   -251.76 
 2017-07-06 06:13:59  -223.78   100.00   34.04   -223.78   -251.76 
 2017-07-06 06:13:28  -223.78   100.00   34.04   -223.78   -251.76 
 2017-07-06 06:12:56  -223.78   100.00   34.04   -223.78   -251.76 
 2017-07-06 06:12:25  -223.78   100.00   34.04   -223.78   -251.76 
 2017-07-06 06:11:52  -223.78   100.00   34.04   -223.78   -251.76 
 2017-07-06 06:11:21  -223.78   100.00   34.04   -223.78   -251.76 
 2017-07-06 06:10:50  -223.78   100.00   34.04   -223.78   -251.76 
 2017-07-06 06:10:19  -223.78   100.00   34.04   -223.78   -251.76 
 2017-07-06 06:09:48  -223.78   100.00   34.04   -223.78   -251.76 
 2017-07-06 06:09:17  -223.78   100.00   34.04   -223.78   -251.76 
 2017-07-06 06:08:45  -223.78   100.00   34.04   -223.78   -251.76 
 2017-07-06 06:08:14  -223.78   100.00   34.04   -223.78   -251.76 
 2017-07-06 06:07:42  -223.78   100.00   34.04   -223.78   -251.76 
 2017-07-06 06:07:10  -223.78   100.00   34.04   -223.78   -251.76 
 2017-07-06 06:06:37  -223.78   100.00   34.04   -223.78   -251.76 
 2017-07-06 06:06:06  -223.78   100.00   34.04   -223.78   -251.76 
 2017-07-06 06:05:35  -223.78   100.00   34.04   -223.78   -251.76 
 2017-07-06 06:05:03  -223.78   100.00   34.04   -223.78   -251.76 
 2017-07-06 06:04:31  -223.78   100.00   34.04   -223.78   -251.76 
 2017-07-06 06:04:00  -223.78   100.00   34.04   -223.78   -251.76 
 2017-07-06 06:03:28  -223.78   100.00   34.04   -223.78   -251.76 
 2017-07-06 06:02:57  -223.78   100.00   34.04   -223.78   -251.76 
 2017-07-06 06:02:25  -223.78   100.00   34.04   -223.78   -251.76 
 2017-07-06 06:01:52  -223.78   100.00   34.04   -223.78   -251.76 
 2017-07-06 06:01:21  -223.78   100.00   34.04   -223.78   -251.76 
 2017-07-06 06:00:49  -223.78   100.00   34.04   -223.78   -251.76 
 2017-07-06 06:00:17  -223.78   100.00   34.04   -223.78   -251.76 
 2017-07-06 05:59:45  -223.78   100.00   34.04   -223.78   -251.76 
 2017-07-06 05:59:13  -223.78   100.00   34.04   -223.78   -251.76 
 2017-07-06 05:58:42  -223.78   100.00   34.04   -223.78   -251.76 
 2017-07-06 05:58:11  -223.78   100.00   34.04   -223.78   -251.76 
 2017-07-06 05:57:40  -223.78   100.00   34.04   -223.78   -251.76 
 2017-07-06 05:57:08  -223.78   100.00   34.04   -223.78   -251.76 
 2017-07-06 05:56:37  -223.78   100.00   34.04   -223.78   -251.76 
 2017-07-06 05:56:06  -223.78   100.00   34.04   -223.78   -251.76 
 2017-07-06 05:55:35  -223.78   100.00   34.04   -223.78   -251.76 
 2017-07-06 05:55:03  -223.78   100.00   34.04   -223.78   -251.76 
 2017-07-06 05:54:31  -223.78   100.00   34.04   -223.78   -251.76 
 2017-07-06 05:54:00  -223.78   100.00   34.04   -223.78   -251.76 
 2017-07-06 05:53:28  -223.78   100.00   34.04   -223.78   -251.76 
 2017-07-06 05:52:56  -223.78   100.00   34.04   -223.78   -251.76 
 2017-07-06 05:52:24  -223.78   100.00   34.04   -223.78   -251.76 
 2017-07-06 05:51:53  -223.78   100.00   34.04   -223.78   -251.76 
 2017-07-06 05:51:21  -223.78   100.00   34.04   -223.78   -251.76 
 2017-07-06 05:50:50  -223.78   100.00   34.04   -223.78   -251.76 
 2017-07-06 05:50:18  -223.78   100.00   34.04   -223.78   -251.76 
 2017-07-06 05:49:47  -223.78   100.00   34.04   -223.78   -251.76 
 2017-07-06 05:49:15  -223.78   100.00   34.04   -223.78   -251.76 
 2017-07-06 05:48:43  -223.78   100.00   34.04   -223.78   -251.76 
 2017-07-06 05:48:12  -223.78   100.00   34.04   -223.78   -251.76 
 2017-07-06 05:47:40  -223.78   100.00   34.04   -223.78   -251.76 
 2017-07-06 05:47:08  -223.78   100.00   34.04   -223.78   -251.76 
 2017-07-06 05:46:37  -223.78   100.00   34.04   -223.78   -251.76 
 2017-07-06 05:46:05  -223.78   100.00   34.04   -223.78   -251.76 
 2017-07-06 05:45:35  -223.78   100.00   34.04   -223.78   -251.76 
 2017-07-06 05:45:03  -223.78   100.00   34.04   -223.78   -251.76 
 2017-07-06 05:44:32  -223.78   100.00   34.04   -223.78   -251.76 
 2017-07-06 05:44:00  -223.78   100.00   34.04   -223.78   -251.76 
 2017-07-06 05:43:29  -223.78   100.00   34.04   -223.78   -251.76 
 2017-07-06 05:42:57  -223.78   100.00   34.04   -223.78   -251.76 
 2017-07-06 05:42:25  -223.78   100.00   34.04   -223.78   -251.76 
 2017-07-06 05:41:54  -223.78   100.00   34.04   -223.78   -251.76 
 2017-07-06 05:41:22  -223.78   100.00   34.04   -223.78   -251.76 
 2017-07-06 05:40:50  -223.78   100.00   34.04   -223.78   -251.76 
 2017-07-06 05:40:18  -223.78   100.00   34.04   -223.78   -251.76 
 2017-07-06 05:39:47  -223.78   100.00   34.04   -223.78   -251.76 
 2017-07-06 05:39:15  -223.78   100.00   34.04   -223.78   -251.76 
 2017-07-06 05:38:43  -223.78   100.00   34.04   -223.78   -251.76 
 2017-07-06 05:38:12  -223.78   100.00   34.04   -223.78   -251.76 
 2017-07-06 05:37:40  -223.78   100.00   34.04   -223.78   -251.76 
 2017-07-06 05:37:08  -223.78   100.00   34.04   -223.78   -251.76 
 2017-07-06 05:36:33  -223.78   100.00   34.04   -223.78   -251.76 
 2017-07-06 05:36:01  -223.78   100.00   34.04   -223.78   -251.76 
 2017-07-06 05:35:29  -223.78   100.00   34.04   -223.78   -251.76 
 2017-07-06 05:34:57  -223.78   100.00   34.04   -223.78   -251.76 
 2017-07-06 05:34:26  -223.78   100.00   34.04   -223.78   -251.76 
 2017-07-06 05:33:54  -223.78   100.00   34.04   -223.78   -251.76 
 2017-07-06 05:33:22  -223.78   100.00   34.04   -223.78   -251.76 
 2017-07-06 05:32:51  -223.78   100.00   34.04   -223.78   -251.76 
 2017-07-06 05:32:19  -223.78   100.00   34.04   -223.78   -251.76 
 2017-07-06 05:31:47  -223.78   100.00   34.04   -223.78   -251.76 
 2017-07-06 05:31:16  -223.78   100.00   34.04   -223.78   -251.76 
 2017-07-06 05:30:45  -223.78   100.00   34.04   -223.78   -251.76 
 2017-07-06 05:30:13  -223.78   100.00   34.04   -223.78   -251.76 
 2017-07-06 05:29:42  -223.78   100.00   34.04   -223.78   -251.76 
 2017-07-06 05:29:10  -223.78   100.00   34.04   -223.78   -251.76 
 2017-07-06 05:28:39  -223.78   100.00   34.04   -223.78   -251.76 
 2017-07-06 05:28:07  -223.78   100.00   34.04   -223.78   -251.76 
 2017-07-06 05:27:36  -223.78   100.00   34.04   -223.78   -251.76 
 2017-07-06 05:27:05  -223.78   100.00   34.04   -223.78   -251.76 
 2017-07-06 05:26:31  -223.78   100.00   34.04   -223.78   -251.76 
 2017-07-06 05:26:00  -223.78   100.00   34.04   -223.78   -251.76 
 2017-07-06 05:25:28  -223.78   100.00   34.04   -223.78   -251.76 
 2017-07-06 05:24:56  -223.78   100.00   34.04   -223.78   -251.76 
 2017-07-06 05:24:25  -223.78   100.00   34.04   -223.78   -251.76 
 2017-07-06 05:23:54  -223.78   100.00   34.04   -223.78   -251.76 
 2017-07-06 05:23:22  -223.78   100.00   34.04   -223.78   -251.76 
 2017-07-06 05:22:51  -223.78   100.00   34.04   -223.78   -251.76 
 2017-07-06 05:22:18  -223.78   100.00   34.04   -223.78   -251.76 
 2017-07-06 05:21:46  -223.78   100.00   34.04   -223.78   -251.76 
 2017-07-06 05:21:15  -223.78   100.00   34.04   -223.78   -251.76 
 2017-07-06 05:20:44  -223.78   100.00   34.04   -223.78   -251.76 
 2017-07-06 05:20:13  -223.78   100.00   34.04   -223.78   -251.76 
 2017-07-06 05:19:41  -223.78   100.00   34.04   -223.78   -251.76 
 2017-07-06 05:19:09  -223.78   100.00   34.04   -223.78   -251.76 
 2017-07-06 05:18:37  -223.78   100.00   34.04   -223.78   -251.76 
 2017-07-06 05:18:06  -223.78   100.00   34.04   -223.78   -251.76 
 2017-07-06 05:17:34  -223.78   100.00   34.04   -223.78   -251.76 
 2017-07-06 05:17:02  -223.78   100.00   34.04   -223.78   -251.76 
 2017-07-06 05:16:31  -223.78   100.00   34.04   -223.78   -251.76 
 2017-07-06 05:16:00  -223.78   100.00   34.04   -223.78   -251.76 
 2017-07-06 05:15:28  -223.78   100.00   34.04   -223.78   -251.76 
 2017-07-06 05:14:56  -223.78   100.00   34.04   -223.78   -251.76 
 2017-07-06 05:14:25  -223.78   100.00   34.04   -223.78   -251.76 
 2017-07-06 05:13:54  -223.78   100.00   34.04   -223.78   -251.76 
 2017-07-06 05:13:25  -223.78   100.00   34.04   -223.78   -251.76 
 2017-07-06 05:12:47  -223.78   100.00   34.04   -223.78   -251.76 
 2017-07-06 05:12:16  -223.78   100.00   34.04   -223.78   -251.76 
 2017-07-06 05:11:44  -223.78   100.00   34.04   -223.78   -251.76 
 2017-07-06 05:11:12  -223.78   100.00   34.04   -223.78   -251.76 
 2017-07-06 05:10:41  -223.78   100.00   34.04   -223.78   -251.76 
 2017-07-06 05:10:10  -223.78   100.00   34.04   -223.78   -251.76 
 2017-07-06 05:09:39  -223.78   100.00   34.04   -223.78   -251.76 
 2017-07-06 05:09:07  -223.78   100.00   34.04   -223.78   -251.76 
 2017-07-06 05:08:35  -223.78   100.00   34.04   -223.78   -251.76 
 2017-07-06 05:08:04  -223.78   100.00   34.04   -223.78   -251.76 
 2017-07-06 05:07:32  -223.78   100.00   34.04   -223.78   -251.76 
 2017-07-06 05:07:00  -223.78   100.00   34.04   -223.78   -251.76 
 2017-07-06 05:06:27  -223.78   100.00   34.04   -223.78   -251.76 
 2017-07-06 05:05:20  -223.78   100.00   34.04   -223.78   -251.76 
 2017-07-06 05:04:49  -223.78   100.00   34.04   -223.78   -251.76 
 2017-07-06 05:04:17  -223.78   100.00   34.04   -223.78   -251.76 
 2017-07-06 05:03:46  -223.78   100.00   34.04   -223.78   -251.76 
 2017-07-06 05:03:14  -223.78   100.00   34.04   -223.78   -251.76 
 2017-07-06 05:02:42  -223.78   100.00   34.04   -223.78   -251.76 
 2017-07-06 05:02:10  -223.78   100.00   34.04   -223.78   -251.76 
 2017-07-06 05:01:39  -223.78   100.00   34.04   -223.78   -251.76 
 2017-07-06 05:01:07  -223.78   100.00   34.04   -223.78   -251.76 
 2017-07-06 05:00:35  -223.78   100.00   34.04   -223.78   -251.76 
 2017-07-06 05:00:03  -223.78   100.00   34.04   -223.78   -251.76 
 2017-07-06 04:59:33  -223.78   100.00   34.04   -223.78   -251.76 
 2017-07-06 04:59:01  -223.78   100.00   34.04   -223.78   -251.76 
 2017-07-06 04:58:29  -223.78   100.00   34.04   -223.78   -251.76 
 2017-07-06 04:57:57  -223.78   100.00   34.04   -223.78   -251.76 
 2017-07-06 04:57:28  -223.78   100.00   34.04   -223.78   -251.76 
 2017-07-06 04:56:51  -223.78   100.00   34.04   -223.78   -251.76 
 2017-07-06 04:56:19  -223.78   100.00   34.04   -223.78   -251.76 
 2017-07-06 04:55:48  -223.78   100.00   34.04   -223.78   -251.76 
 2017-07-06 04:55:16  -223.78   100.00   34.04   -223.78   -251.76 
 2017-07-06 04:54:46  -223.78   100.00   34.04   -223.78   -251.76 
 2017-07-06 04:54:14  -223.78   100.00   34.04   -223.78   -251.76 
 2017-07-06 04:53:42  -223.78   100.00   34.04   -223.78   -251.76 
 2017-07-06 04:53:11  -223.78   100.00   34.04   -223.78   -251.76 
 2017-07-06 04:52:39  -223.78   100.00   34.04   -223.78   -251.76 
 2017-07-06 04:52:08  -223.78   100.00   34.04   -223.78   -251.76 
 2017-07-06 04:51:36  -223.78   100.00   34.04   -223.78   -251.76 
 2017-07-06 04:51:04  -223.78   100.00   34.04   -223.78   -251.76 
 2017-07-06 04:50:33  -223.78   100.00   34.04   -223.78   -251.76 
 2017-07-06 04:50:02  -223.78   100.00   34.04   -223.78   -251.76 
 2017-07-06 04:49:30  -223.78   100.00   34.04   -223.78   -251.76 
 2017-07-06 04:48:58  -223.78   100.00   34.04   -223.78   -251.76 
 2017-07-06 04:48:27  -223.78   100.00   34.04   -223.78   -251.76 
 2017-07-06 04:47:56  -223.78   100.00   34.04   -223.78   -251.76 
 2017-07-06 04:47:24  -223.78   100.00   34.04   -223.78   -251.76 
 2017-07-06 04:46:51  -223.78   100.00   34.04   -223.78   -251.76 
 2017-07-06 04:46:20  -223.78   100.00   34.04   -223.78   -251.76 
 2017-07-06 04:45:49  -223.78   100.00   34.04   -223.78   -251.76 
 2017-07-06 04:45:18  -223.78   100.00   34.04   -223.78   -251.76 
 2017-07-06 04:44:46  -223.78   100.00   34.04   -223.78   -251.76 
 2017-07-06 04:44:15  -223.78   100.00   34.04   -223.78   -251.76 
 2017-07-06 04:43:44  -223.78   100.00   34.04   -223.78   -251.76 
 2017-07-06 04:43:12  -223.78   100.00   34.04   -223.78   -251.76 
 2017-07-06 04:42:41  -223.78   100.00   34.04   -223.78   -251.76 
 2017-07-06 04:42:09  -223.78   100.00   34.04   -223.78   -251.76 
 2017-07-06 04:41:38  -223.78   100.00   34.04   -223.78   -251.76 
 2017-07-06 04:41:06  -223.78   100.00   34.04   -223.78   -251.76 
 2017-07-06 04:40:34  -223.78   100.00   34.04   -223.78   -251.76 
 2017-07-06 04:40:03  -223.78   100.00   34.04   -223.78   -251.76 
 2017-07-06 04:39:31  -223.78   100.00   34.04   -223.78   -251.76 
 2017-07-06 04:38:58  -223.78   100.00   34.04   -223.78   -251.76 
 2017-07-06 04:38:24  -223.78   100.00   34.04   -223.78   -251.76 
 2017-07-06 04:37:52  -223.78   100.00   34.04   -223.78   -251.76 
 2017-07-06 04:37:21  -223.78   100.00   34.04   -223.78   -251.76 
 2017-07-06 04:36:49  -223.78   100.00   34.04   -223.78   -251.76 
 2017-07-06 04:36:17  -223.78   100.00   34.04   -223.78   -251.76 
 2017-07-06 04:35:45  -223.78   100.00   34.04   -223.78   -251.76 
 2017-07-06 04:35:14  -223.78   100.00   34.04   -223.78   -251.76 
 2017-07-06 04:34:43  -223.78   100.00   34.04   -223.78   -251.76 
 2017-07-06 04:34:11  -223.78   100.00   34.04   -223.78   -251.76 
 2017-07-06 04:33:39  -223.78   100.00   34.04   -223.78   -251.76 
 2017-07-06 04:33:08  -223.78   100.00   34.04   -223.78   -251.76 
 2017-07-06 04:32:36  -223.78   100.00   34.04   -223.78   -251.76 
 2017-07-06 04:32:04  -223.78   100.00   34.04   -223.78   -251.76 
 2017-07-06 04:31:32  -223.78   100.00   34.04   -223.78   -251.76 
 2017-07-06 04:31:00  -223.78   100.00   34.04   -223.78   -251.76 
 2017-07-06 04:30:28  -223.78   100.00   34.04   -223.78   -251.76 
 2017-07-06 04:29:55  -223.78   100.00   34.04   -223.78   -251.76 
 2017-07-06 04:29:23  -223.78   100.00   34.04   -223.78   -251.76 
 2017-07-06 04:28:52  -223.78   100.00   34.04   -223.78   -251.76 
 2017-07-06 04:28:20  -223.78   100.00   34.04   -223.78   -251.76 
 2017-07-06 04:27:48  -223.78   100.00   34.04   -223.78   -251.76 
 2017-07-06 04:27:16  -223.78   100.00   34.04   -223.78   -251.76 
 2017-07-06 04:26:45  -223.78   100.00   34.04   -223.78   -251.76 
 2017-07-06 04:26:13  -223.78   100.00   34.04   -223.78   -251.76 
 2017-07-06 04:25:40  -223.78   100.00   34.04   -223.78   -251.76 
 2017-07-06 04:25:10  -223.78   100.00   34.04   -223.78   -251.76 
 2017-07-06 04:24:38  -223.78   100.00   34.04   -223.78   -251.76 
 2017-07-06 04:24:07  -223.78   100.00   34.04   -223.78   -251.76 
 2017-07-06 04:23:35  -223.78   100.00   34.04   -223.78   -251.76 
 2017-07-06 04:23:03  -223.78   100.00   34.04   -223.78   -251.76 
 2017-07-06 04:22:32  -223.78   100.00   34.04   -223.78   -251.76 
 2017-07-06 04:22:00  -223.78   100.00   34.04   -223.78   -251.76 
 2017-07-06 04:21:28  -223.78   100.00   34.04   -223.78   -251.76 
 2017-07-06 04:20:56  -223.78   100.00   34.04   -223.78   -251.76 
 2017-07-06 04:20:25  -223.78   100.00   34.04   -223.78   -251.76 
 2017-07-06 04:19:54  -223.78   100.00   34.04   -223.78   -251.76 
 2017-07-06 04:19:23  -223.78   100.00   34.04   -223.78   -251.76 
 2017-07-06 04:18:51  -223.78   100.00   34.04   -223.78   -251.76 
 2017-07-06 04:18:19  -223.78   100.00   34.04   -223.78   -251.76 
 2017-07-06 04:17:48  -223.78   100.00   34.04   -223.78   -251.76 
 2017-07-06 04:17:16  -223.78   100.00   34.04   -223.78   -251.76 
 2017-07-06 04:16:44  -223.78   100.00   34.04   -223.78   -251.76 
 2017-07-06 04:16:12  -223.78   100.00   34.04   -223.78   -251.76 
 2017-07-06 04:15:41  -223.78   100.00   34.04   -223.78   -251.76 
 2017-07-06 04:15:09  -223.78   100.00   34.04   -223.78   -251.76 
 2017-07-06 04:14:37  -223.78   100.00   34.04   -223.78   -251.76 
 2017-07-06 04:14:06  -223.78   100.00   34.04   -223.78   -251.76 
 2017-07-06 04:13:35  -223.78   100.00   34.04   -223.78   -251.76 
 2017-07-06 04:13:03  -223.78   100.00   34.04   -223.78   -251.76 
 2017-07-06 04:12:31  -223.78   100.00   34.04   -223.78   -251.76 
 2017-07-06 04:11:59  -223.78   100.00   34.04   -223.78   -251.76 
 2017-07-06 04:11:27  -223.78   100.00   34.04   -223.78   -251.76 
 2017-07-06 04:10:56  -223.78   100.00   34.04   -223.78   -251.76 
 2017-07-06 04:10:24  -223.78   100.00   34.04   -223.78   -251.76 
 2017-07-06 04:09:53  -223.78   100.00   34.04   -223.78   -251.76 
 2017-07-06 04:09:21  -223.78   100.00   34.04   -223.78   -251.76 
 2017-07-06 04:08:48  -223.78   100.00   34.04   -223.78   -251.76 
 2017-07-06 04:08:16  -223.78   100.00   34.04   -223.78   -251.76 
 2017-07-06 04:07:45  -223.78   100.00   34.04   -223.78   -251.76 
 2017-07-06 04:07:13  -223.78   100.00   34.04   -223.78   -251.76 
 2017-07-06 04:06:41  -223.78   100.00   34.04   -223.78   -251.76 
 2017-07-06 04:06:09  -223.78   100.00   34.04   -223.78   -251.76 
 2017-07-06 04:05:37  -223.78   100.00   34.04   -223.78   -251.76 
 2017-07-06 04:05:06  -223.78   100.00   34.04   -223.78   -251.76 
 2017-07-06 04:04:35  -223.78   100.00   34.04   -223.78   -251.76 
 2017-07-06 04:04:04  -223.78   100.00   34.04   -223.78   -251.76 
 2017-07-06 04:03:32  -223.78   100.00   34.04   -223.78   -251.76 
 2017-07-06 04:03:00  -223.78   100.00   34.04   -223.78   -251.76 
 2017-07-06 04:02:28  -223.78   100.00   34.04   -223.78   -251.76 
 2017-07-06 04:01:56  -223.78   100.00   34.04   -223.78   -251.76 
 2017-07-06 04:01:25  -223.78   100.00   34.04   -223.78   -251.76 
 2017-07-06 04:00:53  -223.78   100.00   34.04   -223.78   -251.76 
 2017-07-06 04:00:21  -223.78   100.00   34.04   -223.78   -251.76 
 2017-07-06 03:59:54  -223.78   100.00   34.04   -223.78   -251.76 
 2017-07-06 03:59:15  -223.78   100.00   34.04   -223.78   -251.76 
 2017-07-06 03:58:43  -223.78   100.00   34.04   -223.78   -251.76 
 2017-07-06 03:58:11  -223.78   100.00   34.04   -223.78   -251.76 
 2017-07-06 03:57:39  -223.78   100.00   34.04   -223.78   -251.76 
 2017-07-06 03:57:08  -223.78   100.00   34.04   -223.78   -251.76 
 2017-07-06 03:56:36  -223.78   100.00   34.04   -223.78   -251.76 
 2017-07-06 03:56:04  -223.78   100.00   34.04   -223.78   -251.76 
 2017-07-06 03:55:33  -223.78   100.00   34.04   -223.78   -251.76 
 2017-07-06 03:55:02  -223.78   100.00   34.04   -223.78   -251.76 
 2017-07-06 03:54:30  -223.78   100.00   34.04   -223.78   -251.76 
 2017-07-06 03:53:58  -223.78   100.00   34.04   -223.78   -251.76 
 2017-07-06 03:53:26  -223.78   100.00   34.04   -223.78   -251.76 
 2017-07-06 03:52:54  -223.78   100.00   34.04   -223.78   -251.76 
 2017-07-06 03:52:23  -223.78   100.00   34.04   -223.78   -251.76 
 2017-07-06 03:51:51  -223.78   100.00   34.04   -223.78   -251.76 
 2017-07-06 03:51:19  -223.78   100.00   34.04   -223.78   -251.76 
 2017-07-06 03:50:47  -223.78   100.00   34.04   -223.78   -251.76 
 2017-07-06 03:50:16  -223.78   100.00   34.04   -223.78   -251.76 
 2017-07-06 03:49:45  -223.78   100.00   34.04   -223.78   -251.76 
 2017-07-06 03:49:14  -223.78   100.00   34.04   -223.78   -251.76 
 2017-07-06 03:48:42  -223.78   100.00   34.04   -223.78   -251.76 
 2017-07-06 03:48:11  -223.78   100.00   34.04   -223.78   -251.76 
 2017-07-06 03:47:39  -223.78   100.00   34.04   -223.78   -251.76 
 2017-07-06 03:47:07  -223.78   100.00   34.04   -223.78   -251.76 
 2017-07-06 03:46:35  -223.78   100.00   34.04   -223.78   -251.76 
 2017-07-06 03:46:04  -223.78   100.00   34.04   -223.78   -251.76 
 2017-07-06 03:45:32  -223.78   100.00   34.04   -223.78   -251.76 
 2017-07-06 03:45:00  -223.78   100.00   34.04   -223.78   -251.76 
 2017-07-06 03:44:29  -223.78   100.00   34.04   -223.78   -251.76 
 2017-07-06 03:43:58  -223.78   100.00   34.04   -223.78   -251.76 
 2017-07-06 03:43:27  -223.78   100.00   34.04   -223.78   -251.76 
 2017-07-06 03:42:56  -223.78   100.00   34.04   -223.78   -251.76 
 2017-07-06 03:42:24  -223.78   100.00   34.04   -223.78   -251.76 
 2017-07-06 03:41:52  -223.78   100.00   34.04   -223.78   -251.76 
 2017-07-06 03:41:20  -223.78   100.00   34.04   -223.78   -251.76 
 2017-07-06 03:40:49  -223.78   100.00   34.04   -223.78   -251.76 
 2017-07-06 03:40:17  -223.78   100.00   34.04   -223.78   -251.76 
 2017-07-06 03:39:45  -223.78   100.00   34.04   -223.78   -251.76 
 2017-07-06 03:39:13  -223.78   100.00   34.04   -223.78   -251.76 
 2017-07-06 03:38:42  -223.78   100.00   34.04   -223.78   -251.76 
 2017-07-06 03:38:10  -223.78   100.00   34.04   -223.78   -251.76 
 2017-07-06 03:37:38  -223.78   100.00   34.04   -223.78   -251.76 
 2017-07-06 03:37:07  -223.78   100.00   34.04   -223.78   -251.76 
 2017-07-06 03:36:35  -223.78   100.00   34.04   -223.78   -251.76 
 2017-07-06 03:36:03  -223.78   100.00   34.04   -223.78   -251.76 
 2017-07-06 03:35:32  -223.78   100.00   34.04   -223.78   -251.76 
 2017-07-06 03:35:00  -223.78   100.00   34.04   -223.78   -251.76 
 2017-07-06 03:34:29  -223.78   100.00   34.04   -223.78   -251.76 
 2017-07-06 03:33:58  -223.78   100.00   34.04   -223.78   -251.76 
 2017-07-06 03:33:26  -223.78   100.00   34.04   -223.78   -251.76 
 2017-07-06 03:32:54  -223.78   100.00   34.04   -223.78   -251.76 
 2017-07-06 03:32:23  -223.78   100.00   34.04   -223.78   -251.76 
 2017-07-06 03:31:51  -223.78   100.00   34.04   -223.78   -251.76 
 2017-07-06 03:31:19  -223.78   100.00   34.04   -223.78   -251.76 
 2017-07-06 03:30:47  -223.78   100.00   34.04   -223.78   -251.76 
 2017-07-06 03:30:15  -223.78   100.00   34.04   -223.78   -251.76 
 2017-07-06 03:29:42  -223.78   100.00   34.04   -223.78   -251.76 
 2017-07-06 03:29:11  -223.78   100.00   34.04   -223.78   -251.76 
 2017-07-06 03:28:40  -223.78   100.00   34.04   -223.78   -251.76 
 2017-07-06 03:28:08  -223.78   100.00   34.04   -223.78   -251.76 
 2017-07-06 03:27:36  -223.78   100.00   34.04   -223.78   -251.76 
 2017-07-06 03:27:04  -223.78   100.00   34.04   -223.78   -251.76 
 2017-07-06 03:26:33  -223.78   100.00   34.04   -223.78   -251.76 
 2017-07-06 03:26:01  -223.78   100.00   34.04   -223.78   -251.76 
 2017-07-06 03:25:29  -223.78   100.00   34.04   -223.78   -251.76 
 2017-07-06 03:24:57  -223.78   100.00   34.04   -223.78   -251.76 
 2017-07-06 03:24:25  -223.78   100.00   34.04   -223.78   -251.76 
 2017-07-06 03:23:53  -223.78   100.00   34.04   -223.78   -251.76 
 2017-07-06 03:23:21  -223.78   100.00   34.04   -223.78   -251.76 
 2017-07-06 03:22:48  -223.78   100.00   34.04   -223.78   -251.76 
 2017-07-06 03:22:18  -223.78   100.00   34.04   -223.78   -251.76 
 2017-07-06 03:21:46  -223.78   100.00   34.04   -223.78   -251.76 
 2017-07-06 03:21:14  -223.78   100.00   34.04   -223.78   -251.76 
 2017-07-06 03:20:42  -223.78   100.00   34.04   -223.78   -251.76 
 2017-07-06 03:20:11  -223.78   100.00   34.04   -223.78   -251.76 
 2017-07-06 03:19:39  -223.78   100.00   34.04   -223.78   -251.76 
 2017-07-06 03:19:07  -223.78   100.00   34.04   -223.78   -251.76 
 2017-07-06 03:18:35  -223.78   100.00   34.04   -223.78   -251.76 
 2017-07-06 03:18:04  -223.78   100.00   34.04   -223.78   -251.76 
 2017-07-06 03:17:31  -223.78   100.00   34.04   -223.78   -251.76 
 2017-07-06 03:17:00  -223.78   100.00   34.04   -223.78   -251.76 
 2017-07-06 03:16:28  -223.78   100.00   34.04   -223.78   -251.76 
 2017-07-06 03:15:56  -223.78   100.00   34.04   -223.78   -251.76 
 2017-07-06 03:15:24  -223.78   100.00   34.04   -223.78   -251.76 
 2017-07-06 03:14:52  -223.78   100.00   34.04   -223.78   -251.76 
 2017-07-06 03:14:19  -223.78   100.00   34.04   -223.78   -251.76 
 2017-07-06 03:13:47  -223.78   100.00   34.04   -223.78   -251.76 
 2017-07-06 03:13:16  -223.78   100.00   34.04   -223.78   -251.76 
 2017-07-06 03:12:44  -223.78   100.00   34.04   -223.78   -251.76 
 2017-07-06 03:12:12  -223.78   100.00   34.04   -223.78   -251.76 
 2017-07-06 03:11:40  -223.78   100.00   34.04   -223.78   -251.76 
 2017-07-06 03:11:09  -223.78   100.00   34.04   -223.78   -251.76 
 2017-07-06 03:10:37  -223.78   100.00   34.04   -223.78   -251.76 
 2017-07-06 03:10:05  -223.78   100.00   34.04   -223.78   -251.76 
 2017-07-06 03:09:34  -223.78   100.00   34.04   -223.78   -251.76 
 2017-07-06 03:09:02  -223.78   100.00   34.04   -223.78   -251.76 
 2017-07-06 03:08:30  -223.78   100.00   34.04   -223.78   -251.76 
 2017-07-06 03:07:58  -223.78   100.00   34.04   -223.78   -251.76 
 2017-07-06 03:07:26  -223.78   100.00   34.04   -223.78   -251.76 
 2017-07-06 03:06:54  -223.78   100.00   34.04   -223.78   -251.76 
 2017-07-06 03:06:23  -223.78   100.00   34.04   -223.78   -251.76 
 2017-07-06 03:05:52  -223.78   100.00   34.04   -223.78   -251.76 
 2017-07-06 03:05:20  -223.78   100.00   34.04   -223.78   -251.76 
 2017-07-06 03:04:49  -223.78   100.00   34.04   -223.78   -251.76 
 2017-07-06 03:04:17  -223.78   100.00   34.04   -223.78   -251.76 
 2017-07-06 03:03:46  -223.78   100.00   34.04   -223.78   -251.76 
 2017-07-06 03:03:15  -223.78   100.00   34.04   -223.78   -251.76 
 2017-07-06 03:02:44  -223.78   100.00   34.04   -223.78   -251.76 
 2017-07-06 03:02:12  -223.78   100.00   34.04   -223.78   -251.76 
 2017-07-06 03:01:40  -223.78   100.00   34.04   -223.78   -251.76 
 2017-07-06 03:01:09  -223.78   100.00   34.04   -223.78   -251.76 
 2017-07-06 03:00:38  -223.78   100.00   34.04   -223.78   -251.76 
 2017-07-06 03:00:06  -223.78   100.00   34.04   -223.78   -251.76 
 2017-07-06 02:59:35  -223.78   100.00   34.04   -223.78   -251.76 
 2017-07-06 02:59:03  -223.78   100.00   34.04   -223.78   -251.76 
 2017-07-06 02:58:32  -223.78   100.00   34.04   -223.78   -251.76 
 2017-07-06 02:57:58  -223.78   100.00   34.04   -223.78   -251.76 
 2017-07-06 02:57:26  -223.78   100.00   34.04   -223.78   -251.76 
 2017-07-06 02:56:54  -223.78   100.00   34.04   -223.78   -251.76 
 2017-07-06 02:56:22  -223.78   100.00   34.04   -223.78   -251.76 
 2017-07-06 02:55:50  -223.78   100.00   34.04   -223.78   -251.76 
 2017-07-06 02:55:18  -223.78   100.00   34.04   -223.78   -251.76 
 2017-07-06 02:54:47  -223.78   100.00   34.04   -223.78   -251.76 
 2017-07-06 02:54:15  -223.78   100.00   34.04   -223.78   -251.76 
 2017-07-06 02:53:43  -223.78   100.00   34.04   -223.78   -251.76 
 2017-07-06 02:53:11  -223.78   100.00   34.04   -223.78   -251.76 
 2017-07-06 02:52:39  -223.78   100.00   34.04   -223.78   -251.76 
 2017-07-06 02:52:07  -223.78   100.00   34.04   -223.78   -251.76 
 2017-07-06 02:51:36  -223.78   100.00   34.04   -223.78   -251.76 
 2017-07-06 02:51:04  -223.78   100.00   34.04   -223.78   -251.76 
 2017-07-06 02:50:32  -223.78   100.00   34.04   -223.78   -251.76 
 2017-07-06 02:50:00  -223.78   100.00   34.04   -223.78   -251.76 
 2017-07-06 02:49:29  -223.78   100.00   34.04   -223.78   -251.76 
 2017-07-06 02:48:57  -223.78   100.00   34.04   -223.78   -251.76 
 2017-07-06 02:48:25  -223.78   100.00   34.04   -223.78   -251.76 
 2017-07-06 02:47:54  -223.78   100.00   34.04   -223.78   -251.76 
 2017-07-06 02:47:22  -223.78   100.00   34.04   -223.78   -251.76 
 2017-07-06 02:46:50  -223.78   100.00   34.04   -223.78   -251.76 
 2017-07-06 02:46:19  -223.78   100.00   34.04   -223.78   -251.76 
 2017-07-06 02:45:51  -223.78   100.00   34.04   -223.78   -251.76 
 2017-07-06 02:45:12  -223.78   100.00   34.04   -223.78   -251.76 
 2017-07-06 02:44:40  -223.78   100.00   34.04   -223.78   -251.76 
 2017-07-06 02:44:09  -223.78   100.00   34.04   -223.78   -251.76 
 2017-07-06 02:43:37  -223.78   100.00   34.04   -223.78   -251.76 
 2017-07-06 02:43:05  -223.78   100.00   34.04   -223.78   -251.76 
 2017-07-06 02:42:34  -223.78   100.00   34.04   -223.78   -251.76 
 2017-07-06 02:42:02  -223.78   100.00   34.04   -223.78   -251.76 
 2017-07-06 02:41:31  -223.78   100.00   34.04   -223.78   -251.76 
 2017-07-06 02:40:59  -223.78   100.00   34.04   -223.78   -251.76 
 2017-07-06 02:40:27  -223.78   100.00   34.04   -223.78   -251.76 
 2017-07-06 02:39:55  -223.78   100.00   34.04   -223.78   -251.76 
 2017-07-06 02:39:23  -223.78   100.00   34.04   -223.78   -251.76 
 2017-07-06 02:38:52  -223.78   100.00   34.04   -223.78   -251.76 
 2017-07-06 02:38:21  -223.78   100.00   34.04   -223.78   -251.76 
 2017-07-06 02:37:49  -223.78   100.00   34.04   -223.78   -251.76 
 2017-07-06 02:37:18  -223.78   100.00   34.04   -223.78   -251.76 
 2017-07-06 02:36:46  -223.78   100.00   34.04   -223.78   -251.76 
 2017-07-06 02:36:15  -223.78   100.00   34.04   -223.78   -251.76 
 2017-07-06 02:35:43  -223.78   100.00   34.04   -223.78   -251.76 
 2017-07-06 02:35:11  -223.78   100.00   34.04   -223.78   -251.76 
 2017-07-06 02:34:40  -223.78   100.00   34.04   -223.78   -251.76 
 2017-07-06 02:34:09  -223.78   100.00   34.04   -223.78   -251.76 
 2017-07-06 02:33:37  -223.78   100.00   34.04   -223.78   -251.76 
 2017-07-06 02:33:05  -223.78   100.00   34.04   -223.78   -251.76 
 2017-07-06 02:32:33  -223.78   100.00   34.04   -223.78   -251.76 
 2017-07-06 02:32:01  -223.78   100.00   34.04   -223.78   -251.76 
 2017-07-06 02:31:30  -223.78   100.00   34.04   -223.78   -251.76 
 2017-07-06 02:30:57  -223.78   100.00   34.04   -223.78   -251.76 
 2017-07-06 02:30:26  -223.78   100.00   34.04   -223.78   -251.76 
 2017-07-06 02:29:54  -223.78   100.00   34.04   -223.78   -251.76 
 2017-07-06 02:29:22  -223.78   100.00   34.04   -223.78   -251.76 
 2017-07-06 02:28:50  -223.78   100.00   34.04   -223.78   -251.76 
 2017-07-06 02:28:19  -223.78   100.00   34.04   -223.78   -251.76 
 2017-07-06 02:27:46  -223.78   100.00   34.04   -223.78   -251.76 
 2017-07-06 02:27:14  -223.78   100.00   34.04   -223.78   -251.76 
 2017-07-06 02:26:43  -223.78   100.00   34.04   -223.78   -251.76 
 2017-07-06 02:26:11  -223.78   100.00   34.04   -223.78   -251.76 
 2017-07-06 02:25:39  -223.78   100.00   34.04   -223.78   -251.76 
 2017-07-06 02:25:06  -223.78   100.00   34.04   -223.78   -251.76 
 2017-07-06 02:24:34  -223.78   100.00   34.04   -223.78   -251.76 
 2017-07-06 02:24:03  -223.78   100.00   34.04   -223.78   -251.76 
 2017-07-06 02:23:32  -223.78   100.00   34.04   -223.78   -251.76 
 2017-07-06 02:23:00  -223.78   100.00   34.04   -223.78   -251.76 
 2017-07-06 02:22:28  -223.78   100.00   34.04   -223.78   -251.76 
 2017-07-06 02:21:57  -223.78   100.00   34.04   -223.78   -251.76 
 2017-07-06 02:21:25  -223.78   100.00   34.04   -223.78   -251.76 
 2017-07-06 02:20:53  -223.78   100.00   34.04   -223.78   -251.76 
 2017-07-06 02:20:21  -223.78   100.00   34.04   -223.78   -251.76 
 2017-07-06 02:19:50  -223.78   100.00   34.04   -223.78   -251.76 
 2017-07-06 02:19:19  -223.78   100.00   34.04   -223.78   -251.76 
 2017-07-06 02:18:48  -223.78   100.00   34.04   -223.78   -251.76 
 2017-07-06 02:18:16  -223.78   100.00   34.04   -223.78   -251.76 
 2017-07-06 02:17:44  -223.78   100.00   34.04   -223.78   -251.76 
 2017-07-06 02:17:12  -223.78   100.00   34.04   -223.78   -251.76 
 2017-07-06 02:16:41  -223.78   100.00   34.04   -223.78   -251.76 
 2017-07-06 02:16:15  -223.78   100.00   34.04   -223.78   -251.76 
 2017-07-06 02:15:34  -223.78   100.00   34.04   -223.78   -251.76 
 2017-07-06 02:15:02  -223.78   100.00   34.04   -223.78   -251.76 
 2017-07-06 02:14:30  -223.78   100.00   34.04   -223.78   -251.76 
 2017-07-06 02:14:00  -223.78   100.00   34.04   -223.78   -251.76 
 2017-07-06 02:13:23  -223.78   100.00   34.04   -223.78   -251.76 
 2017-07-06 02:12:52  -223.78   100.00   34.04   -223.78   -251.76 
 2017-07-06 02:12:20  -223.78   100.00   34.04   -223.78   -251.76 
 2017-07-06 02:11:48  -223.78   100.00   34.04   -223.78   -251.76 
 2017-07-06 02:11:17  -223.78   100.00   34.04   -223.78   -251.76 
 2017-07-06 02:10:45  -223.78   100.00   34.04   -223.78   -251.76 
 2017-07-06 02:10:14  -223.78   100.00   34.04   -223.78   -251.76 
 2017-07-06 02:09:42  -223.78   100.00   34.04   -223.78   -251.76 
 2017-07-06 02:09:10  -223.78   100.00   34.04   -223.78   -251.76 
 2017-07-06 02:08:38  -223.78   100.00   34.04   -223.78   -251.76 
 2017-07-06 02:08:06  -223.78   100.00   34.04   -223.78   -251.76 
 2017-07-06 02:07:35  -223.78   100.00   34.04   -223.78   -251.76 
 2017-07-06 02:07:03  -223.78   100.00   34.04   -223.78   -251.76 
 2017-07-06 02:06:31  -223.78   100.00   34.04   -223.78   -251.76 
 2017-07-06 02:05:59  -223.78   100.00   34.04   -223.78   -251.76 
 2017-07-06 02:05:28  -223.78   100.00   34.04   -223.78   -251.76 
 2017-07-06 02:04:57  -223.78   100.00   34.04   -223.78   -251.76 
 2017-07-06 02:04:25  -223.78   100.00   34.04   -223.78   -251.76 
 2017-07-06 02:03:53  -223.78   100.00   34.04   -223.78   -251.76 
 2017-07-06 02:03:21  -223.78   100.00   34.04   -223.78   -251.76 
 2017-07-06 02:02:50  -223.78   100.00   34.04   -223.78   -251.76 
 2017-07-06 02:02:18  -223.78   100.00   34.04   -223.78   -251.76 
 2017-07-06 02:01:46  -223.78   100.00   34.04   -223.78   -251.76 
 2017-07-06 02:01:14  -223.78   100.00   34.04   -223.78   -251.76 
 2017-07-06 02:00:42  -223.78   100.00   34.04   -223.78   -251.76 
 2017-07-06 02:00:10  -223.78   100.00   34.04   -223.78   -251.76 
 2017-07-06 01:59:39  -223.78   100.00   34.04   -223.78   -251.76 
 2017-07-06 01:59:07  -223.78   100.00   34.04   -223.78   -251.76 
 2017-07-06 01:58:35  -223.78   100.00   34.04   -223.78   -251.76 
 2017-07-06 01:58:03  -223.78   100.00   34.04   -223.78   -251.76 
 2017-07-06 01:57:31  -223.78   100.00   34.04   -223.78   -251.76 
 2017-07-06 01:56:59  -223.78   100.00   34.04   -223.78   -251.76 
 2017-07-06 01:56:28  -223.78   100.00   34.04   -223.78   -251.76 
 2017-07-06 01:55:56  -223.78   100.00   34.04   -223.78   -251.76 
 2017-07-06 01:55:24  -223.78   100.00   34.04   -223.78   -251.76 
 2017-07-06 01:54:52  -223.78   100.00   34.04   -223.78   -251.76 
 2017-07-06 01:54:21  -223.78   100.00   34.04   -223.78   -251.76 
 2017-07-06 01:53:49  -223.78   100.00   34.04   -223.78   -251.76 
 2017-07-06 01:53:17  -223.78   100.00   34.04   -223.78   -251.76 
 2017-07-06 01:52:45  -223.78   100.00   34.04   -223.78   -251.76 
 2017-07-06 01:52:14  -223.78   100.00   34.04   -223.78   -251.76 
 2017-07-06 01:51:42  -223.78   100.00   34.04   -223.78   -251.76 
 2017-07-06 01:51:10  -223.78   100.00   34.04   -223.78   -251.76 
 2017-07-06 01:50:38  -223.78   100.00   34.04   -223.78   -251.76 
 2017-07-06 01:50:07  -223.78   100.00   34.04   -223.78   -251.76 
 2017-07-06 01:49:35  -223.78   100.00   34.04   -223.78   -251.76 
 2017-07-06 01:49:04  -223.78   100.00   34.04   -223.78   -251.76 
 2017-07-06 01:48:33  -223.78   100.00   34.04   -223.78   -251.76 
 2017-07-06 01:48:01  -223.78   100.00   34.04   -223.78   -251.76 
 2017-07-06 01:47:29  -223.78   100.00   34.04   -223.78   -251.76 
 2017-07-06 01:46:58  -223.78   100.00   34.04   -223.78   -251.76 
 2017-07-06 01:46:27  -223.78   100.00   34.04   -223.78   -251.76 
 2017-07-06 01:45:55  -223.78   100.00   34.04   -223.78   -251.76 
 2017-07-06 01:45:23  -223.78   100.00   34.04   -223.78   -251.76 
 2017-07-06 01:44:51  -223.78   100.00   34.04   -223.78   -251.76 
 2017-07-06 01:44:19  -223.78   100.00   34.04   -223.78   -251.76 
 2017-07-06 01:43:47  -223.78   100.00   34.04   -223.78   -251.76 
 2017-07-06 01:43:15  -223.78   100.00   34.04   -223.78   -251.76 
 2017-07-06 01:42:44  -223.78   100.00   34.04   -223.78   -251.76 
 2017-07-06 01:42:12  -223.78   100.00   34.04   -223.78   -251.76 
 2017-07-06 01:41:40  -223.78   100.00   34.04   -223.78   -251.76 
 2017-07-06 01:41:08  -223.78   100.00   34.04   -223.78   -251.76 
 2017-07-06 01:40:37  -223.78   100.00   34.04   -223.78   -251.76 
 2017-07-06 01:40:05  -223.78   100.00   34.04   -223.78   -251.76 
 2017-07-06 01:39:33  -223.78   100.00   34.04   -223.78   -251.76 
 2017-07-06 01:39:01  -223.78   100.00   34.04   -223.78   -251.76 
 2017-07-06 01:38:30  -223.78   100.00   34.04   -223.78   -251.76 
 2017-07-06 01:37:58  -223.78   100.00   34.04   -223.78   -251.76 
 2017-07-06 01:37:26  -223.78   100.00   34.04   -223.78   -251.76 
 2017-07-06 01:36:54  -223.78   100.00   34.04   -223.78   -251.76 
 2017-07-06 01:36:23  -223.78   100.00   34.04   -223.78   -251.76 
 2017-07-06 01:35:51  -223.78   100.00   34.04   -223.78   -251.76 
 2017-07-06 01:35:20  -223.78   100.00   34.04   -223.78   -251.76 
 2017-07-06 01:34:48  -223.78   100.00   34.04   -223.78   -251.76 
 2017-07-06 01:34:16  -223.78   100.00   34.04   -223.78   -251.76 
 2017-07-06 01:33:45  -223.78   100.00   34.04   -223.78   -251.76 
 2017-07-06 01:33:14  -223.78   100.00   34.04   -223.78   -251.76 
 2017-07-06 01:32:42  -223.78   100.00   34.04   -223.78   -251.76 
 2017-07-06 01:32:11  -223.78   100.00   34.04   -223.78   -251.76 
 2017-07-06 01:31:39  -223.78   100.00   34.04   -223.78   -251.76 
 2017-07-06 01:31:08  -223.78   100.00   34.04   -223.78   -251.76 
 2017-07-06 01:30:36  -223.78   100.00   34.04   -223.78   -251.76 
 2017-07-06 01:30:04  -223.78   100.00   34.04   -223.78   -251.76 
 2017-07-06 01:29:32  -223.78   100.00   34.04   -223.78   -251.76 
 2017-07-06 01:29:01  -223.78   100.00   34.04   -223.78   -251.76 
 2017-07-06 01:28:29  -223.78   100.00   34.04   -223.78   -251.76 
 2017-07-06 01:27:56  -223.78   100.00   34.04   -223.78   -251.76 
 2017-07-06 01:27:25  -223.78   100.00   34.04   -223.78   -251.76 
 2017-07-06 01:26:53  -223.78   100.00   34.04   -223.78   -251.76 
 2017-07-06 01:26:21  -223.78   100.00   34.04   -223.78   -251.76 
 2017-07-06 01:25:49  -223.78   100.00   34.04   -223.78   -251.76 
 2017-07-06 01:25:18  -223.78   100.00   34.04   -223.78   -251.76 
 2017-07-06 01:24:47  -223.78   100.00   34.04   -223.78   -251.76 
 2017-07-06 01:24:15  -223.78   100.00   34.04   -223.78   -251.76 
 2017-07-06 01:23:43  -223.78   100.00   34.04   -223.78   -251.76 
 2017-07-06 01:23:12  -223.78   100.00   34.04   -223.78   -251.76 
 2017-07-06 01:22:40  -223.78   100.00   34.04   -223.78   -251.76 
 2017-07-06 01:22:09  -223.78   100.00   34.04   -223.78   -251.76 
 2017-07-06 01:21:37  -223.78   100.00   34.04   -223.78   -251.76 
 2017-07-06 01:21:06  -223.78   100.00   34.04   -223.78   -251.76 
 2017-07-06 01:20:35  -223.78   100.00   34.04   -223.78   -251.76 
 2017-07-06 01:20:04  -223.78   100.00   34.04   -223.78   -251.76 
 2017-07-06 01:19:33  -223.78   100.00   34.04   -223.78   -251.76 
 2017-07-06 01:19:01  -223.78   100.00   34.04   -223.78   -251.76 
 2017-07-06 01:18:29  -223.78   100.00   34.04   -223.78   -251.76 
 2017-07-06 01:17:58  -223.78   100.00   34.04   -223.78   -251.76 
 2017-07-06 01:17:26  -223.78   100.00   34.04   -223.78   -251.76 
 2017-07-06 01:16:54  -223.78   100.00   34.04   -223.78   -251.76 
 2017-07-06 01:16:22  -223.78   100.00   34.04   -223.78   -251.76 
 2017-07-06 01:15:51  -223.78   100.00   34.04   -223.78   -251.76 
 2017-07-06 01:15:19  -223.78   100.00   34.04   -223.78   -251.76 
 2017-07-06 01:14:47  -223.78   100.00   34.04   -223.78   -251.76 
 2017-07-06 01:14:16  -223.78   100.00   34.04   -223.78   -251.76 
 2017-07-06 01:13:44  -223.78   100.00   34.04   -223.78   -251.76 
 2017-07-06 01:13:12  -223.78   100.00   34.04   -223.78   -251.76 
 2017-07-06 01:12:40  -223.78   100.00   34.04   -223.78   -251.76 
 2017-07-06 01:12:08  -223.78   100.00   34.04   -223.78   -251.76 
 2017-07-06 01:11:37  -223.78   100.00   34.04   -223.78   -251.76 
 2017-07-06 01:11:05  -223.78   100.00   34.04   -223.78   -251.76 
 2017-07-06 01:10:33  -223.78   100.00   34.04   -223.78   -251.76 
 2017-07-06 01:10:02  -223.78   100.00   34.04   -223.78   -251.76 
 2017-07-06 01:09:30  -223.78   100.00   34.04   -223.78   -251.76 
 2017-07-06 01:08:58  -223.78   100.00   34.04   -223.78   -251.76 
 2017-07-06 01:08:27  -223.78   100.00   34.04   -223.78   -251.76 
 2017-07-06 01:07:55  -223.78   100.00   34.04   -223.78   -251.76 
 2017-07-06 01:07:23  -223.78   100.00   34.04   -223.78   -251.76 
 2017-07-06 01:06:52  -223.78   100.00   34.04   -223.78   -251.76 
 2017-07-06 01:06:22  -223.78   100.00   34.04   -223.78   -251.76 
 2017-07-06 01:05:45  -223.78   100.00   34.04   -223.78   -251.76 
 2017-07-06 01:05:13  -223.78   100.00   34.04   -223.78   -251.76 
 2017-07-06 01:04:42  -223.78   100.00   34.04   -223.78   -251.76 
 2017-07-06 01:04:10  -223.78   100.00   34.04   -223.78   -251.76 
 2017-07-06 01:03:38  -223.78   100.00   34.04   -223.78   -251.76 
 2017-07-06 01:03:07  -223.78   100.00   34.04   -223.78   -251.76 
 2017-07-06 01:02:35  -223.78   100.00   34.04   -223.78   -251.76 
 2017-07-06 01:02:04  -223.78   100.00   34.04   -223.78   -251.76 
 2017-07-06 01:01:33  -223.78   100.00   34.04   -223.78   -251.76 
 2017-07-06 01:01:01  -223.78   100.00   34.04   -223.78   -251.76 
 2017-07-06 01:00:30  -223.78   100.00   34.04   -223.78   -251.76 
 2017-07-06 00:59:59  -223.78   100.00   34.04   -223.78   -251.76 
 2017-07-06 00:59:28  -223.78   100.00   34.04   -223.78   -251.76 
 2017-07-06 00:58:56  -223.78   100.00   34.04   -223.78   -251.76 
 2017-07-06 00:58:24  -223.78   100.00   34.04   -223.78   -251.76 
 2017-07-06 00:57:53  -223.78   100.00   34.04   -223.78   -251.76 
 2017-07-06 00:57:22  -223.78   100.00   34.04   -223.78   -251.76 
 2017-07-06 00:56:50  -223.78   100.00   34.04   -223.78   -251.76 
 2017-07-06 00:56:18  -223.78   100.00   34.04   -223.78   -251.76 
 2017-07-06 00:55:46  -223.78   100.00   34.04   -223.78   -251.76 
 2017-07-06 00:55:15  -223.78   100.00   34.04   -223.78   -251.76 
 2017-07-06 00:54:43  -223.78   100.00   34.04   -223.78   -251.76 
 2017-07-06 00:54:11  -223.78   100.00   34.04   -223.78   -251.76 
 2017-07-06 00:53:40  -223.78   100.00   34.04   -223.78   -251.76 
 2017-07-06 00:53:08  -223.78   100.00   34.04   -223.78   -251.76 
 2017-07-06 00:52:36  -223.78   100.00   34.04   -223.78   -251.76 
 2017-07-06 00:52:04  -223.78   100.00   34.04   -223.78   -251.76 
 2017-07-06 00:51:33  -223.78   100.00   34.04   -223.78   -251.76 
 2017-07-06 00:51:01  -223.78   100.00   34.04   -223.78   -251.76 
 2017-07-06 00:50:29  -223.78   100.00   34.04   -223.78   -251.76 
 2017-07-06 00:49:58  -223.78   100.00   34.04   -223.78   -251.76 
 2017-07-06 00:49:26  -223.78   100.00   34.04   -223.78   -251.76 
 2017-07-06 00:48:54  -223.78   100.00   34.04   -223.78   -251.76 
 2017-07-06 00:48:23  -223.78   100.00   34.04   -223.78   -251.76 
 2017-07-06 00:47:52  -223.78   100.00   34.04   -223.78   -251.76 
 2017-07-06 00:47:20  -223.78   100.00   34.04   -223.78   -251.76 
 2017-07-06 00:46:48  -223.78   100.00   34.04   -223.78   -251.76 
 2017-07-06 00:46:16  -223.78   100.00   34.04   -223.78   -251.76 
 2017-07-06 00:45:45  -223.78   100.00   34.04   -223.78   -251.76 
 2017-07-06 00:45:13  -223.78   100.00   34.04   -223.78   -251.76 
 2017-07-06 00:44:42  -223.78   100.00   34.04   -223.78   -251.76 
 2017-07-06 00:44:10  -223.78   100.00   34.04   -223.78   -251.76 
 2017-07-06 00:43:38  -223.78   100.00   34.04   -223.78   -251.76 
 2017-07-06 00:43:06  -223.78   100.00   34.04   -223.78   -251.76 
 2017-07-06 00:42:35  -223.78   100.00   34.04   -223.78   -251.76 
 2017-07-06 00:42:03  -223.78   100.00   34.04   -223.78   -251.76 
 2017-07-06 00:41:31  -223.78   100.00   34.04   -223.78   -251.76 
 2017-07-06 00:40:59  -223.78   100.00   34.04   -223.78   -251.76 
 2017-07-06 00:40:27  -223.78   100.00   34.04   -223.78   -251.76 
 2017-07-06 00:39:56  -223.78   100.00   34.04   -223.78   -251.76 
 2017-07-06 00:39:24  -223.78   100.00   34.04   -223.78   -251.76 
 2017-07-06 00:38:52  -223.78   100.00   34.04   -223.78   -251.76 
 2017-07-06 00:38:20  -223.78   100.00   34.04   -223.78   -251.76 
 2017-07-06 00:37:49  -223.78   100.00   34.04   -223.78   -251.76 
 2017-07-06 00:37:17  -223.78   100.00   34.04   -223.78   -251.76 
 2017-07-06 00:36:46  -223.78   100.00   34.04   -223.78   -251.76 
 2017-07-06 00:36:15  -223.78   100.00   34.04   -223.78   -251.76 
 2017-07-06 00:35:44  -223.78   100.00   34.04   -223.78   -251.76 
 2017-07-06 00:35:11  -223.78   100.00   34.04   -223.78   -251.76 
 2017-07-06 00:34:40  -223.78   100.00   34.04   -223.78   -251.76 
 2017-07-06 00:34:08  -223.78   100.00   34.04   -223.78   -251.76 
 2017-07-06 00:33:36  -223.78   100.00   34.04   -223.78   -251.76 
 2017-07-06 00:33:05  -223.78   100.00   34.04   -223.78   -251.76 
 2017-07-06 00:32:33  -223.78   100.00   34.04   -223.78   -251.76 
 2017-07-06 00:32:02  -223.78   100.00   34.04   -223.78   -251.76 
 2017-07-06 00:31:30  -223.78   100.00   34.04   -223.78   -251.76 
 2017-07-06 00:30:58  -223.78   100.00   34.04   -223.78   -251.76 
 2017-07-06 00:30:26  -223.78   100.00   34.04   -223.78   -251.76 
 2017-07-06 00:29:55  -223.78   100.00   34.04   -223.78   -251.76 
 2017-07-06 00:29:24  -223.78   100.00   34.04   -223.78   -251.76 
 2017-07-06 00:28:51  -223.78   100.00   34.04   -223.78   -251.76 
 2017-07-06 00:28:19  -223.78   100.00   34.04   -223.78   -251.76 
 2017-07-06 00:27:48  -223.78   100.00   34.04   -223.78   -251.76 
 2017-07-06 00:27:17  -223.78   100.00   34.04   -223.78   -251.76 
 2017-07-06 00:26:46  -223.78   100.00   34.04   -223.78   -251.76 
 2017-07-06 00:26:15  -223.78   100.00   34.04   -223.78   -251.76 
 2017-07-06 00:25:43  -223.78   100.00   34.04   -223.78   -251.76 
 2017-07-06 00:25:11  -223.78   100.00   34.04   -223.78   -251.76 
 2017-07-06 00:24:40  -223.78   100.00   34.04   -223.78   -251.76 
 2017-07-06 00:24:08  -223.78   100.00   34.04   -223.78   -251.76 
 2017-07-06 00:23:36  -223.78   100.00   34.04   -223.78   -251.76 
 2017-07-06 00:23:05  -223.78   100.00   34.04   -223.78   -251.76 
 2017-07-06 00:22:34  -223.78   100.00   34.04   -223.78   -251.76 
 2017-07-06 00:22:02  -223.78   100.00   34.04   -223.78   -251.76 
 2017-07-06 00:21:31  -223.78   100.00   34.04   -223.78   -251.76 
 2017-07-06 00:21:00  -223.78   100.00   34.04   -223.78   -251.76 
 2017-07-06 00:20:29  -223.78   100.00   34.04   -223.78   -251.76 
 2017-07-06 00:19:57  -223.78   100.00   34.04   -223.78   -251.76 
 2017-07-06 00:19:25  -223.78   100.00   34.04   -223.78   -251.76 
 2017-07-06 00:18:53  -223.78   100.00   34.04   -223.78   -251.76 
 2017-07-06 00:18:21  -223.78   100.00   34.04   -223.78   -251.76 
 2017-07-06 00:17:49  -223.78   100.00   34.04   -223.78   -251.76 
 2017-07-06 00:17:17  -223.78   100.00   34.04   -223.78   -251.76 
 2017-07-06 00:16:45  -223.78   100.00   34.04   -223.78   -251.76 
 2017-07-06 00:16:14  -223.78   100.00   34.04   -223.78   -251.76 
 2017-07-06 00:15:42  -223.78   100.00   34.04   -223.78   -251.76 
 2017-07-06 00:15:10  -223.78   100.00   34.04   -223.78   -251.76 
 2017-07-06 00:14:38  -223.78   100.00   34.04   -223.78   -251.76 
 2017-07-06 00:14:06  -223.78   100.00   34.04   -223.78   -251.76 
 2017-07-06 00:13:33  -223.78   100.00   34.04   -223.78   -251.76 
 2017-07-06 00:12:59  -223.78   100.00   34.04   -223.78   -251.76 
 2017-07-06 00:12:27  -223.78   100.00   34.04   -223.78   -251.76 
 2017-07-06 00:11:52  -223.78   100.00   34.04   -223.78   -251.76 
 2017-07-06 00:11:20  -223.78   100.00   34.04   -223.78   -251.76 
 2017-07-06 00:10:49  -223.78   100.00   34.04   -223.78   -251.76 
 2017-07-06 00:10:18  -223.78   100.00   34.04   -223.78   -251.76 
 2017-07-06 00:09:46  -223.78   100.00   34.04   -223.78   -251.76 
 2017-07-06 00:09:15  -223.78   100.00   34.04   -223.78   -251.76 
 2017-07-06 00:08:43  -223.78   100.00   34.04   -223.78   -251.76 
 2017-07-06 00:08:11  -223.78   100.00   34.04   -223.78   -251.76 
 2017-07-06 00:07:40  -223.78   100.00   34.04   -223.78   -251.76 
 2017-07-06 00:07:09  -223.78   100.00   34.04   -223.78   -251.76 
 2017-07-06 00:06:37  -223.78   100.00   34.04   -223.78   -251.76 
 2017-07-06 00:06:05  -223.78   100.00   34.04   -223.78   -251.76 
 2017-07-06 00:05:34  -223.78   100.00   34.04   -223.78   -251.76 
 2017-07-06 00:05:03  -223.78   100.00   34.04   -223.78   -251.76 
 2017-07-06 00:04:32  -223.78   100.00   34.04   -223.78   -251.76 
 2017-07-06 00:04:01  -223.78   100.00   34.04   -223.78   -251.76 
 2017-07-06 00:03:29  -223.78   100.00   34.04   -223.78   -251.76 
 2017-07-06 00:02:58  -223.78   100.00   34.04   -223.78   -251.76 
 2017-07-06 00:02:26  -223.78   100.00   34.04   -223.78   -251.76 
 2017-07-06 00:01:54  -223.78   100.00   34.04   -223.78   -251.76 
 2017-07-06 00:01:22  -223.78   100.00   34.04   -223.78   -251.76 
 2017-07-06 00:00:51  -223.78   100.00   34.04   -223.78   -251.76 
 2017-07-06 00:00:19  -223.78   100.00   34.04   -223.78   -251.76 
 2017-07-05 23:59:48  -223.78   100.00   34.04   -223.78   -251.76 
 2017-07-05 23:59:17  -223.78   100.00   34.04   -223.78   -251.76 
 2017-07-05 23:58:45  -223.78   100.00   34.04   -223.78   -251.76 
 2017-07-05 23:58:14  -223.78   100.00   34.04   -223.78   -251.76 
 2017-07-05 23:57:42  -223.78   100.00   34.04   -223.78   -251.76 
 2017-07-05 23:57:10  -223.78   100.00   34.04   -223.78   -251.76 
 2017-07-05 23:56:38  -223.78   100.00   34.04   -223.78   -251.76 
 2017-07-05 23:56:09  -223.78   100.00   34.04   -223.78   -251.76 
 2017-07-05 23:55:32  -223.78   100.00   34.04   -223.78   -251.76 
 2017-07-05 23:54:59  -223.78   100.00   34.04   -223.78   -251.76 
 2017-07-05 23:54:27  -223.78   100.00   34.04   -223.78   -251.76 
 2017-07-05 23:53:54  -223.78   100.00   34.04   -223.78   -251.76 
 2017-07-05 23:53:23  -223.78   100.00   34.04   -223.78   -251.76 
 2017-07-05 23:52:51  -223.78   100.00   34.04   -223.78   -251.76 
 2017-07-05 23:52:18  -223.78   100.00   34.04   -223.78   -251.76 
 2017-07-05 23:51:46  -223.78   100.00   34.04   -223.78   -251.76 
 2017-07-05 23:51:15  -223.78   100.00   34.04   -223.78   -251.76 
 2017-07-05 23:50:43  -223.78   100.00   34.04   -223.78   -251.76 
 2017-07-05 23:50:12  -223.78   100.00   34.04   -223.78   -251.76 
 2017-07-05 23:49:40  -223.78   100.00   34.04   -223.78   -251.76 
 2017-07-05 23:49:09  -223.78   100.00   34.04   -223.78   -251.76 
 2017-07-05 23:48:37  -223.78   100.00   34.04   -223.78   -251.76 
 2017-07-05 23:48:05  -223.78   100.00   34.04   -223.78   -251.76 
 2017-07-05 23:47:33  -223.78   100.00   34.04   -223.78   -251.76 
 2017-07-05 23:47:02  -223.78   100.00   34.04   -223.78   -251.76 
 2017-07-05 23:46:30  -223.78   100.00   34.04   -223.78   -251.76 
 2017-07-05 23:45:59  -223.78   100.00   34.04   -223.78   -251.76 
 2017-07-05 23:45:27  -223.78   100.00   34.04   -223.78   -251.76 
 2017-07-05 23:44:55  -223.78   100.00   34.04   -223.78   -251.76 
 2017-07-05 23:44:24  -223.78   100.00   34.04   -223.78   -251.76 
 2017-07-05 23:43:52  -223.78   100.00   34.04   -223.78   -251.76 
 2017-07-05 23:43:21  -223.78   100.00   34.04   -223.78   -251.76 
 2017-07-05 23:42:49  -223.78   100.00   34.04   -223.78   -251.76 
 2017-07-05 23:42:17  -223.78   100.00   34.04   -223.78   -251.76 
 2017-07-05 23:41:45  -223.78   100.00   34.04   -223.78   -251.76 
 2017-07-05 23:41:14  -223.78   100.00   34.04   -223.78   -251.76 
 2017-07-05 23:40:42  -223.78   100.00   34.04   -223.78   -251.76 
 2017-07-05 23:40:10  -223.78   100.00   34.04   -223.78   -251.76 
 2017-07-05 23:39:38  -223.78   100.00   34.04   -223.78   -251.76 
 2017-07-05 23:39:06  -223.78   100.00   34.04   -223.78   -251.76 
 2017-07-05 23:38:35  -223.78   100.00   34.04   -223.78   -251.76 
 2017-07-05 23:38:03  -223.78   100.00   34.04   -223.78   -251.76 
 2017-07-05 23:37:32  -223.78   100.00   34.04   -223.78   -251.76 
 2017-07-05 23:37:01  -223.78   100.00   34.04   -223.78   -251.76 
 2017-07-05 23:36:30  -223.78   100.00   34.04   -223.78   -251.76 
 2017-07-05 23:35:59  -223.78   100.00   34.04   -223.78   -251.76 
 2017-07-05 23:35:27  -223.78   100.00   34.04   -223.78   -251.76 
 2017-07-05 23:34:56  -223.78   100.00   34.04   -223.78   -251.76 
 2017-07-05 23:34:25  -223.78   100.00   34.04   -223.78   -251.76 
 2017-07-05 23:33:53  -223.78   100.00   34.04   -223.78   -251.76 
 2017-07-05 23:33:22  -223.78   100.00   34.04   -223.78   -251.76 
 2017-07-05 23:32:51  -223.78   100.00   34.04   -223.78   -251.76 
 2017-07-05 23:32:19  -223.78   100.00   34.04   -223.78   -251.76 
 2017-07-05 23:31:47  -223.78   100.00   34.04   -223.78   -251.76 
 2017-07-05 23:31:15  -223.78   100.00   34.04   -223.78   -251.76 
 2017-07-05 23:30:44  -223.78   100.00   34.04   -223.78   -251.76 
 2017-07-05 23:30:12  -223.78   100.00   34.04   -223.78   -251.76 
 2017-07-05 23:29:40  -223.78   100.00   34.04   -223.78   -251.76 
 2017-07-05 23:29:08  -223.78   100.00   34.04   -223.78   -251.76 
 2017-07-05 23:28:36  -223.78   100.00   34.04   -223.78   -251.76 
 2017-07-05 23:28:05  -223.78   100.00   34.04   -223.78   -251.76 
 2017-07-05 23:27:33  -223.78   100.00   34.04   -223.78   -251.76 
 2017-07-05 23:27:02  -223.78   100.00   34.04   -223.78   -251.76 
 2017-07-05 23:26:30  -223.78   100.00   34.04   -223.78   -251.76 
 2017-07-05 23:25:58  -223.78   100.00   34.04   -223.78   -251.76 
 2017-07-05 23:25:26  -223.78   100.00   34.04   -223.78   -251.76 
 2017-07-05 23:24:54  -223.78   100.00   34.04   -223.78   -251.76 
 2017-07-05 23:24:21  -223.78   100.00   34.04   -223.78   -251.76 
 2017-07-05 23:23:50  -223.78   100.00   34.04   -223.78   -251.76 
 2017-07-05 23:23:18  -223.78   100.00   34.04   -223.78   -251.76 
 2017-07-05 23:22:43  -223.78   100.00   34.04   -223.78   -251.76 
 2017-07-05 23:22:11  -223.78   100.00   34.04   -223.78   -251.76 
 2017-07-05 23:21:39  -223.78   100.00   34.04   -223.78   -251.76 
 2017-07-05 23:21:08  -223.78   100.00   34.04   -223.78   -251.76 
 2017-07-05 23:20:37  -223.78   100.00   34.04   -223.78   -251.76 
 2017-07-05 23:20:06  -223.78   100.00   34.04   -223.78   -251.76 
 2017-07-05 23:19:34  -223.78   100.00   34.04   -223.78   -251.76 
 2017-07-05 23:19:03  -223.78   100.00   34.04   -223.78   -251.76 
 2017-07-05 23:18:31  -223.78   100.00   34.04   -223.78   -251.76 
 2017-07-05 23:17:59  -223.78   100.00   34.04   -223.78   -251.76 
 2017-07-05 23:17:27  -223.78   100.00   34.04   -223.78   -251.76 
 2017-07-05 23:16:55  -223.78   100.00   34.04   -223.78   -251.76 
 2017-07-05 23:16:24  -223.78   100.00   34.04   -223.78   -251.76 
 2017-07-05 23:15:52  -223.78   100.00   34.04   -223.78   -251.76 
 2017-07-05 23:15:20  -223.78   100.00   34.04   -223.78   -251.76 
 2017-07-05 23:14:48  -223.78   100.00   34.04   -223.78   -251.76 
 2017-07-05 23:14:16  -223.78   100.00   34.04   -223.78   -251.76 
 2017-07-05 23:13:44  -223.78   100.00   34.04   -223.78   -251.76 
 2017-07-05 23:13:12  -223.78   100.00   34.04   -223.78   -251.76 
 2017-07-05 23:12:41  -223.78   100.00   34.04   -223.78   -251.76 
 2017-07-05 23:12:09  -223.78   100.00   34.04   -223.78   -251.76 
 2017-07-05 23:11:36  -223.78   100.00   34.04   -223.78   -251.76 
 2017-07-05 23:11:04  -223.78   100.00   34.04   -223.78   -251.76 
 2017-07-05 23:10:32  -223.78   100.00   34.04   -223.78   -251.76 
 2017-07-05 23:10:00  -223.78   100.00   34.04   -223.78   -251.76 
 2017-07-05 23:09:29  -223.78   100.00   34.04   -223.78   -251.76 
 2017-07-05 23:08:57  -223.78   100.00   34.04   -223.78   -251.76 
 2017-07-05 23:08:25  -223.78   100.00   34.04   -223.78   -251.76 
 2017-07-05 23:07:53  -223.78   100.00   34.04   -223.78   -251.76 
 2017-07-05 23:07:22  -223.78   100.00   34.04   -223.78   -251.76 
 2017-07-05 23:06:50  -223.78   100.00   34.04   -223.78   -251.76 
 2017-07-05 23:06:19  -223.78   100.00   34.04   -223.78   -251.76 
 2017-07-05 23:05:48  -223.78   100.00   34.04   -223.78   -251.76 
 2017-07-05 23:05:16  -223.78   100.00   34.04   -223.78   -251.76 
 2017-07-05 23:04:45  -223.78   100.00   34.04   -223.78   -251.76 
 2017-07-05 23:04:14  -223.78   100.00   34.04   -223.78   -251.76 
 2017-07-05 23:03:43  -223.78   100.00   34.04   -223.78   -251.76 
 2017-07-05 23:03:11  -223.78   100.00   34.04   -223.78   -251.76 
 2017-07-05 23:02:40  -223.78   100.00   34.04   -223.78   -251.76 
 2017-07-05 23:02:08  -223.78   100.00   34.04   -223.78   -251.76 
 2017-07-05 23:01:37  -223.78   100.00   34.04   -223.78   -251.76 
 2017-07-05 23:01:05  -223.78   100.00   34.04   -223.78   -251.76 
 2017-07-05 23:00:34  -223.78   100.00   34.04   -223.78   -251.76 
 2017-07-05 23:00:03  -223.78   100.00   34.04   -223.78   -251.76 
 2017-07-05 22:59:31  -223.78   100.00   34.04   -223.78   -251.76 
 2017-07-05 22:58:59  -223.78   100.00   34.04   -223.78   -251.76 
 2017-07-05 22:58:27  -223.78   100.00   34.04   -223.78   -251.76 
 2017-07-05 22:57:56  -223.78   100.00   34.04   -223.78   -251.76 
 2017-07-05 22:57:24  -223.78   100.00   34.04   -223.78   -251.76 
 2017-07-05 22:56:52  -223.78   100.00   34.04   -223.78   -251.76 
 2017-07-05 22:56:21  -223.78   100.00   34.04   -223.78   -251.76 
 2017-07-05 22:55:49  -223.78   100.00   34.04   -223.78   -251.76 
 2017-07-05 22:55:18  -223.78   100.00   34.04   -223.78   -251.76 
 2017-07-05 22:54:46  -223.78   100.00   34.04   -223.78   -251.76 
 2017-07-05 22:54:15  -223.78   100.00   34.04   -223.78   -251.76 
 2017-07-05 22:53:43  -223.78   100.00   34.04   -223.78   -251.76 
 2017-07-05 22:53:11  -223.78   100.00   34.04   -223.78   -251.76 
 2017-07-05 22:52:39  -223.78   100.00   34.04   -223.78   -251.76 
 2017-07-05 22:52:08  -223.78   100.00   34.04   -223.78   -251.76 
 2017-07-05 22:51:37  -223.78   100.00   34.04   -223.78   -251.76 
 2017-07-05 22:51:06  -223.78   100.00   34.04   -223.78   -251.76 
 2017-07-05 22:50:34  -223.78   100.00   34.04   -223.78   -251.76 
 2017-07-05 22:50:03  -223.78   100.00   34.04   -223.78   -251.76 
 2017-07-05 22:49:32  -223.78   100.00   34.04   -223.78   -251.76 
 2017-07-05 22:49:01  -223.78   100.00   34.04   -223.78   -251.76 
 2017-07-05 22:48:30  -223.78   100.00   34.04   -223.78   -251.76 
 2017-07-05 22:47:58  -223.78   100.00   34.04   -223.78   -251.76 
 2017-07-05 22:47:26  -223.78   100.00   34.04   -223.78   -251.76 
 2017-07-05 22:46:55  -223.78   100.00   34.04   -223.78   -251.76 
 2017-07-05 22:46:24  -223.78   100.00   34.04   -223.78   -251.76 
 2017-07-05 22:45:52  -223.78   100.00   34.04   -223.78   -251.76 
 2017-07-05 22:45:20  -223.78   100.00   34.04   -223.78   -251.76 
 2017-07-05 22:44:48  -223.78   100.00   34.04   -223.78   -251.76 
 2017-07-05 22:44:16  -223.78   100.00   34.04   -223.78   -251.76 
 2017-07-05 22:43:44  -223.78   100.00   34.04   -223.78   -251.76 
 2017-07-05 22:43:13  -223.78   100.00   34.04   -223.78   -251.76 
 2017-07-05 22:42:41  -223.78   100.00   34.04   -223.78   -251.76 
 2017-07-05 22:42:09  -223.78   100.00   34.04   -223.78   -251.76 
 2017-07-05 22:41:37  -223.78   100.00   34.04   -223.78   -251.76 
 2017-07-05 22:41:05  -223.78   100.00   34.04   -223.78   -251.76 
 2017-07-05 22:40:34  -223.78   100.00   34.04   -223.78   -251.76 
 2017-07-05 22:40:02  -223.78   100.00   34.04   -223.78   -251.76 
 2017-07-05 22:39:31  -223.78   100.00   34.04   -223.78   -251.76 
 2017-07-05 22:38:59  -223.78   100.00   34.04   -223.78   -251.76 
 2017-07-05 22:38:28  -223.78   100.00   34.04   -223.78   -251.76 
 2017-07-05 22:37:54  -223.78   100.00   34.04   -223.78   -251.76 
 2017-07-05 22:37:23  -223.78   100.00   34.04   -223.78   -251.76 
 2017-07-05 22:36:51  -223.78   100.00   34.04   -223.78   -251.76 
 2017-07-05 22:36:20  -223.78   100.00   34.04   -223.78   -251.76 
 2017-07-05 22:35:49  -223.78   100.00   34.04   -223.78   -251.76 
 2017-07-05 22:35:17  -223.78   100.00   34.04   -223.78   -251.76 
 2017-07-05 22:34:46  -223.78   100.00   34.04   -223.78   -251.76 
 2017-07-05 22:34:15  -223.78   100.00   34.04   -223.78   -251.76 
 2017-07-05 22:33:42  -223.78   100.00   34.04   -223.78   -251.76 
 2017-07-05 22:33:10  -223.78   100.00   34.04   -223.78   -251.76 
 2017-07-05 22:32:39  -223.78   100.00   34.04   -223.78   -251.76 
 2017-07-05 22:32:07  -223.78   100.00   34.04   -223.78   -251.76 
 2017-07-05 22:31:35  -223.78   100.00   34.04   -223.78   -251.76 
 2017-07-05 22:31:04  -223.78   100.00   34.04   -223.78   -251.76 
 2017-07-05 22:30:33  -223.78   100.00   34.04   -223.78   -251.76 
 2017-07-05 22:30:01  -223.78   100.00   34.04   -223.78   -251.76 
 2017-07-05 22:29:29  -223.78   100.00   34.04   -223.78   -251.76 
 2017-07-05 22:28:58  -223.78   100.00   34.04   -223.78   -251.76 
 2017-07-05 22:28:27  -223.78   100.00   34.04   -223.78   -251.76 
 2017-07-05 22:27:55  -223.78   100.00   34.04   -223.78   -251.76 
 2017-07-05 22:27:24  -223.78   100.00   34.04   -223.78   -251.76 
 2017-07-05 22:26:53  -223.78   100.00   34.04   -223.78   -251.76 
 2017-07-05 22:26:22  -223.78   100.00   34.04   -223.78   -251.76 
 2017-07-05 22:25:50  -223.78   100.00   34.04   -223.78   -251.76 
 2017-07-05 22:25:18  -223.78   100.00   34.04   -223.78   -251.76 
 2017-07-05 22:24:46  -223.78   100.00   34.04   -223.78   -251.76 
 2017-07-05 22:24:14  -223.78   100.00   34.04   -223.78   -251.76 
 2017-07-05 22:23:43  -223.78   100.00   34.04   -223.78   -251.76 
 2017-07-05 22:23:11  -223.78   100.00   34.04   -223.78   -251.76 
 2017-07-05 22:22:39  -223.78   100.00   34.04   -223.78   -251.76 
 2017-07-05 22:22:08  -223.78   100.00   34.04   -223.78   -251.76 
 2017-07-05 22:21:37  -223.78   100.00   34.04   -223.78   -251.76 
 2017-07-05 22:21:05  -223.78   100.00   34.04   -223.78   -251.76 
 2017-07-05 22:20:33  -223.78   100.00   34.04   -223.78   -251.76 
 2017-07-05 22:20:02  -223.78   100.00   34.04   -223.78   -251.76 
 2017-07-05 22:19:29  -223.78   100.00   34.04   -223.78   -251.76 
 2017-07-05 22:18:57  -223.78   100.00   34.04   -223.78   -251.76 
 2017-07-05 22:18:25  -223.78   100.00   34.04   -223.78   -251.76 
 2017-07-05 22:17:53  -223.78   100.00   34.04   -223.78   -251.76 
 2017-07-05 22:17:22  -223.78   100.00   34.04   -223.78   -251.76 
 2017-07-05 22:16:51  -223.78   100.00   34.04   -223.78   -251.76 
 2017-07-05 22:16:20  -223.78   100.00   34.04   -223.78   -251.76 
 2017-07-05 22:15:49  -223.78   100.00   34.04   -223.78   -251.76 
 2017-07-05 22:15:18  -223.78   100.00   34.04   -223.78   -251.76 
 2017-07-05 22:14:47  -223.78   100.00   34.04   -223.78   -251.76 
 2017-07-05 22:14:15  -223.78   100.00   34.04   -223.78   -251.76 
 2017-07-05 22:13:44  -223.78   100.00   34.04   -223.78   -251.76 
 2017-07-05 22:13:13  -223.78   100.00   34.04   -223.78   -251.76 
 2017-07-05 22:12:41  -223.78   100.00   34.04   -223.78   -251.76 
 2017-07-05 22:12:10  -223.78   100.00   34.04   -223.78   -251.76 
 2017-07-05 22:11:39  -223.78   100.00   34.04   -223.78   -251.76 
 2017-07-05 22:11:08  -223.78   100.00   34.04   -223.78   -251.76 
 2017-07-05 22:10:37  -223.78   100.00   34.04   -223.78   -251.76 
 2017-07-05 22:10:06  -223.78   100.00   34.04   -223.78   -251.76 
 2017-07-05 22:09:34  -223.78   100.00   34.04   -223.78   -251.76 
 2017-07-05 22:09:02  -223.78   100.00   34.04   -223.78   -251.76 
 2017-07-05 22:08:31  -223.78   100.00   34.04   -223.78   -251.76 
 2017-07-05 22:07:58  -223.78   100.00   34.04   -223.78   -251.76 
 2017-07-05 22:07:27  -223.78   100.00   34.04   -223.78   -251.76 
 2017-07-05 22:06:56  -223.78   100.00   34.04   -223.78   -251.76 
 2017-07-05 22:06:24  -223.78   100.00   34.04   -223.78   -251.76 
 2017-07-05 22:05:53  -223.78   100.00   34.04   -223.78   -251.76 
 2017-07-05 22:05:21  -223.78   100.00   34.04   -223.78   -251.76 
 2017-07-05 22:04:49  -223.78   100.00   34.04   -223.78   -251.76 
 2017-07-05 22:04:18  -223.78   100.00   34.04   -223.78   -251.76 
 2017-07-05 22:03:47  -223.78   100.00   34.04   -223.78   -251.76 
 2017-07-05 22:03:15  -223.78   100.00   34.04   -223.78   -251.76 
 2017-07-05 22:02:44  -223.78   100.00   34.04   -223.78   -251.76 
 2017-07-05 22:02:13  -223.78   100.00   34.04   -223.78   -251.76 
 2017-07-05 22:01:41  -223.78   100.00   34.04   -223.78   -251.76 
 2017-07-05 22:01:10  -223.78   100.00   34.04   -223.78   -251.76 
 2017-07-05 22:00:37  -223.78   100.00   34.04   -223.78   -251.76 
 2017-07-05 22:00:06  -223.78   100.00   34.04   -223.78   -251.76 
 2017-07-05 21:59:35  -223.78   100.00   34.04   -223.78   -251.76 
 2017-07-05 21:59:03  -223.78   100.00   34.04   -223.78   -251.76 
 2017-07-05 21:58:31  -223.78   100.00   34.04   -223.78   -251.76 
 2017-07-05 21:58:00  -223.78   100.00   34.04   -223.78   -251.76 
 2017-07-05 21:57:29  -223.78   100.00   34.04   -223.78   -251.76 
 2017-07-05 21:56:57  -223.78   100.00   34.04   -223.78   -251.76 
 2017-07-05 21:56:26  -223.78   100.00   34.04   -223.78   -251.76 
 2017-07-05 21:55:53  -223.78   100.00   34.04   -223.78   -251.76 
 2017-07-05 21:55:22  -223.78   100.00   34.04   -223.78   -251.76 
 2017-07-05 21:54:50  -223.78   100.00   34.04   -223.78   -251.76 
 2017-07-05 21:54:19  -223.78   100.00   34.04   -223.78   -251.76 
 2017-07-05 21:53:46  -223.78   100.00   34.04   -223.78   -251.76 
 2017-07-05 21:53:15  -223.78   100.00   34.04   -223.78   -251.76 
 2017-07-05 21:52:44  -223.78   100.00   34.04   -223.78   -251.76 
 2017-07-05 21:52:12  -223.78   100.00   34.04   -223.78   -251.76 
 2017-07-05 21:51:41  -223.78   100.00   34.04   -223.78   -251.76 
 2017-07-05 21:51:10  -223.78   100.00   34.04   -223.78   -251.76 
 2017-07-05 21:50:38  -223.78   100.00   34.04   -223.78   -251.76 
 2017-07-05 21:50:07  -223.78   100.00   34.04   -223.78   -251.76 
 2017-07-05 21:49:35  -223.78   100.00   34.04   -223.78   -251.76 
 2017-07-05 21:49:04  -223.78   100.00   34.04   -223.78   -251.76 
 2017-07-05 21:48:31  -223.78   100.00   34.04   -223.78   -251.76 
 2017-07-05 21:48:00  -223.78   100.00   34.04   -223.78   -251.76 
 2017-07-05 21:47:25  -223.78   100.00   34.04   -223.78   -251.76 
 2017-07-05 21:46:54  -223.78   100.00   34.04   -223.78   -251.76 
 2017-07-05 21:46:23  -223.78   100.00   34.04   -223.78   -251.76 
 2017-07-05 21:45:51  -223.78   100.00   34.04   -223.78   -251.76 
 2017-07-05 21:45:20  -223.78   100.00   34.04   -223.78   -251.76 
 2017-07-05 21:44:49  -223.78   100.00   34.04   -223.78   -251.76 
 2017-07-05 21:44:17  -223.78   100.00   34.04   -223.78   -251.76 
 2017-07-05 21:43:46  -223.78   100.00   34.04   -223.78   -251.76 
 2017-07-05 21:43:12  -223.78   100.00   34.04   -223.78   -251.76 
 2017-07-05 21:42:41  -223.78   100.00   34.04   -223.78   -251.76 
 2017-07-05 21:42:10  -223.78   100.00   34.04   -223.78   -251.76 
 2017-07-05 21:41:39  -223.78   100.00   34.04   -223.78   -251.76 
 2017-07-05 21:41:08  -223.78   100.00   34.04   -223.78   -251.76 
 2017-07-05 21:40:37  -223.78   100.00   34.04   -223.78   -251.76 
 2017-07-05 21:40:06  -223.78   100.00   34.04   -223.78   -251.76 
 2017-07-05 21:39:34  -223.78   100.00   34.04   -223.78   -251.76 
 2017-07-05 21:39:03  -223.78   100.00   34.04   -223.78   -251.76 
 2017-07-05 21:38:32  -223.78   100.00   34.04   -223.78   -251.76 
 2017-07-05 21:38:01  -223.78   100.00   34.04   -223.78   -251.76 
 2017-07-05 21:37:30  -223.78   100.00   34.04   -223.78   -251.76 
 2017-07-05 21:36:59  -223.78   100.00   34.04   -223.78   -251.76 
 2017-07-05 21:36:28  -223.78   100.00   34.04   -223.78   -251.76 
 2017-07-05 21:35:56  -223.78   100.00   34.04   -223.78   -251.76 
 2017-07-05 21:35:25  -223.78   100.00   34.04   -223.78   -251.76 
 2017-07-05 21:34:54  -223.78   100.00   34.04   -223.78   -251.76 
 2017-07-05 21:34:23  -223.78   100.00   34.04   -223.78   -251.76 
 2017-07-05 21:33:51  -223.78   100.00   34.04   -223.78   -251.76 
 2017-07-05 21:33:20  -223.78   100.00   34.04   -223.78   -251.76 
 2017-07-05 21:32:49  -223.78   100.00   34.04   -223.78   -251.76 
 2017-07-05 21:32:18  -223.78   100.00   34.04   -223.78   -251.76 
 2017-07-05 21:31:47  -223.78   100.00   34.04   -223.78   -251.76 
 2017-07-05 21:31:15  -223.78   100.00   34.04   -223.78   -251.76 
 2017-07-05 21:30:44  -223.78   100.00   34.04   -223.78   -251.76 
 2017-07-05 21:30:13  -223.78   100.00   34.04   -223.78   -251.76 
 2017-07-05 21:29:42  -223.78   100.00   34.04   -223.78   -251.76 
 2017-07-05 21:29:10  -223.78   100.00   34.04   -223.78   -251.76 
 2017-07-05 21:28:39  -223.78   100.00   34.04   -223.78   -251.76 
 2017-07-05 21:28:08  -223.78   100.00   34.04   -223.78   -251.76 
 2017-07-05 21:27:36  -223.78   100.00   34.04   -223.78   -251.76 
 2017-07-05 21:27:04  -223.78   100.00   34.04   -223.78   -251.76 
 2017-07-05 21:26:33  -223.78   100.00   34.04   -223.78   -251.76 
 2017-07-05 21:26:02  -223.78   100.00   34.04   -223.78   -251.76 
 2017-07-05 21:25:31  -223.78   100.00   34.04   -223.78   -251.76 
 2017-07-05 21:25:00  -223.78   100.00   34.04   -223.78   -251.76 
 2017-07-05 21:24:29  -223.78   100.00   34.04   -223.78   -251.76 
 2017-07-05 21:23:57  -223.78   100.00   34.04   -223.78   -251.76 
 2017-07-05 21:23:26  -223.78   100.00   34.04   -223.78   -251.76 
 2017-07-05 21:22:54  -223.78   100.00   34.04   -223.78   -251.76 
 2017-07-05 21:22:22  -223.78   100.00   34.04   -223.78   -251.76 
 2017-07-05 21:21:51  -223.78   100.00   34.04   -223.78   -251.76 
 2017-07-05 21:21:20  -223.78   100.00   34.04   -223.78   -251.76 
 2017-07-05 21:20:47  -223.78   100.00   34.04   -223.78   -251.76 
 2017-07-05 21:20:05  -223.78   100.00   34.04   -223.78   -251.76 
 2017-07-05 21:19:27  -223.78   100.00   34.04   -223.78   -251.76 
 2017-07-05 21:17:42  -223.78   100.00   34.04   -223.78   -251.76 
 2017-07-05 21:17:11  -223.78   100.00   34.04   -223.78   -251.76 
 2017-07-05 21:16:40  -223.78   100.00   34.04   -223.78   -251.76 
 2017-07-05 21:16:09  -223.78   100.00   34.04   -223.78   -251.76 
 2017-07-05 21:15:38  -223.78   100.00   34.04   -223.78   -251.76 
 2017-07-05 21:15:07  -223.78   100.00   34.04   -223.78   -251.76 
 2017-07-05 21:14:36  -223.78   100.00   34.04   -223.78   -251.76 
 2017-07-05 21:14:05  -223.78   100.00   34.04   -223.78   -251.76 
 2017-07-05 21:13:32  -223.78   100.00   34.04   -223.78   -251.76 
 2017-07-05 21:13:01  -223.78   100.00   34.04   -223.78   -251.76 
 2017-07-05 21:12:30  -223.78   100.00   34.04   -223.78   -251.76 
 2017-07-05 21:11:58  -223.78   100.00   34.04   -223.78   -251.76 
 2017-07-05 21:11:26  -223.78   100.00   34.04   -223.78   -251.76 
 2017-07-05 21:10:54  -223.78   100.00   34.04   -223.78   -251.76 
 2017-07-05 21:10:23  -223.78   100.00   34.04   -223.78   -251.76 
 2017-07-05 21:09:52  -223.78   100.00   34.04   -223.78   -251.76 
 2017-07-05 21:09:21  -223.78   100.00   34.04   -223.78   -251.76 
 2017-07-05 21:08:49  -223.78   100.00   34.04   -223.78   -251.76 
 2017-07-05 21:08:18  -223.78   100.00   34.04   -223.78   -251.76 
 2017-07-05 21:07:48  -223.78   100.00   34.04   -223.78   -251.76 
 2017-07-05 21:07:12  -223.78   100.00   34.04   -223.78   -251.76 
 2017-07-05 21:06:40  -223.78   100.00   34.04   -223.78   -251.76 
 2017-07-05 21:06:09  -223.78   100.00   34.04   -223.78   -251.76 
 2017-07-05 21:05:38  -223.78   100.00   34.04   -223.78   -251.76 
 2017-07-05 21:05:07  -223.78   100.00   34.04   -223.78   -251.76 
 2017-07-05 21:04:36  -223.78   100.00   34.04   -223.78   -251.76 
 2017-07-05 21:04:04  -223.78   100.00   34.04   -223.78   -251.76 
 2017-07-05 21:03:33  -223.78   100.00   34.04   -223.78   -251.76 
 2017-07-05 21:03:01  -223.78   100.00   34.04   -223.78   -251.76 
 2017-07-05 21:02:29  -223.78   100.00   34.04   -223.78   -251.76 
 2017-07-05 21:01:58  -223.78   100.00   34.04   -223.78   -251.76 
 2017-07-05 21:01:27  -223.78   100.00   34.04   -223.78   -251.76 
 2017-07-05 21:00:55  -223.78   100.00   34.04   -223.78   -251.76 
 2017-07-05 21:00:24  -223.78   100.00   34.04   -223.78   -251.76 
 2017-07-05 20:59:53  -223.78   100.00   34.04   -223.78   -251.76 
 2017-07-05 20:59:19  -223.78   100.00   34.04   -223.78   -251.76 
 2017-07-05 20:58:48  -223.78   100.00   34.04   -223.78   -251.76 
 2017-07-05 20:58:17  -223.78   100.00   34.04   -223.78   -251.76 
 2017-07-05 20:57:46  -223.78   100.00   34.04   -223.78   -251.76 
 2017-07-05 20:57:15  -223.78   100.00   34.04   -223.78   -251.76 
 2017-07-05 20:56:44  -223.78   100.00   34.04   -223.78   -251.76 
 2017-07-05 20:56:13  -223.78   100.00   34.04   -223.78   -251.76 
 2017-07-05 20:55:40  -223.78   100.00   34.04   -223.78   -251.76 
 2017-07-05 20:55:09  -223.78   100.00   34.04   -223.78   -251.76 
 2017-07-05 20:54:38  -223.78   100.00   34.04   -223.78   -251.76 
 2017-07-05 20:54:06  -223.78   100.00   34.04   -223.78   -251.76 
 2017-07-05 20:53:35  -223.78   100.00   34.04   -223.78   -251.76 
 2017-07-05 20:53:04  -223.78   100.00   34.04   -223.78   -251.76 
 2017-07-05 20:52:32  -223.78   100.00   34.04   -223.78   -251.76 
 2017-07-05 20:52:01  -223.78   100.00   34.04   -223.78   -251.76 
 2017-07-05 20:51:29  -223.78   100.00   34.04   -223.78   -251.76 
 2017-07-05 20:50:55  -223.78   100.00   34.04   -223.78   -251.76 
 2017-07-05 20:50:24  -223.78   100.00   34.04   -223.78   -251.76 
 2017-07-05 20:49:52  -223.78   100.00   34.04   -223.78   -251.76 
 2017-07-05 20:49:20  -223.78   100.00   34.04   -223.78   -251.76 
 2017-07-05 20:48:49  -223.78   100.00   34.04   -223.78   -251.76 
 2017-07-05 20:48:18  -223.78   100.00   34.04   -223.78   -251.76 
 2017-07-05 20:47:47  -223.78   100.00   34.04   -223.78   -251.76 
 2017-07-05 20:47:15  -223.78   100.00   34.04   -223.78   -251.76 
 2017-07-05 20:46:44  -223.78   100.00   34.04   -223.78   -251.76 
 2017-07-05 20:46:10  -223.78   100.00   34.04   -223.78   -251.76 
 2017-07-05 20:45:39  -223.78   100.00   34.04   -223.78   -251.76 
 2017-07-05 20:45:08  -223.78   100.00   34.04   -223.78   -251.76 
 2017-07-05 20:44:36  -223.78   100.00   34.04   -223.78   -251.76 
 2017-07-05 20:44:05  -223.78   100.00   34.04   -223.78   -251.76 
 2017-07-05 20:43:34  -223.78   100.00   34.04   -223.78   -251.76 
 2017-07-05 20:43:02  -223.78   100.00   34.04   -223.78   -251.76 
 2017-07-05 20:42:31  -223.78   100.00   34.04   -223.78   -251.76 
 2017-07-05 20:42:00  -223.78   100.00   34.04   -223.78   -251.76 
 2017-07-05 20:40:53  -223.78   100.00   34.04   -223.78   -251.76 
 2017-07-05 20:40:21  -223.78   100.00   34.04   -223.78   -251.76 
 2017-07-05 20:39:49  -223.78   100.00   34.04   -223.78   -251.76 
 2017-07-05 20:39:17  -223.78   100.00   34.04   -223.78   -251.76 
 2017-07-05 20:38:46  -223.78   100.00   34.04   -223.78   -251.76 
 2017-07-05 20:38:15  -223.78   100.00   34.04   -223.78   -251.76 
 2017-07-05 20:37:44  -223.78   100.00   34.04   -223.78   -251.76 
 2017-07-05 20:37:10  -223.78   100.00   34.04   -223.78   -251.76 
 2017-07-05 20:36:39  -223.78   100.00   34.04   -223.78   -251.76 
 2017-07-05 20:36:07  -223.78   100.00   34.04   -223.78   -251.76 
 2017-07-05 20:35:36  -223.78   100.00   34.04   -223.78   -251.76 
 2017-07-05 20:35:03  -223.78   100.00   34.04   -223.78   -251.76 
 2017-07-05 20:34:32  -223.78   100.00   34.04   -223.78   -251.76 
 2017-07-05 20:34:00  -223.78   100.00   34.04   -223.78   -251.76 
 2017-07-05 20:33:29  -223.78   100.00   34.04   -223.78   -251.76 
 2017-07-05 20:32:58  -223.78   100.00   34.04   -223.78   -251.76 
 2017-07-05 20:32:27  -223.78   100.00   34.04   -223.78   -251.76 
 2017-07-05 20:31:56  -223.78   100.00   34.04   -223.78   -251.76 
 2017-07-05 20:31:24  -223.78   100.00   34.04   -223.78   -251.76 
 2017-07-05 20:30:53  -223.78   100.00   34.04   -223.78   -251.76 
 2017-07-05 20:30:22  -223.78   100.00   34.04   -223.78   -251.76 
 2017-07-05 20:29:51  -223.78   100.00   34.04   -223.78   -251.76 
 2017-07-05 20:29:19  -223.78   100.00   34.04   -223.78   -251.76 
 2017-07-05 20:28:47  -223.78   100.00   34.04   -223.78   -251.76 
 2017-07-05 20:28:15  -223.78   100.00   34.04   -223.78   -251.76 
 2017-07-05 20:27:43  -223.78   100.00   34.04   -223.78   -251.76 
 2017-07-05 20:27:12  -223.78   100.00   34.04   -223.78   -251.76 
 2017-07-05 20:26:40  -223.78   100.00   34.04   -223.78   -251.76 
 2017-07-05 20:26:09  -223.78   100.00   34.04   -223.78   -251.76 
 2017-07-05 20:25:38  -223.78   100.00   34.04   -223.78   -251.76 
 2017-07-05 20:25:07  -223.78   100.00   34.04   -223.78   -251.76 
 2017-07-05 20:24:35  -223.78   100.00   34.04   -223.78   -251.76 
 2017-07-05 20:24:03  -223.78   100.00   34.04   -223.78   -251.76 
 2017-07-05 20:23:31  -223.78   100.00   34.04   -223.78   -251.76 
 2017-07-05 20:22:59  -223.78   100.00   34.04   -223.78   -251.76 
 2017-07-05 20:22:27  -223.78   100.00   34.04   -223.78   -251.76 
 2017-07-05 20:21:56  -223.78   100.00   34.04   -223.78   -251.76 
 2017-07-05 20:21:24  -223.78   100.00   34.04   -223.78   -251.76 
 2017-07-05 20:20:53  -223.78   100.00   34.04   -223.78   -251.76 
 2017-07-05 20:20:21  -223.78   100.00   34.04   -223.78   -251.76 
 2017-07-05 20:19:50  -223.78   100.00   34.04   -223.78   -251.76 
 2017-07-05 20:19:18  -223.78   100.00   34.04   -223.78   -251.76 
 2017-07-05 20:18:47  -223.78   100.00   34.04   -223.78   -251.76 
 2017-07-05 20:18:16  -223.78   100.00   34.04   -223.78   -251.76 
 2017-07-05 20:17:44  -223.78   100.00   34.04   -223.78   -251.76 
 2017-07-05 20:17:13  -223.78   100.00   34.04   -223.78   -251.76 
 2017-07-05 20:16:41  -223.78   100.00   34.04   -223.78   -251.76 
 2017-07-05 20:16:09  -223.78   100.00   34.04   -223.78   -251.76 
 2017-07-05 20:15:36  -223.78   100.00   34.04   -223.78   -251.76 
 2017-07-05 20:15:03  -223.78   100.00   34.04   -223.78   -251.76 
 2017-07-05 20:14:19  -223.78   100.00   34.04   -223.78   -251.76 
 2017-07-05 20:13:41  -223.78   100.00   34.04   -223.78   -251.76 
 2017-07-05 20:13:10  -223.78   100.00   34.04   -223.78   -251.76 
 2017-07-05 20:12:39  -223.78   100.00   34.04   -223.78   -251.76 
 2017-07-05 20:12:08  -223.78   100.00   34.04   -223.78   -251.76 
 2017-07-05 20:11:37  -223.78   100.00   34.04   -223.78   -251.76 
 2017-07-05 20:11:06  -223.78   100.00   34.04   -223.78   -251.76 
 2017-07-05 20:10:35  -223.78   100.00   34.04   -223.78   -251.76 
 2017-07-05 20:10:03  -223.78   100.00   34.04   -223.78   -251.76 
 2017-07-05 20:09:31  -223.78   100.00   34.04   -223.78   -251.76 
 2017-07-05 20:09:00  -223.78   100.00   34.04   -223.78   -251.76 
 2017-07-05 20:08:28  -223.78   100.00   34.04   -223.78   -251.76 
 2017-07-05 20:07:52  -223.78   100.00   34.04   -223.78   -251.76 
 2017-07-05 20:07:21  -223.78   100.00   34.04   -223.78   -251.76 
 2017-07-05 20:06:50  -223.78   100.00   34.04   -223.78   -251.76 
 2017-07-05 20:06:19  -223.78   100.00   34.04   -223.78   -251.76 
 2017-07-05 20:05:47  -223.78   100.00   34.04   -223.78   -251.76 
 2017-07-05 20:05:16  -223.78   100.00   34.04   -223.78   -251.76 
 2017-07-05 20:04:45  -223.78   100.00   34.04   -223.78   -251.76 
 2017-07-05 20:04:13  -223.78   100.00   34.04   -223.78   -251.76 
 2017-07-05 20:03:36  -223.78   100.00   34.04   -223.78   -251.76 
 2017-07-05 20:03:05  -223.78   100.00   34.04   -223.78   -251.76 
 2017-07-05 20:02:33  -223.78   100.00   34.04   -223.78   -251.76 
 2017-07-05 20:02:01  -223.78   100.00   34.04   -223.78   -251.76 
 2017-07-05 20:01:29  -223.78   100.00   34.04   -223.78   -251.76 
 2017-07-05 20:00:55  -223.78   100.00   34.04   -223.78   -251.76 
 2017-07-05 20:00:22  -223.78   100.00   34.04   -223.78   -251.76 
 2017-07-05 19:59:51  -223.78   100.00   34.04   -223.78   -251.76 
 2017-07-05 19:59:19  -223.78   100.00   34.04   -223.78   -251.76 
 2017-07-05 19:58:48  -223.78   100.00   34.04   -223.78   -251.76 
 2017-07-05 19:58:17  -223.78   100.00   34.04   -223.78   -251.76 
 2017-07-05 19:57:46  -223.78   100.00   34.04   -223.78   -251.76 
 2017-07-05 19:57:14  -223.78   100.00   34.04   -223.78   -251.76 
 2017-07-05 19:56:43  -223.78   100.00   34.04   -223.78   -251.76 
 2017-07-05 19:56:12  -223.78   100.00   34.04   -223.78   -251.76 
 2017-07-05 19:55:41  -223.78   100.00   34.04   -223.78   -251.76 
 2017-07-05 19:55:09  -223.78   100.00   34.04   -223.78   -251.76 
 2017-07-05 19:54:38  -223.78   100.00   34.04   -223.78   -251.76 
 2017-07-05 19:54:07  -223.78   100.00   34.04   -223.78   -251.76 
 2017-07-05 19:53:36  -223.78   100.00   34.04   -223.78   -251.76 
 2017-07-05 19:53:04  -223.78   100.00   34.04   -223.78   -251.76 
 2017-07-05 19:52:33  -223.78   100.00   34.04   -223.78   -251.76 
 2017-07-05 19:52:01  -223.78   100.00   34.04   -223.78   -251.76 
 2017-07-05 19:51:29  -223.78   100.00   34.04   -223.78   -251.76 
 2017-07-05 19:50:58  -223.78   100.00   34.04   -223.78   -251.76 
 2017-07-05 19:50:27  -223.78   100.00   34.04   -223.78   -251.76 
 2017-07-05 19:49:56  -223.78   100.00   34.04   -223.78   -251.76 
 2017-07-05 19:49:23  -223.78   100.00   34.04   -223.78   -251.76 
 2017-07-05 19:48:51  -223.78   100.00   34.04   -223.78   -251.76 
 2017-07-05 19:48:20  -223.78   100.00   34.04   -223.78   -251.76 
 2017-07-05 19:47:49  -223.78   100.00   34.04   -223.78   -251.76 
 2017-07-05 19:47:18  -223.78   100.00   34.04   -223.78   -251.76 
 2017-07-05 19:46:47  -223.78   100.00   34.04   -223.78   -251.76 
 2017-07-05 19:46:16  -223.78   100.00   34.04   -223.78   -251.76 
 2017-07-05 19:45:44  -223.78   100.00   34.04   -223.78   -251.76 
 2017-07-05 19:45:13  -223.78   100.00   34.04   -223.78   -251.76 
 2017-07-05 19:44:41  -223.78   100.00   34.04   -223.78   -251.76 
 2017-07-05 19:44:10  -223.78   100.00   34.04   -223.78   -251.76 
 2017-07-05 19:43:35  -223.78   100.00   34.04   -223.78   -251.76 
 2017-07-05 19:43:03  -223.78   100.00   34.04   -223.78   -251.76 
 2017-07-05 19:42:31  -223.78   100.00   34.04   -223.78   -251.76 
 2017-07-05 19:41:59  -223.78   100.00   34.04   -223.78   -251.76 
 2017-07-05 19:41:26  -223.78   100.00   34.04   -223.78   -251.76 
 2017-07-05 19:40:55  -223.78   100.00   34.04   -223.78   -251.76 
 2017-07-05 19:39:49  -223.78   100.00   34.04   -223.78   -251.76 
 2017-07-05 19:39:18  -223.78   100.00   34.04   -223.78   -251.76 
 2017-07-05 19:38:47  -223.78   100.00   34.04   -223.78   -251.76 
 2017-07-05 19:38:16  -223.78   100.00   34.04   -223.78   -251.76 
 2017-07-05 19:37:45  -223.78   100.00   34.04   -223.78   -251.76 
 2017-07-05 19:37:14  -223.78   100.00   34.04   -223.78   -251.76 
 2017-07-05 19:36:43  -223.78   100.00   34.04   -223.78   -251.76 
 2017-07-05 19:36:11  -223.78   100.00   34.04   -223.78   -251.76 
 2017-07-05 19:35:40  -223.78   100.00   34.04   -223.78   -251.76 
 2017-07-05 19:35:09  -223.78   100.00   34.04   -223.78   -251.76 
 2017-07-05 19:34:38  -223.78   100.00   34.04   -223.78   -251.76 
 2017-07-05 19:34:07  -223.78   100.00   34.04   -223.78   -251.76 
 2017-07-05 19:33:36  -223.78   100.00   34.04   -223.78   -251.76 
 2017-07-05 19:33:05  -223.78   100.00   34.04   -223.78   -251.76 
 2017-07-05 19:32:31  -223.78   100.00   34.04   -223.78   -251.76 
 2017-07-05 19:32:00  -223.78   100.00   34.04   -223.78   -251.76 
 2017-07-05 19:31:29  -223.78   100.00   34.04   -223.78   -251.76 
 2017-07-05 19:30:58  -223.78   100.00   34.04   -223.78   -251.76 
 2017-07-05 19:30:27  -223.78   100.00   34.04   -223.78   -251.76 
 2017-07-05 19:29:56  -223.78   100.00   34.04   -223.78   -251.76 
 2017-07-05 19:29:25  -223.78   100.00   34.04   -223.78   -251.76 
 2017-07-05 19:28:53  -223.78   100.00   34.04   -223.78   -251.76 
 2017-07-05 19:28:22  -223.78   100.00   34.04   -223.78   -251.76 
 2017-07-05 19:27:51  -223.78   100.00   34.04   -223.78   -251.76 
 2017-07-05 19:27:18  -223.78   100.00   34.04   -223.78   -251.76 
 2017-07-05 19:26:47  -223.78   100.00   34.04   -223.78   -251.76 
 2017-07-05 19:26:16  -223.78   100.00   34.04   -223.78   -251.76 
 2017-07-05 19:25:45  -223.78   100.00   34.04   -223.78   -251.76 
 2017-07-05 19:25:14  -223.78   100.00   34.04   -223.78   -251.76 
 2017-07-05 19:24:43  -223.78   100.00   34.04   -223.78   -251.76 
 2017-07-05 19:24:12  -223.78   100.00   34.04   -223.78   -251.76 
 2017-07-05 19:23:41  -223.78   100.00   34.04   -223.78   -251.76 
 2017-07-05 19:23:09  -223.78   100.00   34.04   -223.78   -251.76 
 2017-07-05 19:22:38  -223.78   100.00   34.04   -223.78   -251.76 
 2017-07-05 19:22:07  -223.78   100.00   34.04   -223.78   -251.76 
 2017-07-05 19:21:36  -223.78   100.00   34.04   -223.78   -251.76 
 2017-07-05 19:21:05  -223.78   100.00   34.04   -223.78   -251.76 
 2017-07-05 19:20:33  -223.78   100.00   34.04   -223.78   -251.76 
 2017-07-05 19:20:02  -223.78   100.00   34.04   -223.78   -251.76 
 2017-07-05 19:19:29  -223.78   100.00   34.04   -223.78   -251.76 
 2017-07-05 19:18:57  -223.78   100.00   34.04   -223.78   -251.76 
 2017-07-05 19:18:26  -223.78   100.00   34.04   -223.78   -251.76 
 2017-07-05 19:17:55  -223.78   100.00   34.04   -223.78   -251.76 
 2017-07-05 19:17:24  -223.78   100.00   34.04   -223.78   -251.76 
 2017-07-05 19:16:53  -223.78   100.00   34.04   -223.78   -251.76 
 2017-07-05 19:16:22  -223.78   100.00   34.04   -223.78   -251.76 
 2017-07-05 19:15:50  -223.78   100.00   34.04   -223.78   -251.76 
 2017-07-05 19:15:19  -223.78   100.00   34.04   -223.78   -251.76 
 2017-07-05 19:14:48  -223.78   100.00   34.04   -223.78   -251.76 
 2017-07-05 19:14:16  -223.78   100.00   34.04   -223.78   -251.76 
 2017-07-05 19:13:45  -223.78   100.00   34.04   -223.78   -251.76 
 2017-07-05 19:13:13  -223.78   100.00   34.04   -223.78   -251.76 
 2017-07-05 19:12:42  -223.78   100.00   34.04   -223.78   -251.76 
 2017-07-05 19:12:10  -223.78   100.00   34.04   -223.78   -251.76 
 2017-07-05 19:11:39  -223.78   100.00   34.04   -223.78   -251.76 
 2017-07-05 19:11:07  -223.78   100.00   34.04   -223.78   -251.76 
 2017-07-05 19:10:36  -223.78   100.00   34.04   -223.78   -251.76 
 2017-07-05 19:10:04  -223.78   100.00   34.04   -223.78   -251.76 
 2017-07-05 19:09:33  -223.78   100.00   34.04   -223.78   -251.76 
 2017-07-05 19:09:03  -223.78   100.00   34.04   -223.78   -251.76 
 2017-07-05 19:08:31  -223.78   100.00   34.04   -223.78   -251.76 
 2017-07-05 19:08:00  -223.78   100.00   34.04   -223.78   -251.76 
 2017-07-05 19:07:29  -223.78   100.00   34.04   -223.78   -251.76 
 2017-07-05 19:06:57  -223.78   100.00   34.04   -223.78   -251.76 
 2017-07-05 19:06:26  -223.78   100.00   34.04   -223.78   -251.76 
 2017-07-05 19:05:55  -223.78   100.00   34.04   -223.78   -251.76 
 2017-07-05 19:05:24  -223.78   100.00   34.04   -223.78   -251.76 
 2017-07-05 19:04:52  -223.78   100.00   34.04   -223.78   -251.76 
 2017-07-05 19:04:21  -223.78   100.00   34.04   -223.78   -251.76 
 2017-07-05 19:03:50  -223.78   100.00   34.04   -223.78   -251.76 
 2017-07-05 19:03:18  -223.78   100.00   34.04   -223.78   -251.76 
 2017-07-05 19:02:47  -223.78   100.00   34.04   -223.78   -251.76 
 2017-07-05 19:02:16  -223.78   100.00   34.04   -223.78   -251.76 
 2017-07-05 19:01:45  -223.78   100.00   34.04   -223.78   -251.76 
 2017-07-05 19:01:14  -223.78   100.00   34.04   -223.78   -251.76 
 2017-07-05 19:00:43  -223.78   100.00   34.04   -223.78   -251.76 
 2017-07-05 19:00:12  -223.78   100.00   34.04   -223.78   -251.76 
 2017-07-05 18:59:40  -223.78   100.00   34.04   -223.78   -251.76 
 2017-07-05 18:59:09  -223.78   100.00   34.04   -223.78   -251.76 
 2017-07-05 18:58:37  -223.78   100.00   34.04   -223.78   -251.76 
 2017-07-05 18:58:05  -223.78   100.00   34.04   -223.78   -251.76 
 2017-07-05 18:57:33  -223.78   100.00   34.04   -223.78   -251.76 
 2017-07-05 18:57:02  -223.78   100.00   34.04   -223.78   -251.76 
 2017-07-05 18:56:31  -223.78   100.00   34.04   -223.78   -251.76 
 2017-07-05 18:56:00  -223.78   100.00   34.04   -223.78   -251.76 
 2017-07-05 18:55:28  -223.78   100.00   34.04   -223.78   -251.76 
 2017-07-05 18:54:57  -223.78   100.00   34.04   -223.78   -251.76 
 2017-07-05 18:54:26  -223.78   100.00   34.04   -223.78   -251.76 
 2017-07-05 18:53:53  -223.78   100.00   34.04   -223.78   -251.76 
 2017-07-05 18:53:22  -223.78   100.00   34.04   -223.78   -251.76 
 2017-07-05 18:52:51  -223.78   100.00   34.04   -223.78   -251.76 
 2017-07-05 18:52:20  -223.78   100.00   34.04   -223.78   -251.76 
 2017-07-05 18:51:48  -223.78   100.00   34.04   -223.78   -251.76 
 2017-07-05 18:51:17  -223.78   100.00   34.04   -223.78   -251.76 
 2017-07-05 18:50:45  -223.78   100.00   34.04   -223.78   -251.76 
 2017-07-05 18:50:14  -223.78   100.00   34.04   -223.78   -251.76 
 2017-07-05 18:49:43  -223.78   100.00   34.04   -223.78   -251.76 
 2017-07-05 18:49:11  -223.78   100.00   34.04   -223.78   -251.76 
 2017-07-05 18:48:40  -223.78   100.00   34.04   -223.78   -251.76 
 2017-07-05 18:48:09  -223.78   100.00   34.04   -223.78   -251.76 
 2017-07-05 18:47:38  -223.78   100.00   34.04   -223.78   -251.76 
 2017-07-05 18:47:05  -223.78   100.00   34.04   -223.78   -251.76 
 2017-07-05 18:46:34  -223.78   100.00   34.04   -223.78   -251.76 
 2017-07-05 18:46:02  -223.78   100.00   34.04   -223.78   -251.76 
 2017-07-05 18:45:31  -223.78   100.00   34.04   -223.78   -251.76 
 2017-07-05 18:45:00  -223.78   100.00   34.04   -223.78   -251.76 
 2017-07-05 18:44:29  -223.78   100.00   34.04   -223.78   -251.76 
 2017-07-05 18:43:58  -223.78   100.00   34.04   -223.78   -251.76 
 2017-07-05 18:43:27  -223.78   100.00   34.04   -223.78   -251.76 
 2017-07-05 18:42:56  -223.78   100.00   34.04   -223.78   -251.76 
 2017-07-05 18:42:24  -223.78   100.00   34.04   -223.78   -251.76 
 2017-07-05 18:41:53  -223.78   100.00   34.04   -223.78   -251.76 
 2017-07-05 18:41:22  -223.78   100.00   34.04   -223.78   -251.76 
 2017-07-05 18:40:50  -223.78   100.00   34.04   -223.78   -251.76 
 2017-07-05 18:40:18  -223.78   100.00   34.04   -223.78   -251.76 
 2017-07-05 18:39:47  -223.78   100.00   34.04   -223.78   -251.76 
 2017-07-05 18:39:16  -223.78   100.00   34.04   -223.78   -251.76 
 2017-07-05 18:38:45  -223.78   100.00   34.04   -223.78   -251.76 
 2017-07-05 18:38:14  -223.78   100.00   34.04   -223.78   -251.76 
 2017-07-05 18:37:43  -223.78   100.00   34.04   -223.78   -251.76 
 2017-07-05 18:37:12  -223.78   100.00   34.04   -223.78   -251.76 
 2017-07-05 18:36:40  -223.78   100.00   34.04   -223.78   -251.76 
 2017-07-05 18:36:08  -223.78   100.00   34.04   -223.78   -251.76 
 2017-07-05 18:35:37  -223.78   100.00   34.04   -223.78   -251.76 
 2017-07-05 18:35:06  -223.78   100.00   34.04   -223.78   -251.76 
 2017-07-05 18:34:35  -223.78   100.00   34.04   -223.78   -251.76 
 2017-07-05 18:34:04  -223.78   100.00   34.04   -223.78   -251.76 
 2017-07-05 18:33:32  -223.78   100.00   34.04   -223.78   -251.76 
 2017-07-05 18:33:01  -223.78   100.00   34.04   -223.78   -251.76 
 2017-07-05 18:32:30  -223.78   100.00   34.04   -223.78   -251.76 
 2017-07-05 18:31:59  -223.78   100.00   34.04   -223.78   -251.76 
 2017-07-05 18:31:28  -223.78   100.00   34.04   -223.78   -251.76 
 2017-07-05 18:30:57  -223.78   100.00   34.04   -223.78   -251.76 
 2017-07-05 18:30:25  -223.78   100.00   34.04   -223.78   -251.76 
 2017-07-05 18:29:54  -223.78   100.00   34.04   -223.78   -251.76 
 2017-07-05 18:29:22  -223.78   100.00   34.04   -223.78   -251.76 
 2017-07-05 18:28:51  -223.78   100.00   34.04   -223.78   -251.76 
 2017-07-05 18:28:19  -223.78   100.00   34.04   -223.78   -251.76 
 2017-07-05 18:27:48  -223.78   100.00   34.04   -223.78   -251.76 
 2017-07-05 18:27:16  -223.78   100.00   34.04   -223.78   -251.76 
 2017-07-05 18:26:45  -223.78   100.00   34.04   -223.78   -251.76 
 2017-07-05 18:26:14  -223.78   100.00   34.04   -223.78   -251.76 
 2017-07-05 18:25:42  -223.78   100.00   34.04   -223.78   -251.76 
 2017-07-05 18:25:12  -223.78   100.00   34.04   -223.78   -251.76 
 2017-07-05 18:24:41  -223.78   100.00   34.04   -223.78   -251.76 
 2017-07-05 18:24:09  -223.78   100.00   34.04   -223.78   -251.76 
 2017-07-05 18:23:38  -223.78   100.00   34.04   -223.78   -251.76 
 2017-07-05 18:23:07  -223.78   100.00   34.04   -223.78   -251.76 
 2017-07-05 18:22:36  -223.78   100.00   34.04   -223.78   -251.76 
 2017-07-05 18:22:04  -223.78   100.00   34.04   -223.78   -251.76 
 2017-07-05 18:21:33  -223.78   100.00   34.04   -223.78   -251.76 
 2017-07-05 18:21:02  -223.78   100.00   34.04   -223.78   -251.76 
 2017-07-05 18:20:30  -223.78   100.00   34.04   -223.78   -251.76 
 2017-07-05 18:19:59  -223.78   100.00   34.04   -223.78   -251.76 
 2017-07-05 18:19:27  -223.78   100.00   34.04   -223.78   -251.76 
 2017-07-05 18:18:56  -223.78   100.00   34.04   -223.78   -251.76 
 2017-07-05 18:18:25  -223.78   100.00   34.04   -223.78   -251.76 
 2017-07-05 18:17:54  -223.78   100.00   34.04   -223.78   -251.76 
 2017-07-05 18:17:20  -223.78   100.00   34.04   -223.78   -251.76 
 2017-07-05 18:16:49  -223.78   100.00   34.04   -223.78   -251.76 
 2017-07-05 18:16:17  -223.78   100.00   34.04   -223.78   -251.76 
 2017-07-05 18:15:47  -223.78   100.00   34.04   -223.78   -251.76 
 2017-07-05 18:15:16  -223.78   100.00   34.04   -223.78   -251.76 
 2017-07-05 18:14:45  -223.78   100.00   34.04   -223.78   -251.76 
 2017-07-05 18:14:14  -223.78   100.00   34.04   -223.78   -251.76 
 2017-07-05 18:13:43  -223.78   100.00   34.04   -223.78   -251.76 
 2017-07-05 18:13:12  -223.78   100.00   34.04   -223.78   -251.76 
 2017-07-05 18:12:41  -223.78   100.00   34.04   -223.78   -251.76 
 2017-07-05 18:12:10  -223.78   100.00   34.04   -223.78   -251.76 
 2017-07-05 18:11:38  -223.78   100.00   34.04   -223.78   -251.76 
 2017-07-05 18:11:06  -223.78   100.00   34.04   -223.78   -251.76 
 2017-07-05 18:10:35  -223.78   100.00   34.04   -223.78   -251.76 
 2017-07-05 18:10:04  -223.78   100.00   34.04   -223.78   -251.76 
 2017-07-05 18:09:33  -223.78   100.00   34.04   -223.78   -251.76 
 2017-07-05 18:09:02  -223.78   100.00   34.04   -223.78   -251.76 
 2017-07-05 18:08:31  -223.78   100.00   34.04   -223.78   -251.76 
 2017-07-05 18:08:00  -223.78   100.00   34.04   -223.78   -251.76 
 2017-07-05 18:07:29  -223.78   100.00   34.04   -223.78   -251.76 
 2017-07-05 18:06:57  -223.78   100.00   34.04   -223.78   -251.76 
 2017-07-05 18:06:26  -223.78   100.00   34.04   -223.78   -251.76 
 2017-07-05 18:05:54  -223.78   100.00   34.04   -223.78   -251.76 
 2017-07-05 18:05:23  -223.78   100.00   34.04   -223.78   -251.76 
 2017-07-05 18:04:52  -223.78   100.00   34.04   -223.78   -251.76 
 2017-07-05 18:04:21  -223.78   100.00   34.04   -223.78   -251.76 
 2017-07-05 18:03:50  -223.78   100.00   34.04   -223.78   -251.76 
 2017-07-05 18:03:18  -223.78   100.00   34.04   -223.78   -251.76 
 2017-07-05 18:02:46  -223.78   100.00   34.04   -223.78   -251.76 
 2017-07-05 18:02:15  -223.78   100.00   34.04   -223.78   -251.76 
 2017-07-05 18:01:44  -223.78   100.00   34.04   -223.78   -251.76 
 2017-07-05 18:01:12  -223.78   100.00   34.04   -223.78   -251.76 
 2017-07-05 18:00:41  -223.78   100.00   34.04   -223.78   -251.76 
 2017-07-05 18:00:10  -223.78   100.00   34.04   -223.78   -251.76 
 2017-07-05 17:59:39  -223.78   100.00   34.04   -223.78   -251.76 
 2017-07-05 17:59:08  -223.78   100.00   34.04   -223.78   -251.76 
 2017-07-05 17:58:37  -223.78   100.00   34.04   -223.78   -251.76 
 2017-07-05 17:58:06  -223.78   100.00   34.04   -223.78   -251.76 
 2017-07-05 17:57:35  -223.78   100.00   34.04   -223.78   -251.76 
 2017-07-05 17:57:03  -223.78   100.00   34.04   -223.78   -251.76 
 2017-07-05 17:56:31  -223.78   100.00   34.04   -223.78   -251.76 
 2017-07-05 17:56:00  -223.78   100.00   34.04   -223.78   -251.76 
 2017-07-05 17:55:29  -223.78   100.00   34.04   -223.78   -251.76 
 2017-07-05 17:54:57  -223.78   100.00   34.04   -223.78   -251.76 
 2017-07-05 17:54:25  -223.78   100.00   34.04   -223.78   -251.76 
 2017-07-05 17:53:54  -223.78   100.00   34.04   -223.78   -251.76 
 2017-07-05 17:53:23  -223.78   100.00   34.04   -223.78   -251.76 
 2017-07-05 17:52:51  -223.78   100.00   34.04   -223.78   -251.76 
 2017-07-05 17:52:20  -223.78   100.00   34.04   -223.78   -251.76 
 2017-07-05 17:51:49  -223.78   100.00   34.04   -223.78   -251.76 
 2017-07-05 17:51:18  -223.78   100.00   34.04   -223.78   -251.76 
 2017-07-05 17:50:47  -223.78   100.00   34.04   -223.78   -251.76 
 2017-07-05 17:50:16  -223.78   100.00   34.04   -223.78   -251.76 
 2017-07-05 17:49:44  -223.78   100.00   34.04   -223.78   -251.76 
 2017-07-05 17:49:13  -223.78   100.00   34.04   -223.78   -251.76 
 2017-07-05 17:48:42  -223.78   100.00   34.04   -223.78   -251.76 
 2017-07-05 17:48:11  -223.78   100.00   34.04   -223.78   -251.76 
 2017-07-05 17:47:38  -223.78   100.00   34.04   -223.78   -251.76 
 2017-07-05 17:47:01  -223.78   100.00   34.04   -223.78   -251.76 
 2017-07-05 17:46:30  -223.78   100.00   34.04   -223.78   -251.76 
 2017-07-05 17:45:58  -223.78   100.00   34.04   -223.78   -251.76 
 2017-07-05 17:45:27  -223.78   100.00   34.04   -223.78   -251.76 
 2017-07-05 17:44:55  -223.78   100.00   34.04   -223.78   -251.76 
 2017-07-05 17:44:24  -223.78   100.00   34.04   -223.78   -251.76 
 2017-07-05 17:43:52  -223.78   100.00   34.04   -223.78   -251.76 
 2017-07-05 17:43:21  -223.78   100.00   34.04   -223.78   -251.76 
 2017-07-05 17:42:49  -223.78   100.00   34.04   -223.78   -251.76 
 2017-07-05 17:42:18  -223.78   100.00   34.04   -223.78   -251.76 
 2017-07-05 17:41:47  -223.78   100.00   34.04   -223.78   -251.76 
 2017-07-05 17:41:16  -223.78   100.00   34.04   -223.78   -251.76 
 2017-07-05 17:40:44  -223.78   100.00   34.04   -223.78   -251.76 
 2017-07-05 17:40:13  -223.78   100.00   34.04   -223.78   -251.76 
 2017-07-05 17:39:42  -223.78   100.00   34.04   -223.78   -251.76 
 2017-07-05 17:39:11  -223.78   100.00   34.04   -223.78   -251.76 
 2017-07-05 17:38:39  -223.78   100.00   34.04   -223.78   -251.76 
 2017-07-05 17:38:08  -223.78   100.00   34.04   -223.78   -251.76 
 2017-07-05 17:37:37  -223.78   100.00   34.04   -223.78   -251.76 
 2017-07-05 17:37:06  -223.78   100.00   34.04   -223.78   -251.76 
 2017-07-05 17:36:34  -223.78   100.00   34.04   -223.78   -251.76 
 2017-07-05 17:36:04  -223.78   100.00   34.04   -223.78   -251.76 
 2017-07-05 17:35:32  -223.78   100.00   34.04   -223.78   -251.76 
 2017-07-05 17:35:01  -223.78   100.00   34.04   -223.78   -251.76 
 2017-07-05 17:34:28  -223.78   100.00   34.04   -223.78   -251.76 
 2017-07-05 17:33:57  -223.78   100.00   34.04   -223.78   -251.76 
 2017-07-05 17:33:23  -223.78   100.00   34.04   -223.78   -251.76 
 2017-07-05 17:32:52  -223.78   100.00   34.04   -223.78   -251.76 
 2017-07-05 17:32:20  -223.78   100.00   34.04   -223.78   -251.76 
 2017-07-05 17:31:50  -223.78   100.00   34.04   -223.78   -251.76 
 2017-07-05 17:31:18  -223.78   100.00   34.04   -223.78   -251.76 
 2017-07-05 17:30:48  -223.78   100.00   34.04   -223.78   -251.76 
 2017-07-05 17:30:16  -223.78   100.00   34.04   -223.78   -251.76 
 2017-07-05 17:29:45  -223.78   100.00   34.04   -223.78   -251.76 
 2017-07-05 17:29:14  -223.78   100.00   34.04   -223.78   -251.76 
 2017-07-05 17:28:43  -223.78   100.00   34.04   -223.78   -251.76 
 2017-07-05 17:28:11  -223.78   100.00   34.04   -223.78   -251.76 
 2017-07-05 17:27:39  -223.78   100.00   34.04   -223.78   -251.76 
 2017-07-05 17:27:08  -223.78   100.00   34.04   -223.78   -251.76 
 2017-07-05 17:26:36  -223.78   100.00   34.04   -223.78   -251.76 
 2017-07-05 17:26:04  -223.78   100.00   34.04   -223.78   -251.76 
 2017-07-05 17:25:33  -223.78   100.00   34.04   -223.78   -251.76 
 2017-07-05 17:25:01  -223.78   100.00   34.04   -223.78   -251.76 
 2017-07-05 17:24:30  -223.78   100.00   34.04   -223.78   -251.76 
 2017-07-05 17:23:58  -223.78   100.00   34.04   -223.78   -251.76 
 2017-07-05 17:23:27  -223.78   100.00   34.04   -223.78   -251.76 
 2017-07-05 17:22:55  -223.78   100.00   34.04   -223.78   -251.76 
 2017-07-05 17:22:24  -223.78   100.00   34.04   -223.78   -251.76 
 2017-07-05 17:21:52  -223.78   100.00   34.04   -223.78   -251.76 
 2017-07-05 17:21:21  -223.78   100.00   34.04   -223.78   -251.76 
 2017-07-05 17:20:49  -223.78   100.00   34.04   -223.78   -251.76 
 2017-07-05 17:20:18  -223.78   100.00   34.04   -223.78   -251.76 
 2017-07-05 17:19:47  -223.78   100.00   34.04   -223.78   -251.76 
 2017-07-05 17:19:16  -223.78   100.00   34.04   -223.78   -251.76 
 2017-07-05 17:18:44  -223.78   100.00   34.04   -223.78   -251.76 
 2017-07-05 17:18:13  -223.78   100.00   34.04   -223.78   -251.76 
 2017-07-05 17:17:41  -223.78   100.00   34.04   -223.78   -251.76 
 2017-07-05 17:17:10  -223.78   100.00   34.04   -223.78   -251.76 
 2017-07-05 17:16:38  -223.78   100.00   34.04   -223.78   -251.76 
 2017-07-05 17:16:07  -223.78   100.00   34.04   -223.78   -251.76 
 2017-07-05 17:15:35  -223.78   100.00   34.04   -223.78   -251.76 
 2017-07-05 17:15:04  -223.78   100.00   34.04   -223.78   -251.76 
 2017-07-05 17:14:32  -223.78   100.00   34.04   -223.78   -251.76 
 2017-07-05 17:14:01  -223.78   100.00   34.04   -223.78   -251.76 
 2017-07-05 17:13:28  -223.78   100.00   34.04   -223.78   -251.76 
 2017-07-05 17:12:57  -223.78   100.00   34.04   -223.78   -251.76 
 2017-07-05 17:12:24  -223.78   100.00   34.04   -223.78   -251.76 
 2017-07-05 17:11:51  -223.78   100.00   34.04   -223.78   -251.76 
 2017-07-05 17:11:19  -223.78   100.00   34.04   -223.78   -251.76 
 2017-07-05 17:10:48  -223.78   100.00   34.04   -223.78   -251.76 
 2017-07-05 17:10:16  -223.78   100.00   34.04   -223.78   -251.76 
 2017-07-05 17:09:45  -223.78   100.00   34.04   -223.78   -251.76 
 2017-07-05 17:09:13  -223.78   100.00   34.04   -223.78   -251.76 
 2017-07-05 17:08:42  -223.78   100.00   34.04   -223.78   -251.76 
 2017-07-05 17:08:11  -223.78   100.00   34.04   -223.78   -251.76 
 2017-07-05 17:07:40  -223.78   100.00   34.04   -223.78   -251.76 
 2017-07-05 17:07:08  -223.78   100.00   34.04   -223.78   -251.76 
 2017-07-05 17:06:36  -223.78   100.00   34.04   -223.78   -251.76 
 2017-07-05 17:06:05  -223.78   100.00   34.04   -223.78   -251.76 
 2017-07-05 17:05:34  -223.78   100.00   34.04   -223.78   -251.76 
 2017-07-05 17:05:02  -223.78   100.00   34.04   -223.78   -251.76 
 2017-07-05 17:04:30  -223.78   100.00   34.04   -223.78   -251.76 
 2017-07-05 17:03:59  -223.78   100.00   34.04   -223.78   -251.76 
 2017-07-05 17:03:28  -223.78   100.00   34.04   -223.78   -251.76 
 2017-07-05 17:02:57  -223.78   100.00   34.04   -223.78   -251.76 
 2017-07-05 17:02:26  -223.78   100.00   34.04   -223.78   -251.76 
 2017-07-05 17:01:55  -223.78   100.00   34.04   -223.78   -251.76 
 2017-07-05 17:01:23  -223.78   100.00   34.04   -223.78   -251.76 
 2017-07-05 17:00:52  -223.78   100.00   34.04   -223.78   -251.76 
 2017-07-05 17:00:20  -223.78   100.00   34.04   -223.78   -251.76 
 2017-07-05 16:59:49  -223.78   100.00   34.04   -223.78   -251.76 
 2017-07-05 16:59:18  -223.78   100.00   34.04   -223.78   -251.76 
 2017-07-05 16:58:46  -223.78   100.00   34.04   -223.78   -251.76 
 2017-07-05 16:58:14  -223.78   100.00   34.04   -223.78   -251.76 
 2017-07-05 16:57:43  -223.78   100.00   34.04   -223.78   -251.76 
 2017-07-05 16:57:12  -223.78   100.00   34.04   -223.78   -251.76 
 2017-07-05 16:56:41  -223.78   100.00   34.04   -223.78   -251.76 
 2017-07-05 16:56:10  -223.78   100.00   34.04   -223.78   -251.76 
 2017-07-05 16:55:38  -223.78   100.00   34.04   -223.78   -251.76 
 2017-07-05 16:55:07  -223.78   100.00   34.04   -223.78   -251.76 
 2017-07-05 16:54:36  -223.78   100.00   34.04   -223.78   -251.76 
 2017-07-05 16:54:05  -223.78   100.00   34.04   -223.78   -251.76 
 2017-07-05 16:53:33  -223.78   100.00   34.04   -223.78   -251.76 
 2017-07-05 16:53:02  -223.78   100.00   34.04   -223.78   -251.76 
 2017-07-05 16:52:30  -223.78   100.00   34.04   -223.78   -251.76 
 2017-07-05 16:51:58  -223.78   100.00   34.04   -223.78   -251.76 
 2017-07-05 16:51:27  -223.78   100.00   34.04   -223.78   -251.76 
 2017-07-05 16:50:55  -223.78   100.00   34.04   -223.78   -251.76 
 2017-07-05 16:50:22  -223.78   100.00   34.04   -223.78   -251.76 
 2017-07-05 16:49:51  -223.78   100.00   34.04   -223.78   -251.76 
 2017-07-05 16:49:20  -223.78   100.00   34.04   -223.78   -251.76 
 2017-07-05 16:48:49  -223.78   100.00   34.04   -223.78   -251.76 
 2017-07-05 16:48:16  -223.78   100.00   34.04   -223.78   -251.76 
 2017-07-05 16:47:45  -223.78   100.00   34.04   -223.78   -251.76 
 2017-07-05 16:47:14  -223.78   100.00   34.04   -223.78   -251.76 
 2017-07-05 16:46:42  -223.78   100.00   34.04   -223.78   -251.76 
 2017-07-05 16:46:11  -223.78   100.00   34.04   -223.78   -251.76 
 2017-07-05 16:45:40  -223.78   100.00   34.04   -223.78   -251.76 
 2017-07-05 16:45:09  -223.78   100.00   34.04   -223.78   -251.76 
 2017-07-05 16:44:38  -223.78   100.00   34.04   -223.78   -251.76 
 2017-07-05 16:44:07  -223.78   100.00   34.04   -223.78   -251.76 
 2017-07-05 16:43:35  -223.78   100.00   34.04   -223.78   -251.76 
 2017-07-05 16:43:03  -223.78   100.00   34.04   -223.78   -251.76 
 2017-07-05 16:42:30  -223.78   100.00   34.04   -223.78   -251.76 
 2017-07-05 16:41:59  -223.78   100.00   34.04   -223.78   -251.76 
 2017-07-05 16:41:28  -223.78   100.00   34.04   -223.78   -251.76 
 2017-07-05 16:40:56  -223.78   100.00   34.04   -223.78   -251.76 
 2017-07-05 16:40:25  -223.78   100.00   34.04   -223.78   -251.76 
 2017-07-05 16:39:53  -223.78   100.00   34.04   -223.78   -251.76 
 2017-07-05 16:39:22  -223.78   100.00   34.04   -223.78   -251.76 
 2017-07-05 16:38:51  -223.78   100.00   34.04   -223.78   -251.76 
 2017-07-05 16:38:20  -223.78   100.00   34.04   -223.78   -251.76 
 2017-07-05 16:37:49  -223.78   100.00   34.04   -223.78   -251.76 
 2017-07-05 16:37:18  -223.78   100.00   34.04   -223.78   -251.76 
 2017-07-05 16:36:47  -223.78   100.00   34.04   -223.78   -251.76 
 2017-07-05 16:36:16  -223.78   100.00   34.04   -223.78   -251.76 
 2017-07-05 16:35:44  -223.78   100.00   34.04   -223.78   -251.76 
 2017-07-05 16:35:13  -223.78   100.00   34.04   -223.78   -251.76 
 2017-07-05 16:34:40  -223.78   100.00   34.04   -223.78   -251.76 
 2017-07-05 16:34:09  -223.78   100.00   34.04   -223.78   -251.76 
 2017-07-05 16:33:38  -223.78   100.00   34.04   -223.78   -251.76 
 2017-07-05 16:33:07  -223.78   100.00   34.04   -223.78   -251.76 
 2017-07-05 16:32:34  -223.78   100.00   34.04   -223.78   -251.76 
 2017-07-05 16:32:03  -223.78   100.00   34.04   -223.78   -251.76 
 2017-07-05 16:31:32  -223.78   100.00   34.04   -223.78   -251.76 
 2017-07-05 16:31:01  -223.78   100.00   34.04   -223.78   -251.76 
 2017-07-05 16:30:30  -223.78   100.00   34.04   -223.78   -251.76 
 2017-07-05 16:29:59  -223.78   100.00   34.04   -223.78   -251.76 
 2017-07-05 16:29:27  -223.78   100.00   34.04   -223.78   -251.76 
 2017-07-05 16:28:55  -223.78   100.00   34.04   -223.78   -251.76 
 2017-07-05 16:28:24  -223.78   100.00   34.04   -223.78   -251.76 
 2017-07-05 16:27:53  -223.78   100.00   34.04   -223.78   -251.76 
 2017-07-05 16:27:22  -223.78   100.00   34.04   -223.78   -251.76 
 2017-07-05 16:26:51  -223.78   100.00   34.04   -223.78   -251.76 
 2017-07-05 16:26:20  -223.78   100.00   34.04   -223.78   -251.76 
 2017-07-05 16:25:49  -223.78   100.00   34.04   -223.78   -251.76 
 2017-07-05 16:25:17  -223.78   100.00   34.04   -223.78   -251.76 
 2017-07-05 16:24:46  -223.78   100.00   34.04   -223.78   -251.76 
 2017-07-05 16:24:14  -223.78   100.00   34.04   -223.78   -251.76 
 2017-07-05 16:23:43  -223.78   100.00   34.04   -223.78   -251.76 
 2017-07-05 16:23:12  -223.78   100.00   34.04   -223.78   -251.76 
 2017-07-05 16:22:39  -223.78   100.00   34.04   -223.78   -251.76 
 2017-07-05 16:22:07  -223.78   100.00   34.04   -223.78   -251.76 
 2017-07-05 16:21:36  -223.78   100.00   34.04   -223.78   -251.76 
 2017-07-05 16:21:05  -223.78   100.00   34.04   -223.78   -251.76 
 2017-07-05 16:20:34  -223.78   100.00   34.04   -223.78   -251.76 
 2017-07-05 16:20:03  -223.78   100.00   34.04   -223.78   -251.76 
 2017-07-05 16:19:31  -223.78   100.00   34.04   -223.78   -251.76 
 2017-07-05 16:19:00  -223.78   100.00   34.04   -223.78   -251.76 
 2017-07-05 16:18:27  -223.78   100.00   34.04   -223.78   -251.76 
 2017-07-05 16:17:56  -223.78   100.00   34.04   -223.78   -251.76 
 2017-07-05 16:17:24  -223.78   100.00   34.04   -223.78   -251.76 
 2017-07-05 16:16:53  -223.78   100.00   34.04   -223.78   -251.76 
 2017-07-05 16:16:22  -223.78   100.00   34.04   -223.78   -251.76 
 2017-07-05 16:15:51  -223.78   100.00   34.04   -223.78   -251.76 
 2017-07-05 16:15:19  -223.78   100.00   34.04   -223.78   -251.76 
 2017-07-05 16:14:48  -223.78   100.00   34.04   -223.78   -251.76 
 2017-07-05 16:14:17  -223.78   100.00   34.04   -223.78   -251.76 
 2017-07-05 16:13:46  -223.78   100.00   34.04   -223.78   -251.76 
 2017-07-05 16:13:15  -223.78   100.00   34.04   -223.78   -251.76 
 2017-07-05 16:12:43  -223.78   100.00   34.04   -223.78   -251.76 
 2017-07-05 16:12:11  -223.78   100.00   34.04   -223.78   -251.76 
 2017-07-05 16:11:40  -223.78   100.00   34.04   -223.78   -251.76 
 2017-07-05 16:11:09  -223.78   100.00   34.04   -223.78   -251.76 
 2017-07-05 16:10:37  -223.78   100.00   34.04   -223.78   -251.76 
 2017-07-05 16:10:05  -223.78   100.00   34.04   -223.78   -251.76 
 2017-07-05 16:09:33  -223.78   100.00   34.04   -223.78   -251.76 
 2017-07-05 16:09:02  -223.78   100.00   34.04   -223.78   -251.76 
 2017-07-05 16:08:31  -223.78   100.00   34.04   -223.78   -251.76 
 2017-07-05 16:07:59  -223.78   100.00   34.04   -223.78   -251.76 
 2017-07-05 16:07:28  -223.78   100.00   34.04   -223.78   -251.76 
 2017-07-05 16:06:57  -223.78   100.00   34.04   -223.78   -251.76 
 2017-07-05 16:06:25  -223.78   100.00   34.04   -223.78   -251.76 
 2017-07-05 16:05:54  -223.78   100.00   34.04   -223.78   -251.76 
 2017-07-05 16:05:23  -223.78   100.00   34.04   -223.78   -251.76 
 2017-07-05 16:04:51  -223.78   100.00   34.04   -223.78   -251.76 
 2017-07-05 16:04:20  -223.78   100.00   34.04   -223.78   -251.76 
 2017-07-05 16:03:48  -223.78   100.00   34.04   -223.78   -251.76 
 2017-07-05 16:03:17  -223.78   100.00   34.04   -223.78   -251.76 
 2017-07-05 16:02:45  -223.78   100.00   34.04   -223.78   -251.76 
 2017-07-05 16:02:14  -223.78   100.00   34.04   -223.78   -251.76 
 2017-07-05 16:01:43  -223.78   100.00   34.04   -223.78   -251.76 
 2017-07-05 16:01:12  -223.78   100.00   34.04   -223.78   -251.76 
 2017-07-05 16:00:41  -223.78   100.00   34.04   -223.78   -251.76 
 2017-07-05 16:00:10  -223.78   100.00   34.04   -223.78   -251.76 
 2017-07-05 15:59:39  -223.78   100.00   34.04   -223.78   -251.76 
 2017-07-05 15:59:07  -223.78   100.00   34.04   -223.78   -251.76 
 2017-07-05 15:58:36  -223.78   100.00   34.04   -223.78   -251.76 
 2017-07-05 15:58:04  -223.78   100.00   34.04   -223.78   -251.76 
 2017-07-05 15:57:33  -223.78   100.00   34.04   -223.78   -251.76 
 2017-07-05 15:57:02  -223.78   100.00   34.04   -223.78   -251.76 
 2017-07-05 15:56:31  -223.78   100.00   34.04   -223.78   -251.76 
 2017-07-05 15:56:00  -223.78   100.00   34.04   -223.78   -251.76 
 2017-07-05 15:55:29  -223.78   100.00   34.04   -223.78   -251.76 
 2017-07-05 15:54:57  -223.78   100.00   34.04   -223.78   -251.76 
 2017-07-05 15:54:25  -223.78   100.00   34.04   -223.78   -251.76 
 2017-07-05 15:53:52  -223.78   100.00   34.04   -223.78   -251.76 
 2017-07-05 15:53:20  -223.78   100.00   34.04   -223.78   -251.76 
 2017-07-05 15:52:49  -223.78   100.00   34.04   -223.78   -251.76 
 2017-07-05 15:52:17  -223.78   100.00   34.04   -223.78   -251.76 
 2017-07-05 15:51:44  -223.78   100.00   34.04   -223.78   -251.76 
 2017-07-05 15:51:12  -223.78   100.00   34.04   -223.78   -251.76 
 2017-07-05 15:50:40  -223.78   100.00   34.04   -223.78   -251.76 
 2017-07-05 15:50:08  -223.78   100.00   34.04   -223.78   -251.76 
 2017-07-05 15:49:37  -223.78   100.00   34.04   -223.78   -251.76 
 2017-07-05 15:49:02  -223.78   100.00   34.04   -223.78   -251.76 
 2017-07-05 15:48:29  -223.78   100.00   34.04   -223.78   -251.76 
 2017-07-05 15:47:56  -223.78   100.00   34.04   -223.78   -251.76 
 2017-07-05 15:47:29  -223.78   100.00   34.04   -223.78   -251.76 
 2017-07-05 15:46:51  -223.78   100.00   34.04   -223.78   -251.76 
 2017-07-05 15:46:15  -223.78   100.00   34.04   -223.78   -251.76 
 2017-07-05 15:45:42  -223.78   100.00   34.04   -223.78   -251.76 
 2017-07-05 15:45:11  -223.78   100.00   34.04   -223.78   -251.76 
 2017-07-05 15:44:40  -223.78   100.00   34.04   -223.78   -251.76 
 2017-07-05 15:44:09  -223.78   100.00   34.04   -223.78   -251.76 
 2017-07-05 15:43:38  -223.78   100.00   34.04   -223.78   -251.76 
 2017-07-05 15:43:06  -223.78   100.00   34.04   -223.78   -251.76 
 2017-07-05 15:42:35  -223.78   100.00   34.04   -223.78   -251.76 
 2017-07-05 15:42:04  -223.78   100.00   34.04   -223.78   -251.76 
 2017-07-05 15:41:33  -223.78   100.00   34.04   -223.78   -251.76 
 2017-07-05 15:41:01  -223.78   100.00   34.04   -223.78   -251.76 
 2017-07-05 15:40:30  -223.78   100.00   34.04   -223.78   -251.76 
 2017-07-05 15:39:58  -223.78   100.00   34.04   -223.78   -251.76 
 2017-07-05 15:39:27  -223.78   100.00   34.04   -223.78   -251.76 
 2017-07-05 15:38:56  -223.78   100.00   34.04   -223.78   -251.76 
 2017-07-05 15:38:25  -223.78   100.00   34.04   -223.78   -251.76 
 2017-07-05 15:37:54  -223.78   100.00   34.04   -223.78   -251.76 
 2017-07-05 15:37:23  -223.78   100.00   34.04   -223.78   -251.76 
 2017-07-05 15:36:52  -223.78   100.00   34.04   -223.78   -251.76 
 2017-07-05 15:36:21  -223.78   100.00   34.04   -223.78   -251.76 
 2017-07-05 15:35:50  -223.78   100.00   34.04   -223.78   -251.76 
 2017-07-05 15:35:19  -223.78   100.00   34.04   -223.78   -251.76 
 2017-07-05 15:34:47  -223.78   100.00   34.04   -223.78   -251.76 
 2017-07-05 15:34:16  -223.78   100.00   34.04   -223.78   -251.76 
 2017-07-05 15:33:45  -223.78   100.00   34.04   -223.78   -251.76 
 2017-07-05 15:33:14  -223.78   100.00   34.04   -223.78   -251.76 
 2017-07-05 15:32:43  -223.78   100.00   34.04   -223.78   -251.76 
 2017-07-05 15:32:12  -223.78   100.00   34.04   -223.78   -251.76 
 2017-07-05 15:31:41  -223.78   100.00   34.04   -223.78   -251.76 
 2017-07-05 15:31:09  -223.78   100.00   34.04   -223.78   -251.76 
 2017-07-05 15:30:38  -223.78   100.00   34.04   -223.78   -251.76 
 2017-07-05 15:30:06  -223.78   100.00   34.04   -223.78   -251.76 
 2017-07-05 15:29:35  -223.78   100.00   34.04   -223.78   -251.76 
 2017-07-05 15:29:04  -223.78   100.00   34.04   -223.78   -251.76 
 2017-07-05 15:28:33  -223.78   100.00   34.04   -223.78   -251.76 
 2017-07-05 15:28:02  -223.78   100.00   34.04   -223.78   -251.76 
 2017-07-05 15:27:29  -223.78   100.00   34.04   -223.78   -251.76 
 2017-07-05 15:26:58  -223.78   100.00   34.04   -223.78   -251.76 
 2017-07-05 15:26:27  -223.78   100.00   34.04   -223.78   -251.76 
 2017-07-05 15:25:55  -223.78   100.00   34.04   -223.78   -251.76 
 2017-07-05 15:25:24  -223.78   100.00   34.04   -223.78   -251.76 
 2017-07-05 15:24:53  -223.78   100.00   34.04   -223.78   -251.76 
 2017-07-05 15:24:20  -223.78   100.00   34.04   -223.78   -251.76 
 2017-07-05 15:23:47  -223.78   100.00   34.04   -223.78   -251.76 
 2017-07-05 15:23:15  -223.78   100.00   34.04   -223.78   -251.76 
 2017-07-05 15:22:43  -223.78   100.00   34.04   -223.78   -251.76 
 2017-07-05 15:22:11  -223.78   100.00   34.04   -223.78   -251.76 
 2017-07-05 15:21:40  -223.78   100.00   34.04   -223.78   -251.76 
 2017-07-05 15:21:08  -223.78   100.00   34.04   -223.78   -251.76 
 2017-07-05 15:20:36  -223.78   100.00   34.04   -223.78   -251.76 
 2017-07-05 15:20:04  -223.78   100.00   34.04   -223.78   -251.76 
 2017-07-05 15:19:33  -223.78   100.00   34.04   -223.78   -251.76 
 2017-07-05 15:19:01  -223.78   100.00   34.04   -223.78   -251.76 
 2017-07-05 15:18:29  -223.78   100.00   34.04   -223.78   -251.76 
 2017-07-05 15:17:57  -223.78   100.00   34.04   -223.78   -251.76 
 2017-07-05 15:17:26  -223.78   100.00   34.04   -223.78   -251.76 
 2017-07-05 15:16:54  -223.78   100.00   34.04   -223.78   -251.76 
 2017-07-05 15:16:22  -223.78   100.00   34.04   -223.78   -251.76 
 2017-07-05 15:15:50  -223.78   100.00   34.04   -223.78   -251.76 
 2017-07-05 15:15:18  -223.78   100.00   34.04   -223.78   -251.76 
 2017-07-05 15:14:46  -223.78   100.00   34.04   -223.78   -251.76 
 2017-07-05 15:14:14  -223.78   100.00   34.04   -223.78   -251.76 
 2017-07-05 15:13:43  -223.78   100.00   34.04   -223.78   -251.76 
 2017-07-05 15:13:11  -223.78   100.00   34.04   -223.78   -251.76 
 2017-07-05 15:12:39  -223.78   100.00   34.04   -223.78   -251.76 
 2017-07-05 15:12:07  -223.78   100.00   34.04   -223.78   -251.76 
 2017-07-05 15:11:36  -223.78   100.00   34.04   -223.78   -251.76 
 2017-07-05 15:11:04  -223.78   100.00   34.04   -223.78   -251.76 
 2017-07-05 15:10:32  -223.78   100.00   34.04   -223.78   -251.76 
 2017-07-05 15:10:01  -223.78   100.00   34.04   -223.78   -251.76 
 2017-07-05 15:09:29  -223.78   100.00   34.04   -223.78   -251.76 
 2017-07-05 15:08:57  -223.78   100.00   34.04   -223.78   -251.76 
 2017-07-05 15:08:25  -223.78   100.00   34.04   -223.78   -251.76 
 2017-07-05 15:07:54  -223.78   100.00   34.04   -223.78   -251.76 
 2017-07-05 15:07:22  -223.78   100.00   34.04   -223.78   -251.76 
 2017-07-05 15:06:50  -223.78   100.00   34.04   -223.78   -251.76 
 2017-07-05 15:06:18  -223.78   100.00   34.04   -223.78   -251.76 
 2017-07-05 15:05:47  -223.78   100.00   34.04   -223.78   -251.76 
 2017-07-05 15:05:15  -223.78   100.00   34.04   -223.78   -251.76 
 2017-07-05 15:04:44  -223.78   100.00   34.04   -223.78   -251.76 
 2017-07-05 15:04:12  -223.78   100.00   34.04   -223.78   -251.76 
 2017-07-05 15:03:40  -223.78   100.00   34.04   -223.78   -251.76 
 2017-07-05 15:03:09  -223.78   100.00   34.04   -223.78   -251.76 
 2017-07-05 15:02:37  -223.78   100.00   34.04   -223.78   -251.76 
 2017-07-05 15:02:05  -223.78   100.00   34.04   -223.78   -251.76 
 2017-07-05 15:01:33  -223.78   100.00   34.04   -223.78   -251.76 
 2017-07-05 15:01:02  -223.78   100.00   34.04   -223.78   -251.76 
 2017-07-05 15:00:30  -223.78   100.00   34.04   -223.78   -251.76 
 2017-07-05 14:59:58  -223.78   100.00   34.04   -223.78   -251.76 
 2017-07-05 14:59:26  -223.78   100.00   34.04   -223.78   -251.76 
 2017-07-05 14:58:55  -223.78   100.00   34.04   -223.78   -251.76 
 2017-07-05 14:58:23  -223.78   100.00   34.04   -223.78   -251.76 
 2017-07-05 14:57:51  -223.78   100.00   34.04   -223.78   -251.76 
 2017-07-05 14:57:20  -223.78   100.00   34.04   -223.78   -251.76 
 2017-07-05 14:56:48  -223.78   100.00   34.04   -223.78   -251.76 
 2017-07-05 14:56:17  -223.78   100.00   34.04   -223.78   -251.76 
 2017-07-05 14:55:46  -223.78   100.00   34.04   -223.78   -251.76 
 2017-07-05 14:55:15  -223.78   100.00   34.04   -223.78   -251.76 
 2017-07-05 14:54:44  -223.78   100.00   34.04   -223.78   -251.76 
 2017-07-05 14:54:10  -223.78   100.00   34.04   -223.78   -251.76 
 2017-07-05 14:53:38  -223.78   100.00   34.04   -223.78   -251.76 
 2017-07-05 14:53:07  -223.78   100.00   34.04   -223.78   -251.76 
 2017-07-05 14:52:36  -223.78   100.00   34.04   -223.78   -251.76 
 2017-07-05 14:52:05  -223.78   100.00   34.04   -223.78   -251.76 
 2017-07-05 14:51:34  -223.78   100.00   34.04   -223.78   -251.76 
 2017-07-05 14:51:03  -223.78   100.00   34.04   -223.78   -251.76 
 2017-07-05 14:50:31  -223.78   100.00   34.04   -223.78   -251.76 
 2017-07-05 14:49:59  -223.78   100.00   34.04   -223.78   -251.76 
 2017-07-05 14:49:27  -223.78   100.00   34.04   -223.78   -251.76 
 2017-07-05 14:48:55  -223.78   100.00   34.04   -223.78   -251.76 
 2017-07-05 14:48:24  -223.78   100.00   34.04   -223.78   -251.76 
 2017-07-05 14:47:52  -223.78   100.00   34.04   -223.78   -251.76 
 2017-07-05 14:47:20  -223.78   100.00   34.04   -223.78   -251.76 
 2017-07-05 14:46:48  -223.78   100.00   34.04   -223.78   -251.76 
 2017-07-05 14:46:17  -223.78   100.00   34.04   -223.78   -251.76 
 2017-07-05 14:45:45  -223.78   100.00   34.04   -223.78   -251.76 
 2017-07-05 14:45:13  -223.78   100.00   34.04   -223.78   -251.76 
 2017-07-05 14:44:42  -223.78   100.00   34.04   -223.78   -251.76 
 2017-07-05 14:44:11  -223.78   100.00   34.04   -223.78   -251.76 
 2017-07-05 14:43:39  -223.78   100.00   34.04   -223.78   -251.76 
 2017-07-05 14:43:08  -223.78   100.00   34.04   -223.78   -251.76 
 2017-07-05 14:42:36  -223.78   100.00   34.04   -223.78   -251.76 
 2017-07-05 14:42:05  -223.78   100.00   34.04   -223.78   -251.76 
 2017-07-05 14:41:34  -223.78   100.00   34.04   -223.78   -251.76 
 2017-07-05 14:41:02  -223.78   100.00   34.04   -223.78   -251.76 
 2017-07-05 14:40:30  -223.78   100.00   34.04   -223.78   -251.76 
 2017-07-05 14:39:58  -223.78   100.00   34.04   -223.78   -251.76 
 2017-07-05 14:39:27  -223.78   100.00   34.04   -223.78   -251.76 
 2017-07-05 14:38:56  -223.78   100.00   34.04   -223.78   -251.76 
 2017-07-05 14:38:25  -223.78   100.00   34.04   -223.78   -251.76 
 2017-07-05 14:37:54  -223.78   100.00   34.04   -223.78   -251.76 
 2017-07-05 14:37:23  -223.78   100.00   34.04   -223.78   -251.76 
 2017-07-05 14:36:51  -223.78   100.00   34.04   -223.78   -251.76 
 2017-07-05 14:36:18  -223.78   100.00   34.04   -223.78   -251.76 
 2017-07-05 14:35:47  -223.78   100.00   34.04   -223.78   -251.76 
 2017-07-05 14:35:16  -223.78   100.00   34.04   -223.78   -251.76 
 2017-07-05 14:34:45  -223.78   100.00   34.04   -223.78   -251.76 
 2017-07-05 14:34:14  -223.78   100.00   34.04   -223.78   -251.76 
 2017-07-05 14:33:42  -223.78   100.00   34.04   -223.78   -251.76 
 2017-07-05 14:33:11  -223.78   100.00   34.04   -223.78   -251.76 
 2017-07-05 14:32:40  -223.78   100.00   34.04   -223.78   -251.76 
 2017-07-05 14:32:08  -223.78   100.00   34.04   -223.78   -251.76 
 2017-07-05 14:31:36  -223.78   100.00   34.04   -223.78   -251.76 
 2017-07-05 14:31:05  -223.78   100.00   34.04   -223.78   -251.76 
 2017-07-05 14:30:34  -223.78   100.00   34.04   -223.78   -251.76 
 2017-07-05 14:30:03  -223.78   100.00   34.04   -223.78   -251.76 
 2017-07-05 14:29:32  -223.78   100.00   34.04   -223.78   -251.76 
 2017-07-05 14:28:59  -223.78   100.00   34.04   -223.78   -251.76 
 2017-07-05 14:28:28  -223.78   100.00   34.04   -223.78   -251.76 
 2017-07-05 14:27:57  -223.78   100.00   34.04   -223.78   -251.76 
 2017-07-05 14:27:26  -223.78   100.00   34.04   -223.78   -251.76 
 2017-07-05 14:26:55  -223.78   100.00   34.04   -223.78   -251.76 
 2017-07-05 14:26:23  -223.78   100.00   34.04   -223.78   -251.76 
 2017-07-05 14:25:51  -223.78   100.00   34.04   -223.78   -251.76 
 2017-07-05 14:25:20  -223.78   100.00   34.04   -223.78   -251.76 
 2017-07-05 14:24:48  -223.78   100.00   34.04   -223.78   -251.76 
 2017-07-05 14:24:17  -223.78   100.00   34.04   -223.78   -251.76 
 2017-07-05 14:23:46  -223.78   100.00   34.04   -223.78   -251.76 
 2017-07-05 14:23:15  -223.78   100.00   34.04   -223.78   -251.76 
 2017-07-05 14:22:44  -223.78   100.00   34.04   -223.78   -251.76 
 2017-07-05 14:22:13  -223.78   100.00   34.04   -223.78   -251.76 
 2017-07-05 14:21:42  -223.78   100.00   34.04   -223.78   -251.76 
 2017-07-05 14:21:11  -223.78   100.00   34.04   -223.78   -251.76 
 2017-07-05 14:20:40  -223.78   100.00   34.04   -223.78   -251.76 
 2017-07-05 14:20:09  -223.78   100.00   34.04   -223.78   -251.76 
 2017-07-05 14:19:38  -223.78   100.00   34.04   -223.78   -251.76 
 2017-07-05 14:19:06  -223.78   100.00   34.04   -223.78   -251.76 
 2017-07-05 14:18:34  -223.78   100.00   34.04   -223.78   -251.76 
 2017-07-05 14:18:03  -223.78   100.00   34.04   -223.78   -251.76 
 2017-07-05 14:17:31  -223.78   100.00   34.04   -223.78   -251.76 
 2017-07-05 14:16:58  -223.78   100.00   34.04   -223.78   -251.76 
 2017-07-05 14:16:27  -223.78   100.00   34.04   -223.78   -251.76 
 2017-07-05 14:15:56  -223.78   100.00   34.04   -223.78   -251.76 
 2017-07-05 14:15:25  -223.78   100.00   34.04   -223.78   -251.76 
 2017-07-05 14:14:54  -223.78   100.00   34.04   -223.78   -251.76 
 2017-07-05 14:14:23  -223.78   100.00   34.04   -223.78   -251.76 
 2017-07-05 14:13:52  -223.78   100.00   34.04   -223.78   -251.76 
 2017-07-05 14:13:20  -223.78   100.00   34.04   -223.78   -251.76 
 2017-07-05 14:12:49  -223.78   100.00   34.04   -223.78   -251.76 
 2017-07-05 14:12:16  -223.78   100.00   34.04   -223.78   -251.76 
 2017-07-05 14:11:45  -223.78   100.00   34.04   -223.78   -251.76 
 2017-07-05 14:11:13  -223.78   100.00   34.04   -223.78   -251.76 
 2017-07-05 14:10:41  -223.78   100.00   34.04   -223.78   -251.76 
 2017-07-05 14:10:09  -223.78   100.00   34.04   -223.78   -251.76 
 2017-07-05 14:09:38  -223.78   100.00   34.04   -223.78   -251.76 
 2017-07-05 14:09:06  -223.78   100.00   34.04   -223.78   -251.76 
 2017-07-05 14:08:34  -223.78   100.00   34.04   -223.78   -251.76 
 2017-07-05 14:08:02  -223.78   100.00   34.04   -223.78   -251.76 
 2017-07-05 14:07:31  -223.78   100.00   34.04   -223.78   -251.76 
 2017-07-05 14:06:58  -223.78   100.00   34.04   -223.78   -251.76 
 2017-07-05 14:06:26  -223.78   100.00   34.04   -223.78   -251.76 
 2017-07-05 14:05:54  -223.78   100.00   34.04   -223.78   -251.76 
 2017-07-05 14:05:22  -223.78   100.00   34.04   -223.78   -251.76 
 2017-07-05 14:04:50  -223.78   100.00   34.04   -223.78   -251.76 
 2017-07-05 14:04:19  -223.78   100.00   34.04   -223.78   -251.76 
 2017-07-05 14:03:47  -223.78   100.00   34.04   -223.78   -251.76 
 2017-07-05 14:03:16  -223.78   100.00   34.04   -223.78   -251.76 
 2017-07-05 14:02:44  -223.78   100.00   34.04   -223.78   -251.76 
 2017-07-05 14:02:12  -223.78   100.00   34.04   -223.78   -251.76 
 2017-07-05 14:01:40  -223.78   100.00   34.04   -223.78   -251.76 
 2017-07-05 14:01:09  -223.78   100.00   34.04   -223.78   -251.76 
 2017-07-05 14:00:37  -223.78   100.00   34.04   -223.78   -251.76 
 2017-07-05 14:00:05  -223.78   100.00   34.04   -223.78   -251.76 
 2017-07-05 13:59:33  -223.78   100.00   34.04   -223.78   -251.76 
 2017-07-05 13:59:01  -223.78   100.00   34.04   -223.78   -251.76 
 2017-07-05 13:58:30  -223.78   100.00   34.04   -223.78   -251.76 
 2017-07-05 13:57:58  -223.78   100.00   34.04   -223.78   -251.76 
 2017-07-05 13:57:26  -223.78   100.00   34.04   -223.78   -251.76 
 2017-07-05 13:56:54  -223.78   100.00   34.04   -223.78   -251.76 
 2017-07-05 13:56:23  -223.78   100.00   34.04   -223.78   -251.76 
 2017-07-05 13:55:52  -223.78   100.00   34.04   -223.78   -251.76 
 2017-07-05 13:55:20  -223.78   100.00   34.04   -223.78   -251.76 
 2017-07-05 13:54:48  -223.78   100.00   34.04   -223.78   -251.76 
 2017-07-05 13:54:16  -223.78   100.00   34.04   -223.78   -251.76 
 2017-07-05 13:53:44  -223.78   100.00   34.04   -223.78   -251.76 
 2017-07-05 13:53:13  -223.78   100.00   34.04   -223.78   -251.76 
 2017-07-05 13:52:41  -223.78   100.00   34.04   -223.78   -251.76 
 2017-07-05 13:52:09  -223.78   100.00   34.04   -223.78   -251.76 
 2017-07-05 13:51:38  -223.78   100.00   34.04   -223.78   -251.76 
 2017-07-05 13:51:06  -223.78   100.00   34.04   -223.78   -251.76 
 2017-07-05 13:50:34  -223.78   100.00   34.04   -223.78   -251.76 
 2017-07-05 13:50:02  -223.78   100.00   34.04   -223.78   -251.76 
 2017-07-05 13:49:31  -223.78   100.00   34.04   -223.78   -251.76 
 2017-07-05 13:48:59  -223.78   100.00   34.04   -223.78   -251.76 
 2017-07-05 13:48:27  -223.78   100.00   34.04   -223.78   -251.76 
 2017-07-05 13:47:56  -223.78   100.00   34.04   -223.78   -251.76 
 2017-07-05 13:47:24  -223.78   100.00   34.04   -223.78   -251.76 
 2017-07-05 13:46:52  -223.78   100.00   34.04   -223.78   -251.76 
 2017-07-05 13:46:20  -223.78   100.00   34.04   -223.78   -251.76 
 2017-07-05 13:45:49  -223.78   100.00   34.04   -223.78   -251.76 
 2017-07-05 13:45:18  -223.78   100.00   34.04   -223.78   -251.76 
 2017-07-05 13:44:46  -223.78   100.00   34.04   -223.78   -251.76 
 2017-07-05 13:44:14  -223.78   100.00   34.04   -223.78   -251.76 
 2017-07-05 13:43:42  -223.78   100.00   34.04   -223.78   -251.76 
 2017-07-05 13:43:11  -223.78   100.00   34.04   -223.78   -251.76 
 2017-07-05 13:42:39  -223.78   100.00   34.04   -223.78   -251.76 
 2017-07-05 13:42:07  -223.78   100.00   34.04   -223.78   -251.76 
 2017-07-05 13:41:35  -223.78   100.00   34.04   -223.78   -251.76 
 2017-07-05 13:41:04  -223.78   100.00   34.04   -223.78   -251.76 
 2017-07-05 13:40:32  -223.78   100.00   34.04   -223.78   -251.76 
 2017-07-05 13:40:00  -223.78   100.00   34.04   -223.78   -251.76 
 2017-07-05 13:39:28  -223.78   100.00   34.04   -223.78   -251.76 
 2017-07-05 13:38:55  -223.78   100.00   34.04   -223.78   -251.76 
 2017-07-05 13:38:24  -223.78   100.00   34.04   -223.78   -251.76 
 2017-07-05 13:37:52  -223.78   100.00   34.04   -223.78   -251.76 
 2017-07-05 13:37:20  -223.78   100.00   34.04   -223.78   -251.76 
 2017-07-05 13:36:49  -223.78   100.00   34.04   -223.78   -251.76 
 2017-07-05 13:36:17  -223.78   100.00   34.04   -223.78   -251.76 
 2017-07-05 13:35:45  -223.78   100.00   34.04   -223.78   -251.76 
 2017-07-05 13:35:13  -223.78   100.00   34.04   -223.78   -251.76 
 2017-07-05 13:34:42  -223.78   100.00   34.04   -223.78   -251.76 
 2017-07-05 13:34:10  -223.78   100.00   34.04   -223.78   -251.76 
 2017-07-05 13:33:38  -223.78   100.00   34.04   -223.78   -251.76 
 2017-07-05 13:33:06  -223.78   100.00   34.04   -223.78   -251.76 
 2017-07-05 13:32:34  -223.78   100.00   34.04   -223.78   -251.76 
 2017-07-05 13:32:03  -223.78   100.00   34.04   -223.78   -251.76 
 2017-07-05 13:31:31  -223.78   100.00   34.04   -223.78   -251.76 
 2017-07-05 13:30:59  -223.78   100.00   34.04   -223.78   -251.76 
 2017-07-05 13:30:27  -223.78   100.00   34.04   -223.78   -251.76 
 2017-07-05 13:29:56  -223.78   100.00   34.04   -223.78   -251.76 
 2017-07-05 13:29:24  -223.78   100.00   34.04   -223.78   -251.76 
 2017-07-05 13:28:52  -223.78   100.00   34.04   -223.78   -251.76 
 2017-07-05 13:28:21  -223.78   100.00   34.04   -223.78   -251.76 
 2017-07-05 13:27:49  -223.78   100.00   34.04   -223.78   -251.76 
 2017-07-05 13:27:17  -223.78   100.00   34.04   -223.78   -251.76 
 2017-07-05 13:26:46  -223.78   100.00   34.04   -223.78   -251.76 
 2017-07-05 13:26:14  -223.78   100.00   34.04   -223.78   -251.76 
 2017-07-05 13:25:42  -223.78   100.00   34.04   -223.78   -251.76 
 2017-07-05 13:25:10  -223.78   100.00   34.04   -223.78   -251.76 
 2017-07-05 13:24:39  -223.78   100.00   34.04   -223.78   -251.76 
 2017-07-05 13:24:07  -223.78   100.00   34.04   -223.78   -251.76 
 2017-07-05 13:23:35  -223.78   100.00   34.04   -223.78   -251.76 
 2017-07-05 13:23:04  -223.78   100.00   34.04   -223.78   -251.76 
 2017-07-05 13:22:32  -223.78   100.00   34.04   -223.78   -251.76 
 2017-07-05 13:22:00  -223.78   100.00   34.04   -223.78   -251.76 
 2017-07-05 13:21:28  -223.78   100.00   34.04   -223.78   -251.76 
 2017-07-05 13:20:56  -223.78   100.00   34.04   -223.78   -251.76 
 2017-07-05 13:20:25  -223.78   100.00   34.04   -223.78   -251.76 
 2017-07-05 13:19:53  -223.78   100.00   34.04   -223.78   -251.76 
 2017-07-05 13:19:21  -223.78   100.00   34.04   -223.78   -251.76 
 2017-07-05 13:18:49  -223.78   100.00   34.04   -223.78   -251.76 
 2017-07-05 13:18:17  -223.78   100.00   34.04   -223.78   -251.76 
 2017-07-05 13:17:45  -223.78   100.00   34.04   -223.78   -251.76 
 2017-07-05 13:17:14  -223.78   100.00   34.04   -223.78   -251.76 
 2017-07-05 13:16:43  -223.78   100.00   34.04   -223.78   -251.76 
 2017-07-05 13:16:11  -223.78   100.00   34.04   -223.78   -251.76 
 2017-07-05 13:15:39  -223.78   100.00   34.04   -223.78   -251.76 
 2017-07-05 13:15:08  -223.78   100.00   34.04   -223.78   -251.76 
 2017-07-05 13:14:36  -223.78   100.00   34.04   -223.78   -251.76 
 2017-07-05 13:14:04  -223.78   100.00   34.04   -223.78   -251.76 
 2017-07-05 13:13:37  -223.78   100.00   34.04   -223.78   -251.76 
 2017-07-05 13:12:57  -223.78   100.00   34.04   -223.78   -251.76 
 2017-07-05 13:12:24  -223.78   100.00   34.04   -223.78   -251.76 
 2017-07-05 13:11:53  -223.78   100.00   34.04   -223.78   -251.76 
 2017-07-05 13:11:21  -223.78   100.00   34.04   -223.78   -251.76 
 2017-07-05 13:10:49  -223.78   100.00   34.04   -223.78   -251.76 
 2017-07-05 13:10:17  -223.78   100.00   34.04   -223.78   -251.76 
 2017-07-05 13:09:46  -223.78   100.00   34.04   -223.78   -251.76 
 2017-07-05 13:09:14  -223.78   100.00   34.04   -223.78   -251.76 
 2017-07-05 13:08:42  -223.78   100.00   34.04   -223.78   -251.76 
 2017-07-05 13:08:10  -223.78   100.00   34.04   -223.78   -251.76 
 2017-07-05 13:07:39  -223.78   100.00   34.04   -223.78   -251.76 
 2017-07-05 13:07:07  -223.78   100.00   34.04   -223.78   -251.76 
 2017-07-05 13:06:35  -223.78   100.00   34.04   -223.78   -251.76 
 2017-07-05 13:06:03  -223.78   100.00   34.04   -223.78   -251.76 
 2017-07-05 13:05:31  -223.78   100.00   34.04   -223.78   -251.76 
 2017-07-05 13:04:59  -223.78   100.00   34.04   -223.78   -251.76 
 2017-07-05 13:04:28  -223.78   100.00   34.04   -223.78   -251.76 
 2017-07-05 13:03:56  -223.78   100.00   34.04   -223.78   -251.76 
 2017-07-05 13:03:24  -223.78   100.00   34.04   -223.78   -251.76 
 2017-07-05 13:02:53  -223.78   100.00   34.04   -223.78   -251.76 
 2017-07-05 13:02:21  -223.78   100.00   34.04   -223.78   -251.76 
 2017-07-05 13:01:49  -223.78   100.00   34.04   -223.78   -251.76 
 2017-07-05 13:01:17  -223.78   100.00   34.04   -223.78   -251.76 
 2017-07-05 13:00:46  -223.78   100.00   34.04   -223.78   -251.76 
 2017-07-05 13:00:14  -223.78   100.00   34.04   -223.78   -251.76 
 2017-07-05 12:59:42  -223.78   100.00   34.04   -223.78   -251.76 
 2017-07-05 12:59:11  -223.78   100.00   34.04   -223.78   -251.76 
 2017-07-05 12:58:39  -223.78   100.00   34.04   -223.78   -251.76 
 2017-07-05 12:58:07  -223.78   100.00   34.04   -223.78   -251.76 
 2017-07-05 12:57:36  -223.78   100.00   34.04   -223.78   -251.76 
 2017-07-05 12:57:04  -223.78   100.00   34.04   -223.78   -251.76 
 2017-07-05 12:56:32  -223.78   100.00   34.04   -223.78   -251.76 
 2017-07-05 12:56:01  -223.78   100.00   34.04   -223.78   -251.76 
 2017-07-05 12:55:30  -223.78   100.00   34.04   -223.78   -251.76 
 2017-07-05 12:54:58  -223.78   100.00   34.04   -223.78   -251.76 
 2017-07-05 12:54:26  -223.78   100.00   34.04   -223.78   -251.76 
 2017-07-05 12:53:55  -223.78   100.00   34.04   -223.78   -251.76 
 2017-07-05 12:53:23  -223.78   100.00   34.04   -223.78   -251.76 
 2017-07-05 12:52:51  -223.78   100.00   34.04   -223.78   -251.76 
 2017-07-05 12:52:19  -223.78   100.00   34.04   -223.78   -251.76 
 2017-07-05 12:51:47  -223.78   100.00   34.04   -223.78   -251.76 
 2017-07-05 12:51:16  -223.78   100.00   34.04   -223.78   -251.76 
 2017-07-05 12:50:45  -223.78   100.00   34.04   -223.78   -251.76 
 2017-07-05 12:50:14  -223.78   100.00   34.04   -223.78   -251.76 
 2017-07-05 12:49:42  -223.78   100.00   34.04   -223.78   -251.76 
 2017-07-05 12:49:10  -223.78   100.00   34.04   -223.78   -251.76 
 2017-07-05 12:48:38  -223.78   100.00   34.04   -223.78   -251.76 
 2017-07-05 12:48:07  -223.78   100.00   34.04   -223.78   -251.76 
 2017-07-05 12:47:36  -223.78   100.00   34.04   -223.78   -251.76 
 2017-07-05 12:47:05  -223.78   100.00   34.04   -223.78   -251.76 
 2017-07-05 12:46:33  -223.78   100.00   34.04   -223.78   -251.76 
 2017-07-05 12:46:02  -223.78   100.00   34.04   -223.78   -251.76 
 2017-07-05 12:45:30  -223.78   100.00   34.04   -223.78   -251.76 
 2017-07-05 12:44:58  -223.78   100.00   34.04   -223.78   -251.76 
 2017-07-05 12:44:27  -223.78   100.00   34.04   -223.78   -251.76 
 2017-07-05 12:43:55  -223.78   100.00   34.04   -223.78   -251.76 
 2017-07-05 12:43:23  -223.78   100.00   34.04   -223.78   -251.76 
 2017-07-05 12:42:51  -223.78   100.00   34.04   -223.78   -251.76 
 2017-07-05 12:42:20  -223.78   100.00   34.04   -223.78   -251.76 
 2017-07-05 12:41:49  -223.78   100.00   34.04   -223.78   -251.76 
 2017-07-05 12:41:18  -223.78   100.00   34.04   -223.78   -251.76 
 2017-07-05 12:40:47  -223.78   100.00   34.04   -223.78   -251.76 
 2017-07-05 12:40:15  -223.78   100.00   34.04   -223.78   -251.76 
 2017-07-05 12:39:44  -223.78   100.00   34.04   -223.78   -251.76 
 2017-07-05 12:39:13  -223.78   100.00   34.04   -223.78   -251.76 
 2017-07-05 12:38:40  -223.78   100.00   34.04   -223.78   -251.76 
 2017-07-05 12:38:06  -223.78   100.00   34.04   -223.78   -251.76 
 2017-07-05 12:37:35  -223.78   100.00   34.04   -223.78   -251.76 
 2017-07-05 12:37:04  -223.78   100.00   34.04   -223.78   -251.76 
 2017-07-05 12:36:33  -223.78   100.00   34.04   -223.78   -251.76 
 2017-07-05 12:36:02  -223.78   100.00   34.04   -223.78   -251.76 
 2017-07-05 12:35:29  -223.78   100.00   34.04   -223.78   -251.76 
 2017-07-05 12:34:57  -223.78   100.00   34.04   -223.78   -251.76 
 2017-07-05 12:34:25  -223.78   100.00   34.04   -223.78   -251.76 
 2017-07-05 12:33:53  -223.78   100.00   34.04   -223.78   -251.76 
 2017-07-05 12:33:22  -223.78   100.00   34.04   -223.78   -251.76 
 2017-07-05 12:32:50  -223.78   100.00   34.04   -223.78   -251.76 
 2017-07-05 12:32:19  -223.78   100.00   34.04   -223.78   -251.76 
 2017-07-05 12:31:47  -223.78   100.00   34.04   -223.78   -251.76 
 2017-07-05 12:31:15  -223.78   100.00   34.04   -223.78   -251.76 
 2017-07-05 12:30:43  -223.78   100.00   34.04   -223.78   -251.76 
 2017-07-05 12:30:12  -223.78   100.00   34.04   -223.78   -251.76 
 2017-07-05 12:29:40  -223.78   100.00   34.04   -223.78   -251.76 
 2017-07-05 12:29:08  -223.78   100.00   34.04   -223.78   -251.76 
 2017-07-05 12:28:37  -223.78   100.00   34.04   -223.78   -251.76 
 2017-07-05 12:28:05  -223.78   100.00   34.04   -223.78   -251.76 
 2017-07-05 12:27:33  -223.78   100.00   34.04   -223.78   -251.76 
 2017-07-05 12:27:02  -223.78   100.00   34.04   -223.78   -251.76 
 2017-07-05 12:26:30  -223.78   100.00   34.04   -223.78   -251.76 
 2017-07-05 12:25:57  -223.78   100.00   34.04   -223.78   -251.76 
 2017-07-05 12:25:25  -223.78   100.00   34.04   -223.78   -251.76 
 2017-07-05 12:24:54  -223.78   100.00   34.04   -223.78   -251.76 
 2017-07-05 12:24:22  -223.78   100.00   34.04   -223.78   -251.76 
 2017-07-05 12:23:51  -223.78   100.00   34.04   -223.78   -251.76 
 2017-07-05 12:23:20  -223.78   100.00   34.04   -223.78   -251.76 
 2017-07-05 12:22:49  -223.78   100.00   34.04   -223.78   -251.76 
 2017-07-05 12:22:18  -223.78   100.00   34.04   -223.78   -251.76 
 2017-07-05 12:21:47  -223.78   100.00   34.04   -223.78   -251.76 
 2017-07-05 12:21:16  -223.78   100.00   34.04   -223.78   -251.76 
 2017-07-05 12:20:43  -223.78   100.00   34.04   -223.78   -251.76 
 2017-07-05 12:20:12  -223.78   100.00   34.04   -223.78   -251.76 
 2017-07-05 12:19:41  -223.78   100.00   34.04   -223.78   -251.76 
 2017-07-05 12:19:10  -223.78   100.00   34.04   -223.78   -251.76 
 2017-07-05 12:18:38  -223.78   100.00   34.04   -223.78   -251.76 
 2017-07-05 12:18:06  -223.78   100.00   34.04   -223.78   -251.76 
 2017-07-05 12:17:35  -223.78   100.00   34.04   -223.78   -251.76 
 2017-07-05 12:17:04  -223.78   100.00   34.04   -223.78   -251.76 
 2017-07-05 12:16:33  -223.78   100.00   34.04   -223.78   -251.76 
 2017-07-05 12:16:01  -223.78   100.00   34.04   -223.78   -251.76 
 2017-07-05 12:15:30  -223.78   100.00   34.04   -223.78   -251.76 
 2017-07-05 12:14:59  -223.78   100.00   34.04   -223.78   -251.76 
 2017-07-05 12:14:28  -223.78   100.00   34.04   -223.78   -251.76 
 2017-07-05 12:13:55  -223.78   100.00   34.04   -223.78   -251.76 
 2017-07-05 12:13:24  -223.78   100.00   34.04   -223.78   -251.76 
 2017-07-05 12:12:53  -223.78   100.00   34.04   -223.78   -251.76 
 2017-07-05 12:12:22  -223.78   100.00   34.04   -223.78   -251.76 
 2017-07-05 12:11:50  -223.78   100.00   34.04   -223.78   -251.76 
 2017-07-05 12:11:18  -223.78   100.00   34.04   -223.78   -251.76 
 2017-07-05 12:10:46  -223.78   100.00   34.04   -223.78   -251.76 
 2017-07-05 12:10:15  -223.78   100.00   34.04   -223.78   -251.76 
 2017-07-05 12:09:44  -223.78   100.00   34.04   -223.78   -251.76 
 2017-07-05 12:09:12  -223.78   100.00   34.04   -223.78   -251.76 
 2017-07-05 12:08:41  -223.78   100.00   34.04   -223.78   -251.76 
 2017-07-05 12:08:09  -223.78   100.00   34.04   -223.78   -251.76 
 2017-07-05 12:07:38  -223.78   100.00   34.04   -223.78   -251.76 
 2017-07-05 12:07:06  -223.78   100.00   34.04   -223.78   -251.76 
 2017-07-05 12:06:35  -223.78   100.00   34.04   -223.78   -251.76 
 2017-07-05 12:06:03  -223.78   100.00   34.04   -223.78   -251.76 
 2017-07-05 12:05:32  -223.78   100.00   34.04   -223.78   -251.76 
 2017-07-05 12:05:00  -223.78   100.00   34.04   -223.78   -251.76 
 2017-07-05 12:04:29  -223.78   100.00   34.04   -223.78   -251.76 
 2017-07-05 12:03:58  -223.78   100.00   34.04   -223.78   -251.76 
 2017-07-05 12:03:27  -223.78   100.00   34.04   -223.78   -251.76 
 2017-07-05 12:02:55  -223.78   100.00   34.04   -223.78   -251.76 
 2017-07-05 12:02:24  -223.78   100.00   34.04   -223.78   -251.76 
 2017-07-05 12:01:52  -223.78   100.00   34.04   -223.78   -251.76 
 2017-07-05 12:01:20  -223.78   100.00   34.04   -223.78   -251.76 
 2017-07-05 12:00:48  -223.78   100.00   34.04   -223.78   -251.76 
 2017-07-05 12:00:17  -223.78   100.00   34.04   -223.78   -251.76 
 2017-07-05 11:59:45  -223.78   100.00   34.04   -223.78   -251.76 
 2017-07-05 11:59:13  -223.78   100.00   34.04   -223.78   -251.76 
 2017-07-05 11:58:42  -223.78   100.00   34.04   -223.78   -251.76 
 2017-07-05 11:58:11  -223.78   100.00   34.04   -223.78   -251.76 
 2017-07-05 11:57:39  -223.78   100.00   34.04   -223.78   -251.76 
 2017-07-05 11:57:08  -223.78   100.00   34.04   -223.78   -251.76 
 2017-07-05 11:56:36  -223.78   100.00   34.04   -223.78   -251.76 
 2017-07-05 11:56:04  -223.78   100.00   34.04   -223.78   -251.76 
 2017-07-05 11:55:33  -223.78   100.00   34.04   -223.78   -251.76 
 2017-07-05 11:55:02  -223.78   100.00   34.04   -223.78   -251.76 
 2017-07-05 11:54:31  -223.78   100.00   34.04   -223.78   -251.76 
 2017-07-05 11:54:00  -223.78   100.00   34.04   -223.78   -251.76 
 2017-07-05 11:53:29  -223.78   100.00   34.04   -223.78   -251.76 
 2017-07-05 11:52:58  -223.78   100.00   34.04   -223.78   -251.76 
 2017-07-05 11:52:26  -223.78   100.00   34.04   -223.78   -251.76 
 2017-07-05 11:51:55  -223.78   100.00   34.04   -223.78   -251.76 
 2017-07-05 11:51:24  -223.78   100.00   34.04   -223.78   -251.76 
 2017-07-05 11:50:53  -223.78   100.00   34.04   -223.78   -251.76 
 2017-07-05 11:50:21  -223.78   100.00   34.04   -223.78   -251.76 
 2017-07-05 11:49:49  -223.78   100.00   34.04   -223.78   -251.76 
 2017-07-05 11:49:17  -223.78   100.00   34.04   -223.78   -251.76 
 2017-07-05 11:48:45  -223.78   100.00   34.04   -223.78   -251.76 
 2017-07-05 11:48:14  -223.78   100.00   34.04   -223.78   -251.76 
 2017-07-05 11:47:43  -223.78   100.00   34.04   -223.78   -251.76 
 2017-07-05 11:47:11  -223.78   100.00   34.04   -223.78   -251.76 
 2017-07-05 11:46:39  -223.78   100.00   34.04   -223.78   -251.76 
 2017-07-05 11:46:08  -223.78   100.00   34.04   -223.78   -251.76 
 2017-07-05 11:45:37  -223.78   100.00   34.04   -223.78   -251.76 
 2017-07-05 11:45:05  -223.78   100.00   34.04   -223.78   -251.76 
 2017-07-05 11:44:34  -223.78   100.00   34.04   -223.78   -251.76 
 2017-07-05 11:44:03  -223.78   100.00   34.04   -223.78   -251.76 
 2017-07-05 11:43:32  -223.78   100.00   34.04   -223.78   -251.76 
 2017-07-05 11:43:00  -223.78   100.00   34.04   -223.78   -251.76 
 2017-07-05 11:42:28  -223.78   100.00   34.04   -223.78   -251.76 
 2017-07-05 11:41:56  -223.78   100.00   34.04   -223.78   -251.76 
 2017-07-05 11:41:24  -223.78   100.00   34.04   -223.78   -251.76 
 2017-07-05 11:40:51  -223.78   100.00   34.04   -223.78   -251.76 
 2017-07-05 11:40:20  -223.78   100.00   34.04   -223.78   -251.76 
 2017-07-05 11:39:48  -223.78   100.00   34.04   -223.78   -251.76 
 2017-07-05 11:39:16  -223.78   100.00   34.04   -223.78   -251.76 
 2017-07-05 11:38:44  -223.78   100.00   34.04   -223.78   -251.76 
 2017-07-05 11:38:13  -223.78   100.00   34.04   -223.78   -251.76 
 2017-07-05 11:37:42  -223.78   100.00   34.04   -223.78   -251.76 
 2017-07-05 11:37:11  -223.78   100.00   34.04   -223.78   -251.76 
 2017-07-05 11:36:40  -223.78   100.00   34.04   -223.78   -251.76 
 2017-07-05 11:36:09  -223.78   100.00   34.04   -223.78   -251.76 
 2017-07-05 11:35:38  -223.78   100.00   34.04   -223.78   -251.76 
 2017-07-05 11:35:07  -223.78   100.00   34.04   -223.78   -251.76 
 2017-07-05 11:34:36  -223.78   100.00   34.04   -223.78   -251.76 
 2017-07-05 11:34:05  -223.78   100.00   34.04   -223.78   -251.76 
 2017-07-05 11:33:33  -223.78   100.00   34.04   -223.78   -251.76 
 2017-07-05 11:33:01  -223.78   100.00   34.04   -223.78   -251.76 
 2017-07-05 11:32:30  -223.78   100.00   34.04   -223.78   -251.76 
 2017-07-05 11:31:59  -223.78   100.00   34.04   -223.78   -251.76 
 2017-07-05 11:31:26  -223.78   100.00   34.04   -223.78   -251.76 
 2017-07-05 11:30:55  -223.78   100.00   34.04   -223.78   -251.76 
 2017-07-05 11:30:24  -223.78   100.00   34.04   -223.78   -251.76 
 2017-07-05 11:29:52  -223.78   100.00   34.04   -223.78   -251.76 
 2017-07-05 11:29:20  -223.78   100.00   34.04   -223.78   -251.76 
 2017-07-05 11:28:48  -223.78   100.00   34.04   -223.78   -251.76 
 2017-07-05 11:28:16  -223.78   100.00   34.04   -223.78   -251.76 
 2017-07-05 11:27:44  -223.78   100.00   34.04   -223.78   -251.76 
 2017-07-05 11:27:13  -223.78   100.00   34.04   -223.78   -251.76 
 2017-07-05 11:26:41  -223.78   100.00   34.04   -223.78   -251.76 
 2017-07-05 11:26:10  -223.78   100.00   34.04   -223.78   -251.76 
 2017-07-05 11:25:37  -223.78   100.00   34.04   -223.78   -251.76 
 2017-07-05 11:25:05  -223.78   100.00   34.04   -223.78   -251.76 
 2017-07-05 11:24:34  -223.78   100.00   34.04   -223.78   -251.76 
 2017-07-05 11:24:03  -223.78   100.00   34.04   -223.78   -251.76 
 2017-07-05 11:23:31  -223.78   100.00   34.04   -223.78   -251.76 
 2017-07-05 11:22:59  -223.78   100.00   34.04   -223.78   -251.76 
 2017-07-05 11:22:28  -223.78   100.00   34.04   -223.78   -251.76 
 2017-07-05 11:21:57  -223.78   100.00   34.04   -223.78   -251.76 
 2017-07-05 11:21:26  -223.78   100.00   34.04   -223.78   -251.76 
 2017-07-05 11:20:54  -223.78   100.00   34.04   -223.78   -251.76 
 2017-07-05 11:20:22  -223.78   100.00   34.04   -223.78   -251.76 
 2017-07-05 11:19:50  -223.78   100.00   34.04   -223.78   -251.76 
 2017-07-05 11:19:19  -223.78   100.00   34.04   -223.78   -251.76 
 2017-07-05 11:18:48  -223.78   100.00   34.04   -223.78   -251.76 
 2017-07-05 11:18:17  -223.78   100.00   34.04   -223.78   -251.76 
 2017-07-05 11:17:45  -223.78   100.00   34.04   -223.78   -251.76 
 2017-07-05 11:17:13  -223.78   100.00   34.04   -223.78   -251.76 
 2017-07-05 11:16:42  -223.78   100.00   34.04   -223.78   -251.76 
 2017-07-05 11:16:10  -223.78   100.00   34.04   -223.78   -251.76 
 2017-07-05 11:15:38  -223.78   100.00   34.04   -223.78   -251.76 
 2017-07-05 11:15:07  -223.78   100.00   34.04   -223.78   -251.76 
 2017-07-05 11:14:36  -223.78   100.00   34.04   -223.78   -251.76 
 2017-07-05 11:14:05  -223.78   100.00   34.04   -223.78   -251.76 
 2017-07-05 11:13:36  -223.78   100.00   34.04   -223.78   -251.76 
 2017-07-05 11:12:59  -223.78   100.00   34.04   -223.78   -251.76 
 2017-07-05 11:12:26  -223.78   100.00   34.04   -223.78   -251.76 
 2017-07-05 11:11:55  -223.78   100.00   34.04   -223.78   -251.76 
 2017-07-05 11:11:24  -223.78   100.00   34.04   -223.78   -251.76 
 2017-07-05 11:10:53  -223.78   100.00   34.04   -223.78   -251.76 
 2017-07-05 11:10:23  -223.78   100.00   34.04   -223.78   -251.76 
 2017-07-05 11:09:51  -223.78   100.00   34.04   -223.78   -251.76 
 2017-07-05 11:09:20  -223.78   100.00   34.04   -223.78   -251.76 
 2017-07-05 11:08:49  -223.78   100.00   34.04   -223.78   -251.76 
 2017-07-05 11:08:17  -223.78   100.00   34.04   -223.78   -251.76 
 2017-07-05 11:07:42  -223.78   100.00   34.04   -223.78   -251.76 
 2017-07-05 11:07:11  -223.78   100.00   34.04   -223.78   -251.76 
 2017-07-05 11:06:40  -223.78   100.00   34.04   -223.78   -251.76 
 2017-07-05 11:06:08  -223.78   100.00   34.04   -223.78   -251.76 
 2017-07-05 11:05:37  -223.78   100.00   34.04   -223.78   -251.76 
 2017-07-05 11:05:06  -223.78   100.00   34.04   -223.78   -251.76 
 2017-07-05 11:04:35  -223.78   100.00   34.04   -223.78   -251.76 
 2017-07-05 11:04:03  -223.78   100.00   34.04   -223.78   -251.76 
 2017-07-05 11:03:32  -223.78   100.00   34.04   -223.78   -251.76 
 2017-07-05 11:03:01  -223.78   100.00   34.04   -223.78   -251.76 
 2017-07-05 11:02:30  -223.78   100.00   34.04   -223.78   -251.76 
 2017-07-05 11:01:58  -223.78   100.00   34.04   -223.78   -251.76 
 2017-07-05 11:01:27  -223.78   100.00   34.04   -223.78   -251.76 
 2017-07-05 11:00:56  -223.78   100.00   34.04   -223.78   -251.76 
 2017-07-05 11:00:24  -223.78   100.00   34.04   -223.78   -251.76 
 2017-07-05 10:59:52  -223.78   100.00   34.04   -223.78   -251.76 
 2017-07-05 10:59:21  -223.78   100.00   34.04   -223.78   -251.76 
 2017-07-05 10:58:50  -223.78   100.00   34.04   -223.78   -251.76 
 2017-07-05 10:58:18  -223.78   100.00   34.04   -223.78   -251.76 
 2017-07-05 10:57:47  -223.78   100.00   34.04   -223.78   -251.76 
 2017-07-05 10:57:16  -223.78   100.00   34.04   -223.78   -251.76 
 2017-07-05 10:56:45  -223.78   100.00   34.04   -223.78   -251.76 
 2017-07-05 10:56:13  -223.78   100.00   34.04   -223.78   -251.76 
 2017-07-05 10:55:41  -223.78   100.00   34.04   -223.78   -251.76 
 2017-07-05 10:55:10  -223.78   100.00   34.04   -223.78   -251.76 
 2017-07-05 10:54:39  -223.78   100.00   34.04   -223.78   -251.76 
 2017-07-05 10:54:07  -223.78   100.00   34.04   -223.78   -251.76 
 2017-07-05 10:53:36  -223.78   100.00   34.04   -223.78   -251.76 
 2017-07-05 10:53:04  -223.78   100.00   34.04   -223.78   -251.76 
 2017-07-05 10:52:32  -223.78   100.00   34.04   -223.78   -251.76 
 2017-07-05 10:52:01  -223.78   100.00   34.04   -223.78   -251.76 
 2017-07-05 10:51:30  -223.78   100.00   34.04   -223.78   -251.76 
 2017-07-05 10:50:58  -223.78   100.00   34.04   -223.78   -251.76 
 2017-07-05 10:50:25  -223.78   100.00   34.04   -223.78   -251.76 
 2017-07-05 10:49:54  -223.78   100.00   34.04   -223.78   -251.76 
 2017-07-05 10:49:23  -223.78   100.00   34.04   -223.78   -251.76 
 2017-07-05 10:48:51  -223.78   100.00   34.04   -223.78   -251.76 
 2017-07-05 10:48:19  -223.78   100.00   34.04   -223.78   -251.76 
 2017-07-05 10:47:48  -223.78   100.00   34.04   -223.78   -251.76 
 2017-07-05 10:47:16  -223.78   100.00   34.04   -223.78   -251.76 
 2017-07-05 10:46:45  -223.78   100.00   34.04   -223.78   -251.76 
 2017-07-05 10:46:13  -223.78   100.00   34.04   -223.78   -251.76 
 2017-07-05 10:45:41  -223.78   100.00   34.04   -223.78   -251.76 
 2017-07-05 10:45:09  -223.78   100.00   34.04   -223.78   -251.76 
 2017-07-05 10:44:38  -223.78   100.00   34.04   -223.78   -251.76 
 2017-07-05 10:44:07  -223.78   100.00   34.04   -223.78   -251.76 
 2017-07-05 10:43:35  -223.78   100.00   34.04   -223.78   -251.76 
 2017-07-05 10:43:04  -223.78   100.00   34.04   -223.78   -251.76 
 2017-07-05 10:42:33  -223.78   100.00   34.04   -223.78   -251.76 
 2017-07-05 10:42:01  -223.78   100.00   34.04   -223.78   -251.76 
 2017-07-05 10:41:29  -223.78   100.00   34.04   -223.78   -251.76 
 2017-07-05 10:40:58  -223.78   100.00   34.04   -223.78   -251.76 
 2017-07-05 10:40:27  -223.78   100.00   34.04   -223.78   -251.76 
 2017-07-05 10:39:55  -223.78   100.00   34.04   -223.78   -251.76 
 2017-07-05 10:39:24  -223.78   100.00   34.04   -223.78   -251.76 
 2017-07-05 10:38:52  -223.78   100.00   34.04   -223.78   -251.76 
 2017-07-05 10:38:21  -223.78   100.00   34.04   -223.78   -251.76 
 2017-07-05 10:37:50  -223.78   100.00   34.04   -223.78   -251.76 
 2017-07-05 10:37:18  -223.78   100.00   34.04   -223.78   -251.76 
 2017-07-05 10:36:47  -223.78   100.00   34.04   -223.78   -251.76 
 2017-07-05 10:36:15  -223.78   100.00   34.04   -223.78   -251.76 
 2017-07-05 10:35:44  -223.78   100.00   34.04   -223.78   -251.76 
 2017-07-05 10:35:13  -223.78   100.00   34.04   -223.78   -251.76 
 2017-07-05 10:34:42  -223.78   100.00   34.04   -223.78   -251.76 
 2017-07-05 10:34:11  -223.78   100.00   34.04   -223.78   -251.76 
 2017-07-05 10:33:39  -223.78   100.00   34.04   -223.78   -251.76 
 2017-07-05 10:33:08  -223.78   100.00   34.04   -223.78   -251.76 
 2017-07-05 10:32:36  -223.78   100.00   34.04   -223.78   -251.76 
 2017-07-05 10:32:03  -223.78   100.00   34.04   -223.78   -251.76 
 2017-07-05 10:31:32  -223.78   100.00   34.04   -223.78   -251.76 
 2017-07-05 10:30:59  -223.78   100.00   34.04   -223.78   -251.76 
 2017-07-05 10:30:27  -223.78   100.00   34.04   -223.78   -251.76 
 2017-07-05 10:29:56  -223.78   100.00   34.04   -223.78   -251.76 
 2017-07-05 10:29:24  -223.78   100.00   34.04   -223.78   -251.76 
 2017-07-05 10:28:53  -223.78   100.00   34.04   -223.78   -251.76 
 2017-07-05 10:28:21  -223.78   100.00   34.04   -223.78   -251.76 
 2017-07-05 10:27:50  -223.78   100.00   34.04   -223.78   -251.76 
 2017-07-05 10:27:18  -223.78   100.00   34.04   -223.78   -251.76 
 2017-07-05 10:26:47  -223.78   100.00   34.04   -223.78   -251.76 
 2017-07-05 10:26:16  -223.78   100.00   34.04   -223.78   -251.76 
 2017-07-05 10:25:43  -223.78   100.00   34.04   -223.78   -251.76 
 2017-07-05 10:25:11  -223.78   100.00   34.04   -223.78   -251.76 
 2017-07-05 10:24:39  -223.78   100.00   34.04   -223.78   -251.76 
 2017-07-05 10:24:08  -223.78   100.00   34.04   -223.78   -251.76 
 2017-07-05 10:23:36  -223.78   100.00   34.04   -223.78   -251.76 
 2017-07-05 10:23:04  -223.78   100.00   34.04   -223.78   -251.76 
 2017-07-05 10:22:33  -223.78   100.00   34.04   -223.78   -251.76 
 2017-07-05 10:22:02  -223.78   100.00   34.04   -223.78   -251.76 
 2017-07-05 10:21:30  -223.78   100.00   34.04   -223.78   -251.76 
 2017-07-05 10:20:59  -223.78   100.00   34.04   -223.78   -251.76 
 2017-07-05 10:20:27  -223.78   100.00   34.04   -223.78   -251.76 
 2017-07-05 10:19:55  -223.78   100.00   34.04   -223.78   -251.76 
 2017-07-05 10:19:24  -223.78   100.00   34.04   -223.78   -251.76 
 2017-07-05 10:18:52  -223.78   100.00   34.04   -223.78   -251.76 
 2017-07-05 10:18:20  -223.78   100.00   34.04   -223.78   -251.76 
 2017-07-05 10:17:49  -223.78   100.00   34.04   -223.78   -251.76 
 2017-07-05 10:17:18  -223.78   100.00   34.04   -223.78   -251.76 
 2017-07-05 10:16:46  -223.78   100.00   34.04   -223.78   -251.76 
 2017-07-05 10:16:15  -223.78   100.00   34.04   -223.78   -251.76 
 2017-07-05 10:15:43  -223.78   100.00   34.04   -223.78   -251.76 
 2017-07-05 10:15:12  -223.78   100.00   34.04   -223.78   -251.76 
 2017-07-05 10:14:41  -223.78   100.00   34.04   -223.78   -251.76 
 2017-07-05 10:14:09  -223.78   100.00   34.04   -223.78   -251.76 
 2017-07-05 10:13:37  -223.78   100.00   34.04   -223.78   -251.76 
 2017-07-05 10:13:05  -223.78   100.00   34.04   -223.78   -251.76 
 2017-07-05 10:12:33  -223.78   100.00   34.04   -223.78   -251.76 
 2017-07-05 10:12:02  -223.78   100.00   34.04   -223.78   -251.76 
 2017-07-05 10:11:28  -223.78   100.00   34.04   -223.78   -251.76 
 2017-07-05 10:10:57  -223.78   100.00   34.04   -223.78   -251.76 
 2017-07-05 10:10:24  -223.78   100.00   34.04   -223.78   -251.76 
 2017-07-05 10:09:53  -223.78   100.00   34.04   -223.78   -251.76 
 2017-07-05 10:09:20  -223.78   100.00   34.04   -223.78   -251.76 
 2017-07-05 10:08:49  -223.78   100.00   34.04   -223.78   -251.76 
 2017-07-05 10:08:18  -223.78   100.00   34.04   -223.78   -251.76 
 2017-07-05 10:07:47  -223.78   100.00   34.04   -223.78   -251.76 
 2017-07-05 10:07:16  -223.78   100.00   34.04   -223.78   -251.76 
 2017-07-05 10:06:44  -223.78   100.00   34.04   -223.78   -251.76 
 2017-07-05 10:06:12  -223.78   100.00   34.04   -223.78   -251.76 
 2017-07-05 10:05:41  -223.78   100.00   34.04   -223.78   -251.76 
 2017-07-05 10:05:10  -223.78   100.00   34.04   -223.78   -251.76 
 2017-07-05 10:04:38  -223.78   100.00   34.04   -223.78   -251.76 
 2017-07-05 10:04:06  -223.78   100.00   34.04   -223.78   -251.76 
 2017-07-05 10:03:34  -223.78   100.00   34.04   -223.78   -251.76 
 2017-07-05 10:03:03  -223.78   100.00   34.04   -223.78   -251.76 
 2017-07-05 10:02:31  -223.78   100.00   34.04   -223.78   -251.76 
 2017-07-05 10:02:00  -223.78   100.00   34.04   -223.78   -251.76 
 2017-07-05 10:01:28  -223.78   100.00   34.04   -223.78   -251.76 
 2017-07-05 10:00:57  -223.78   100.00   34.04   -223.78   -251.76 
 2017-07-05 10:00:25  -223.78   100.00   34.04   -223.78   -251.76 
 2017-07-05 09:59:54  -223.78   100.00   34.04   -223.78   -251.76 
 2017-07-05 09:59:22  -223.78   100.00   34.04   -223.78   -251.76 
 2017-07-05 09:58:50  -223.78   100.00   34.04   -223.78   -251.76 
 2017-07-05 09:58:19  -223.78   100.00   34.04   -223.78   -251.76 
 2017-07-05 09:57:47  -223.78   100.00   34.04   -223.78   -251.76 
 2017-07-05 09:57:15  -223.78   100.00   34.04   -223.78   -251.76 
 2017-07-05 09:56:43  -223.78   100.00   34.04   -223.78   -251.76 
 2017-07-05 09:56:11  -223.78   100.00   34.04   -223.78   -251.76 
 2017-07-05 09:55:40  -223.78   100.00   34.04   -223.78   -251.76 
 2017-07-05 09:55:08  -223.78   100.00   34.04   -223.78   -251.76 
 2017-07-05 09:54:36  -223.78   100.00   34.04   -223.78   -251.76 
 2017-07-05 09:54:04  -223.78   100.00   34.04   -223.78   -251.76 
 2017-07-05 09:53:33  -223.78   100.00   34.04   -223.78   -251.76 
 2017-07-05 09:53:01  -223.78   100.00   34.04   -223.78   -251.76 
 2017-07-05 09:52:29  -223.78   100.00   34.04   -223.78   -251.76 
 2017-07-05 09:51:58  -223.78   100.00   34.04   -223.78   -251.76 
 2017-07-05 09:51:26  -223.78   100.00   34.04   -223.78   -251.76 
 2017-07-05 09:50:55  -223.78   100.00   34.04   -223.78   -251.76 
 2017-07-05 09:50:23  -223.78   100.00   34.04   -223.78   -251.76 
 2017-07-05 09:49:52  -223.78   100.00   34.04   -223.78   -251.76 
 2017-07-05 09:49:20  -223.78   100.00   34.04   -223.78   -251.76 
 2017-07-05 09:48:49  -223.78   100.00   34.04   -223.78   -251.76 
 2017-07-05 09:48:17  -223.78   100.00   34.04   -223.78   -251.76 
 2017-07-05 09:47:46  -223.78   100.00   34.04   -223.78   -251.76 
 2017-07-05 09:47:13  -223.78   100.00   34.04   -223.78   -251.76 
 2017-07-05 09:46:41  -223.78   100.00   34.04   -223.78   -251.76 
 2017-07-05 09:46:09  -223.78   100.00   34.04   -223.78   -251.76 
 2017-07-05 09:45:38  -223.78   100.00   34.04   -223.78   -251.76 
 2017-07-05 09:45:07  -223.78   100.00   34.04   -223.78   -251.76 
 2017-07-05 09:44:35  -223.78   100.00   34.04   -223.78   -251.76 
 2017-07-05 09:44:03  -223.78   100.00   34.04   -223.78   -251.76 
 2017-07-05 09:43:31  -223.78   100.00   34.04   -223.78   -251.76 
 2017-07-05 09:42:59  -223.78   100.00   34.04   -223.78   -251.76 
 2017-07-05 09:42:28  -223.78   100.00   34.04   -223.78   -251.76 
 2017-07-05 09:41:57  -223.78   100.00   34.04   -223.78   -251.76 
 2017-07-05 09:41:25  -223.78   100.00   34.04   -223.78   -251.76 
 2017-07-05 09:40:53  -223.78   100.00   34.04   -223.78   -251.76 
 2017-07-05 09:40:21  -223.78   100.00   34.04   -223.78   -251.76 
 2017-07-05 09:39:50  -223.78   100.00   34.04   -223.78   -251.76 
 2017-07-05 09:39:18  -223.78   100.00   34.04   -223.78   -251.76 
 2017-07-05 09:38:46  -223.78   100.00   34.04   -223.78   -251.76 
 2017-07-05 09:38:15  -223.78   100.00   34.04   -223.78   -251.76 
 2017-07-05 09:37:43  -223.78   100.00   34.04   -223.78   -251.76 
 2017-07-05 09:37:11  -223.78   100.00   34.04   -223.78   -251.76 
 2017-07-05 09:36:39  -223.78   100.00   34.04   -223.78   -251.76 
 2017-07-05 09:36:07  -223.78   100.00   34.04   -223.78   -251.76 
 2017-07-05 09:35:35  -223.78   100.00   34.04   -223.78   -251.76 
 2017-07-05 09:35:03  -223.78   100.00   34.04   -223.78   -251.76 
 2017-07-05 09:34:31  -223.78   100.00   34.04   -223.78   -251.76 
 2017-07-05 09:34:00  -223.78   100.00   34.04   -223.78   -251.76 
 2017-07-05 09:33:28  -223.78   100.00   34.04   -223.78   -251.76 
 2017-07-05 09:32:56  -223.78   100.00   34.04   -223.78   -251.76 
 2017-07-05 09:32:25  -223.78   100.00   34.04   -223.78   -251.76 
 2017-07-05 09:31:53  -223.78   100.00   34.04   -223.78   -251.76 
 2017-07-05 09:31:21  -223.78   100.00   34.04   -223.78   -251.76 
 2017-07-05 09:30:50  -223.78   100.00   34.04   -223.78   -251.76 
 2017-07-05 09:30:18  -223.78   100.00   34.04   -223.78   -251.76 
 2017-07-05 09:29:47  -223.78   100.00   34.04   -223.78   -251.76 
 2017-07-05 09:29:15  -223.78   100.00   34.04   -223.78   -251.76 
 2017-07-05 09:28:43  -223.78   100.00   34.04   -223.78   -251.76 
 2017-07-05 09:28:11  -223.78   100.00   34.04   -223.78   -251.76 
 2017-07-05 09:27:39  -223.78   100.00   34.04   -223.78   -251.76 
 2017-07-05 09:27:08  -223.78   100.00   34.04   -223.78   -251.76 
 2017-07-05 09:26:36  -223.78   100.00   34.04   -223.78   -251.76 
 2017-07-05 09:26:04  -223.78   100.00   34.04   -223.78   -251.76 
 2017-07-05 09:25:33  -223.78   100.00   34.04   -223.78   -251.76 
 2017-07-05 09:25:01  -223.78   100.00   34.04   -223.78   -251.76 
 2017-07-05 09:24:30  -223.78   100.00   34.04   -223.78   -251.76 
 2017-07-05 09:23:59  -223.78   100.00   34.04   -223.78   -251.76 
 2017-07-05 09:23:27  -223.78   100.00   34.04   -223.78   -251.76 
 2017-07-05 09:22:56  -223.78   100.00   34.04   -223.78   -251.76 
 2017-07-05 09:22:24  -223.78   100.00   34.04   -223.78   -251.76 
 2017-07-05 09:21:53  -223.78   100.00   34.04   -223.78   -251.76 
 2017-07-05 09:21:21  -223.78   100.00   34.04   -223.78   -251.76 
 2017-07-05 09:20:49  -223.78   100.00   34.04   -223.78   -251.76 
 2017-07-05 09:20:18  -223.78   100.00   34.04   -223.78   -251.76 
 2017-07-05 09:19:46  -223.78   100.00   34.04   -223.78   -251.76 
 2017-07-05 09:19:15  -223.78   100.00   34.04   -223.78   -251.76 
 2017-07-05 09:18:43  -223.78   100.00   34.04   -223.78   -251.76 
 2017-07-05 09:18:11  -223.78   100.00   34.04   -223.78   -251.76 
 2017-07-05 09:17:40  -223.78   100.00   34.04   -223.78   -251.76 
 2017-07-05 09:17:08  -223.78   100.00   34.04   -223.78   -251.76 
 2017-07-05 09:16:36  -223.78   100.00   34.04   -223.78   -251.76 
 2017-07-05 09:16:05  -223.78   100.00   34.04   -223.78   -251.76 
 2017-07-05 09:15:34  -223.78   100.00   34.04   -223.78   -251.76 
 2017-07-05 09:15:03  -223.78   100.00   34.04   -223.78   -251.76 
 2017-07-05 09:14:32  -223.78   100.00   34.04   -223.78   -251.76 
 2017-07-05 09:14:01  -223.78   100.00   34.04   -223.78   -251.76 
 2017-07-05 09:13:29  -223.78   100.00   34.04   -223.78   -251.76 
 2017-07-05 09:12:57  -223.78   100.00   34.04   -223.78   -251.76 
 2017-07-05 09:12:25  -223.78   100.00   34.04   -223.78   -251.76 
 2017-07-05 09:11:53  -223.78   100.00   34.04   -223.78   -251.76 
 2017-07-05 09:11:21  -223.78   100.00   34.04   -223.78   -251.76 
 2017-07-05 09:10:50  -223.78   100.00   34.04   -223.78   -251.76 
 2017-07-05 09:10:18  -223.78   100.00   34.04   -223.78   -251.76 
 2017-07-05 09:09:46  -223.78   100.00   34.04   -223.78   -251.76 
 2017-07-05 09:09:14  -223.78   100.00   34.04   -223.78   -251.76 
 2017-07-05 09:08:43  -223.78   100.00   34.04   -223.78   -251.76 
 2017-07-05 09:08:11  -223.78   100.00   34.04   -223.78   -251.76 
 2017-07-05 09:07:39  -223.78   100.00   34.04   -223.78   -251.76 
 2017-07-05 09:07:08  -223.78   100.00   34.04   -223.78   -251.76 
 2017-07-05 09:06:37  -223.78   100.00   34.04   -223.78   -251.76 
 2017-07-05 09:06:05  -223.78   100.00   34.04   -223.78   -251.76 
 2017-07-05 09:05:33  -223.78   100.00   34.04   -223.78   -251.76 
 2017-07-05 09:05:01  -223.78   100.00   34.04   -223.78   -251.76 
 2017-07-05 09:04:29  -223.78   100.00   34.04   -223.78   -251.76 
 2017-07-05 09:03:58  -223.78   100.00   34.04   -223.78   -251.76 
 2017-07-05 09:03:26  -223.78   100.00   34.04   -223.78   -251.76 
 2017-07-05 09:02:54  -223.78   100.00   34.04   -223.78   -251.76 
 2017-07-05 09:02:22  -223.78   100.00   34.04   -223.78   -251.76 
 2017-07-05 09:01:51  -223.78   100.00   34.04   -223.78   -251.76 
 2017-07-05 09:01:20  -223.78   100.00   34.04   -223.78   -251.76 
 2017-07-05 09:00:48  -223.78   100.00   34.04   -223.78   -251.76 
 2017-07-05 09:00:16  -223.78   100.00   34.04   -223.78   -251.76 
 2017-07-05 08:59:45  -223.78   100.00   34.04   -223.78   -251.76 
 2017-07-05 08:59:13  -223.78   100.00   34.04   -223.78   -251.76 
 2017-07-05 08:58:41  -223.78   100.00   34.04   -223.78   -251.76 
 2017-07-05 08:58:09  -223.78   100.00   34.04   -223.78   -251.76 
 2017-07-05 08:57:38  -223.78   100.00   34.04   -223.78   -251.76 
 2017-07-05 08:57:06  -223.78   100.00   34.04   -223.78   -251.76 
 2017-07-05 08:56:34  -223.78   100.00   34.04   -223.78   -251.76 
 2017-07-05 08:56:03  -223.78   100.00   34.04   -223.78   -251.76 
 2017-07-05 08:55:32  -223.78   100.00   34.04   -223.78   -251.76 
 2017-07-05 08:55:00  -223.78   100.00   34.04   -223.78   -251.76 
 2017-07-05 08:54:29  -223.78   100.00   34.04   -223.78   -251.76 
 2017-07-05 08:53:57  -223.78   100.00   34.04   -223.78   -251.76 
 2017-07-05 08:53:25  -223.78   100.00   34.04   -223.78   -251.76 
 2017-07-05 08:52:53  -223.78   100.00   34.04   -223.78   -251.76 
 2017-07-05 08:52:22  -223.78   100.00   34.04   -223.78   -251.76 
 2017-07-05 08:51:51  -223.78   100.00   34.04   -223.78   -251.76 
 2017-07-05 08:51:19  -223.78   100.00   34.04   -223.78   -251.76 
 2017-07-05 08:50:47  -223.78   100.00   34.04   -223.78   -251.76 
 2017-07-05 08:50:15  -223.78   100.00   34.04   -223.78   -251.76 
 2017-07-05 08:49:43  -223.78   100.00   34.04   -223.78   -251.76 
 2017-07-05 08:49:12  -223.78   100.00   34.04   -223.78   -251.76 
 2017-07-05 08:48:40  -223.78   100.00   34.04   -223.78   -251.76 
 2017-07-05 08:48:08  -223.78   100.00   34.04   -223.78   -251.76 
 2017-07-05 08:47:36  -223.78   100.00   34.04   -223.78   -251.76 
 2017-07-05 08:47:05  -223.78   100.00   34.04   -223.78   -251.76 
 2017-07-05 08:46:33  -223.78   100.00   34.04   -223.78   -251.76 
 2017-07-05 08:46:02  -223.78   100.00   34.04   -223.78   -251.76 
 2017-07-05 08:45:30  -223.78   100.00   34.04   -223.78   -251.76 
 2017-07-05 08:44:58  -223.78   100.00   34.04   -223.78   -251.76 
 2017-07-05 08:44:26  -223.78   100.00   34.04   -223.78   -251.76 
 2017-07-05 08:43:55  -223.78   100.00   34.04   -223.78   -251.76 
 2017-07-05 08:43:23  -223.78   100.00   34.04   -223.78   -251.76 
 2017-07-05 08:42:51  -223.78   100.00   34.04   -223.78   -251.76 
 2017-07-05 08:42:20  -223.78   100.00   34.04   -223.78   -251.76 
 2017-07-05 08:41:49  -223.78   100.00   34.04   -223.78   -251.76 
 2017-07-05 08:41:17  -223.78   100.00   34.04   -223.78   -251.76 
 2017-07-05 08:40:45  -223.78   100.00   34.04   -223.78   -251.76 
 2017-07-05 08:40:14  -223.78   100.00   34.04   -223.78   -251.76 
 2017-07-05 08:39:43  -223.78   100.00   34.04   -223.78   -251.76 
 2017-07-05 08:39:12  -223.78   100.00   34.04   -223.78   -251.76 
 2017-07-05 08:38:40  -223.78   100.00   34.04   -223.78   -251.76 
 2017-07-05 08:38:08  -223.78   100.00   34.04   -223.78   -251.76 
 2017-07-05 08:37:36  -223.78   100.00   34.04   -223.78   -251.76 
 2017-07-05 08:37:04  -223.78   100.00   34.04   -223.78   -251.76 
 2017-07-05 08:36:32  -223.78   100.00   34.04   -223.78   -251.76 
 2017-07-05 08:36:00  -223.78   100.00   34.04   -223.78   -251.76 
 2017-07-05 08:35:28  -223.78   100.00   34.04   -223.78   -251.76 
 2017-07-05 08:34:56  -223.78   100.00   34.04   -223.78   -251.76 
 2017-07-05 08:34:25  -223.78   100.00   34.04   -223.78   -251.76 
 2017-07-05 08:33:53  -223.78   100.00   34.04   -223.78   -251.76 
 2017-07-05 08:33:21  -223.78   100.00   34.04   -223.78   -251.76 
 2017-07-05 08:32:49  -223.78   100.00   34.04   -223.78   -251.76 
 2017-07-05 08:32:17  -223.78   100.00   34.04   -223.78   -251.76 
 2017-07-05 08:31:47  -223.78   100.00   34.04   -223.78   -251.76 
 2017-07-05 08:31:15  -223.78   100.00   34.04   -223.78   -251.76 
 2017-07-05 08:30:44  -223.78   100.00   34.04   -223.78   -251.76 
 2017-07-05 08:30:12  -223.78   100.00   34.04   -223.78   -251.76 
 2017-07-05 08:29:40  -223.78   100.00   34.04   -223.78   -251.76 
 2017-07-05 08:29:08  -223.78   100.00   34.04   -223.78   -251.76 
 2017-07-05 08:28:37  -223.78   100.00   34.04   -223.78   -251.76 
 2017-07-05 08:28:05  -223.78   100.00   34.04   -223.78   -251.76 
 2017-07-05 08:27:34  -223.78   100.00   34.04   -223.78   -251.76 
 2017-07-05 08:27:02  -223.78   100.00   34.04   -223.78   -251.76 
 2017-07-05 08:26:30  -223.78   100.00   34.04   -223.78   -251.76 
 2017-07-05 08:25:58  -223.78   100.00   34.04   -223.78   -251.76 
 2017-07-05 08:25:27  -223.78   100.00   34.04   -223.78   -251.76 
 2017-07-05 08:24:55  -223.78   100.00   34.04   -223.78   -251.76 
 2017-07-05 08:24:23  -223.78   100.00   34.04   -223.78   -251.76 
 2017-07-05 08:23:52  -223.78   100.00   34.04   -223.78   -251.76 
 2017-07-05 08:23:20  -223.78   100.00   34.04   -223.78   -251.76 
 2017-07-05 08:22:48  -223.78   100.00   34.04   -223.78   -251.76 
 2017-07-05 08:22:17  -223.78   100.00   34.04   -223.78   -251.76 
 2017-07-05 08:21:46  -223.78   100.00   34.04   -223.78   -251.76 
 2017-07-05 08:21:14  -223.78   100.00   34.04   -223.78   -251.76 
 2017-07-05 08:20:43  -223.78   100.00   34.04   -223.78   -251.76 
 2017-07-05 08:20:11  -223.78   100.00   34.04   -223.78   -251.76 
 2017-07-05 08:19:39  -223.78   100.00   34.04   -223.78   -251.76 
 2017-07-05 08:19:08  -223.78   100.00   34.04   -223.78   -251.76 
 2017-07-05 08:18:37  -223.78   100.00   34.04   -223.78   -251.76 
 2017-07-05 08:18:05  -223.78   100.00   34.04   -223.78   -251.76 
 2017-07-05 08:17:33  -223.78   100.00   34.04   -223.78   -251.76 
 2017-07-05 08:17:01  -223.78   100.00   34.04   -223.78   -251.76 
 2017-07-05 08:16:29  -223.78   100.00   34.04   -223.78   -251.76 
 2017-07-05 08:15:57  -223.78   100.00   34.04   -223.78   -251.76 
 2017-07-05 08:15:26  -223.78   100.00   34.04   -223.78   -251.76 
 2017-07-05 08:14:54  -223.78   100.00   34.04   -223.78   -251.76 
 2017-07-05 08:14:22  -223.78   100.00   34.04   -223.78   -251.76 
 2017-07-05 08:13:51  -223.78   100.00   34.04   -223.78   -251.76 
 2017-07-05 08:13:24  -223.78   100.00   34.04   -223.78   -251.76 
 2017-07-05 08:12:44  -223.78   100.00   34.04   -223.78   -251.76 
 2017-07-05 08:12:09  -223.78   100.00   34.04   -223.78   -251.76 
 2017-07-05 08:11:37  -223.78   100.00   34.04   -223.78   -251.76 
 2017-07-05 08:11:06  -223.78   100.00   34.04   -223.78   -251.76 
 2017-07-05 08:10:34  -223.78   100.00   34.04   -223.78   -251.76 
 2017-07-05 08:10:02  -223.78   100.00   34.04   -223.78   -251.76 
 2017-07-05 08:09:31  -223.78   100.00   34.04   -223.78   -251.76 
 2017-07-05 08:08:59  -223.78   100.00   34.04   -223.78   -251.76 
 2017-07-05 08:08:27  -223.78   100.00   34.04   -223.78   -251.76 
 2017-07-05 08:07:56  -223.78   100.00   34.04   -223.78   -251.76 
 2017-07-05 08:07:24  -223.78   100.00   34.04   -223.78   -251.76 
 2017-07-05 08:06:52  -223.78   100.00   34.04   -223.78   -251.76 
 2017-07-05 08:06:20  -223.78   100.00   34.04   -223.78   -251.76 
 2017-07-05 08:05:48  -223.78   100.00   34.04   -223.78   -251.76 
 2017-07-05 08:05:17  -223.78   100.00   34.04   -223.78   -251.76 
 2017-07-05 08:04:46  -223.78   100.00   34.04   -223.78   -251.76 
 2017-07-05 08:04:15  -223.78   100.00   34.04   -223.78   -251.76 
 2017-07-05 08:03:43  -223.78   100.00   34.04   -223.78   -251.76 
 2017-07-05 08:03:11  -223.78   100.00   34.04   -223.78   -251.76 
 2017-07-05 08:02:40  -223.78   100.00   34.04   -223.78   -251.76 
 2017-07-05 08:02:08  -223.78   100.00   34.04   -223.78   -251.76 
 2017-07-05 08:01:36  -223.78   100.00   34.04   -223.78   -251.76 
 2017-07-05 08:01:04  -223.78   100.00   34.04   -223.78   -251.76 
 2017-07-05 08:00:32  -223.78   100.00   34.04   -223.78   -251.76 
 2017-07-05 08:00:00  -223.78   100.00   34.04   -223.78   -251.76 
 2017-07-05 07:59:27  -223.78   100.00   34.04   -223.78   -251.76 
 2017-07-05 07:58:56  -223.78   100.00   34.04   -223.78   -251.76 
 2017-07-05 07:58:24  -223.78   100.00   34.04   -223.78   -251.76 
 2017-07-05 07:57:52  -223.78   100.00   34.04   -223.78   -251.76 
 2017-07-05 07:57:19  -223.78   100.00   34.04   -223.78   -251.76 
 2017-07-05 07:56:47  -223.78   100.00   34.04   -223.78   -251.76 
 2017-07-05 07:56:15  -223.78   100.00   34.04   -223.78   -251.76 
 2017-07-05 07:55:43  -223.78   100.00   34.04   -223.78   -251.76 
 2017-07-05 07:55:11  -223.78   100.00   34.04   -223.78   -251.76 
 2017-07-05 07:54:40  -223.78   100.00   34.04   -223.78   -251.76 
 2017-07-05 07:54:08  -223.78   100.00   34.04   -223.78   -251.76 
 2017-07-05 07:53:36  -223.78   100.00   34.04   -223.78   -251.76 
 2017-07-05 07:53:04  -223.78   100.00   34.04   -223.78   -251.76 
 2017-07-05 07:52:32  -223.78   100.00   34.04   -223.78   -251.76 
 2017-07-05 07:52:01  -223.78   100.00   34.04   -223.78   -251.76 
 2017-07-05 07:51:30  -223.78   100.00   34.04   -223.78   -251.76 
 2017-07-05 07:50:58  -223.78   100.00   34.04   -223.78   -251.76 
 2017-07-05 07:50:26  -223.78   100.00   34.04   -223.78   -251.76 
 2017-07-05 07:49:54  -223.78   100.00   34.04   -223.78   -251.76 
 2017-07-05 07:49:22  -223.78   100.00   34.04   -223.78   -251.76 
 2017-07-05 07:48:51  -223.78   100.00   34.04   -223.78   -251.76 
 2017-07-05 07:48:19  -223.78   100.00   34.04   -223.78   -251.76 
 2017-07-05 07:47:48  -223.78   100.00   34.04   -223.78   -251.76 
 2017-07-05 07:47:17  -223.78   100.00   34.04   -223.78   -251.76 
 2017-07-05 07:46:46  -223.78   100.00   34.04   -223.78   -251.76 
 2017-07-05 07:46:15  -223.78   100.00   34.04   -223.78   -251.76 
 2017-07-05 07:45:42  -223.78   100.00   34.04   -223.78   -251.76 
 2017-07-05 07:45:10  -223.78   100.00   34.04   -223.78   -251.76 
 2017-07-05 07:44:39  -223.78   100.00   34.04   -223.78   -251.76 
 2017-07-05 07:44:08  -223.78   100.00   34.04   -223.78   -251.76 
 2017-07-05 07:43:37  -223.78   100.00   34.04   -223.78   -251.76 
 2017-07-05 07:43:05  -223.78   100.00   34.04   -223.78   -251.76 
 2017-07-05 07:42:34  -223.78   100.00   34.04   -223.78   -251.76 
 2017-07-05 07:42:02  -223.78   100.00   34.04   -223.78   -251.76 
 2017-07-05 07:41:31  -223.78   100.00   34.04   -223.78   -251.76 
 2017-07-05 07:41:00  -223.78   100.00   34.04   -223.78   -251.76 
 2017-07-05 07:40:29  -223.78   100.00   34.04   -223.78   -251.76 
 2017-07-05 07:39:58  -223.78   100.00   34.04   -223.78   -251.76 
 2017-07-05 07:39:27  -223.78   100.00   34.04   -223.78   -251.76 
 2017-07-05 07:38:56  -223.78   100.00   34.04   -223.78   -251.76 
 2017-07-05 07:38:25  -223.78   100.00   34.04   -223.78   -251.76 
 2017-07-05 07:37:53  -223.78   100.00   34.04   -223.78   -251.76 
 2017-07-05 07:37:21  -223.78   100.00   34.04   -223.78   -251.76 
 2017-07-05 07:36:50  -223.78   100.00   34.04   -223.78   -251.76 
 2017-07-05 07:36:18  -223.78   100.00   34.04   -223.78   -251.76 
 2017-07-05 07:35:46  -223.78   100.00   34.04   -223.78   -251.76 
 2017-07-05 07:35:14  -223.78   100.00   34.04   -223.78   -251.76 
 2017-07-05 07:34:42  -223.78   100.00   34.04   -223.78   -251.76 
 2017-07-05 07:34:11  -223.78   100.00   34.04   -223.78   -251.76 
 2017-07-05 07:33:40  -223.78   100.00   34.04   -223.78   -251.76 
 2017-07-05 07:33:08  -223.78   100.00   34.04   -223.78   -251.76 
 2017-07-05 07:32:35  -223.78   100.00   34.04   -223.78   -251.76 
 2017-07-05 07:32:04  -223.78   100.00   34.04   -223.78   -251.76 
 2017-07-05 07:31:33  -223.78   100.00   34.04   -223.78   -251.76 
 2017-07-05 07:31:02  -223.78   100.00   34.04   -223.78   -251.76 
 2017-07-05 07:30:30  -223.78   100.00   34.04   -223.78   -251.76 
 2017-07-05 07:29:59  -223.78   100.00   34.04   -223.78   -251.76 
 2017-07-05 07:29:27  -223.78   100.00   34.04   -223.78   -251.76 
 2017-07-05 07:28:56  -223.78   100.00   34.04   -223.78   -251.76 
 2017-07-05 07:28:23  -223.78   100.00   34.04   -223.78   -251.76 
 2017-07-05 07:27:52  -223.78   100.00   34.04   -223.78   -251.76 
 2017-07-05 07:27:20  -223.78   100.00   34.04   -223.78   -251.76 
 2017-07-05 07:26:49  -223.78   100.00   34.04   -223.78   -251.76 
 2017-07-05 07:26:17  -223.78   100.00   34.04   -223.78   -251.76 
 2017-07-05 07:25:45  -223.78   100.00   34.04   -223.78   -251.76 
 2017-07-05 07:25:14  -223.78   100.00   34.04   -223.78   -251.76 
 2017-07-05 07:24:42  -223.78   100.00   34.04   -223.78   -251.76 
 2017-07-05 07:24:10  -223.78   100.00   34.04   -223.78   -251.76 
 2017-07-05 07:23:39  -223.78   100.00   34.04   -223.78   -251.76 
 2017-07-05 07:23:08  -223.78   100.00   34.04   -223.78   -251.76 
 2017-07-05 07:22:37  -223.78   100.00   34.04   -223.78   -251.76 
 2017-07-05 07:22:06  -223.78   100.00   34.04   -223.78   -251.76 
 2017-07-05 07:21:35  -223.78   100.00   34.04   -223.78   -251.76 
 2017-07-05 07:21:04  -223.78   100.00   34.04   -223.78   -251.76 
 2017-07-05 07:20:33  -223.78   100.00   34.04   -223.78   -251.76 
 2017-07-05 07:20:02  -223.78   100.00   34.04   -223.78   -251.76 
 2017-07-05 07:19:30  -223.78   100.00   34.04   -223.78   -251.76 
 2017-07-05 07:18:59  -223.78   100.00   34.04   -223.78   -251.76 
 2017-07-05 07:18:28  -223.78   100.00   34.04   -223.78   -251.76 
 2017-07-05 07:17:57  -223.78   100.00   34.04   -223.78   -251.76 
 2017-07-05 07:17:26  -223.78   100.00   34.04   -223.78   -251.76 
 2017-07-05 07:16:54  -223.78   100.00   34.04   -223.78   -251.76 
 2017-07-05 07:16:23  -223.78   100.00   34.04   -223.78   -251.76 
 2017-07-05 07:15:51  -223.78   100.00   34.04   -223.78   -251.76 
 2017-07-05 07:15:19  -223.78   100.00   34.04   -223.78   -251.76 
 2017-07-05 07:14:48  -223.78   100.00   34.04   -223.78   -251.76 
 2017-07-05 07:14:17  -223.78   100.00   34.04   -223.78   -251.76 
 2017-07-05 07:13:46  -223.78   100.00   34.04   -223.78   -251.76 
 2017-07-05 07:13:14  -223.78   100.00   34.04   -223.78   -251.76 
 2017-07-05 07:12:42  -223.78   100.00   34.04   -223.78   -251.76 
 2017-07-05 07:12:11  -223.78   100.00   34.04   -223.78   -251.76 
 2017-07-05 07:11:40  -223.78   100.00   34.04   -223.78   -251.76 
 2017-07-05 07:11:09  -223.78   100.00   34.04   -223.78   -251.76 
 2017-07-05 07:10:37  -223.78   100.00   34.04   -223.78   -251.76 
 2017-07-05 07:10:06  -223.78   100.00   34.04   -223.78   -251.76 
 2017-07-05 07:09:35  -223.78   100.00   34.04   -223.78   -251.76 
 2017-07-05 07:09:04  -223.78   100.00   34.04   -223.78   -251.76 
 2017-07-05 07:08:33  -223.78   100.00   34.04   -223.78   -251.76 
 2017-07-05 07:08:02  -223.78   100.00   34.04   -223.78   -251.76 
 2017-07-05 07:07:31  -223.78   100.00   34.04   -223.78   -251.76 
 2017-07-05 07:07:00  -223.78   100.00   34.04   -223.78   -251.76 
 2017-07-05 07:06:28  -223.78   100.00   34.04   -223.78   -251.76 
 2017-07-05 07:05:56  -223.78   100.00   34.04   -223.78   -251.76 
 2017-07-05 07:05:24  -223.78   100.00   34.04   -223.78   -251.76 
 2017-07-05 07:04:52  -223.78   100.00   34.04   -223.78   -251.76 
 2017-07-05 07:04:21  -223.78   100.00   34.04   -223.78   -251.76 
 2017-07-05 07:03:49  -223.78   100.00   34.04   -223.78   -251.76 
 2017-07-05 07:03:17  -223.78   100.00   34.04   -223.78   -251.76 
 2017-07-05 07:02:45  -223.78   100.00   34.04   -223.78   -251.76 
 2017-07-05 07:02:13  -223.78   100.00   34.04   -223.78   -251.76 
 2017-07-05 07:01:42  -223.78   100.00   34.04   -223.78   -251.76 
 2017-07-05 07:01:10  -223.78   100.00   34.04   -223.78   -251.76 
 2017-07-05 07:00:38  -223.78   100.00   34.04   -223.78   -251.76 
 2017-07-05 07:00:06  -223.78   100.00   34.04   -223.78   -251.76 
 2017-07-05 06:59:35  -223.78   100.00   34.04   -223.78   -251.76 
 2017-07-05 06:59:03  -223.78   100.00   34.04   -223.78   -251.76 
 2017-07-05 06:58:31  -223.78   100.00   34.04   -223.78   -251.76 
 2017-07-05 06:57:59  -223.78   100.00   34.04   -223.78   -251.76 
 2017-07-05 06:57:30  -223.78   100.00   34.04   -223.78   -251.76 
 2017-07-05 06:56:52  -223.78   100.00   34.04   -223.78   -251.76 
 2017-07-05 06:56:21  -223.78   100.00   34.04   -223.78   -251.76 
 2017-07-05 06:55:49  -223.78   100.00   34.04   -223.78   -251.76 
 2017-07-05 06:55:17  -223.78   100.00   34.04   -223.78   -251.76 
 2017-07-05 06:54:46  -223.78   100.00   34.04   -223.78   -251.76 
 2017-07-05 06:54:14  -223.78   100.00   34.04   -223.78   -251.76 
 2017-07-05 06:53:42  -223.78   100.00   34.04   -223.78   -251.76 
 2017-07-05 06:53:10  -223.78   100.00   34.04   -223.78   -251.76 
 2017-07-05 06:52:38  -223.78   100.00   34.04   -223.78   -251.76 
 2017-07-05 06:52:06  -223.78   100.00   34.04   -223.78   -251.76 
 2017-07-05 06:51:35  -223.78   100.00   34.04   -223.78   -251.76 
 2017-07-05 06:51:03  -223.78   100.00   34.04   -223.78   -251.76 
 2017-07-05 06:50:32  -223.78   100.00   34.04   -223.78   -251.76 
 2017-07-05 06:50:00  -223.78   100.00   34.04   -223.78   -251.76 
 2017-07-05 06:49:28  -223.78   100.00   34.04   -223.78   -251.76 
 2017-07-05 06:48:57  -223.78   100.00   34.04   -223.78   -251.76 
 2017-07-05 06:48:25  -223.78   100.00   34.04   -223.78   -251.76 
 2017-07-05 06:47:52  -223.78   100.00   34.04   -223.78   -251.76 
 2017-07-05 06:47:21  -223.78   100.00   34.04   -223.78   -251.76 
 2017-07-05 06:46:49  -223.78   100.00   34.04   -223.78   -251.76 
 2017-07-05 06:46:17  -223.78   100.00   34.04   -223.78   -251.76 
 2017-07-05 06:45:46  -223.78   100.00   34.04   -223.78   -251.76 
 2017-07-05 06:45:13  -223.78   100.00   34.04   -223.78   -251.76 
 2017-07-05 06:44:41  -223.78   100.00   34.04   -223.78   -251.76 
 2017-07-05 06:44:09  -223.78   100.00   34.04   -223.78   -251.76 
 2017-07-05 06:43:37  -223.78   100.00   34.04   -223.78   -251.76 
 2017-07-05 06:43:05  -223.78   100.00   34.04   -223.78   -251.76 
 2017-07-05 06:42:34  -223.78   100.00   34.04   -223.78   -251.76 
 2017-07-05 06:42:02  -223.78   100.00   34.04   -223.78   -251.76 
 2017-07-05 06:41:30  -223.78   100.00   34.04   -223.78   -251.76 
 2017-07-05 06:40:58  -223.78   100.00   34.04   -223.78   -251.76 
 2017-07-05 06:40:26  -223.78   100.00   34.04   -223.78   -251.76 
 2017-07-05 06:39:54  -223.78   100.00   34.04   -223.78   -251.76 
 2017-07-05 06:39:23  -223.78   100.00   34.04   -223.78   -251.76 
 2017-07-05 06:38:51  -223.78   100.00   34.04   -223.78   -251.76 
 2017-07-05 06:38:19  -223.78   100.00   34.04   -223.78   -251.76 
 2017-07-05 06:37:48  -223.78   100.00   34.04   -223.78   -251.76 
 2017-07-05 06:37:15  -223.78   100.00   34.04   -223.78   -251.76 
 2017-07-05 06:36:44  -223.78   100.00   34.04   -223.78   -251.76 
 2017-07-05 06:36:11  -223.78   100.00   34.04   -223.78   -251.76 
 2017-07-05 06:35:39  -223.78   100.00   34.04   -223.78   -251.76 
 2017-07-05 06:35:08  -223.78   100.00   34.04   -223.78   -251.76 
 2017-07-05 06:34:36  -223.78   100.00   34.04   -223.78   -251.76 
 2017-07-05 06:34:04  -223.78   100.00   34.04   -223.78   -251.76 
 2017-07-05 06:33:32  -223.78   100.00   34.04   -223.78   -251.76 
 2017-07-05 06:33:00  -223.78   100.00   34.04   -223.78   -251.76 
 2017-07-05 06:32:28  -223.78   100.00   34.04   -223.78   -251.76 
 2017-07-05 06:31:57  -223.78   100.00   34.04   -223.78   -251.76 
 2017-07-05 06:31:25  -223.78   100.00   34.04   -223.78   -251.76 
 2017-07-05 06:30:53  -223.78   100.00   34.04   -223.78   -251.76 
 2017-07-05 06:30:21  -223.78   100.00   34.04   -223.78   -251.76 
 2017-07-05 06:29:49  -223.78   100.00   34.04   -223.78   -251.76 
 2017-07-05 06:29:17  -223.78   100.00   34.04   -223.78   -251.76 
 2017-07-05 06:28:45  -223.78   100.00   34.04   -223.78   -251.76 
 2017-07-05 06:28:14  -223.78   100.00   34.04   -223.78   -251.76 
 2017-07-05 06:27:42  -223.78   100.00   34.04   -223.78   -251.76 
 2017-07-05 06:27:10  -223.78   100.00   34.04   -223.78   -251.76 
 2017-07-05 06:26:37  -223.78   100.00   34.04   -223.78   -251.76 
 2017-07-05 06:26:06  -223.78   100.00   34.04   -223.78   -251.76 
 2017-07-05 06:25:34  -223.78   100.00   34.04   -223.78   -251.76 
 2017-07-05 06:25:02  -223.78   100.00   34.04   -223.78   -251.76 
 2017-07-05 06:24:30  -223.78   100.00   34.04   -223.78   -251.76 
 2017-07-05 06:23:58  -223.78   100.00   34.04   -223.78   -251.76 
 2017-07-05 06:23:27  -223.78   100.00   34.04   -223.78   -251.76 
 2017-07-05 06:22:55  -223.78   100.00   34.04   -223.78   -251.76 
 2017-07-05 06:22:24  -223.78   100.00   34.04   -223.78   -251.76 
 2017-07-05 06:21:52  -223.78   100.00   34.04   -223.78   -251.76 
 2017-07-05 06:21:21  -223.78   100.00   34.04   -223.78   -251.76 
 2017-07-05 06:20:49  -223.78   100.00   34.04   -223.78   -251.76 
 2017-07-05 06:20:17  -223.78   100.00   34.04   -223.78   -251.76 
 2017-07-05 06:19:45  -223.78   100.00   34.04   -223.78   -251.76 
 2017-07-05 06:19:14  -223.78   100.00   34.04   -223.78   -251.76 
 2017-07-05 06:18:42  -223.78   100.00   34.04   -223.78   -251.76 
 2017-07-05 06:18:10  -223.78   100.00   34.04   -223.78   -251.76 
 2017-07-05 06:17:38  -223.78   100.00   34.04   -223.78   -251.76 
 2017-07-05 06:17:07  -223.78   100.00   34.04   -223.78   -251.76 
 2017-07-05 06:16:35  -223.78   100.00   34.04   -223.78   -251.76 
 2017-07-05 06:16:03  -223.78   100.00   34.04   -223.78   -251.76 
 2017-07-05 06:15:32  -223.78   100.00   34.04   -223.78   -251.76 
 2017-07-05 06:15:00  -223.78   100.00   34.04   -223.78   -251.76 
 2017-07-05 06:14:28  -223.78   100.00   34.04   -223.78   -251.76 
 2017-07-05 06:13:56  -223.78   100.00   34.04   -223.78   -251.76 
 2017-07-05 06:13:25  -223.78   100.00   34.04   -223.78   -251.76 
 2017-07-05 06:12:53  -223.78   100.00   34.04   -223.78   -251.76 
 2017-07-05 06:12:21  -223.78   100.00   34.04   -223.78   -251.76 
 2017-07-05 06:11:49  -223.78   100.00   34.04   -223.78   -251.76 
 2017-07-05 06:11:16  -223.78   100.00   34.04   -223.78   -251.76 
 2017-07-05 06:10:45  -223.78   100.00   34.04   -223.78   -251.76 
 2017-07-05 06:10:13  -223.78   100.00   34.04   -223.78   -251.76 
 2017-07-05 06:09:41  -223.78   100.00   34.04   -223.78   -251.76 
 2017-07-05 06:09:10  -223.78   100.00   34.04   -223.78   -251.76 
 2017-07-05 06:08:38  -223.78   100.00   34.04   -223.78   -251.76 
 2017-07-05 06:08:07  -223.78   100.00   34.04   -223.78   -251.76 
 2017-07-05 06:07:35  -223.78   100.00   34.04   -223.78   -251.76 
 2017-07-05 06:07:03  -223.78   100.00   34.04   -223.78   -251.76 
 2017-07-05 06:06:32  -223.78   100.00   34.04   -223.78   -251.76 
 2017-07-05 06:06:00  -223.78   100.00   34.04   -223.78   -251.76 
 2017-07-05 06:05:28  -223.78   100.00   34.04   -223.78   -251.76 
 2017-07-05 06:04:56  -223.78   100.00   34.04   -223.78   -251.76 
 2017-07-05 06:04:25  -223.78   100.00   34.04   -223.78   -251.76 
 2017-07-05 06:03:54  -223.78   100.00   34.04   -223.78   -251.76 
 2017-07-05 06:03:22  -223.78   100.00   34.04   -223.78   -251.76 
 2017-07-05 06:02:50  -223.78   100.00   34.04   -223.78   -251.76 
 2017-07-05 06:02:19  -223.78   100.00   34.04   -223.78   -251.76 
 2017-07-05 06:01:47  -223.78   100.00   34.04   -223.78   -251.76 
 2017-07-05 06:01:16  -223.78   100.00   34.04   -223.78   -251.76 
 2017-07-05 06:00:45  -223.78   100.00   34.04   -223.78   -251.76 
 2017-07-05 06:00:13  -223.78   100.00   34.04   -223.78   -251.76 
 2017-07-05 05:59:41  -223.78   100.00   34.04   -223.78   -251.76 
 2017-07-05 05:59:10  -223.78   100.00   34.04   -223.78   -251.76 
 2017-07-05 05:58:39  -223.78   100.00   34.04   -223.78   -251.76 
 2017-07-05 05:58:07  -223.78   100.00   34.04   -223.78   -251.76 
 2017-07-05 05:57:36  -223.78   100.00   34.04   -223.78   -251.76 
 2017-07-05 05:57:04  -223.78   100.00   34.04   -223.78   -251.76 
 2017-07-05 05:56:33  -223.78   100.00   34.04   -223.78   -251.76 
 2017-07-05 05:56:02  -223.78   100.00   34.04   -223.78   -251.76 
 2017-07-05 05:55:30  -223.78   100.00   34.04   -223.78   -251.76 
 2017-07-05 05:54:55  -223.78   100.00   34.04   -223.78   -251.76 
 2017-07-05 05:54:24  -223.78   100.00   34.04   -223.78   -251.76 
 2017-07-05 05:53:52  -223.78   100.00   34.04   -223.78   -251.76 
 2017-07-05 05:53:21  -223.78   100.00   34.04   -223.78   -251.76 
 2017-07-05 05:52:51  -223.78   100.00   34.04   -223.78   -251.76 
 2017-07-05 05:52:20  -223.78   100.00   34.04   -223.78   -251.76 
 2017-07-05 05:51:49  -223.78   100.00   34.04   -223.78   -251.76 
 2017-07-05 05:51:18  -223.78   100.00   34.04   -223.78   -251.76 
 2017-07-05 05:50:45  -223.78   100.00   34.04   -223.78   -251.76 
 2017-07-05 05:50:13  -223.78   100.00   34.04   -223.78   -251.76 
 2017-07-05 05:49:38  -223.78   100.00   34.04   -223.78   -251.76 
 2017-07-05 05:48:31  -223.78   100.00   34.04   -223.78   -251.76 
 2017-07-05 05:47:59  -223.78   100.00   34.04   -223.78   -251.76 
 2017-07-05 05:47:27  -223.78   100.00   34.04   -223.78   -251.76 
 2017-07-05 05:46:56  -223.78   100.00   34.04   -223.78   -251.76 
 2017-07-05 05:46:25  -223.78   100.00   34.04   -223.78   -251.76 
 2017-07-05 05:45:54  -223.78   100.00   34.04   -223.78   -251.76 
 2017-07-05 05:45:22  -223.78   100.00   34.04   -223.78   -251.76 
 2017-07-05 05:44:51  -223.78   100.00   34.04   -223.78   -251.76 
 2017-07-05 05:44:19  -223.78   100.00   34.04   -223.78   -251.76 
 2017-07-05 05:43:46  -223.78   100.00   34.04   -223.78   -251.76 
 2017-07-05 05:43:15  -223.78   100.00   34.04   -223.78   -251.76 
 2017-07-05 05:42:44  -223.78   100.00   34.04   -223.78   -251.76 
 2017-07-05 05:42:12  -223.78   100.00   34.04   -223.78   -251.76 
 2017-07-05 05:41:40  -223.78   100.00   34.04   -223.78   -251.76 
 2017-07-05 05:41:08  -223.78   100.00   34.04   -223.78   -251.76 
 2017-07-05 05:40:36  -223.78   100.00   34.04   -223.78   -251.76 
 2017-07-05 05:40:05  -223.78   100.00   34.04   -223.78   -251.76 
 2017-07-05 05:39:33  -223.78   100.00   34.04   -223.78   -251.76 
 2017-07-05 05:39:02  -223.78   100.00   34.04   -223.78   -251.76 
 2017-07-05 05:38:30  -223.78   100.00   34.04   -223.78   -251.76 
 2017-07-05 05:37:59  -223.78   100.00   34.04   -223.78   -251.76 
 2017-07-05 05:37:28  -223.78   100.00   34.04   -223.78   -251.76 
 2017-07-05 05:36:55  -223.78   100.00   34.04   -223.78   -251.76 
 2017-07-05 05:36:24  -223.78   100.00   34.04   -223.78   -251.76 
 2017-07-05 05:35:52  -223.78   100.00   34.04   -223.78   -251.76 
 2017-07-05 05:35:21  -223.78   100.00   34.04   -223.78   -251.76 
 2017-07-05 05:34:49  -223.78   100.00   34.04   -223.78   -251.76 
 2017-07-05 05:34:17  -223.78   100.00   34.04   -223.78   -251.76 
 2017-07-05 05:33:45  -223.78   100.00   34.04   -223.78   -251.76 
 2017-07-05 05:33:14  -223.78   100.00   34.04   -223.78   -251.76 
 2017-07-05 05:32:43  -223.78   100.00   34.04   -223.78   -251.76 
 2017-07-05 05:32:12  -223.78   100.00   34.04   -223.78   -251.76 
 2017-07-05 05:31:40  -223.78   100.00   34.04   -223.78   -251.76 
 2017-07-05 05:31:09  -223.78   100.00   34.04   -223.78   -251.76 
 2017-07-05 05:30:37  -223.78   100.00   34.04   -223.78   -251.76 
 2017-07-05 05:30:06  -223.78   100.00   34.04   -223.78   -251.76 
 2017-07-05 05:29:33  -223.78   100.00   34.04   -223.78   -251.76 
 2017-07-05 05:29:03  -223.78   100.00   34.04   -223.78   -251.76 
 2017-07-05 05:28:32  -223.78   100.00   34.04   -223.78   -251.76 
 2017-07-05 05:28:00  -223.78   100.00   34.04   -223.78   -251.76 
 2017-07-05 05:27:29  -223.78   100.00   34.04   -223.78   -251.76 
 2017-07-05 05:26:57  -223.78   100.00   34.04   -223.78   -251.76 
 2017-07-05 05:26:26  -223.78   100.00   34.04   -223.78   -251.76 
 2017-07-05 05:25:54  -223.78   100.00   34.04   -223.78   -251.76 
 2017-07-05 05:25:23  -223.78   100.00   34.04   -223.78   -251.76 
 2017-07-05 05:24:51  -223.78   100.00   34.04   -223.78   -251.76 
 2017-07-05 05:24:19  -223.78   100.00   34.04   -223.78   -251.76 
 2017-07-05 05:23:48  -223.78   100.00   34.04   -223.78   -251.76 
 2017-07-05 05:23:16  -223.78   100.00   34.04   -223.78   -251.76 
 2017-07-05 05:22:44  -223.78   100.00   34.04   -223.78   -251.76 
 2017-07-05 05:22:13  -223.78   100.00   34.04   -223.78   -251.76 
 2017-07-05 05:21:41  -223.78   100.00   34.04   -223.78   -251.76 
 2017-07-05 05:21:10  -223.78   100.00   34.04   -223.78   -251.76 
 2017-07-05 05:20:38  -223.78   100.00   34.04   -223.78   -251.76 
 2017-07-05 05:20:06  -223.78   100.00   34.04   -223.78   -251.76 
 2017-07-05 05:19:35  -223.78   100.00   34.04   -223.78   -251.76 
 2017-07-05 05:19:03  -223.78   100.00   34.04   -223.78   -251.76 
 2017-07-05 05:18:31  -223.78   100.00   34.04   -223.78   -251.76 
 2017-07-05 05:18:00  -223.78   100.00   34.04   -223.78   -251.76 
 2017-07-05 05:17:28  -223.78   100.00   34.04   -223.78   -251.76 
 2017-07-05 05:16:56  -223.78   100.00   34.04   -223.78   -251.76 
 2017-07-05 05:16:24  -223.78   100.00   34.04   -223.78   -251.76 
 2017-07-05 05:15:53  -223.78   100.00   34.04   -223.78   -251.76 
 2017-07-05 05:15:21  -223.78   100.00   34.04   -223.78   -251.76 
 2017-07-05 05:14:49  -223.78   100.00   34.04   -223.78   -251.76 
 2017-07-05 05:14:17  -223.78   100.00   34.04   -223.78   -251.76 
 2017-07-05 05:13:45  -223.78   100.00   34.04   -223.78   -251.76 
 2017-07-05 05:13:14  -223.78   100.00   34.04   -223.78   -251.76 
 2017-07-05 05:12:42  -223.78   100.00   34.04   -223.78   -251.76 
 2017-07-05 05:12:10  -223.78   100.00   34.04   -223.78   -251.76 
 2017-07-05 05:11:38  -223.78   100.00   34.04   -223.78   -251.76 
 2017-07-05 05:11:07  -223.78   100.00   34.04   -223.78   -251.76 
 2017-07-05 05:10:35  -223.78   100.00   34.04   -223.78   -251.76 
 2017-07-05 05:10:02  -223.78   100.00   34.04   -223.78   -251.76 
 2017-07-05 05:09:30  -223.78   100.00   34.04   -223.78   -251.76 
 2017-07-05 05:08:59  -223.78   100.00   34.04   -223.78   -251.76 
 2017-07-05 05:08:27  -223.78   100.00   34.04   -223.78   -251.76 
 2017-07-05 05:07:55  -223.78   100.00   34.04   -223.78   -251.76 
 2017-07-05 05:07:23  -223.78   100.00   34.04   -223.78   -251.76 
 2017-07-05 05:06:51  -223.78   100.00   34.04   -223.78   -251.76 
 2017-07-05 05:06:18  -223.78   100.00   34.04   -223.78   -251.76 
 2017-07-05 05:05:47  -223.78   100.00   34.04   -223.78   -251.76 
 2017-07-05 05:05:15  -223.78   100.00   34.04   -223.78   -251.76 
 2017-07-05 05:04:43  -223.78   100.00   34.04   -223.78   -251.76 
 2017-07-05 05:04:11  -223.78   100.00   34.04   -223.78   -251.76 
 2017-07-05 05:03:40  -223.78   100.00   34.04   -223.78   -251.76 
 2017-07-05 05:03:08  -223.78   100.00   34.04   -223.78   -251.76 
 2017-07-05 05:02:36  -223.78   100.00   34.04   -223.78   -251.76 
 2017-07-05 05:02:05  -223.78   100.00   34.04   -223.78   -251.76 
 2017-07-05 05:01:34  -223.78   100.00   34.04   -223.78   -251.76 
 2017-07-05 05:01:02  -223.78   100.00   34.04   -223.78   -251.76 
 2017-07-05 05:00:31  -223.78   100.00   34.04   -223.78   -251.76 
 2017-07-05 04:59:59  -223.78   100.00   34.04   -223.78   -251.76 
 2017-07-05 04:59:27  -223.78   100.00   34.04   -223.78   -251.76 
 2017-07-05 04:58:56  -223.78   100.00   34.04   -223.78   -251.76 
 2017-07-05 04:58:24  -223.78   100.00   34.04   -223.78   -251.76 
 2017-07-05 04:57:52  -223.78   100.00   34.04   -223.78   -251.76 
 2017-07-05 04:57:20  -223.78   100.00   34.04   -223.78   -251.76 
 2017-07-05 04:56:49  -223.78   100.00   34.04   -223.78   -251.76 
 2017-07-05 04:56:17  -223.78   100.00   34.04   -223.78   -251.76 
 2017-07-05 04:55:46  -223.78   100.00   34.04   -223.78   -251.76 
 2017-07-05 04:55:14  -223.78   100.00   34.04   -223.78   -251.76 
 2017-07-05 04:54:42  -223.78   100.00   34.04   -223.78   -251.76 
 2017-07-05 04:54:11  -223.78   100.00   34.04   -223.78   -251.76 
 2017-07-05 04:53:39  -223.78   100.00   34.04   -223.78   -251.76 
 2017-07-05 04:53:07  -223.78   100.00   34.04   -223.78   -251.76 
 2017-07-05 04:52:36  -223.78   100.00   34.04   -223.78   -251.76 
 2017-07-05 04:52:04  -223.78   100.00   34.04   -223.78   -251.76 
 2017-07-05 04:51:32  -223.78   100.00   34.04   -223.78   -251.76 
 2017-07-05 04:51:01  -223.78   100.00   34.04   -223.78   -251.76 
 2017-07-05 04:50:29  -223.78   100.00   34.04   -223.78   -251.76 
 2017-07-05 04:49:57  -223.78   100.00   34.04   -223.78   -251.76 
 2017-07-05 04:49:25  -223.78   100.00   34.04   -223.78   -251.76 
 2017-07-05 04:48:55  -223.78   100.00   34.04   -223.78   -251.76 
 2017-07-05 04:48:23  -223.78   100.00   34.04   -223.78   -251.76 
 2017-07-05 04:47:51  -223.78   100.00   34.04   -223.78   -251.76 
 2017-07-05 04:47:19  -223.78   100.00   34.04   -223.78   -251.76 
 2017-07-05 04:46:48  -223.78   100.00   34.04   -223.78   -251.76 
 2017-07-05 04:46:17  -223.78   100.00   34.04   -223.78   -251.76 
 2017-07-05 04:45:45  -223.78   100.00   34.04   -223.78   -251.76 
 2017-07-05 04:45:13  -223.78   100.00   34.04   -223.78   -251.76 
 2017-07-05 04:44:41  -223.78   100.00   34.04   -223.78   -251.76 
 2017-07-05 04:44:10  -223.78   100.00   34.04   -223.78   -251.76 
 2017-07-05 04:43:38  -223.78   100.00   34.04   -223.78   -251.76 
 2017-07-05 04:43:06  -223.78   100.00   34.04   -223.78   -251.76 
 2017-07-05 04:42:34  -223.78   100.00   34.04   -223.78   -251.76 
 2017-07-05 04:42:03  -223.78   100.00   34.04   -223.78   -251.76 
 2017-07-05 04:41:31  -223.78   100.00   34.04   -223.78   -251.76 
 2017-07-05 04:40:59  -223.78   100.00   34.04   -223.78   -251.76 
 2017-07-05 04:40:27  -223.78   100.00   34.04   -223.78   -251.76 
 2017-07-05 04:39:57  -223.78   100.00   34.04   -223.78   -251.76 
 2017-07-05 04:39:24  -223.78   100.00   34.04   -223.78   -251.76 
 2017-07-05 04:38:52  -223.78   100.00   34.04   -223.78   -251.76 
 2017-07-05 04:38:20  -223.78   100.00   34.04   -223.78   -251.76 
 2017-07-05 04:37:48  -223.78   100.00   34.04   -223.78   -251.76 
 2017-07-05 04:37:16  -223.78   100.00   34.04   -223.78   -251.76 
 2017-07-05 04:36:45  -223.78   100.00   34.04   -223.78   -251.76 
 2017-07-05 04:36:13  -223.78   100.00   34.04   -223.78   -251.76 
 2017-07-05 04:35:42  -223.78   100.00   34.04   -223.78   -251.76 
 2017-07-05 04:35:10  -223.78   100.00   34.04   -223.78   -251.76 
 2017-07-05 04:34:39  -223.78   100.00   34.04   -223.78   -251.76 
 2017-07-05 04:34:07  -223.78   100.00   34.04   -223.78   -251.76 
 2017-07-05 04:33:35  -223.78   100.00   34.04   -223.78   -251.76 
 2017-07-05 04:33:03  -223.78   100.00   34.04   -223.78   -251.76 
 2017-07-05 04:32:30  -223.78   100.00   34.04   -223.78   -251.76 
 2017-07-05 04:31:59  -223.78   100.00   34.04   -223.78   -251.76 
 2017-07-05 04:31:27  -223.78   100.00   34.04   -223.78   -251.76 
 2017-07-05 04:30:55  -223.78   100.00   34.04   -223.78   -251.76 
 2017-07-05 04:30:24  -223.78   100.00   34.04   -223.78   -251.76 
 2017-07-05 04:29:52  -223.78   100.00   34.04   -223.78   -251.76 
 2017-07-05 04:29:20  -223.78   100.00   34.04   -223.78   -251.76 
 2017-07-05 04:28:49  -223.78   100.00   34.04   -223.78   -251.76 
 2017-07-05 04:28:17  -223.78   100.00   34.04   -223.78   -251.76 
 2017-07-05 04:27:45  -223.78   100.00   34.04   -223.78   -251.76 
 2017-07-05 04:27:13  -223.78   100.00   34.04   -223.78   -251.76 
 2017-07-05 04:26:41  -223.78   100.00   34.04   -223.78   -251.76 
 2017-07-05 04:26:09  -223.78   100.00   34.04   -223.78   -251.76 
 2017-07-05 04:25:38  -223.78   100.00   34.04   -223.78   -251.76 
 2017-07-05 04:25:06  -223.78   100.00   34.04   -223.78   -251.76 
 2017-07-05 04:24:34  -223.78   100.00   34.04   -223.78   -251.76 
 2017-07-05 04:24:03  -223.78   100.00   34.04   -223.78   -251.76 
 2017-07-05 04:23:31  -223.78   100.00   34.04   -223.78   -251.76 
 2017-07-05 04:22:59  -223.78   100.00   34.04   -223.78   -251.76 
 2017-07-05 04:22:27  -223.78   100.00   34.04   -223.78   -251.76 
 2017-07-05 04:21:55  -223.78   100.00   34.04   -223.78   -251.76 
 2017-07-05 04:21:24  -223.78   100.00   34.04   -223.78   -251.76 
 2017-07-05 04:20:52  -223.78   100.00   34.04   -223.78   -251.76 
 2017-07-05 04:20:20  -223.78   100.00   34.04   -223.78   -251.76 
 2017-07-05 04:19:49  -223.78   100.00   34.04   -223.78   -251.76 
 2017-07-05 04:19:17  -223.78   100.00   34.04   -223.78   -251.76 
 2017-07-05 04:18:44  -223.78   100.00   34.04   -223.78   -251.76 
 2017-07-05 04:18:11  -223.78   100.00   34.04   -223.78   -251.76 
 2017-07-05 04:17:39  -223.78   100.00   34.04   -223.78   -251.76 
 2017-07-05 04:17:07  -223.78   100.00   34.04   -223.78   -251.76 
 2017-07-05 04:16:36  -223.78   100.00   34.04   -223.78   -251.76 
 2017-07-05 04:16:04  -223.78   100.00   34.04   -223.78   -251.76 
 2017-07-05 04:15:32  -223.78   100.00   34.04   -223.78   -251.76 
 2017-07-05 04:15:01  -223.78   100.00   34.04   -223.78   -251.76 
 2017-07-05 04:14:29  -223.78   100.00   34.04   -223.78   -251.76 
 2017-07-05 04:13:57  -223.78   100.00   34.04   -223.78   -251.76 
 2017-07-05 04:13:26  -223.78   100.00   34.04   -223.78   -251.76 
 2017-07-05 04:12:54  -223.78   100.00   34.04   -223.78   -251.76 
 2017-07-05 04:12:22  -223.78   100.00   34.04   -223.78   -251.76 
 2017-07-05 04:11:50  -223.78   100.00   34.04   -223.78   -251.76 
 2017-07-05 04:11:16  -223.78   100.00   34.04   -223.78   -251.76 
 2017-07-05 04:10:44  -223.78   100.00   34.04   -223.78   -251.76 
 2017-07-05 04:10:12  -223.78   100.00   34.04   -223.78   -251.76 
 2017-07-05 04:09:41  -223.78   100.00   34.04   -223.78   -251.76 
 2017-07-05 04:09:10  -223.78   100.00   34.04   -223.78   -251.76 
 2017-07-05 04:08:38  -223.78   100.00   34.04   -223.78   -251.76 
 2017-07-05 04:08:06  -223.78   100.00   34.04   -223.78   -251.76 
 2017-07-05 04:07:34  -223.78   100.00   34.04   -223.78   -251.76 
 2017-07-05 04:07:03  -223.78   100.00   34.04   -223.78   -251.76 
 2017-07-05 04:06:31  -223.78   100.00   34.04   -223.78   -251.76 
 2017-07-05 04:05:59  -223.78   100.00   34.04   -223.78   -251.76 
 2017-07-05 04:05:28  -223.78   100.00   34.04   -223.78   -251.76 
 2017-07-05 04:04:56  -223.78   100.00   34.04   -223.78   -251.76 
 2017-07-05 04:04:24  -223.78   100.00   34.04   -223.78   -251.76 
 2017-07-05 04:03:53  -223.78   100.00   34.04   -223.78   -251.76 
 2017-07-05 04:03:22  -223.78   100.00   34.04   -223.78   -251.76 
 2017-07-05 04:02:49  -223.78   100.00   34.04   -223.78   -251.76 
 2017-07-05 04:02:18  -223.78   100.00   34.04   -223.78   -251.76 
 2017-07-05 04:01:46  -223.78   100.00   34.04   -223.78   -251.76 
 2017-07-05 04:01:14  -223.78   100.00   34.04   -223.78   -251.76 
 2017-07-05 04:00:42  -223.78   100.00   34.04   -223.78   -251.76 
 2017-07-05 04:00:11  -223.78   100.00   34.04   -223.78   -251.76 
 2017-07-05 03:59:39  -223.78   100.00   34.04   -223.78   -251.76 
 2017-07-05 03:59:07  -223.78   100.00   34.04   -223.78   -251.76 
 2017-07-05 03:58:36  -223.78   100.00   34.04   -223.78   -251.76 
 2017-07-05 03:58:05  -223.78   100.00   34.04   -223.78   -251.76 
 2017-07-05 03:57:33  -223.78   100.00   34.04   -223.78   -251.76 
 2017-07-05 03:57:02  -223.78   100.00   34.04   -223.78   -251.76 
 2017-07-05 03:56:30  -223.78   100.00   34.04   -223.78   -251.76 
 2017-07-05 03:55:59  -223.78   100.00   34.04   -223.78   -251.76 
 2017-07-05 03:55:28  -223.78   100.00   34.04   -223.78   -251.76 
 2017-07-05 03:54:56  -223.78   100.00   34.04   -223.78   -251.76 
 2017-07-05 03:54:24  -223.78   100.00   34.04   -223.78   -251.76 
 2017-07-05 03:53:52  -223.78   100.00   34.04   -223.78   -251.76 
 2017-07-05 03:53:21  -223.78   100.00   34.04   -223.78   -251.76 
 2017-07-05 03:52:49  -223.78   100.00   34.04   -223.78   -251.76 
 2017-07-05 03:52:17  -223.78   100.00   34.04   -223.78   -251.76 
 2017-07-05 03:51:45  -223.78   100.00   34.04   -223.78   -251.76 
 2017-07-05 03:51:14  -223.78   100.00   34.04   -223.78   -251.76 
 2017-07-05 03:50:42  -223.78   100.00   34.04   -223.78   -251.76 
 2017-07-05 03:50:10  -223.78   100.00   34.04   -223.78   -251.76 
 2017-07-05 03:49:38  -223.78   100.00   34.04   -223.78   -251.76 
 2017-07-05 03:49:06  -223.78   100.00   34.04   -223.78   -251.76 
 2017-07-05 03:48:35  -223.78   100.00   34.04   -223.78   -251.76 
 2017-07-05 03:48:04  -223.78   100.00   34.04   -223.78   -251.76 
 2017-07-05 03:47:33  -223.78   100.00   34.04   -223.78   -251.76 
 2017-07-05 03:47:01  -223.78   100.00   34.04   -223.78   -251.76 
 2017-07-05 03:46:29  -223.78   100.00   34.04   -223.78   -251.76 
 2017-07-05 03:45:57  -223.78   100.00   34.04   -223.78   -251.76 
 2017-07-05 03:45:25  -223.78   100.00   34.04   -223.78   -251.76 
 2017-07-05 03:44:54  -223.78   100.00   34.04   -223.78   -251.76 
 2017-07-05 03:44:23  -223.78   100.00   34.04   -223.78   -251.76 
 2017-07-05 03:43:51  -223.78   100.00   34.04   -223.78   -251.76 
 2017-07-05 03:43:19  -223.78   100.00   34.04   -223.78   -251.76 
 2017-07-05 03:42:47  -223.78   100.00   34.04   -223.78   -251.76 
 2017-07-05 03:42:15  -223.78   100.00   34.04   -223.78   -251.76 
 2017-07-05 03:41:44  -223.78   100.00   34.04   -223.78   -251.76 
 2017-07-05 03:41:12  -223.78   100.00   34.04   -223.78   -251.76 
 2017-07-05 03:40:40  -223.78   100.00   34.04   -223.78   -251.76 
 2017-07-05 03:40:08  -223.78   100.00   34.04   -223.78   -251.76 
 2017-07-05 03:39:36  -223.78   100.00   34.04   -223.78   -251.76 
 2017-07-05 03:39:05  -223.78   100.00   34.04   -223.78   -251.76 
 2017-07-05 03:38:33  -223.78   100.00   34.04   -223.78   -251.76 
 2017-07-05 03:38:01  -223.78   100.00   34.04   -223.78   -251.76 
 2017-07-05 03:37:29  -223.78   100.00   34.04   -223.78   -251.76 
 2017-07-05 03:36:58  -223.78   100.00   34.04   -223.78   -251.76 
 2017-07-05 03:36:26  -223.78   100.00   34.04   -223.78   -251.76 
 2017-07-05 03:35:54  -223.78   100.00   34.04   -223.78   -251.76 
 2017-07-05 03:35:22  -223.78   100.00   34.04   -223.78   -251.76 
 2017-07-05 03:34:50  -223.78   100.00   34.04   -223.78   -251.76 
 2017-07-05 03:34:19  -223.78   100.00   34.04   -223.78   -251.76 
 2017-07-05 03:33:48  -223.78   100.00   34.04   -223.78   -251.76 
 2017-07-05 03:33:17  -223.78   100.00   34.04   -223.78   -251.76 
 2017-07-05 03:32:45  -223.78   100.00   34.04   -223.78   -251.76 
 2017-07-05 03:32:13  -223.78   100.00   34.04   -223.78   -251.76 
 2017-07-05 03:31:42  -223.78   100.00   34.04   -223.78   -251.76 
 2017-07-05 03:31:10  -223.78   100.00   34.04   -223.78   -251.76 
 2017-07-05 03:30:38  -223.78   100.00   34.04   -223.78   -251.76 
 2017-07-05 03:30:07  -223.78   100.00   34.04   -223.78   -251.76 
 2017-07-05 03:29:35  -223.78   100.00   34.04   -223.78   -251.76 
 2017-07-05 03:29:02  -223.78   100.00   34.04   -223.78   -251.76 
 2017-07-05 03:28:31  -223.78   100.00   34.04   -223.78   -251.76 
 2017-07-05 03:27:58  -223.78   100.00   34.04   -223.78   -251.76 
 2017-07-05 03:27:27  -223.78   100.00   34.04   -223.78   -251.76 
 2017-07-05 03:26:55  -223.78   100.00   34.04   -223.78   -251.76 
 2017-07-05 03:26:23  -223.78   100.00   34.04   -223.78   -251.76 
 2017-07-05 03:25:51  -223.78   100.00   34.04   -223.78   -251.76 
 2017-07-05 03:25:19  -223.78   100.00   34.04   -223.78   -251.76 
 2017-07-05 03:24:48  -223.78   100.00   34.04   -223.78   -251.76 
 2017-07-05 03:24:16  -223.78   100.00   34.04   -223.78   -251.76 
 2017-07-05 03:23:44  -223.78   100.00   34.04   -223.78   -251.76 
 2017-07-05 03:23:12  -223.78   100.00   34.04   -223.78   -251.76 
 2017-07-05 03:22:41  -223.78   100.00   34.04   -223.78   -251.76 
 2017-07-05 03:22:09  -223.78   100.00   34.04   -223.78   -251.76 
 2017-07-05 03:21:37  -223.78   100.00   34.04   -223.78   -251.76 
 2017-07-05 03:21:06  -223.78   100.00   34.04   -223.78   -251.76 
 2017-07-05 03:20:34  -223.78   100.00   34.04   -223.78   -251.76 
 2017-07-05 03:20:02  -223.78   100.00   34.04   -223.78   -251.76 
 2017-07-05 03:19:31  -223.78   100.00   34.04   -223.78   -251.76 
 2017-07-05 03:18:59  -223.78   100.00   34.04   -223.78   -251.76 
 2017-07-05 03:18:27  -223.78   100.00   34.04   -223.78   -251.76 
 2017-07-05 03:17:55  -223.78   100.00   34.04   -223.78   -251.76 
 2017-07-05 03:17:24  -223.78   100.00   34.04   -223.78   -251.76 
 2017-07-05 03:16:52  -223.78   100.00   34.04   -223.78   -251.76 
 2017-07-05 03:16:20  -223.78   100.00   34.04   -223.78   -251.76 
 2017-07-05 03:15:49  -223.78   100.00   34.04   -223.78   -251.76 
 2017-07-05 03:15:17  -223.78   100.00   34.04   -223.78   -251.76 
 2017-07-05 03:14:45  -223.78   100.00   34.04   -223.78   -251.76 
 2017-07-05 03:14:13  -223.78   100.00   34.04   -223.78   -251.76 
 2017-07-05 03:13:42  -223.78   100.00   34.04   -223.78   -251.76 
 2017-07-05 03:13:10  -223.78   100.00   34.04   -223.78   -251.76 
 2017-07-05 03:12:38  -223.78   100.00   34.04   -223.78   -251.76 
 2017-07-05 03:12:06  -223.78   100.00   34.04   -223.78   -251.76 
 2017-07-05 03:11:34  -223.78   100.00   34.04   -223.78   -251.76 
 2017-07-05 03:11:01  -223.78   100.00   34.04   -223.78   -251.76 
 2017-07-05 03:10:29  -223.78   100.00   34.04   -223.78   -251.76 
 2017-07-05 03:09:57  -223.78   100.00   34.04   -223.78   -251.76 
 2017-07-05 03:09:26  -223.78   100.00   34.04   -223.78   -251.76 
 2017-07-05 03:08:55  -223.78   100.00   34.04   -223.78   -251.76 
 2017-07-05 03:08:19  -223.78   100.00   34.04   -223.78   -251.76 
 2017-07-05 03:07:48  -223.78   100.00   34.04   -223.78   -251.76 
 2017-07-05 03:07:15  -223.78   100.00   34.04   -223.78   -251.76 
 2017-07-05 03:06:44  -223.78   100.00   34.04   -223.78   -251.76 
 2017-07-05 03:06:12  -223.78   100.00   34.04   -223.78   -251.76 
 2017-07-05 03:05:40  -223.78   100.00   34.04   -223.78   -251.76 
 2017-07-05 03:05:08  -223.78   100.00   34.04   -223.78   -251.76 
 2017-07-05 03:04:37  -223.78   100.00   34.04   -223.78   -251.76 
 2017-07-05 03:04:05  -223.78   100.00   34.04   -223.78   -251.76 
 2017-07-05 03:03:33  -223.78   100.00   34.04   -223.78   -251.76 
 2017-07-05 03:03:02  -223.78   100.00   34.04   -223.78   -251.76 
 2017-07-05 03:02:30  -223.78   100.00   34.04   -223.78   -251.76 
 2017-07-05 03:01:59  -223.78   100.00   34.04   -223.78   -251.76 
 2017-07-05 03:01:27  -223.78   100.00   34.04   -223.78   -251.76 
 2017-07-05 03:00:55  -223.78   100.00   34.04   -223.78   -251.76 
 2017-07-05 03:00:24  -223.78   100.00   34.04   -223.78   -251.76 
 2017-07-05 02:59:52  -223.78   100.00   34.04   -223.78   -251.76 
 2017-07-05 02:59:20  -223.78   100.00   34.04   -223.78   -251.76 
 2017-07-05 02:58:48  -223.78   100.00   34.04   -223.78   -251.76 
 2017-07-05 02:58:17  -223.78   100.00   34.04   -223.78   -251.76 
 2017-07-05 02:57:45  -223.78   100.00   34.04   -223.78   -251.76 
 2017-07-05 02:57:12  -223.78   100.00   34.04   -223.78   -251.76 
 2017-07-05 02:56:40  -223.78   100.00   34.04   -223.78   -251.76 
 2017-07-05 02:56:08  -223.78   100.00   34.04   -223.78   -251.76 
 2017-07-05 02:55:36  -223.78   100.00   34.04   -223.78   -251.76 
 2017-07-05 02:55:05  -223.78   100.00   34.04   -223.78   -251.76 
 2017-07-05 02:54:33  -223.78   100.00   34.04   -223.78   -251.76 
 2017-07-05 02:54:01  -223.78   100.00   34.04   -223.78   -251.76 
 2017-07-05 02:53:30  -223.78   100.00   34.04   -223.78   -251.76 
 2017-07-05 02:52:58  -223.78   100.00   34.04   -223.78   -251.76 
 2017-07-05 02:52:24  -223.78   100.00   34.04   -223.78   -251.76 
 2017-07-05 02:51:52  -223.78   100.00   34.04   -223.78   -251.76 
 2017-07-05 02:51:20  -223.78   100.00   34.04   -223.78   -251.76 
 2017-07-05 02:50:48  -223.78   100.00   34.04   -223.78   -251.76 
 2017-07-05 02:50:16  -223.78   100.00   34.04   -223.78   -251.76 
 2017-07-05 02:49:43  -223.78   100.00   34.04   -223.78   -251.76 
 2017-07-05 02:49:06  -223.78   100.00   34.04   -223.78   -251.76 
 2017-07-05 02:48:34  -223.78   100.00   34.04   -223.78   -251.76 
 2017-07-05 02:47:59  -223.78   100.00   34.04   -223.78   -251.76 
 2017-07-05 02:47:24  -223.78   100.00   34.04   -223.78   -251.76 
 2017-07-05 02:46:46  -223.78   100.00   34.04   -223.78   -251.76 
 2017-07-05 02:46:11  -223.78   100.00   34.04   -223.78   -251.76 
 2017-07-05 02:45:34  -223.78   100.00   34.04   -223.78   -251.76 
 2017-07-05 02:44:20  -223.78   100.00   34.04   -223.78   -251.76 
 2017-07-05 02:43:44  -223.78   100.00   34.04   -223.78   -251.76 
 2017-07-05 02:43:05  -223.78   100.00   34.04   -223.78   -251.76 
 2017-07-05 02:42:30  -223.78   100.00   34.04   -223.78   -251.76 
 2017-07-05 02:41:55  -223.78   100.00   34.04   -223.78   -251.76 
 2017-07-05 02:41:20  -223.78   100.00   34.04   -223.78   -251.76 
 2017-07-05 02:40:43  -223.78   100.00   34.04   -223.78   -251.76 
 2017-07-05 02:40:08  -223.78   100.00   34.04   -223.78   -251.76 
 2017-07-05 02:39:32  -223.78   100.00   34.04   -223.78   -251.76 
 2017-07-05 02:38:58  -223.78   100.00   34.04   -223.78   -251.76 
 2017-07-05 02:38:23  -223.78   100.00   34.04   -223.78   -251.76 
 2017-07-05 02:37:48  -223.78   100.00   34.04   -223.78   -251.76 
 2017-07-05 02:37:12  -223.78   100.00   34.04   -223.78   -251.76 
 2017-07-05 02:36:36  -223.78   100.00   34.04   -223.78   -251.76 
 2017-07-05 02:36:00  -223.78   100.00   34.04   -223.78   -251.76 
 2017-07-05 02:35:24  -223.78   100.00   34.04   -223.78   -251.76 
 2017-07-05 02:34:44  -223.78   100.00   34.04   -223.78   -251.76 
 2017-07-05 02:34:11  -223.78   100.00   34.04   -223.78   -251.76 
 2017-07-05 02:31:46  -223.78   100.00   34.04   -223.78   -251.76 
 2017-07-05 02:29:19  -223.78   100.00   34.04   -223.78   -251.76 
 2017-07-05 02:28:47  -223.78   100.00   34.04   -223.78   -251.76 
 2017-07-05 02:28:16  -223.78   100.00   34.04   -223.78   -251.76 
 2017-07-05 02:27:44  -223.78   100.00   34.04   -223.78   -251.76 
 2017-07-05 02:27:12  -223.78   100.00   34.04   -223.78   -251.76 
 2017-07-05 02:26:40  -223.78   100.00   34.04   -223.78   -251.76 
 2017-07-05 02:26:09  -223.78   100.00   34.04   -223.78   -251.76 
 2017-07-05 02:25:37  -223.78   100.00   34.04   -223.78   -251.76 
 2017-07-05 02:25:05  -223.78   100.00   34.04   -223.78   -251.76 
 2017-07-05 02:24:33  -223.78   100.00   34.04   -223.78   -251.76 
 2017-07-05 02:24:02  -223.78   100.00   34.04   -223.78   -251.76 
 2017-07-05 02:23:30  -223.78   100.00   34.04   -223.78   -251.76 
 2017-07-05 02:22:58  -223.78   100.00   34.04   -223.78   -251.76 
 2017-07-05 02:22:27  -223.78   100.00   34.04   -223.78   -251.76 
 2017-07-05 02:21:56  -223.78   100.00   34.04   -223.78   -251.76 
 2017-07-05 02:21:24  -223.78   100.00   34.04   -223.78   -251.76 
 2017-07-05 02:20:52  -223.78   100.00   34.04   -223.78   -251.76 
 2017-07-05 02:20:20  -223.78   100.00   34.04   -223.78   -251.76 
 2017-07-05 02:19:49  -223.78   100.00   34.04   -223.78   -251.76 
 2017-07-05 02:19:17  -223.78   100.00   34.04   -223.78   -251.76 
 2017-07-05 02:18:45  -223.78   100.00   34.04   -223.78   -251.76 
 2017-07-05 02:18:14  -223.78   100.00   34.04   -223.78   -251.76 
 2017-07-05 02:17:42  -223.78   100.00   34.04   -223.78   -251.76 
 2017-07-05 02:17:10  -223.78   100.00   34.04   -223.78   -251.76 
 2017-07-05 02:16:38  -223.78   100.00   34.04   -223.78   -251.76 
 2017-07-05 02:16:04  -223.78   100.00   34.04   -223.78   -251.76 
 2017-07-05 02:15:32  -223.78   100.00   34.04   -223.78   -251.76 
 2017-07-05 02:15:00  -223.78   100.00   34.04   -223.78   -251.76 
 2017-07-05 02:14:28  -223.78   100.00   34.04   -223.78   -251.76 
 2017-07-05 02:13:56  -223.78   100.00   34.04   -223.78   -251.76 
 2017-07-05 02:13:25  -223.78   100.00   34.04   -223.78   -251.76 
 2017-07-05 02:12:53  -223.78   100.00   34.04   -223.78   -251.76 
 2017-07-05 02:12:22  -223.78   100.00   34.04   -223.78   -251.76 
 2017-07-05 02:11:51  -223.78   100.00   34.04   -223.78   -251.76 
 2017-07-05 02:11:19  -223.78   100.00   34.04   -223.78   -251.76 
 2017-07-05 02:10:47  -223.78   100.00   34.04   -223.78   -251.76 
 2017-07-05 02:10:15  -223.78   100.00   34.04   -223.78   -251.76 
 2017-07-05 02:09:43  -223.78   100.00   34.04   -223.78   -251.76 
 2017-07-05 02:09:12  -223.78   100.00   34.04   -223.78   -251.76 
 2017-07-05 02:08:41  -223.78   100.00   34.04   -223.78   -251.76 
 2017-07-05 02:08:09  -223.78   100.00   34.04   -223.78   -251.76 
 2017-07-05 02:07:37  -223.78   100.00   34.04   -223.78   -251.76 
 2017-07-05 02:07:06  -223.78   100.00   34.04   -223.78   -251.76 
 2017-07-05 02:06:34  -223.78   100.00   34.04   -223.78   -251.76 
 2017-07-05 02:06:02  -223.78   100.00   34.04   -223.78   -251.76 
 2017-07-05 02:05:30  -223.78   100.00   34.04   -223.78   -251.76 
 2017-07-05 02:04:58  -223.78   100.00   34.04   -223.78   -251.76 
 2017-07-05 02:04:26  -223.78   100.00   34.04   -223.78   -251.76 
 2017-07-05 02:03:55  -223.78   100.00   34.04   -223.78   -251.76 
 2017-07-05 02:03:24  -223.78   100.00   34.04   -223.78   -251.76 
 2017-07-05 02:02:53  -223.78   100.00   34.04   -223.78   -251.76 
 2017-07-05 02:02:22  -223.78   100.00   34.04   -223.78   -251.76 
 2017-07-05 02:01:50  -223.78   100.00   34.04   -223.78   -251.76 
 2017-07-05 02:01:18  -223.78   100.00   34.04   -223.78   -251.76 
 2017-07-05 02:00:45  -223.78   100.00   34.04   -223.78   -251.76 
 2017-07-05 02:00:13  -223.78   100.00   34.04   -223.78   -251.76 
 2017-07-05 01:59:41  -223.78   100.00   34.04   -223.78   -251.76 
 2017-07-05 01:59:11  -223.78   100.00   34.04   -223.78   -251.76 
 2017-07-05 01:58:39  -223.78   100.00   34.04   -223.78   -251.76 
 2017-07-05 01:58:07  -223.78   100.00   34.04   -223.78   -251.76 
 2017-07-05 01:57:36  -223.78   100.00   34.04   -223.78   -251.76 
 2017-07-05 01:57:04  -223.78   100.00   34.04   -223.78   -251.76 
 2017-07-05 01:56:31  -223.78   100.00   34.04   -223.78   -251.76 
 2017-07-05 01:56:00  -223.78   100.00   34.04   -223.78   -251.76 
 2017-07-05 01:55:28  -223.78   100.00   34.04   -223.78   -251.76 
 2017-07-05 01:54:56  -223.78   100.00   34.04   -223.78   -251.76 
 2017-07-05 01:54:25  -223.78   100.00   34.04   -223.78   -251.76 
 2017-07-05 01:53:53  -223.78   100.00   34.04   -223.78   -251.76 
 2017-07-05 01:53:22  -223.78   100.00   34.04   -223.78   -251.76 
 2017-07-05 01:52:50  -223.78   100.00   34.04   -223.78   -251.76 
 2017-07-05 01:52:18  -223.78   100.00   34.04   -223.78   -251.76 
 2017-07-05 01:51:46  -223.78   100.00   34.04   -223.78   -251.76 
 2017-07-05 01:51:15  -223.78   100.00   34.04   -223.78   -251.76 
 2017-07-05 01:50:43  -223.78   100.00   34.04   -223.78   -251.76 
 2017-07-05 01:50:11  -223.78   100.00   34.04   -223.78   -251.76 
 2017-07-05 01:49:39  -223.78   100.00   34.04   -223.78   -251.76 
 2017-07-05 01:49:07  -223.78   100.00   34.04   -223.78   -251.76 
 2017-07-05 01:48:36  -223.78   100.00   34.04   -223.78   -251.76 
 2017-07-05 01:48:04  -223.78   100.00   34.04   -223.78   -251.76 
 2017-07-05 01:47:31  -223.78   100.00   34.04   -223.78   -251.76 
 2017-07-05 01:47:00  -223.78   100.00   34.04   -223.78   -251.76 
 2017-07-05 01:46:28  -223.78   100.00   34.04   -223.78   -251.76 
 2017-07-05 01:45:55  -223.78   100.00   34.04   -223.78   -251.76 
 2017-07-05 01:45:24  -223.78   100.00   34.04   -223.78   -251.76 
 2017-07-05 01:44:53  -223.78   100.00   34.04   -223.78   -251.76 
 2017-07-05 01:44:21  -223.78   100.00   34.04   -223.78   -251.76 
 2017-07-05 01:43:49  -223.78   100.00   34.04   -223.78   -251.76 
 2017-07-05 01:43:18  -223.78   100.00   34.04   -223.78   -251.76 
 2017-07-05 01:42:46  -223.78   100.00   34.04   -223.78   -251.76 
 2017-07-05 01:42:14  -223.78   100.00   34.04   -223.78   -251.76 
 2017-07-05 01:41:43  -223.78   100.00   34.04   -223.78   -251.76 
 2017-07-05 01:41:11  -223.78   100.00   34.04   -223.78   -251.76 
 2017-07-05 01:40:39  -223.78   100.00   34.04   -223.78   -251.76 
 2017-07-05 01:40:08  -223.78   100.00   34.04   -223.78   -251.76 
 2017-07-05 01:39:36  -223.78   100.00   34.04   -223.78   -251.76 
 2017-07-05 01:39:04  -223.78   100.00   34.04   -223.78   -251.76 
 2017-07-05 01:38:32  -223.78   100.00   34.04   -223.78   -251.76 
 2017-07-05 01:38:01  -223.78   100.00   34.04   -223.78   -251.76 
 2017-07-05 01:37:29  -223.78   100.00   34.04   -223.78   -251.76 
 2017-07-05 01:36:57  -223.78   100.00   34.04   -223.78   -251.76 
 2017-07-05 01:36:25  -223.78   100.00   34.04   -223.78   -251.76 
 2017-07-05 01:35:54  -223.78   100.00   34.04   -223.78   -251.76 
 2017-07-05 01:35:21  -223.78   100.00   34.04   -223.78   -251.76 
 2017-07-05 01:34:49  -223.78   100.00   34.04   -223.78   -251.76 
 2017-07-05 01:34:17  -223.78   100.00   34.04   -223.78   -251.76 
 2017-07-05 01:33:46  -223.78   100.00   34.04   -223.78   -251.76 
 2017-07-05 01:33:14  -223.78   100.00   34.04   -223.78   -251.76 
 2017-07-05 01:32:41  -223.78   100.00   34.04   -223.78   -251.76 
 2017-07-05 01:32:09  -223.78   100.00   34.04   -223.78   -251.76 
 2017-07-05 01:31:37  -223.78   100.00   34.04   -223.78   -251.76 
 2017-07-05 01:31:05  -223.78   100.00   34.04   -223.78   -251.76 
 2017-07-05 01:30:34  -223.78   100.00   34.04   -223.78   -251.76 
 2017-07-05 01:30:02  -223.78   100.00   34.04   -223.78   -251.76 
 2017-07-05 01:29:30  -223.78   100.00   34.04   -223.78   -251.76 
 2017-07-05 01:28:59  -223.78   100.00   34.04   -223.78   -251.76 
 2017-07-05 01:28:28  -223.78   100.00   34.04   -223.78   -251.76 
 2017-07-05 01:27:56  -223.78   100.00   34.04   -223.78   -251.76 
 2017-07-05 01:27:24  -223.78   100.00   34.04   -223.78   -251.76 
 2017-07-05 01:26:52  -223.78   100.00   34.04   -223.78   -251.76 
 2017-07-05 01:26:21  -223.78   100.00   34.04   -223.78   -251.76 
 2017-07-05 01:25:50  -223.78   100.00   34.04   -223.78   -251.76 
 2017-07-05 01:25:19  -223.78   100.00   34.04   -223.78   -251.76 
 2017-07-05 01:24:47  -223.78   100.00   34.04   -223.78   -251.76 
 2017-07-05 01:24:15  -223.78   100.00   34.04   -223.78   -251.76 
 2017-07-05 01:23:44  -223.78   100.00   34.04   -223.78   -251.76 
 2017-07-05 01:23:12  -223.78   100.00   34.04   -223.78   -251.76 
 2017-07-05 01:22:40  -223.78   100.00   34.04   -223.78   -251.76 
 2017-07-05 01:22:09  -223.78   100.00   34.04   -223.78   -251.76 
 2017-07-05 01:21:37  -223.78   100.00   34.04   -223.78   -251.76 
 2017-07-05 01:21:05  -223.78   100.00   34.04   -223.78   -251.76 
 2017-07-05 01:20:34  -223.78   100.00   34.04   -223.78   -251.76 
 2017-07-05 01:20:02  -223.78   100.00   34.04   -223.78   -251.76 
 2017-07-05 01:19:30  -223.78   100.00   34.04   -223.78   -251.76 
 2017-07-05 01:18:59  -223.78   100.00   34.04   -223.78   -251.76 
 2017-07-05 01:18:27  -223.78   100.00   34.04   -223.78   -251.76 
 2017-07-05 01:17:56  -223.78   100.00   34.04   -223.78   -251.76 
 2017-07-05 01:17:24  -223.78   100.00   34.04   -223.78   -251.76 
 2017-07-05 01:16:53  -223.78   100.00   34.04   -223.78   -251.76 
 2017-07-05 01:16:21  -223.78   100.00   34.04   -223.78   -251.76 
 2017-07-05 01:15:50  -223.78   100.00   34.04   -223.78   -251.76 
 2017-07-05 01:15:18  -223.78   100.00   34.04   -223.78   -251.76 
 2017-07-05 01:14:46  -223.78   100.00   34.04   -223.78   -251.76 
 2017-07-05 01:14:14  -223.78   100.00   34.04   -223.78   -251.76 
 2017-07-05 01:13:43  -223.78   100.00   34.04   -223.78   -251.76 
 2017-07-05 01:13:11  -223.78   100.00   34.04   -223.78   -251.76 
 2017-07-05 01:12:39  -223.78   100.00   34.04   -223.78   -251.76 
 2017-07-05 01:12:07  -223.78   100.00   34.04   -223.78   -251.76 
 2017-07-05 01:11:36  -223.78   100.00   34.04   -223.78   -251.76 
 2017-07-05 01:11:04  -223.78   100.00   34.04   -223.78   -251.76 
 2017-07-05 01:10:31  -223.78   100.00   34.04   -223.78   -251.76 
 2017-07-05 01:10:00  -223.78   100.00   34.04   -223.78   -251.76 
 2017-07-05 01:09:28  -223.78   100.00   34.04   -223.78   -251.76 
 2017-07-05 01:08:56  -223.78   100.00   34.04   -223.78   -251.76 
 2017-07-05 01:08:25  -223.78   100.00   34.04   -223.78   -251.76 
 2017-07-05 01:07:53  -223.78   100.00   34.04   -223.78   -251.76 
 2017-07-05 01:07:22  -223.78   100.00   34.04   -223.78   -251.76 
 2017-07-05 01:06:50  -223.78   100.00   34.04   -223.78   -251.76 
 2017-07-05 01:06:17  -223.78   100.00   34.04   -223.78   -251.76 
 2017-07-05 01:05:45  -223.78   100.00   34.04   -223.78   -251.76 
 2017-07-05 01:05:13  -223.78   100.00   34.04   -223.78   -251.76 
 2017-07-05 01:04:42  -223.78   100.00   34.04   -223.78   -251.76 
 2017-07-05 01:04:10  -223.78   100.00   34.04   -223.78   -251.76 
 2017-07-05 01:03:39  -223.78   100.00   34.04   -223.78   -251.76 
 2017-07-05 01:03:07  -223.78   100.00   34.04   -223.78   -251.76 
 2017-07-05 01:02:35  -223.78   100.00   34.04   -223.78   -251.76 
 2017-07-05 01:02:04  -223.78   100.00   34.04   -223.78   -251.76 
 2017-07-05 01:01:32  -223.78   100.00   34.04   -223.78   -251.76 
 2017-07-05 01:01:00  -223.78   100.00   34.04   -223.78   -251.76 
 2017-07-05 01:00:29  -223.78   100.00   34.04   -223.78   -251.76 
 2017-07-05 00:59:57  -223.78   100.00   34.04   -223.78   -251.76 
 2017-07-05 00:59:25  -223.78   100.00   34.04   -223.78   -251.76 
 2017-07-05 00:58:53  -223.78   100.00   34.04   -223.78   -251.76 
 2017-07-05 00:58:22  -223.78   100.00   34.04   -223.78   -251.76 
 2017-07-05 00:57:50  -223.78   100.00   34.04   -223.78   -251.76 
 2017-07-05 00:57:18  -223.78   100.00   34.04   -223.78   -251.76 
 2017-07-05 00:56:46  -223.78   100.00   34.04   -223.78   -251.76 
 2017-07-05 00:56:14  -223.78   100.00   34.04   -223.78   -251.76 
 2017-07-05 00:55:42  -223.78   100.00   34.04   -223.78   -251.76 
 2017-07-05 00:55:10  -223.78   100.00   34.04   -223.78   -251.76 
 2017-07-05 00:54:39  -223.78   100.00   34.04   -223.78   -251.76 
 2017-07-05 00:54:07  -223.78   100.00   34.04   -223.78   -251.76 
 2017-07-05 00:53:35  -223.78   100.00   34.04   -223.78   -251.76 
 2017-07-05 00:53:03  -223.78   100.00   34.04   -223.78   -251.76 
 2017-07-05 00:52:32  -223.78   100.00   34.04   -223.78   -251.76 
 2017-07-05 00:52:00  -223.78   100.00   34.04   -223.78   -251.76 
 2017-07-05 00:51:28  -223.78   100.00   34.04   -223.78   -251.76 
 2017-07-05 00:50:57  -223.78   100.00   34.04   -223.78   -251.76 
 2017-07-05 00:50:25  -223.78   100.00   34.04   -223.78   -251.76 
 2017-07-05 00:49:53  -223.78   100.00   34.04   -223.78   -251.76 
 2017-07-05 00:49:21  -223.78   100.00   34.04   -223.78   -251.76 
 2017-07-05 00:48:50  -223.78   100.00   34.04   -223.78   -251.76 
 2017-07-05 00:48:18  -223.78   100.00   34.04   -223.78   -251.76 
 2017-07-05 00:47:46  -223.78   100.00   34.04   -223.78   -251.76 
 2017-07-05 00:47:14  -223.78   100.00   34.04   -223.78   -251.76 
 2017-07-05 00:46:43  -223.78   100.00   34.04   -223.78   -251.76 
 2017-07-05 00:46:11  -223.78   100.00   34.04   -223.78   -251.76 
 2017-07-05 00:45:40  -223.78   100.00   34.04   -223.78   -251.76 
 2017-07-05 00:45:09  -223.78   100.00   34.04   -223.78   -251.76 
 2017-07-05 00:44:36  -223.78   100.00   34.04   -223.78   -251.76 
 2017-07-05 00:44:05  -223.78   100.00   34.04   -223.78   -251.76 
 2017-07-05 00:43:34  -223.78   100.00   34.04   -223.78   -251.76 
 2017-07-05 00:43:03  -223.78   100.00   34.04   -223.78   -251.76 
 2017-07-05 00:42:32  -223.78   100.00   34.04   -223.78   -251.76 
 2017-07-05 00:42:00  -223.78   100.00   34.04   -223.78   -251.76 
 2017-07-05 00:41:29  -223.78   100.00   34.04   -223.78   -251.76 
 2017-07-05 00:40:57  -223.78   100.00   34.04   -223.78   -251.76 
 2017-07-05 00:40:26  -223.78   100.00   34.04   -223.78   -251.76 
 2017-07-05 00:39:54  -223.78   100.00   34.04   -223.78   -251.76 
 2017-07-05 00:39:22  -223.78   100.00   34.04   -223.78   -251.76 
 2017-07-05 00:38:51  -223.78   100.00   34.04   -223.78   -251.76 
 2017-07-05 00:38:19  -223.78   100.00   34.04   -223.78   -251.76 
 2017-07-05 00:37:47  -223.78   100.00   34.04   -223.78   -251.76 
 2017-07-05 00:37:16  -223.78   100.00   34.04   -223.78   -251.76 
 2017-07-05 00:36:45  -223.78   100.00   34.04   -223.78   -251.76 
 2017-07-05 00:36:13  -223.78   100.00   34.04   -223.78   -251.76 
 2017-07-05 00:35:41  -223.78   100.00   34.04   -223.78   -251.76 
 2017-07-05 00:35:09  -223.78   100.00   34.04   -223.78   -251.76 
 2017-07-05 00:34:37  -223.78   100.00   34.04   -223.78   -251.76 
 2017-07-05 00:34:06  -223.78   100.00   34.04   -223.78   -251.76 
 2017-07-05 00:33:35  -223.78   100.00   34.04   -223.78   -251.76 
 2017-07-05 00:33:03  -223.78   100.00   34.04   -223.78   -251.76 
 2017-07-05 00:32:32  -223.78   100.00   34.04   -223.78   -251.76 
 2017-07-05 00:32:00  -223.78   100.00   34.04   -223.78   -251.76 
 2017-07-05 00:31:29  -223.78   100.00   34.04   -223.78   -251.76 
 2017-07-05 00:30:57  -223.78   100.00   34.04   -223.78   -251.76 
 2017-07-05 00:30:26  -223.78   100.00   34.04   -223.78   -251.76 
 2017-07-05 00:29:54  -223.78   100.00   34.04   -223.78   -251.76 
 2017-07-05 00:29:23  -223.78   100.00   34.04   -223.78   -251.76 
 2017-07-05 00:28:51  -223.78   100.00   34.04   -223.78   -251.76 
 2017-07-05 00:28:19  -223.78   100.00   34.04   -223.78   -251.76 
 2017-07-05 00:27:47  -223.78   100.00   34.04   -223.78   -251.76 
 2017-07-05 00:27:16  -223.78   100.00   34.04   -223.78   -251.76 
 2017-07-05 00:26:44  -223.78   100.00   34.04   -223.78   -251.76 
 2017-07-05 00:26:12  -223.78   100.00   34.04   -223.78   -251.76 
 2017-07-05 00:25:40  -223.78   100.00   34.04   -223.78   -251.76 
 2017-07-05 00:25:09  -223.78   100.00   34.04   -223.78   -251.76 
 2017-07-05 00:24:37  -223.78   100.00   34.04   -223.78   -251.76 
 2017-07-05 00:24:05  -223.78   100.00   34.04   -223.78   -251.76 
 2017-07-05 00:23:34  -223.78   100.00   34.04   -223.78   -251.76 
 2017-07-05 00:23:02  -223.78   100.00   34.04   -223.78   -251.76 
 2017-07-05 00:22:29  -223.78   100.00   34.04   -223.78   -251.76 
 2017-07-05 00:21:57  -223.78   100.00   34.04   -223.78   -251.76 
 2017-07-05 00:21:26  -223.78   100.00   34.04   -223.78   -251.76 
 2017-07-05 00:20:54  -223.78   100.00   34.04   -223.78   -251.76 
 2017-07-05 00:20:23  -223.78   100.00   34.04   -223.78   -251.76 
 2017-07-05 00:19:51  -223.78   100.00   34.04   -223.78   -251.76 
 2017-07-05 00:19:19  -223.78   100.00   34.04   -223.78   -251.76 
 2017-07-05 00:18:48  -223.78   100.00   34.04   -223.78   -251.76 
 2017-07-05 00:18:16  -223.78   100.00   34.04   -223.78   -251.76 
 2017-07-05 00:17:44  -223.78   100.00   34.04   -223.78   -251.76 
 2017-07-05 00:17:12  -223.78   100.00   34.04   -223.78   -251.76 
 2017-07-05 00:16:41  -223.78   100.00   34.04   -223.78   -251.76 
 2017-07-05 00:16:10  -223.78   100.00   34.04   -223.78   -251.76 
 2017-07-05 00:15:38  -223.78   100.00   34.04   -223.78   -251.76 
 2017-07-05 00:15:06  -223.78   100.00   34.04   -223.78   -251.76 
 2017-07-05 00:14:35  -223.78   100.00   34.04   -223.78   -251.76 
 2017-07-05 00:14:02  -223.78   100.00   34.04   -223.78   -251.76 
 2017-07-05 00:13:31  -223.78   100.00   34.04   -223.78   -251.76 
 2017-07-05 00:13:00  -223.78   100.00   34.04   -223.78   -251.76 
 2017-07-05 00:12:28  -223.78   100.00   34.04   -223.78   -251.76 
 2017-07-05 00:11:56  -223.78   100.00   34.04   -223.78   -251.76 
 2017-07-05 00:11:24  -223.78   100.00   34.04   -223.78   -251.76 
 2017-07-05 00:10:52  -223.78   100.00   34.04   -223.78   -251.76 
 2017-07-05 00:10:21  -223.78   100.00   34.04   -223.78   -251.76 
 2017-07-05 00:09:50  -223.78   100.00   34.04   -223.78   -251.76 
 2017-07-05 00:09:17  -223.78   100.00   34.04   -223.78   -251.76 
 2017-07-05 00:08:46  -223.78   100.00   34.04   -223.78   -251.76 
 2017-07-05 00:08:13  -223.78   100.00   34.04   -223.78   -251.76 
 2017-07-05 00:07:40  -223.78   100.00   34.04   -223.78   -251.76 
 2017-07-05 00:07:08  -223.78   100.00   34.04   -223.78   -251.76 
 2017-07-05 00:06:37  -223.78   100.00   34.04   -223.78   -251.76 
 2017-07-05 00:06:06  -223.78   100.00   34.04   -223.78   -251.76 
 2017-07-05 00:05:35  -223.78   100.00   34.04   -223.78   -251.76 
 2017-07-05 00:05:04  -223.78   100.00   34.04   -223.78   -251.76 
 2017-07-05 00:04:32  -223.78   100.00   34.04   -223.78   -251.76 
 2017-07-05 00:04:00  -223.78   100.00   34.04   -223.78   -251.76 
 2017-07-05 00:03:29  -223.78   100.00   34.04   -223.78   -251.76 
 2017-07-05 00:02:57  -223.78   100.00   34.04   -223.78   -251.76 
 2017-07-05 00:02:26  -223.78   100.00   34.04   -223.78   -251.76 
 2017-07-05 00:01:55  -223.78   100.00   34.04   -223.78   -251.76 
 2017-07-05 00:01:24  -223.78   100.00   34.04   -223.78   -251.76 
 2017-07-05 00:00:52  -223.78   100.00   34.04   -223.78   -251.76 
 2017-07-05 00:00:21  -223.78   100.00   34.04   -223.78   -251.76 
 2017-07-04 23:59:49  -223.78   100.00   34.04   -223.78   -251.76 
 2017-07-04 23:59:18  -223.78   100.00   34.04   -223.78   -251.76 
 2017-07-04 23:58:46  -223.78   100.00   34.04   -223.78   -251.76 
 2017-07-04 23:58:14  -223.78   100.00   34.04   -223.78   -251.76 
 2017-07-04 23:57:43  -223.78   100.00   34.04   -223.78   -251.76 
 2017-07-04 23:57:11  -223.78   100.00   34.04   -223.78   -251.76 
 2017-07-04 23:56:40  -223.78   100.00   34.04   -223.78   -251.76 
 2017-07-04 23:56:08  -223.78   100.00   34.04   -223.78   -251.76 
 2017-07-04 23:55:36  -223.78   100.00   34.04   -223.78   -251.76 
 2017-07-04 23:55:04  -223.78   100.00   34.04   -223.78   -251.76 
 2017-07-04 23:54:33  -223.78   100.00   34.04   -223.78   -251.76 
 2017-07-04 23:54:01  -223.78   100.00   34.04   -223.78   -251.76 
 2017-07-04 23:53:29  -223.78   100.00   34.04   -223.78   -251.76 
 2017-07-04 23:52:54  -223.78   100.00   34.04   -223.78   -251.76 
 2017-07-04 23:52:22  -223.78   100.00   34.04   -223.78   -251.76 
 2017-07-04 23:51:51  -223.78   100.00   34.04   -223.78   -251.76 
 2017-07-04 23:51:19  -223.78   100.00   34.04   -223.78   -251.76 
 2017-07-04 23:50:48  -223.78   100.00   34.04   -223.78   -251.76 
 2017-07-04 23:50:17  -223.78   100.00   34.04   -223.78   -251.76 
 2017-07-04 23:49:45  -223.78   100.00   34.04   -223.78   -251.76 
 2017-07-04 23:49:13  -223.78   100.00   34.04   -223.78   -251.76 
 2017-07-04 23:48:41  -223.78   100.00   34.04   -223.78   -251.76 
 2017-07-04 23:48:09  -223.78   100.00   34.04   -223.78   -251.76 
 2017-07-04 23:47:37  -223.78   100.00   34.04   -223.78   -251.76 
 2017-07-04 23:47:06  -223.78   100.00   34.04   -223.78   -251.76 
 2017-07-04 23:46:34  -223.78   100.00   34.04   -223.78   -251.76 
 2017-07-04 23:46:03  -223.78   100.00   34.04   -223.78   -251.76 
 2017-07-04 23:45:32  -223.78   100.00   34.04   -223.78   -251.76 
 2017-07-04 23:45:00  -223.78   100.00   34.04   -223.78   -251.76 
 2017-07-04 23:44:29  -223.78   100.00   34.04   -223.78   -251.76 
 2017-07-04 23:43:57  -223.78   100.00   34.04   -223.78   -251.76 
 2017-07-04 23:43:26  -223.78   100.00   34.04   -223.78   -251.76 
 2017-07-04 23:42:55  -223.78   100.00   34.04   -223.78   -251.76 
 2017-07-04 23:42:24  -223.78   100.00   34.04   -223.78   -251.76 
 2017-07-04 23:41:53  -223.78   100.00   34.04   -223.78   -251.76 
 2017-07-04 23:41:22  -223.78   100.00   34.04   -223.78   -251.76 
 2017-07-04 23:40:49  -223.78   100.00   34.04   -223.78   -251.76 
 2017-07-04 23:40:18  -223.78   100.00   34.04   -223.78   -251.76 
 2017-07-04 23:39:47  -223.78   100.00   34.04   -223.78   -251.76 
 2017-07-04 23:39:16  -223.78   100.00   34.04   -223.78   -251.76 
 2017-07-04 23:38:45  -223.78   100.00   34.04   -223.78   -251.76 
 2017-07-04 23:38:13  -223.78   100.00   34.04   -223.78   -251.76 
 2017-07-04 23:37:42  -223.78   100.00   34.04   -223.78   -251.76 
 2017-07-04 23:37:10  -223.78   100.00   34.04   -223.78   -251.76 
 2017-07-04 23:36:39  -223.78   100.00   34.04   -223.78   -251.76 
 2017-07-04 23:36:08  -223.78   100.00   34.04   -223.78   -251.76 
 2017-07-04 23:35:36  -223.78   100.00   34.04   -223.78   -251.76 
 2017-07-04 23:35:05  -223.78   100.00   34.04   -223.78   -251.76 
 2017-07-04 23:34:34  -223.78   100.00   34.04   -223.78   -251.76 
 2017-07-04 23:34:02  -223.78   100.00   34.04   -223.78   -251.76 
 2017-07-04 23:33:30  -223.78   100.00   34.04   -223.78   -251.76 
 2017-07-04 23:32:59  -223.78   100.00   34.04   -223.78   -251.76 
 2017-07-04 23:32:28  -223.78   100.00   34.04   -223.78   -251.76 
 2017-07-04 23:31:56  -223.78   100.00   34.04   -223.78   -251.76 
 2017-07-04 23:31:23  -223.78   100.00   34.04   -223.78   -251.76 
 2017-07-04 23:30:48  -223.78   100.00   34.04   -223.78   -251.76 
 2017-07-04 23:30:17  -223.78   100.00   34.04   -223.78   -251.76 
 2017-07-04 23:29:45  -223.78   100.00   34.04   -223.78   -251.76 
 2017-07-04 23:29:12  -223.78   100.00   34.04   -223.78   -251.76 
 2017-07-04 23:28:41  -223.78   100.00   34.04   -223.78   -251.76 
 2017-07-04 23:28:07  -223.78   100.00   34.04   -223.78   -251.76 
 2017-07-04 23:27:35  -223.78   100.00   34.04   -223.78   -251.76 
 2017-07-04 23:27:02  -223.78   100.00   34.04   -223.78   -251.76 
 2017-07-04 23:26:30  -223.78   100.00   34.04   -223.78   -251.76 
 2017-07-04 23:25:59  -223.78   100.00   34.04   -223.78   -251.76 
 2017-07-04 23:25:27  -223.78   100.00   34.04   -223.78   -251.76 
 2017-07-04 23:24:55  -223.78   100.00   34.04   -223.78   -251.76 
 2017-07-04 23:24:23  -223.78   100.00   34.04   -223.78   -251.76 
 2017-07-04 23:23:52  -223.78   100.00   34.04   -223.78   -251.76 
 2017-07-04 23:23:20  -223.78   100.00   34.04   -223.78   -251.76 
 2017-07-04 23:22:48  -223.78   100.00   34.04   -223.78   -251.76 
 2017-07-04 23:22:16  -223.78   100.00   34.04   -223.78   -251.76 
 2017-07-04 23:21:45  -223.78   100.00   34.04   -223.78   -251.76 
 2017-07-04 23:21:19  -223.78   100.00   34.04   -223.78   -251.76 
 2017-07-04 23:20:38  -223.78   100.00   34.04   -223.78   -251.76 
 2017-07-04 23:20:06  -223.78   100.00   34.04   -223.78   -251.76 
 2017-07-04 23:19:34  -223.78   100.00   34.04   -223.78   -251.76 
 2017-07-04 23:19:03  -223.78   100.00   34.04   -223.78   -251.76 
 2017-07-04 23:18:32  -223.78   100.00   34.04   -223.78   -251.76 
 2017-07-04 23:18:01  -223.78   100.00   34.04   -223.78   -251.76 
 2017-07-04 23:17:29  -223.78   100.00   34.04   -223.78   -251.76 
 2017-07-04 23:16:58  -223.78   100.00   34.04   -223.78   -251.76 
 2017-07-04 23:16:25  -223.78   100.00   34.04   -223.78   -251.76 
 2017-07-04 23:15:53  -223.78   100.00   34.04   -223.78   -251.76 
 2017-07-04 23:15:22  -223.78   100.00   34.04   -223.78   -251.76 
 2017-07-04 23:14:51  -223.78   100.00   34.04   -223.78   -251.76 
 2017-07-04 23:14:19  -223.78   100.00   34.04   -223.78   -251.76 
 2017-07-04 23:13:47  -223.78   100.00   34.04   -223.78   -251.76 
 2017-07-04 23:13:15  -223.78   100.00   34.04   -223.78   -251.76 
 2017-07-04 23:12:43  -223.78   100.00   34.04   -223.78   -251.76 
 2017-07-04 23:12:12  -223.78   100.00   34.04   -223.78   -251.76 
 2017-07-04 23:11:40  -223.78   100.00   34.04   -223.78   -251.76 
 2017-07-04 23:11:08  -223.78   100.00   34.04   -223.78   -251.76 
 2017-07-04 23:10:36  -223.78   100.00   34.04   -223.78   -251.76 
 2017-07-04 23:10:04  -223.78   100.00   34.04   -223.78   -251.76 
 2017-07-04 23:09:32  -223.78   100.00   34.04   -223.78   -251.76 
 2017-07-04 23:09:01  -223.78   100.00   34.04   -223.78   -251.76 
 2017-07-04 23:08:29  -223.78   100.00   34.04   -223.78   -251.76 
 2017-07-04 23:07:58  -223.78   100.00   34.04   -223.78   -251.76 
 2017-07-04 23:07:27  -223.78   100.00   34.04   -223.78   -251.76 
 2017-07-04 23:06:55  -223.78   100.00   34.04   -223.78   -251.76 
 2017-07-04 23:06:22  -223.78   100.00   34.04   -223.78   -251.76 
 2017-07-04 23:05:50  -223.78   100.00   34.04   -223.78   -251.76 
 2017-07-04 23:05:18  -223.78   100.00   34.04   -223.78   -251.76 
 2017-07-04 23:04:47  -223.78   100.00   34.04   -223.78   -251.76 
 2017-07-04 23:04:15  -223.78   100.00   34.04   -223.78   -251.76 
 2017-07-04 23:03:43  -223.78   100.00   34.04   -223.78   -251.76 
 2017-07-04 23:03:12  -223.78   100.00   34.04   -223.78   -251.76 
 2017-07-04 23:02:40  -223.78   100.00   34.04   -223.78   -251.76 
 2017-07-04 23:02:09  -223.78   100.00   34.04   -223.78   -251.76 
 2017-07-04 23:01:38  -223.78   100.00   34.04   -223.78   -251.76 
 2017-07-04 23:01:07  -223.78   100.00   34.04   -223.78   -251.76 
 2017-07-04 23:00:35  -223.78   100.00   34.04   -223.78   -251.76 
 2017-07-04 23:00:03  -223.78   100.00   34.04   -223.78   -251.76 
 2017-07-04 22:59:31  -223.78   100.00   34.04   -223.78   -251.76 
 2017-07-04 22:59:00  -223.78   100.00   34.04   -223.78   -251.76 
 2017-07-04 22:58:28  -223.78   100.00   34.04   -223.78   -251.76 
 2017-07-04 22:57:56  -223.78   100.00   34.04   -223.78   -251.76 
 2017-07-04 22:57:24  -223.78   100.00   34.04   -223.78   -251.76 
 2017-07-04 22:56:52  -223.78   100.00   34.04   -223.78   -251.76 
 2017-07-04 22:56:21  -223.78   100.00   34.04   -223.78   -251.76 
 2017-07-04 22:55:49  -223.78   100.00   34.04   -223.78   -251.76 
 2017-07-04 22:55:17  -223.78   100.00   34.04   -223.78   -251.76 
 2017-07-04 22:54:45  -223.78   100.00   34.04   -223.78   -251.76 
 2017-07-04 22:54:13  -223.78   100.00   34.04   -223.78   -251.76 
 2017-07-04 22:53:41  -223.78   100.00   34.04   -223.78   -251.76 
 2017-07-04 22:53:09  -223.78   100.00   34.04   -223.78   -251.76 
 2017-07-04 22:52:38  -223.78   100.00   34.04   -223.78   -251.76 
 2017-07-04 22:52:06  -223.78   100.00   34.04   -223.78   -251.76 
 2017-07-04 22:51:32  -223.78   100.00   34.04   -223.78   -251.76 
 2017-07-04 22:51:01  -223.78   100.00   34.04   -223.78   -251.76 
 2017-07-04 22:50:29  -223.78   100.00   34.04   -223.78   -251.76 
 2017-07-04 22:49:57  -223.78   100.00   34.04   -223.78   -251.76 
 2017-07-04 22:49:26  -223.78   100.00   34.04   -223.78   -251.76 
 2017-07-04 22:48:54  -223.78   100.00   34.04   -223.78   -251.76 
 2017-07-04 22:48:22  -223.78   100.00   34.04   -223.78   -251.76 
 2017-07-04 22:47:51  -223.78   100.00   34.04   -223.78   -251.76 
 2017-07-04 22:47:19  -223.78   100.00   34.04   -223.78   -251.76 
 2017-07-04 22:46:48  -223.78   100.00   34.04   -223.78   -251.76 
 2017-07-04 22:46:16  -223.78   100.00   34.04   -223.78   -251.76 
 2017-07-04 22:45:44  -223.78   100.00   34.04   -223.78   -251.76 
 2017-07-04 22:45:12  -223.78   100.00   34.04   -223.78   -251.76 
 2017-07-04 22:44:40  -223.78   100.00   34.04   -223.78   -251.76 
 2017-07-04 22:44:08  -223.78   100.00   34.04   -223.78   -251.76 
 2017-07-04 22:43:36  -223.78   100.00   34.04   -223.78   -251.76 
 2017-07-04 22:43:04  -223.78   100.00   34.04   -223.78   -251.76 
 2017-07-04 22:42:33  -223.78   100.00   34.04   -223.78   -251.76 
 2017-07-04 22:42:02  -223.78   100.00   34.04   -223.78   -251.76 
 2017-07-04 22:41:30  -223.78   100.00   34.04   -223.78   -251.76 
 2017-07-04 22:40:59  -223.78   100.00   34.04   -223.78   -251.76 
 2017-07-04 22:40:28  -223.78   100.00   34.04   -223.78   -251.76 
 2017-07-04 22:39:55  -223.78   100.00   34.04   -223.78   -251.76 
 2017-07-04 22:39:24  -223.78   100.00   34.04   -223.78   -251.76 
 2017-07-04 22:38:53  -223.78   100.00   34.04   -223.78   -251.76 
 2017-07-04 22:38:22  -223.78   100.00   34.04   -223.78   -251.76 
 2017-07-04 22:37:51  -223.78   100.00   34.04   -223.78   -251.76 
 2017-07-04 22:37:19  -223.78   100.00   34.04   -223.78   -251.76 
 2017-07-04 22:36:48  -223.78   100.00   34.04   -223.78   -251.76 
 2017-07-04 22:36:15  -223.78   100.00   34.04   -223.78   -251.76 
 2017-07-04 22:35:44  -223.78   100.00   34.04   -223.78   -251.76 
 2017-07-04 22:35:13  -223.78   100.00   34.04   -223.78   -251.76 
 2017-07-04 22:34:41  -223.78   100.00   34.04   -223.78   -251.76 
 2017-07-04 22:34:09  -223.78   100.00   34.04   -223.78   -251.76 
 2017-07-04 22:33:38  -223.78   100.00   34.04   -223.78   -251.76 
 2017-07-04 22:33:06  -223.78   100.00   34.04   -223.78   -251.76 
 2017-07-04 22:32:34  -223.78   100.00   34.04   -223.78   -251.76 
 2017-07-04 22:32:02  -223.78   100.00   34.04   -223.78   -251.76 
 2017-07-04 22:31:31  -223.78   100.00   34.04   -223.78   -251.76 
 2017-07-04 22:30:58  -223.78   100.00   34.04   -223.78   -251.76 
 2017-07-04 22:30:26  -223.78   100.00   34.04   -223.78   -251.76 
 2017-07-04 22:29:54  -223.78   100.00   34.04   -223.78   -251.76 
 2017-07-04 22:29:23  -223.78   100.00   34.04   -223.78   -251.76 
 2017-07-04 22:28:51  -223.78   100.00   34.04   -223.78   -251.76 
 2017-07-04 22:28:19  -223.78   100.00   34.04   -223.78   -251.76 
 2017-07-04 22:27:47  -223.78   100.00   34.04   -223.78   -251.76 
 2017-07-04 22:27:16  -223.78   100.00   34.04   -223.78   -251.76 
 2017-07-04 22:26:45  -223.78   100.00   34.04   -223.78   -251.76 
 2017-07-04 22:26:13  -223.78   100.00   34.04   -223.78   -251.76 
 2017-07-04 22:25:42  -223.78   100.00   34.04   -223.78   -251.76 
 2017-07-04 22:25:11  -223.78   100.00   34.04   -223.78   -251.76 
 2017-07-04 22:24:40  -223.78   100.00   34.04   -223.78   -251.76 
 2017-07-04 22:24:09  -223.78   100.00   34.04   -223.78   -251.76 
 2017-07-04 22:23:38  -223.78   100.00   34.04   -223.78   -251.76 
 2017-07-04 22:23:06  -223.78   100.00   34.04   -223.78   -251.76 
 2017-07-04 22:22:31  -223.78   100.00   34.04   -223.78   -251.76 
 2017-07-04 22:22:00  -223.78   100.00   34.04   -223.78   -251.76 
 2017-07-04 22:21:26  -223.78   100.00   34.04   -223.78   -251.76 
 2017-07-04 22:20:55  -223.78   100.00   34.04   -223.78   -251.76 
 2017-07-04 22:20:23  -223.78   100.00   34.04   -223.78   -251.76 
 2017-07-04 22:19:52  -223.78   100.00   34.04   -223.78   -251.76 
 2017-07-04 22:19:20  -223.78   100.00   34.04   -223.78   -251.76 
 2017-07-04 22:18:49  -223.78   100.00   34.04   -223.78   -251.76 
 2017-07-04 22:18:17  -223.78   100.00   34.04   -223.78   -251.76 
 2017-07-04 22:17:45  -223.78   100.00   34.04   -223.78   -251.76 
 2017-07-04 22:17:13  -223.78   100.00   34.04   -223.78   -251.76 
 2017-07-04 22:16:42  -223.78   100.00   34.04   -223.78   -251.76 
 2017-07-04 22:16:11  -223.78   100.00   34.04   -223.78   -251.76 
 2017-07-04 22:15:40  -223.78   100.00   34.04   -223.78   -251.76 
 2017-07-04 22:15:08  -223.78   100.00   34.04   -223.78   -251.76 
 2017-07-04 22:14:37  -223.78   100.00   34.04   -223.78   -251.76 
 2017-07-04 22:14:06  -223.78   100.00   34.04   -223.78   -251.76 
 2017-07-04 22:13:35  -223.78   100.00   34.04   -223.78   -251.76 
 2017-07-04 22:13:04  -223.78   100.00   34.04   -223.78   -251.76 
 2017-07-04 22:12:32  -223.78   100.00   34.04   -223.78   -251.76 
 2017-07-04 22:12:01  -223.78   100.00   34.04   -223.78   -251.76 
 2017-07-04 22:11:29  -223.78   100.00   34.04   -223.78   -251.76 
 2017-07-04 22:10:57  -223.78   100.00   34.04   -223.78   -251.76 
 2017-07-04 22:10:26  -223.78   100.00   34.04   -223.78   -251.76 
 2017-07-04 22:09:55  -223.78   100.00   34.04   -223.78   -251.76 
 2017-07-04 22:09:23  -223.78   100.00   34.04   -223.78   -251.76 
 2017-07-04 22:08:52  -223.78   100.00   34.04   -223.78   -251.76 
 2017-07-04 22:08:20  -223.78   100.00   34.04   -223.78   -251.76 
 2017-07-04 22:07:48  -223.78   100.00   34.04   -223.78   -251.76 
 2017-07-04 22:07:17  -223.78   100.00   34.04   -223.78   -251.76 
 2017-07-04 22:06:46  -223.78   100.00   34.04   -223.78   -251.76 
 2017-07-04 22:06:15  -223.78   100.00   34.04   -223.78   -251.76 
 2017-07-04 22:05:43  -223.78   100.00   34.04   -223.78   -251.76 
 2017-07-04 22:05:12  -223.78   100.00   34.04   -223.78   -251.76 
 2017-07-04 22:04:40  -223.78   100.00   34.04   -223.78   -251.76 
 2017-07-04 22:04:09  -223.78   100.00   34.04   -223.78   -251.76 
 2017-07-04 22:03:38  -223.78   100.00   34.04   -223.78   -251.76 
 2017-07-04 22:03:06  -223.78   100.00   34.04   -223.78   -251.76 
 2017-07-04 22:02:35  -223.78   100.00   34.04   -223.78   -251.76 
 2017-07-04 22:02:04  -223.78   100.00   34.04   -223.78   -251.76 
 2017-07-04 22:01:32  -223.78   100.00   34.04   -223.78   -251.76 
 2017-07-04 22:01:00  -223.78   100.00   34.04   -223.78   -251.76 
 2017-07-04 22:00:29  -223.78   100.00   34.04   -223.78   -251.76 
 2017-07-04 21:59:58  -223.78   100.00   34.04   -223.78   -251.76 
 2017-07-04 21:59:27  -223.78   100.00   34.04   -223.78   -251.76 
 2017-07-04 21:58:55  -223.78   100.00   34.04   -223.78   -251.76 
 2017-07-04 21:58:23  -223.78   100.00   34.04   -223.78   -251.76 
 2017-07-04 21:57:52  -223.78   100.00   34.04   -223.78   -251.76 
 2017-07-04 21:57:21  -223.78   100.00   34.04   -223.78   -251.76 
 2017-07-04 21:56:49  -223.78   100.00   34.04   -223.78   -251.76 
 2017-07-04 21:56:17  -223.78   100.00   34.04   -223.78   -251.76 
 2017-07-04 21:55:46  -223.78   100.00   34.04   -223.78   -251.76 
 2017-07-04 21:55:14  -223.78   100.00   34.04   -223.78   -251.76 
 2017-07-04 21:54:42  -223.78   100.00   34.04   -223.78   -251.76 
 2017-07-04 21:54:11  -223.78   100.00   34.04   -223.78   -251.76 
 2017-07-04 21:53:39  -223.78   100.00   34.04   -223.78   -251.76 
 2017-07-04 21:53:08  -223.78   100.00   34.04   -223.78   -251.76 
 2017-07-04 21:52:37  -223.78   100.00   34.04   -223.78   -251.76 
 2017-07-04 21:52:05  -223.78   100.00   34.04   -223.78   -251.76 
 2017-07-04 21:51:33  -223.78   100.00   34.04   -223.78   -251.76 
 2017-07-04 21:51:02  -223.78   100.00   34.04   -223.78   -251.76 
 2017-07-04 21:50:30  -223.78   100.00   34.04   -223.78   -251.76 
 2017-07-04 21:49:59  -223.78   100.00   34.04   -223.78   -251.76 
 2017-07-04 21:49:28  -223.78   100.00   34.04   -223.78   -251.76 
 2017-07-04 21:48:56  -223.78   100.00   34.04   -223.78   -251.76 
 2017-07-04 21:48:25  -223.78   100.00   34.04   -223.78   -251.76 
 2017-07-04 21:47:53  -223.78   100.00   34.04   -223.78   -251.76 
 2017-07-04 21:47:22  -223.78   100.00   34.04   -223.78   -251.76 
 2017-07-04 21:46:50  -223.78   100.00   34.04   -223.78   -251.76 
 2017-07-04 21:46:18  -223.78   100.00   34.04   -223.78   -251.76 
 2017-07-04 21:45:46  -223.78   100.00   34.04   -223.78   -251.76 
 2017-07-04 21:45:14  -223.78   100.00   34.04   -223.78   -251.76 
 2017-07-04 21:44:42  -223.78   100.00   34.04   -223.78   -251.76 
 2017-07-04 21:44:10  -223.78   100.00   34.04   -223.78   -251.76 
 2017-07-04 21:43:38  -223.78   100.00   34.04   -223.78   -251.76 
 2017-07-04 21:42:31  -223.78   100.00   34.04   -223.78   -251.76 
 2017-07-04 21:41:58  -223.78   100.00   34.04   -223.78   -251.76 
 2017-07-04 21:41:26  -223.78   100.00   34.04   -223.78   -251.76 
 2017-07-04 21:40:54  -223.78   100.00   34.04   -223.78   -251.76 
 2017-07-04 21:40:23  -223.78   100.00   34.04   -223.78   -251.76 
 2017-07-04 21:39:51  -223.78   100.00   34.04   -223.78   -251.76 
 2017-07-04 21:39:20  -223.78   100.00   34.04   -223.78   -251.76 
 2017-07-04 21:38:48  -223.78   100.00   34.04   -223.78   -251.76 
 2017-07-04 21:38:16  -223.78   100.00   34.04   -223.78   -251.76 
 2017-07-04 21:37:44  -223.78   100.00   34.04   -223.78   -251.76 
 2017-07-04 21:37:12  -223.78   100.00   34.04   -223.78   -251.76 
 2017-07-04 21:36:40  -223.78   100.00   34.04   -223.78   -251.76 
 2017-07-04 21:36:08  -223.78   100.00   34.04   -223.78   -251.76 
 2017-07-04 21:35:36  -223.78   100.00   34.04   -223.78   -251.76 
 2017-07-04 21:35:05  -223.78   100.00   34.04   -223.78   -251.76 
 2017-07-04 21:34:34  -223.78   100.00   34.04   -223.78   -251.76 
 2017-07-04 21:34:03  -223.78   100.00   34.04   -223.78   -251.76 
 2017-07-04 21:33:32  -223.78   100.00   34.04   -223.78   -251.76 
 2017-07-04 21:33:01  -223.78   100.00   34.04   -223.78   -251.76 
 2017-07-04 21:32:29  -223.78   100.00   34.04   -223.78   -251.76 
 2017-07-04 21:31:57  -223.78   100.00   34.04   -223.78   -251.76 
 2017-07-04 21:31:26  -223.78   100.00   34.04   -223.78   -251.76 
 2017-07-04 21:30:54  -223.78   100.00   34.04   -223.78   -251.76 
 2017-07-04 21:30:23  -223.78   100.00   34.04   -223.78   -251.76 
 2017-07-04 21:29:52  -223.78   100.00   34.04   -223.78   -251.76 
 2017-07-04 21:29:19  -223.78   100.00   34.04   -223.78   -251.76 
 2017-07-04 21:28:48  -223.78   100.00   34.04   -223.78   -251.76 
 2017-07-04 21:28:17  -223.78   100.00   34.04   -223.78   -251.76 
 2017-07-04 21:27:45  -223.78   100.00   34.04   -223.78   -251.76 
 2017-07-04 21:27:14  -223.78   100.00   34.04   -223.78   -251.76 
 2017-07-04 21:26:43  -223.78   100.00   34.04   -223.78   -251.76 
 2017-07-04 21:26:11  -223.78   100.00   34.04   -223.78   -251.76 
 2017-07-04 21:25:40  -223.78   100.00   34.04   -223.78   -251.76 
 2017-07-04 21:25:08  -223.78   100.00   34.04   -223.78   -251.76 
 2017-07-04 21:24:36  -223.78   100.00   34.04   -223.78   -251.76 
 2017-07-04 21:24:04  -223.78   100.00   34.04   -223.78   -251.76 
 2017-07-04 21:23:32  -223.78   100.00   34.04   -223.78   -251.76 
 2017-07-04 21:23:01  -223.78   100.00   34.04   -223.78   -251.76 
 2017-07-04 21:22:30  -223.78   100.00   34.04   -223.78   -251.76 
 2017-07-04 21:21:59  -223.78   100.00   34.04   -223.78   -251.76 
 2017-07-04 21:21:27  -223.78   100.00   34.04   -223.78   -251.76 
 2017-07-04 21:20:56  -223.78   100.00   34.04   -223.78   -251.76 
 2017-07-04 21:20:24  -223.78   100.00   34.04   -223.78   -251.76 
 2017-07-04 21:19:53  -223.78   100.00   34.04   -223.78   -251.76 
 2017-07-04 21:19:21  -223.78   100.00   34.04   -223.78   -251.76 
 2017-07-04 21:18:49  -223.78   100.00   34.04   -223.78   -251.76 
 2017-07-04 21:18:16  -223.78   100.00   34.04   -223.78   -251.76 
 2017-07-04 21:17:44  -223.78   100.00   34.04   -223.78   -251.76 
 2017-07-04 21:17:13  -223.78   100.00   34.04   -223.78   -251.76 
 2017-07-04 21:16:41  -223.78   100.00   34.04   -223.78   -251.76 
 2017-07-04 21:16:10  -223.78   100.00   34.04   -223.78   -251.76 
 2017-07-04 21:15:37  -223.78   100.00   34.04   -223.78   -251.76 
 2017-07-04 21:15:06  -223.78   100.00   34.04   -223.78   -251.76 
 2017-07-04 21:14:34  -223.78   100.00   34.04   -223.78   -251.76 
 2017-07-04 21:14:03  -223.78   100.00   34.04   -223.78   -251.76 
 2017-07-04 21:13:31  -223.78   100.00   34.04   -223.78   -251.76 
 2017-07-04 21:13:00  -223.78   100.00   34.04   -223.78   -251.76 
 2017-07-04 21:12:29  -223.78   100.00   34.04   -223.78   -251.76 
 2017-07-04 21:11:58  -223.78   100.00   34.04   -223.78   -251.76 
 2017-07-04 21:11:27  -223.78   100.00   34.04   -223.78   -251.76 
 2017-07-04 21:10:55  -223.78   100.00   34.04   -223.78   -251.76 
 2017-07-04 21:10:23  -223.78   100.00   34.04   -223.78   -251.76 
 2017-07-04 21:09:51  -223.78   100.00   34.04   -223.78   -251.76 
 2017-07-04 21:09:19  -223.78   100.00   34.04   -223.78   -251.76 
 2017-07-04 21:08:48  -223.78   100.00   34.04   -223.78   -251.76 
 2017-07-04 21:08:15  -223.78   100.00   34.04   -223.78   -251.76 
 2017-07-04 21:07:44  -223.78   100.00   34.04   -223.78   -251.76 
 2017-07-04 21:07:12  -223.78   100.00   34.04   -223.78   -251.76 
 2017-07-04 21:06:40  -223.78   100.00   34.04   -223.78   -251.76 
 2017-07-04 21:06:09  -223.78   100.00   34.04   -223.78   -251.76 
 2017-07-04 21:05:37  -223.78   100.00   34.04   -223.78   -251.76 
 2017-07-04 21:05:06  -223.78   100.00   34.04   -223.78   -251.76 
 2017-07-04 21:04:34  -223.78   100.00   34.04   -223.78   -251.76 
 2017-07-04 21:04:02  -223.78   100.00   34.04   -223.78   -251.76 
 2017-07-04 21:03:30  -223.78   100.00   34.04   -223.78   -251.76 
 2017-07-04 21:02:59  -223.78   100.00   34.04   -223.78   -251.76 
 2017-07-04 21:02:27  -223.78   100.00   34.04   -223.78   -251.76 
 2017-07-04 21:01:55  -223.78   100.00   34.04   -223.78   -251.76 
 2017-07-04 21:01:23  -223.78   100.00   34.04   -223.78   -251.76 
 2017-07-04 21:00:52  -223.78   100.00   34.04   -223.78   -251.76 
 2017-07-04 21:00:19  -223.78   100.00   34.04   -223.78   -251.76 
 2017-07-04 20:59:47  -223.78   100.00   34.04   -223.78   -251.76 
 2017-07-04 20:59:15  -223.78   100.00   34.04   -223.78   -251.76 
 2017-07-04 20:58:44  -223.78   100.00   34.04   -223.78   -251.76 
 2017-07-04 20:58:12  -223.78   100.00   34.04   -223.78   -251.76 
 2017-07-04 20:57:41  -223.78   100.00   34.04   -223.78   -251.76 
 2017-07-04 20:57:09  -223.78   100.00   34.04   -223.78   -251.76 
 2017-07-04 20:56:37  -223.78   100.00   34.04   -223.78   -251.76 
 2017-07-04 20:56:06  -223.78   100.00   34.04   -223.78   -251.76 
 2017-07-04 20:55:34  -223.78   100.00   34.04   -223.78   -251.76 
 2017-07-04 20:55:02  -223.78   100.00   34.04   -223.78   -251.76 
 2017-07-04 20:54:30  -223.78   100.00   34.04   -223.78   -251.76 
 2017-07-04 20:53:59  -223.78   100.00   34.04   -223.78   -251.76 
 2017-07-04 20:53:27  -223.78   100.00   34.04   -223.78   -251.76 
 2017-07-04 20:52:55  -223.78   100.00   34.04   -223.78   -251.76 
 2017-07-04 20:52:23  -223.78   100.00   34.04   -223.78   -251.76 
 2017-07-04 20:51:52  -223.78   100.00   34.04   -223.78   -251.76 
 2017-07-04 20:51:20  -223.78   100.00   34.04   -223.78   -251.76 
 2017-07-04 20:50:49  -223.78   100.00   34.04   -223.78   -251.76 
 2017-07-04 20:50:17  -223.78   100.00   34.04   -223.78   -251.76 
 2017-07-04 20:49:44  -223.78   100.00   34.04   -223.78   -251.76 
 2017-07-04 20:49:13  -223.78   100.00   34.04   -223.78   -251.76 
 2017-07-04 20:48:41  -223.78   100.00   34.04   -223.78   -251.76 
 2017-07-04 20:48:09  -223.78   100.00   34.04   -223.78   -251.76 
 2017-07-04 20:47:37  -223.78   100.00   34.04   -223.78   -251.76 
 2017-07-04 20:47:06  -223.78   100.00   34.04   -223.78   -251.76 
 2017-07-04 20:46:35  -223.78   100.00   34.04   -223.78   -251.76 
 2017-07-04 20:45:27  -223.78   100.00   34.04   -223.78   -251.76 
 2017-07-04 20:44:54  -223.78   100.00   34.04   -223.78   -251.76 
 2017-07-04 20:44:23  -223.78   100.00   34.04   -223.78   -251.76 
 2017-07-04 20:43:51  -223.78   100.00   34.04   -223.78   -251.76 
 2017-07-04 20:43:19  -223.78   100.00   34.04   -223.78   -251.76 
 2017-07-04 20:42:48  -223.78   100.00   34.04   -223.78   -251.76 
 2017-07-04 20:42:16  -223.78   100.00   34.04   -223.78   -251.76 
 2017-07-04 20:41:44  -223.78   100.00   34.04   -223.78   -251.76 
 2017-07-04 20:41:11  -223.78   100.00   34.04   -223.78   -251.76 
 2017-07-04 20:40:39  -223.78   100.00   34.04   -223.78   -251.76 
 2017-07-04 20:40:07  -223.78   100.00   34.04   -223.78   -251.76 
 2017-07-04 20:39:35  -223.78   100.00   34.04   -223.78   -251.76 
 2017-07-04 20:39:03  -223.78   100.00   34.04   -223.78   -251.76 
 2017-07-04 20:38:32  -223.78   100.00   34.04   -223.78   -251.76 
 2017-07-04 20:38:01  -223.78   100.00   34.04   -223.78   -251.76 
 2017-07-04 20:37:29  -223.78   100.00   34.04   -223.78   -251.76 
 2017-07-04 20:36:53  -223.78   100.00   34.04   -223.78   -251.76 
 2017-07-04 20:36:21  -223.78   100.00   34.04   -223.78   -251.76 
 2017-07-04 20:35:49  -223.78   100.00   34.04   -223.78   -251.76 
 2017-07-04 20:35:17  -223.78   100.00   34.04   -223.78   -251.76 
 2017-07-04 20:34:45  -223.78   100.00   34.04   -223.78   -251.76 
 2017-07-04 20:34:14  -223.78   100.00   34.04   -223.78   -251.76 
 2017-07-04 20:33:43  -223.78   100.00   34.04   -223.78   -251.76 
 2017-07-04 20:33:11  -223.78   100.00   34.04   -223.78   -251.76 
 2017-07-04 20:32:39  -223.78   100.00   34.04   -223.78   -251.76 
 2017-07-04 20:32:07  -223.78   100.00   34.04   -223.78   -251.76 
 2017-07-04 20:31:35  -223.78   100.00   34.04   -223.78   -251.76 
 2017-07-04 20:31:03  -223.78   100.00   34.04   -223.78   -251.76 
 2017-07-04 20:30:28  -223.78   100.00   34.04   -223.78   -251.76 
 2017-07-04 20:29:56  -223.78   100.00   34.04   -223.78   -251.76 
 2017-07-04 20:29:25  -223.78   100.00   34.04   -223.78   -251.76 
 2017-07-04 20:28:52  -223.78   100.00   34.04   -223.78   -251.76 
 2017-07-04 20:28:21  -223.78   100.00   34.04   -223.78   -251.76 
 2017-07-04 20:27:49  -223.78   100.00   34.04   -223.78   -251.76 
 2017-07-04 20:27:18  -223.78   100.00   34.04   -223.78   -251.76 
 2017-07-04 20:26:46  -223.78   100.00   34.04   -223.78   -251.76 
 2017-07-04 20:26:14  -223.78   100.00   34.04   -223.78   -251.76 
 2017-07-04 20:25:43  -223.78   100.00   34.04   -223.78   -251.76 
 2017-07-04 20:25:11  -223.78   100.00   34.04   -223.78   -251.76 
 2017-07-04 20:24:40  -223.78   100.00   34.04   -223.78   -251.76 
 2017-07-04 20:24:09  -223.78   100.00   34.04   -223.78   -251.76 
 2017-07-04 20:23:37  -223.78   100.00   34.04   -223.78   -251.76 
 2017-07-04 20:23:06  -223.78   100.00   34.04   -223.78   -251.76 
 2017-07-04 20:22:33  -223.78   100.00   34.04   -223.78   -251.76 
 2017-07-04 20:22:01  -223.78   100.00   34.04   -223.78   -251.76 
 2017-07-04 20:21:30  -223.78   100.00   34.04   -223.78   -251.76 
 2017-07-04 20:20:58  -223.78   100.00   34.04   -223.78   -251.76 
 2017-07-04 20:20:26  -223.78   100.00   34.04   -223.78   -251.76 
 2017-07-04 20:19:55  -223.78   100.00   34.04   -223.78   -251.76 
 2017-07-04 20:19:23  -223.78   100.00   34.04   -223.78   -251.76 
 2017-07-04 20:18:51  -223.78   100.00   34.04   -223.78   -251.76 
 2017-07-04 20:18:20  -223.78   100.00   34.04   -223.78   -251.76 
 2017-07-04 20:17:49  -223.78   100.00   34.04   -223.78   -251.76 
 2017-07-04 20:17:17  -223.78   100.00   34.04   -223.78   -251.76 
 2017-07-04 20:16:46  -223.78   100.00   34.04   -223.78   -251.76 
 2017-07-04 20:16:14  -223.78   100.00   34.04   -223.78   -251.76 
 2017-07-04 20:15:43  -223.78   100.00   34.04   -223.78   -251.76 
 2017-07-04 20:15:11  -223.78   100.00   34.04   -223.78   -251.76 
 2017-07-04 20:14:40  -223.78   100.00   34.04   -223.78   -251.76 
 2017-07-04 20:14:09  -223.78   100.00   34.04   -223.78   -251.76 
 2017-07-04 20:13:38  -223.78   100.00   34.04   -223.78   -251.76 
 2017-07-04 20:13:07  -223.78   100.00   34.04   -223.78   -251.76 
 2017-07-04 20:12:35  -223.78   100.00   34.04   -223.78   -251.76 
 2017-07-04 20:12:03  -223.78   100.00   34.04   -223.78   -251.76 
 2017-07-04 20:11:32  -223.78   100.00   34.04   -223.78   -251.76 
 2017-07-04 20:11:00  -223.78   100.00   34.04   -223.78   -251.76 
 2017-07-04 20:10:28  -223.78   100.00   34.04   -223.78   -251.76 
 2017-07-04 20:09:56  -223.78   100.00   34.04   -223.78   -251.76 
 2017-07-04 20:09:24  -223.78   100.00   34.04   -223.78   -251.76 
 2017-07-04 20:08:53  -223.78   100.00   34.04   -223.78   -251.76 
 2017-07-04 20:08:21  -223.78   100.00   34.04   -223.78   -251.76 
 2017-07-04 20:07:49  -223.78   100.00   34.04   -223.78   -251.76 
 2017-07-04 20:07:18  -223.78   100.00   34.04   -223.78   -251.76 
 2017-07-04 20:06:46  -223.78   100.00   34.04   -223.78   -251.76 
 2017-07-04 20:06:14  -223.78   100.00   34.04   -223.78   -251.76 
 2017-07-04 20:05:43  -223.78   100.00   34.04   -223.78   -251.76 
 2017-07-04 20:05:11  -223.78   100.00   34.04   -223.78   -251.76 
 2017-07-04 20:04:40  -223.78   100.00   34.04   -223.78   -251.76 
 2017-07-04 20:04:08  -223.78   100.00   34.04   -223.78   -251.76 
 2017-07-04 20:03:37  -223.78   100.00   34.04   -223.78   -251.76 
 2017-07-04 20:03:05  -223.78   100.00   34.04   -223.78   -251.76 
 2017-07-04 20:02:34  -223.78   100.00   34.04   -223.78   -251.76 
 2017-07-04 20:02:02  -223.78   100.00   34.04   -223.78   -251.76 
 2017-07-04 20:01:31  -223.78   100.00   34.04   -223.78   -251.76 
 2017-07-04 20:00:58  -223.78   100.00   34.04   -223.78   -251.76 
 2017-07-04 20:00:27  -223.78   100.00   34.04   -223.78   -251.76 
 2017-07-04 19:59:55  -223.78   100.00   34.04   -223.78   -251.76 
 2017-07-04 19:59:24  -223.78   100.00   34.04   -223.78   -251.76 
 2017-07-04 19:58:52  -223.78   100.00   34.04   -223.78   -251.76 
 2017-07-04 19:58:21  -223.78   100.00   34.04   -223.78   -251.76 
 2017-07-04 19:57:50  -223.78   100.00   34.04   -223.78   -251.76 
 2017-07-04 19:57:18  -223.78   100.00   34.04   -223.78   -251.76 
 2017-07-04 19:56:46  -223.78   100.00   34.04   -223.78   -251.76 
 2017-07-04 19:56:14  -223.78   100.00   34.04   -223.78   -251.76 
 2017-07-04 19:55:42  -223.78   100.00   34.04   -223.78   -251.76 
 2017-07-04 19:55:11  -223.78   100.00   34.04   -223.78   -251.76 
 2017-07-04 19:54:38  -223.78   100.00   34.04   -223.78   -251.76 
 2017-07-04 19:54:06  -223.78   100.00   34.04   -223.78   -251.76 
 2017-07-04 19:53:35  -223.78   100.00   34.04   -223.78   -251.76 
 2017-07-04 19:53:04  -223.78   100.00   34.04   -223.78   -251.76 
 2017-07-04 19:52:32  -223.78   100.00   34.04   -223.78   -251.76 
 2017-07-04 19:52:00  -223.78   100.00   34.04   -223.78   -251.76 
 2017-07-04 19:51:28  -223.78   100.00   34.04   -223.78   -251.76 
 2017-07-04 19:50:56  -223.78   100.00   34.04   -223.78   -251.76 
 2017-07-04 19:50:24  -223.78   100.00   34.04   -223.78   -251.76 
 2017-07-04 19:49:53  -223.78   100.00   34.04   -223.78   -251.76 
 2017-07-04 19:49:21  -223.78   100.00   34.04   -223.78   -251.76 
 2017-07-04 19:48:49  -223.78   100.00   34.04   -223.78   -251.76 
 2017-07-04 19:48:17  -223.78   100.00   34.04   -223.78   -251.76 
 2017-07-04 19:47:45  -223.78   100.00   34.04   -223.78   -251.76 
 2017-07-04 19:47:14  -223.78   100.00   34.04   -223.78   -251.76 
 2017-07-04 19:46:42  -223.78   100.00   34.04   -223.78   -251.76 
 2017-07-04 19:46:10  -223.78   100.00   34.04   -223.78   -251.76 
 2017-07-04 19:45:39  -223.78   100.00   34.04   -223.78   -251.76 
 2017-07-04 19:45:06  -223.78   100.00   34.04   -223.78   -251.76 
 2017-07-04 19:44:35  -223.78   100.00   34.04   -223.78   -251.76 
 2017-07-04 19:44:04  -223.78   100.00   34.04   -223.78   -251.76 
 2017-07-04 19:43:32  -223.78   100.00   34.04   -223.78   -251.76 
 2017-07-04 19:43:01  -223.78   100.00   34.04   -223.78   -251.76 
 2017-07-04 19:42:28  -223.78   100.00   34.04   -223.78   -251.76 
 2017-07-04 19:41:57  -223.78   100.00   34.04   -223.78   -251.76 
 2017-07-04 19:41:25  -223.78   100.00   34.04   -223.78   -251.76 
 2017-07-04 19:40:53  -223.78   100.00   34.04   -223.78   -251.76 
 2017-07-04 19:40:21  -223.78   100.00   34.04   -223.78   -251.76 
 2017-07-04 19:39:50  -223.78   100.00   34.04   -223.78   -251.76 
 2017-07-04 19:39:18  -223.78   100.00   34.04   -223.78   -251.76 
 2017-07-04 19:38:47  -223.78   100.00   34.04   -223.78   -251.76 
 2017-07-04 19:38:15  -223.78   100.00   34.04   -223.78   -251.76 
 2017-07-04 19:37:44  -223.78   100.00   34.04   -223.78   -251.76 
 2017-07-04 19:37:12  -223.78   100.00   34.04   -223.78   -251.76 
 2017-07-04 19:36:41  -223.78   100.00   34.04   -223.78   -251.76 
 2017-07-04 19:36:09  -223.78   100.00   34.04   -223.78   -251.76 
 2017-07-04 19:35:38  -223.78   100.00   34.04   -223.78   -251.76 
 2017-07-04 19:35:05  -223.78   100.00   34.04   -223.78   -251.76 
 2017-07-04 19:34:33  -223.78   100.00   34.04   -223.78   -251.76 
 2017-07-04 19:34:02  -223.78   100.00   34.04   -223.78   -251.76 
 2017-07-04 19:33:30  -223.78   100.00   34.04   -223.78   -251.76 
 2017-07-04 19:32:58  -223.78   100.00   34.04   -223.78   -251.76 
 2017-07-04 19:32:26  -223.78   100.00   34.04   -223.78   -251.76 
 2017-07-04 19:31:54  -223.78   100.00   34.04   -223.78   -251.76 
 2017-07-04 19:31:23  -223.78   100.00   34.04   -223.78   -251.76 
 2017-07-04 19:30:51  -223.78   100.00   34.04   -223.78   -251.76 
 2017-07-04 19:30:19  -223.78   100.00   34.04   -223.78   -251.76 
 2017-07-04 19:29:45  -223.78   100.00   34.04   -223.78   -251.76 
 2017-07-04 19:29:14  -223.78   100.00   34.04   -223.78   -251.76 
 2017-07-04 19:28:42  -223.78   100.00   34.04   -223.78   -251.76 
 2017-07-04 19:28:11  -223.78   100.00   34.04   -223.78   -251.76 
 2017-07-04 19:27:39  -223.78   100.00   34.04   -223.78   -251.76 
 2017-07-04 19:27:07  -223.78   100.00   34.04   -223.78   -251.76 
 2017-07-04 19:26:35  -223.78   100.00   34.04   -223.78   -251.76 
 2017-07-04 19:26:03  -223.78   100.00   34.04   -223.78   -251.76 
 2017-07-04 19:25:31  -223.78   100.00   34.04   -223.78   -251.76 
 2017-07-04 19:24:59  -223.78   100.00   34.04   -223.78   -251.76 
 2017-07-04 19:24:28  -223.78   100.00   34.04   -223.78   -251.76 
 2017-07-04 19:23:56  -223.78   100.00   34.04   -223.78   -251.76 
 2017-07-04 19:23:23  -223.78   100.00   34.04   -223.78   -251.76 
 2017-07-04 19:22:52  -223.78   100.00   34.04   -223.78   -251.76 
 2017-07-04 19:22:21  -223.78   100.00   34.04   -223.78   -251.76 
 2017-07-04 19:21:49  -223.78   100.00   34.04   -223.78   -251.76 
 2017-07-04 19:21:18  -223.78   100.00   34.04   -223.78   -251.76 
 2017-07-04 19:20:47  -223.78   100.00   34.04   -223.78   -251.76 
 2017-07-04 19:20:15  -223.78   100.00   34.04   -223.78   -251.76 
 2017-07-04 19:19:43  -223.78   100.00   34.04   -223.78   -251.76 
 2017-07-04 19:19:12  -223.78   100.00   34.04   -223.78   -251.76 
 2017-07-04 19:18:41  -223.78   100.00   34.04   -223.78   -251.76 
 2017-07-04 19:18:09  -223.78   100.00   34.04   -223.78   -251.76 
 2017-07-04 19:17:38  -223.78   100.00   34.04   -223.78   -251.76 
 2017-07-04 19:17:05  -223.78   100.00   34.04   -223.78   -251.76 
 2017-07-04 19:16:34  -223.78   100.00   34.04   -223.78   -251.76 
 2017-07-04 19:16:03  -223.78   100.00   34.04   -223.78   -251.76 
 2017-07-04 19:15:31  -223.78   100.00   34.04   -223.78   -251.76 
 2017-07-04 19:14:59  -223.78   100.00   34.04   -223.78   -251.76 
 2017-07-04 19:14:28  -223.78   100.00   34.04   -223.78   -251.76 
 2017-07-04 19:13:56  -223.78   100.00   34.04   -223.78   -251.76 
 2017-07-04 19:13:25  -223.78   100.00   34.04   -223.78   -251.76 
 2017-07-04 19:12:49  -223.78   100.00   34.04   -223.78   -251.76 
 2017-07-04 19:12:18  -223.78   100.00   34.04   -223.78   -251.76 
 2017-07-04 19:11:47  -223.78   100.00   34.04   -223.78   -251.76 
 2017-07-04 19:11:15  -223.78   100.00   34.04   -223.78   -251.76 
 2017-07-04 19:10:42  -223.78   100.00   34.04   -223.78   -251.76 
 2017-07-04 19:10:10  -223.78   100.00   34.04   -223.78   -251.76 
 2017-07-04 19:09:39  -223.78   100.00   34.04   -223.78   -251.76 
 2017-07-04 19:09:06  -223.78   100.00   34.04   -223.78   -251.76 
 2017-07-04 19:08:35  -223.78   100.00   34.04   -223.78   -251.76 
 2017-07-04 19:08:04  -223.78   100.00   34.04   -223.78   -251.76 
 2017-07-04 19:07:32  -223.78   100.00   34.04   -223.78   -251.76 
 2017-07-04 19:07:00  -223.78   100.00   34.04   -223.78   -251.76 
 2017-07-04 19:06:29  -223.78   100.00   34.04   -223.78   -251.76 
 2017-07-04 19:05:57  -223.78   100.00   34.04   -223.78   -251.76 
 2017-07-04 19:05:26  -223.78   100.00   34.04   -223.78   -251.76 
 2017-07-04 19:04:55  -223.78   100.00   34.04   -223.78   -251.76 
 2017-07-04 19:04:23  -223.78   100.00   34.04   -223.78   -251.76 
 2017-07-04 19:03:50  -223.78   100.00   34.04   -223.78   -251.76 
 2017-07-04 19:03:19  -223.78   100.00   34.04   -223.78   -251.76 
 2017-07-04 19:02:47  -223.78   100.00   34.04   -223.78   -251.76 
 2017-07-04 19:02:15  -223.78   100.00   34.04   -223.78   -251.76 
 2017-07-04 19:01:43  -223.78   100.00   34.04   -223.78   -251.76 
 2017-07-04 19:01:11  -223.78   100.00   34.04   -223.78   -251.76 
 2017-07-04 19:00:39  -223.78   100.00   34.04   -223.78   -251.76 
 2017-07-04 19:00:07  -223.78   100.00   34.04   -223.78   -251.76 
 2017-07-04 18:59:36  -223.78   100.00   34.04   -223.78   -251.76 
 2017-07-04 18:59:04  -223.78   100.00   34.04   -223.78   -251.76 
 2017-07-04 18:58:33  -223.78   100.00   34.04   -223.78   -251.76 
 2017-07-04 18:58:02  -223.78   100.00   34.04   -223.78   -251.76 
 2017-07-04 18:57:30  -223.78   100.00   34.04   -223.78   -251.76 
 2017-07-04 18:56:58  -223.78   100.00   34.04   -223.78   -251.76 
 2017-07-04 18:56:24  -223.78   100.00   34.04   -223.78   -251.76 
 2017-07-04 18:55:52  -223.78   100.00   34.04   -223.78   -251.76 
 2017-07-04 18:55:21  -223.78   100.00   34.04   -223.78   -251.76 
 2017-07-04 18:54:49  -223.78   100.00   34.04   -223.78   -251.76 
 2017-07-04 18:54:18  -223.78   100.00   34.04   -223.78   -251.76 
 2017-07-04 18:53:47  -223.78   100.00   34.04   -223.78   -251.76 
 2017-07-04 18:53:15  -223.78   100.00   34.04   -223.78   -251.76 
 2017-07-04 18:52:43  -223.78   100.00   34.04   -223.78   -251.76 
 2017-07-04 18:52:11  -223.78   100.00   34.04   -223.78   -251.76 
 2017-07-04 18:51:39  -223.78   100.00   34.04   -223.78   -251.76 
 2017-07-04 18:51:08  -223.78   100.00   34.04   -223.78   -251.76 
 2017-07-04 18:50:36  -223.78   100.00   34.04   -223.78   -251.76 
 2017-07-04 18:50:05  -223.78   100.00   34.04   -223.78   -251.76 
 2017-07-04 18:49:34  -223.78   100.00   34.04   -223.78   -251.76 
 2017-07-04 18:49:02  -223.78   100.00   34.04   -223.78   -251.76 
 2017-07-04 18:48:31  -223.78   100.00   34.04   -223.78   -251.76 
 2017-07-04 18:48:00  -223.78   100.00   34.04   -223.78   -251.76 
 2017-07-04 18:47:29  -223.78   100.00   34.04   -223.78   -251.76 
 2017-07-04 18:46:57  -223.78   100.00   34.04   -223.78   -251.76 
 2017-07-04 18:46:26  -223.78   100.00   34.04   -223.78   -251.76 
 2017-07-04 18:45:55  -223.78   100.00   34.04   -223.78   -251.76 
 2017-07-04 18:45:23  -223.78   100.00   34.04   -223.78   -251.76 
 2017-07-04 18:44:52  -223.78   100.00   34.04   -223.78   -251.76 
 2017-07-04 18:44:20  -223.78   100.00   34.04   -223.78   -251.76 
 2017-07-04 18:43:48  -223.78   100.00   34.04   -223.78   -251.76 
 2017-07-04 18:43:17  -223.78   100.00   34.04   -223.78   -251.76 
 2017-07-04 18:42:45  -223.78   100.00   34.04   -223.78   -251.76 
 2017-07-04 18:42:13  -223.78   100.00   34.04   -223.78   -251.76 
 2017-07-04 18:41:42  -223.78   100.00   34.04   -223.78   -251.76 
 2017-07-04 18:41:11  -223.78   100.00   34.04   -223.78   -251.76 
 2017-07-04 18:40:39  -223.78   100.00   34.04   -223.78   -251.76 
 2017-07-04 18:40:06  -223.78   100.00   34.04   -223.78   -251.76 
 2017-07-04 18:39:34  -223.78   100.00   34.04   -223.78   -251.76 
 2017-07-04 18:39:03  -223.78   100.00   34.04   -223.78   -251.76 
 2017-07-04 18:38:32  -223.78   100.00   34.04   -223.78   -251.76 
 2017-07-04 18:38:00  -223.78   100.00   34.04   -223.78   -251.76 
 2017-07-04 18:37:29  -223.78   100.00   34.04   -223.78   -251.76 
 2017-07-04 18:36:57  -223.78   100.00   34.04   -223.78   -251.76 
 2017-07-04 18:36:26  -223.78   100.00   34.04   -223.78   -251.76 
 2017-07-04 18:35:55  -223.78   100.00   34.04   -223.78   -251.76 
 2017-07-04 18:35:24  -223.78   100.00   34.04   -223.78   -251.76 
 2017-07-04 18:34:52  -223.78   100.00   34.04   -223.78   -251.76 
 2017-07-04 18:34:19  -223.78   100.00   34.04   -223.78   -251.76 
 2017-07-04 18:33:48  -223.78   100.00   34.04   -223.78   -251.76 
 2017-07-04 18:33:16  -223.78   100.00   34.04   -223.78   -251.76 
 2017-07-04 18:32:44  -223.78   100.00   34.04   -223.78   -251.76 
 2017-07-04 18:32:12  -223.78   100.00   34.04   -223.78   -251.76 
 2017-07-04 18:31:40  -223.78   100.00   34.04   -223.78   -251.76 
 2017-07-04 18:31:09  -223.78   100.00   34.04   -223.78   -251.76 
 2017-07-04 18:30:37  -223.78   100.00   34.04   -223.78   -251.76 
 2017-07-04 18:30:05  -223.78   100.00   34.04   -223.78   -251.76 
 2017-07-04 18:29:33  -223.78   100.00   34.04   -223.78   -251.76 
 2017-07-04 18:29:01  -223.78   100.00   34.04   -223.78   -251.76 
 2017-07-04 18:28:30  -223.78   100.00   34.04   -223.78   -251.76 
 2017-07-04 18:27:58  -223.78   100.00   34.04   -223.78   -251.76 
 2017-07-04 18:27:26  -223.78   100.00   34.04   -223.78   -251.76 
 2017-07-04 18:26:55  -223.78   100.00   34.04   -223.78   -251.76 
 2017-07-04 18:26:23  -223.78   100.00   34.04   -223.78   -251.76 
 2017-07-04 18:25:51  -223.78   100.00   34.04   -223.78   -251.76 
 2017-07-04 18:25:20  -223.78   100.00   34.04   -223.78   -251.76 
 2017-07-04 18:24:48  -223.78   100.00   34.04   -223.78   -251.76 
 2017-07-04 18:24:16  -223.78   100.00   34.04   -223.78   -251.76 
 2017-07-04 18:23:45  -223.78   100.00   34.04   -223.78   -251.76 
 2017-07-04 18:23:13  -223.78   100.00   34.04   -223.78   -251.76 
 2017-07-04 18:22:42  -223.78   100.00   34.04   -223.78   -251.76 
 2017-07-04 18:22:10  -223.78   100.00   34.04   -223.78   -251.76 
 2017-07-04 18:21:39  -223.78   100.00   34.04   -223.78   -251.76 
 2017-07-04 18:21:07  -223.78   100.00   34.04   -223.78   -251.76 
 2017-07-04 18:20:35  -223.78   100.00   34.04   -223.78   -251.76 
 2017-07-04 18:20:03  -223.78   100.00   34.04   -223.78   -251.76 
 2017-07-04 18:19:32  -223.78   100.00   34.04   -223.78   -251.76 
 2017-07-04 18:19:01  -223.78   100.00   34.04   -223.78   -251.76 
 2017-07-04 18:18:30  -223.78   100.00   34.04   -223.78   -251.76 
 2017-07-04 18:17:58  -223.78   100.00   34.04   -223.78   -251.76 
 2017-07-04 18:17:27  -223.78   100.00   34.04   -223.78   -251.76 
 2017-07-04 18:16:56  -223.78   100.00   34.04   -223.78   -251.76 
 2017-07-04 18:16:25  -223.78   100.00   34.04   -223.78   -251.76 
 2017-07-04 18:15:52  -223.78   100.00   34.04   -223.78   -251.76 
 2017-07-04 18:15:20  -223.78   100.00   34.04   -223.78   -251.76 
 2017-07-04 18:14:47  -223.78   100.00   34.04   -223.78   -251.76 
 2017-07-04 18:14:16  -223.78   100.00   34.04   -223.78   -251.76 
 2017-07-04 18:13:44  -223.78   100.00   34.04   -223.78   -251.76 
 2017-07-04 18:13:13  -223.78   100.00   34.04   -223.78   -251.76 
 2017-07-04 18:12:42  -223.78   100.00   34.04   -223.78   -251.76 
 2017-07-04 18:12:10  -223.78   100.00   34.04   -223.78   -251.76 
 2017-07-04 18:11:37  -223.78   100.00   34.04   -223.78   -251.76 
 2017-07-04 18:11:05  -223.78   100.00   34.04   -223.78   -251.76 
 2017-07-04 18:10:34  -223.78   100.00   34.04   -223.78   -251.76 
 2017-07-04 18:10:03  -223.78   100.00   34.04   -223.78   -251.76 
 2017-07-04 18:09:32  -223.78   100.00   34.04   -223.78   -251.76 
 2017-07-04 18:09:00  -223.78   100.00   34.04   -223.78   -251.76 
 2017-07-04 18:08:29  -223.78   100.00   34.04   -223.78   -251.76 
 2017-07-04 18:07:57  -223.78   100.00   34.04   -223.78   -251.76 
 2017-07-04 18:07:26  -223.78   100.00   34.04   -223.78   -251.76 
 2017-07-04 18:06:54  -223.78   100.00   34.04   -223.78   -251.76 
 2017-07-04 18:06:22  -223.78   100.00   34.04   -223.78   -251.76 
 2017-07-04 18:05:50  -223.78   100.00   34.04   -223.78   -251.76 
 2017-07-04 18:05:18  -223.78   100.00   34.04   -223.78   -251.76 
 2017-07-04 18:04:46  -223.78   100.00   34.04   -223.78   -251.76 
 2017-07-04 18:04:14  -223.78   100.00   34.04   -223.78   -251.76 
 2017-07-04 18:03:43  -223.78   100.00   34.04   -223.78   -251.76 
 2017-07-04 18:03:11  -223.78   100.00   34.04   -223.78   -251.76 
 2017-07-04 18:02:39  -223.78   100.00   34.04   -223.78   -251.76 
 2017-07-04 18:02:08  -223.78   100.00   34.04   -223.78   -251.76 
 2017-07-04 18:01:36  -223.78   100.00   34.04   -223.78   -251.76 
 2017-07-04 18:01:04  -223.78   100.00   34.04   -223.78   -251.76 
 2017-07-04 18:00:32  -223.78   100.00   34.04   -223.78   -251.76 
 2017-07-04 18:00:00  -223.78   100.00   34.04   -223.78   -251.76 
 2017-07-04 17:59:29  -223.78   100.00   34.04   -223.78   -251.76 
 2017-07-04 17:58:57  -223.78   100.00   34.04   -223.78   -251.76 
 2017-07-04 17:58:26  -223.78   100.00   34.04   -223.78   -251.76 
 2017-07-04 17:57:54  -223.78   100.00   34.04   -223.78   -251.76 
 2017-07-04 17:57:23  -223.78   100.00   34.04   -223.78   -251.76 
 2017-07-04 17:56:51  -223.78   100.00   34.04   -223.78   -251.76 
 2017-07-04 17:56:20  -223.78   100.00   34.04   -223.78   -251.76 
 2017-07-04 17:55:48  -223.78   100.00   34.04   -223.78   -251.76 
 2017-07-04 17:55:17  -223.78   100.00   34.04   -223.78   -251.76 
 2017-07-04 17:54:46  -223.78   100.00   34.04   -223.78   -251.76 
 2017-07-04 17:54:15  -223.78   100.00   34.04   -223.78   -251.76 
 2017-07-04 17:53:43  -223.78   100.00   34.04   -223.78   -251.76 
 2017-07-04 17:53:11  -223.78   100.00   34.04   -223.78   -251.76 
 2017-07-04 17:52:40  -223.78   100.00   34.04   -223.78   -251.76 
 2017-07-04 17:52:09  -223.78   100.00   34.04   -223.78   -251.76 
 2017-07-04 17:51:37  -223.78   100.00   34.04   -223.78   -251.76 
 2017-07-04 17:51:05  -223.78   100.00   34.04   -223.78   -251.76 
 2017-07-04 17:50:34  -223.78   100.00   34.04   -223.78   -251.76 
 2017-07-04 17:50:02  -223.78   100.00   34.04   -223.78   -251.76 
 2017-07-04 17:49:31  -223.78   100.00   34.04   -223.78   -251.76 
 2017-07-04 17:48:59  -223.78   100.00   34.04   -223.78   -251.76 
 2017-07-04 17:48:28  -223.78   100.00   34.04   -223.78   -251.76 
 2017-07-04 17:47:57  -223.78   100.00   34.04   -223.78   -251.76 
 2017-07-04 17:47:25  -223.78   100.00   34.04   -223.78   -251.76 
 2017-07-04 17:46:54  -223.78   100.00   34.04   -223.78   -251.76 
 2017-07-04 17:46:22  -223.78   100.00   34.04   -223.78   -251.76 
 2017-07-04 17:45:51  -223.78   100.00   34.04   -223.78   -251.76 
 2017-07-04 17:45:19  -223.78   100.00   34.04   -223.78   -251.76 
 2017-07-04 17:44:47  -223.78   100.00   34.04   -223.78   -251.76 
 2017-07-04 17:44:15  -223.78   100.00   34.04   -223.78   -251.76 
 2017-07-04 17:43:44  -223.78   100.00   34.04   -223.78   -251.76 
 2017-07-04 17:43:13  -223.78   100.00   34.04   -223.78   -251.76 
 2017-07-04 17:42:41  -223.78   100.00   34.04   -223.78   -251.76 
 2017-07-04 17:42:09  -223.78   100.00   34.04   -223.78   -251.76 
 2017-07-04 17:41:38  -223.78   100.00   34.04   -223.78   -251.76 
 2017-07-04 17:41:06  -223.78   100.00   34.04   -223.78   -251.76 
 2017-07-04 17:40:34  -223.78   100.00   34.04   -223.78   -251.76 
 2017-07-04 17:40:02  -223.78   100.00   34.04   -223.78   -251.76 
 2017-07-04 17:39:29  -223.78   100.00   34.04   -223.78   -251.76 
 2017-07-04 17:38:58  -223.78   100.00   34.04   -223.78   -251.76 
 2017-07-04 17:38:26  -223.78   100.00   34.04   -223.78   -251.76 
 2017-07-04 17:37:54  -223.78   100.00   34.04   -223.78   -251.76 
 2017-07-04 17:37:22  -223.78   100.00   34.04   -223.78   -251.76 
 2017-07-04 17:36:50  -223.78   100.00   34.04   -223.78   -251.76 
 2017-07-04 17:36:18  -223.78   100.00   34.04   -223.78   -251.76 
 2017-07-04 17:35:47  -223.78   100.00   34.04   -223.78   -251.76 
 2017-07-04 17:35:15  -223.78   100.00   34.04   -223.78   -251.76 
 2017-07-04 17:34:43  -223.78   100.00   34.04   -223.78   -251.76 
 2017-07-04